Wetterdaten: Samstag, 07.04.2018
Datum Zeit Temp. A. Pool Temp. Feuchte A. Luftdruck Regen Wind Richtung Richtung Sonnenschein ET UV Solar Taupunkt Windchill Windben Empfang
07.04.2018 00:00 7,0 C 8,3 C 71 % 1019,4 hPa 0,0 l/m 14,9 km/h (3 Bft) O-NO 61 0 min 0,000 mm 0,0 UV-I 0 W/m 2,1 C 1,5 C 17,7 km/h (3 Bft) 100,00 %
07.04.2018 00:02 7,0 C 8,3 C 71 % 1019,3 hPa 0,0 l/m 16,8 km/h (3 Bft) NO 55 0 min 0,000 mm 0,0 UV-I 0 W/m 2,1 C 0,7 C 22,5 km/h (4 Bft) 12,50 %
07.04.2018 00:03 7,0 C 8,3 C 71 % 1019,3 hPa 0,0 l/m 16,3 km/h (3 Bft) O-NO 57 0 min 0,000 mm 0,0 UV-I 0 W/m 2,1 C 0,9 C 25,7 km/h (4 Bft) 9,09 %
07.04.2018 00:04 7,0 C 8,3 C 71 % 1019,2 hPa 0,0 l/m 15,9 km/h (3 Bft) O 86 0 min 0,000 mm 0,0 UV-I 0 W/m 2,1 C 1,1 C 24,1 km/h (4 Bft) 100,00 %
07.04.2018 00:05 7,0 C 8,3 C 71 % 1019,3 hPa 0,0 l/m 19,2 km/h (3 Bft) O-NO 66 0 min 0,000 mm 0,0 UV-I 0 W/m 2,1 C -0,3 C 22,5 km/h (4 Bft) 100,00 %
07.04.2018 00:06 7,0 C 8,9 C 71 % 1019,3 hPa 0,0 l/m 17,3 km/h (3 Bft) O-NO 78 0 min 0,000 mm 0,0 UV-I 0 W/m 2,1 C 0,5 C 19,3 km/h (3 Bft) 100,00 %
07.04.2018 00:07 6,9 C 8,9 C 71 % 1019,3 hPa 0,0 l/m 16,3 km/h (3 Bft) O-NO 69 0 min 0,000 mm 0,0 UV-I 0 W/m 2,0 C 0,8 C 20,9 km/h (4 Bft) 100,00 %
07.04.2018 00:08 6,9 C 8,9 C 71 % 1019,2 hPa 0,0 l/m 14,4 km/h (3 Bft) O 87 0 min 0,000 mm 0,0 UV-I 0 W/m 2,0 C 1,7 C 20,9 km/h (4 Bft) 100,00 %
07.04.2018 00:09 6,8 C 8,3 C 71 % 1019,2 hPa 0,0 l/m 15,1 km/h (3 Bft) O-NO 76 0 min 0,000 mm 0,0 UV-I 0 W/m 1,9 C 1,2 C 19,3 km/h (3 Bft) 100,00 %
07.04.2018 00:10 6,8 C 8,9 C 72 % 1019,2 hPa 0,0 l/m 13,7 km/h (3 Bft) O-NO 78 0 min 0,000 mm 0,0 UV-I 0 W/m 2,1 C 1,9 C 17,7 km/h (3 Bft) 100,00 %
07.04.2018 00:12 6,8 C 8,9 C 72 % 1019,3 hPa 0,0 l/m 16,1 km/h (3 Bft) O-NO 71 0 min 0,000 mm 0,0 UV-I 0 W/m 2,1 C 0,7 C 17,7 km/h (3 Bft) 100,00 %
07.04.2018 00:13 6,8 C 8,9 C 72 % 1019,2 hPa 0,0 l/m 15,1 km/h (3 Bft) O-NO 67 0 min 0,000 mm 0,0 UV-I 0 W/m 2,1 C 1,2 C 20,9 km/h (4 Bft) 100,00 %
07.04.2018 00:14 6,8 C 8,3 C 71 % 1019,2 hPa 0,0 l/m 15,2 km/h (3 Bft) O 100 0 min 0,000 mm 0,0 UV-I 0 W/m 1,9 C 1,2 C 22,5 km/h (4 Bft) 100,00 %
07.04.2018 00:15 6,8 C 8,9 C 72 % 1019,2 hPa 0,0 l/m 16,6 km/h (3 Bft) O-NO 67 0 min 0,000 mm 0,0 UV-I 0 W/m 2,1 C 0,5 C 19,3 km/h (3 Bft) 100,00 %
07.04.2018 00:16 6,8 C 8,9 C 72 % 1019,2 hPa 0,0 l/m 11,2 km/h (2 Bft) O 82 0 min 0,000 mm 0,0 UV-I 0 W/m 2,1 C 3,3 C 17,7 km/h (3 Bft) 100,00 %
07.04.2018 00:17 6,8 C 8,3 C 72 % 1019,2 hPa 0,0 l/m 16,3 km/h (3 Bft) O 86 0 min 0,000 mm 0,0 UV-I 0 W/m 2,1 C 0,7 C 19,3 km/h (3 Bft) 100,00 %
07.04.2018 00:18 6,7 C 8,9 C 72 % 1019,2 hPa 0,0 l/m 15,8 km/h (3 Bft) O-NO 71 0 min 0,000 mm 0,0 UV-I 0 W/m 2,0 C 0,8 C 19,3 km/h (3 Bft) 100,00 %
07.04.2018 00:19 6,7 C 8,3 C 72 % 1019,2 hPa 0,0 l/m 17,0 km/h (3 Bft) NO 53 0 min 0,000 mm 0,0 UV-I 0 W/m 2,0 C 0,2 C 22,5 km/h (4 Bft) 100,00 %
07.04.2018 00:20 6,8 C 8,9 C 72 % 1019,2 hPa 0,0 l/m 15,7 km/h (3 Bft) O-NO 67 0 min 0,000 mm 0,0 UV-I 0 W/m 2,1 C 0,9 C 20,9 km/h (4 Bft) 100,00 %
07.04.2018 00:21 6,8 C 8,9 C 71 % 1019,2 hPa 0,0 l/m 16,7 km/h (3 Bft) O-NO 72 0 min 0,000 mm 0,0 UV-I 0 W/m 1,9 C 0,5 C 20,9 km/h (4 Bft) 100,00 %
07.04.2018 00:22 6,8 C 8,9 C 71 % 1019,2 hPa 0,0 l/m 17,2 km/h (3 Bft) O-NO 78 0 min 0,000 mm 0,0 UV-I 0 W/m 1,9 C 0,3 C 19,3 km/h (3 Bft) 95,46 %
07.04.2018 00:23 6,8 C 8,9 C 71 % 1019,2 hPa 0,0 l/m 14,3 km/h (3 Bft) O-NO 62 0 min 0,000 mm 0,0 UV-I 0 W/m 1,9 C 1,6 C 17,7 km/h (3 Bft) 100,00 %
07.04.2018 00:25 6,7 C 8,3 C 72 % 1019,2 hPa 0,0 l/m 14,5 km/h (3 Bft) O-NO 67 0 min 0,000 mm 0,0 UV-I 0 W/m 2,0 C 1,4 C 20,9 km/h (4 Bft) 96,49 %
07.04.2018 00:28 6,7 C 8,9 C 71 % 1019,2 hPa 0,0 l/m 16,2 km/h (3 Bft) O-NO 76 0 min 0,000 mm 0,0 UV-I 0 W/m 1,8 C 0,6 C 19,3 km/h (3 Bft) 99,12 %
07.04.2018 00:29 6,7 C 8,9 C 71 % 1019,2 hPa 0,0 l/m 16,1 km/h (3 Bft) O-NO 71 0 min 0,000 mm 0,0 UV-I 0 W/m 1,8 C 0,6 C 19,3 km/h (3 Bft) 100,00 %
07.04.2018 00:30 6,7 C 8,3 C 72 % 1019,1 hPa 0,0 l/m 16,8 km/h (3 Bft) O 81 0 min 0,000 mm 0,0 UV-I 0 W/m 2,0 C 0,3 C 20,9 km/h (4 Bft) 95,83 %
07.04.2018 00:31 6,7 C 8,9 C 72 % 1019,2 hPa 0,0 l/m 17,1 km/h (3 Bft) O 84 0 min 0,000 mm 0,0 UV-I 0 W/m 2,0 C 0,2 C 19,3 km/h (3 Bft) 100,00 %
07.04.2018 00:32 6,7 C 8,9 C 71 % 1019,1 hPa 0,0 l/m 17,3 km/h (3 Bft) O-NO 65 0 min 0,000 mm 0,0 UV-I 0 W/m 1,8 C 0,1 C 22,5 km/h (4 Bft) 100,00 %
07.04.2018 00:33 6,8 C 8,9 C 71 % 1019,1 hPa 0,0 l/m 18,0 km/h (3 Bft) O-NO 76 0 min 0,000 mm 0,0 UV-I 0 W/m 1,9 C -0,1 C 22,5 km/h (4 Bft) 95,65 %
07.04.2018 00:36 6,7 C 8,3 C 71 % 1019,1 hPa 0,0 l/m 15,2 km/h (3 Bft) O-NO 67 0 min 0,000 mm 0,0 UV-I 0 W/m 1,8 C 1,0 C 19,3 km/h (3 Bft) 95,83 %
07.04.2018 00:37 6,7 C 8,9 C 71 % 1019,1 hPa 0,0 l/m 15,7 km/h (3 Bft) O 85 0 min 0,000 mm 0,0 UV-I 0 W/m 1,8 C 0,8 C 19,3 km/h (3 Bft) 100,00 %
07.04.2018 00:38 6,7 C 8,9 C 71 % 1019,1 hPa 0,0 l/m 17,5 km/h (3 Bft) O-NO 67 0 min 0,000 mm 0,0 UV-I 0 W/m 1,8 C 0,0 C 19,3 km/h (3 Bft) 100,00 %
07.04.2018 00:39 6,7 C 8,9 C 71 % 1019,1 hPa 0,0 l/m 14,6 km/h (3 Bft) O-NO 73 0 min 0,000 mm 0,0 UV-I 0 W/m 1,8 C 1,3 C 17,7 km/h (3 Bft) 100,00 %
07.04.2018 00:40 6,7 C 8,9 C 72 % 1019,1 hPa 0,0 l/m 16,7 km/h (3 Bft) O-NO 66 0 min 0,000 mm 0,0 UV-I 0 W/m 2,0 C 0,4 C 19,3 km/h (3 Bft) 100,00 %
07.04.2018 00:41 6,7 C 8,9 C 72 % 1019,0 hPa 0,0 l/m 16,5 km/h (3 Bft) O-NO 64 0 min 0,000 mm 0,0 UV-I 0 W/m 2,0 C 0,4 C 20,9 km/h (4 Bft) 100,00 %
07.04.2018 00:42 6,7 C 8,9 C 71 % 1019,0 hPa 0,0 l/m 15,4 km/h (3 Bft) O-NO 78 0 min 0,000 mm 0,0 UV-I 0 W/m 1,8 C 0,9 C 17,7 km/h (3 Bft) 96,30 %
07.04.2018 00:43 6,6 C 8,9 C 71 % 1019,1 hPa 0,0 l/m 15,4 km/h (3 Bft) O 86 0 min 0,000 mm 0,0 UV-I 0 W/m 1,7 C 0,8 C 19,3 km/h (3 Bft) 92,86 %
07.04.2018 00:44 6,6 C 8,9 C 72 % 1019,1 hPa 0,0 l/m 13,6 km/h (3 Bft) O 79 0 min 0,000 mm 0,0 UV-I 0 W/m 1,9 C 1,7 C 17,7 km/h (3 Bft) 100,00 %
07.04.2018 00:45 6,6 C 8,9 C 72 % 1019,1 hPa 0,0 l/m 13,3 km/h (3 Bft) O-NO 68 0 min 0,000 mm 0,0 UV-I 0 W/m 1,9 C 1,9 C 16,1 km/h (3 Bft) 100,00 %
07.04.2018 00:46 6,6 C 8,9 C 71 % 1019,0 hPa 0,0 l/m 16,1 km/h (3 Bft) O-NO 74 0 min 0,000 mm 0,0 UV-I 0 W/m 1,7 C 0,5 C 20,9 km/h (4 Bft) 100,00 %
07.04.2018 00:47 6,6 C 8,9 C 71 % 1019,0 hPa 0,0 l/m 18,4 km/h (3 Bft) O 82 0 min 0,000 mm 0,0 UV-I 0 W/m 1,7 C -0,5 C 22,5 km/h (4 Bft) 100,00 %
07.04.2018 00:48 6,6 C 8,9 C 71 % 1019,0 hPa 0,0 l/m 16,4 km/h (3 Bft) O-NO 65 0 min 0,000 mm 0,0 UV-I 0 W/m 1,7 C 0,4 C 19,3 km/h (3 Bft) 96,30 %
07.04.2018 00:49 6,7 C 8,9 C 71 % 1019,0 hPa 0,0 l/m 17,8 km/h (3 Bft) O-NO 78 0 min 0,000 mm 0,0 UV-I 0 W/m 1,8 C -0,1 C 20,9 km/h (4 Bft) 100,00 %
07.04.2018 00:50 6,7 C 8,3 C 71 % 1019,0 hPa 0,0 l/m 17,3 km/h (3 Bft) O 82 0 min 0,000 mm 0,0 UV-I 0 W/m 1,8 C 0,1 C 22,5 km/h (4 Bft) 96,30 %
07.04.2018 00:51 6,7 C 8,9 C 71 % 1019,0 hPa 0,0 l/m 18,6 km/h (3 Bft) O-NO 67 0 min 0,000 mm 0,0 UV-I 0 W/m 1,8 C -0,4 C 24,1 km/h (4 Bft) 96,15 %
07.04.2018 00:52 6,7 C 8,9 C 70 % 1019,0 hPa 0,0 l/m 19,4 km/h (3 Bft) O-NO 64 0 min 0,000 mm 0,0 UV-I 0 W/m 1,6 C -0,7 C 27,4 km/h (4 Bft) 96,30 %
07.04.2018 00:53 6,7 C 8,3 C 70 % 1019,0 hPa 0,0 l/m 18,0 km/h (3 Bft) O 80 0 min 0,000 mm 0,0 UV-I 0 W/m 1,6 C -0,2 C 20,9 km/h (4 Bft) 100,00 %
07.04.2018 00:54 6,7 C 8,9 C 70 % 1019,0 hPa 0,0 l/m 20,2 km/h (4 Bft) O 98 0 min 0,000 mm 0,0 UV-I 0 W/m 1,6 C -1,1 C 24,1 km/h (4 Bft) 96,15 %
07.04.2018 00:55 6,8 C 8,9 C 70 % 1019,0 hPa 0,0 l/m 21,1 km/h (4 Bft) O-NO 75 0 min 0,000 mm 0,0 UV-I 0 W/m 1,7 C -1,2 C 29,0 km/h (5 Bft) 96,55 %
07.04.2018 00:56 6,8 C 8,9 C 70 % 1018,9 hPa 0,0 l/m 21,5 km/h (4 Bft) O-NO 70 0 min 0,000 mm 0,0 UV-I 0 W/m 1,7 C -1,4 C 24,1 km/h (4 Bft) 98,14 %
07.04.2018 00:57 6,8 C 8,9 C 70 % 1018,9 hPa 0,0 l/m 20,6 km/h (4 Bft) O 96 0 min 0,000 mm 0,0 UV-I 0 W/m 1,7 C -1,1 C 27,4 km/h (4 Bft) 97,62 %
07.04.2018 00:58 6,8 C 8,3 C 70 % 1019,0 hPa 0,0 l/m 20,9 km/h (4 Bft) O 84 0 min 0,000 mm 0,0 UV-I 0 W/m 1,7 C -1,2 C 25,7 km/h (4 Bft) 100,00 %
07.04.2018 00:59 6,8 C 8,9 C 70 % 1019,0 hPa 0,0 l/m 21,9 km/h (4 Bft) O-NO 69 0 min 0,000 mm 0,0 UV-I 0 W/m 1,7 C -1,5 C 29,0 km/h (5 Bft) 95,83 %
07.04.2018 01:00 6,8 C 8,9 C 70 % 1018,9 hPa 0,0 l/m 22,4 km/h (4 Bft) O 87 0 min 0,051 mm 0,0 UV-I 0 W/m 1,7 C -1,7 C 27,4 km/h (4 Bft) 100,00 %
07.04.2018 01:01 6,8 C 8,9 C 70 % 1018,9 hPa 0,0 l/m 20,5 km/h (4 Bft) O-NO 65 0 min 0,000 mm 0,0 UV-I 0 W/m 1,7 C -1,0 C 24,1 km/h (4 Bft) 95,83 %
07.04.2018 01:02 6,8 C 8,9 C 70 % 1018,9 hPa 0,0 l/m 20,6 km/h (4 Bft) O-NO 71 0 min 0,000 mm 0,0 UV-I 0 W/m 1,7 C -1,1 C 25,7 km/h (4 Bft) 90,91 %
07.04.2018 01:03 6,8 C 8,3 C 70 % 1019,0 hPa 0,0 l/m 19,6 km/h (3 Bft) O-NO 65 0 min 0,000 mm 0,0 UV-I 0 W/m 1,7 C -0,7 C 24,1 km/h (4 Bft) 96,30 %
07.04.2018 01:04 6,8 C 8,9 C 70 % 1018,9 hPa 0,0 l/m 17,9 km/h (3 Bft) O-NO 59 0 min 0,000 mm 0,0 UV-I 0 W/m 1,7 C -0,0 C 24,1 km/h (4 Bft) 100,00 %
07.04.2018 01:05 6,8 C 8,9 C 70 % 1019,0 hPa 0,0 l/m 22,4 km/h (4 Bft) O-NO 65 0 min 0,000 mm 0,0 UV-I 0 W/m 1,7 C -1,7 C 25,7 km/h (4 Bft) 95,83 %
07.04.2018 01:06 6,8 C 8,9 C 69 % 1019,0 hPa 0,0 l/m 18,4 km/h (3 Bft) O-NO 68 0 min 0,000 mm 0,0 UV-I 0 W/m 1,5 C -0,2 C 24,1 km/h (4 Bft) 91,30 %
07.04.2018 01:07 6,8 C 8,9 C 70 % 1018,9 hPa 0,0 l/m 20,7 km/h (4 Bft) O 92 0 min 0,000 mm 0,0 UV-I 0 W/m 1,7 C -1,1 C 29,0 km/h (5 Bft) 100,00 %
07.04.2018 01:08 6,8 C 8,9 C 70 % 1019,0 hPa 0,0 l/m 19,9 km/h (4 Bft) O 86 0 min 0,000 mm 0,0 UV-I 0 W/m 1,7 C -0,8 C 24,1 km/h (4 Bft) 96,15 %
07.04.2018 01:09 6,8 C 8,3 C 70 % 1019,0 hPa 0,0 l/m 18,4 km/h (3 Bft) O-NO 61 0 min 0,000 mm 0,0 UV-I 0 W/m 1,7 C -0,2 C 25,7 km/h (4 Bft) 100,00 %
07.04.2018 01:10 6,8 C 8,9 C 70 % 1019,0 hPa 0,0 l/m 19,8 km/h (3 Bft) O-NO 63 0 min 0,000 mm 0,0 UV-I 0 W/m 1,7 C -0,8 C 27,4 km/h (4 Bft) 96,15 %
07.04.2018 01:11 6,7 C 8,9 C 70 % 1018,9 hPa 0,0 l/m 17,8 km/h (3 Bft) O-NO 66 0 min 0,000 mm 0,0 UV-I 0 W/m 1,6 C -0,1 C 22,5 km/h (4 Bft) 100,00 %
07.04.2018 01:12 6,7 C 8,9 C 70 % 1018,9 hPa 0,0 l/m 15,3 km/h (3 Bft) O-SO 110 0 min 0,000 mm 0,0 UV-I 0 W/m 1,6 C 1,0 C 20,9 km/h (4 Bft) 91,30 %
07.04.2018 01:13 6,7 C 8,9 C 70 % 1019,0 hPa 0,0 l/m 15,7 km/h (3 Bft) O-NO 67 0 min 0,000 mm 0,0 UV-I 0 W/m 1,6 C 0,8 C 22,5 km/h (4 Bft) 95,83 %
07.04.2018 01:14 6,7 C 8,9 C 70 % 1018,9 hPa 0,0 l/m 16,9 km/h (3 Bft) O-NO 77 0 min 0,000 mm 0,0 UV-I 0 W/m 1,6 C 0,3 C 20,9 km/h (4 Bft) 100,00 %
07.04.2018 01:15 6,7 C 8,9 C 70 % 1018,9 hPa 0,0 l/m 14,1 km/h (3 Bft) O 100 0 min 0,000 mm 0,0 UV-I 0 W/m 1,6 C 1,6 C 17,7 km/h (3 Bft) 100,00 %
07.04.2018 01:16 6,7 C 8,9 C 70 % 1018,9 hPa 0,0 l/m 16,8 km/h (3 Bft) O-NO 74 0 min 0,000 mm 0,0 UV-I 0 W/m 1,6 C 0,3 C 20,9 km/h (4 Bft) 100,00 %
07.04.2018 01:17 6,7 C 8,9 C 70 % 1019,0 hPa 0,0 l/m 17,8 km/h (3 Bft) O-NO 70 0 min 0,000 mm 0,0 UV-I 0 W/m 1,6 C -0,1 C 20,9 km/h (4 Bft) 93,33 %
07.04.2018 01:18 6,7 C 8,9 C 70 % 1019,0 hPa 0,0 l/m 18,4 km/h (3 Bft) NO 55 0 min 0,000 mm 0,0 UV-I 0 W/m 1,6 C -0,4 C 22,5 km/h (4 Bft) 100,00 %
07.04.2018 01:19 6,7 C 8,9 C 70 % 1018,9 hPa 0,0 l/m 18,6 km/h (3 Bft) O-NO 74 0 min 0,000 mm 0,0 UV-I 0 W/m 1,6 C -0,4 C 22,5 km/h (4 Bft) 91,30 %
07.04.2018 01:20 6,6 C 8,9 C 70 % 1018,9 hPa 0,0 l/m 17,1 km/h (3 Bft) O-NO 68 0 min 0,000 mm 0,0 UV-I 0 W/m 1,5 C 0,1 C 22,5 km/h (4 Bft) 96,67 %
07.04.2018 01:21 6,6 C 8,9 C 70 % 1018,9 hPa 0,0 l/m 15,9 km/h (3 Bft) O 98 0 min 0,000 mm 0,0 UV-I 0 W/m 1,5 C 0,6 C 20,9 km/h (4 Bft) 100,00 %
07.04.2018 01:22 6,6 C 8,9 C 71 % 1018,9 hPa 0,0 l/m 16,7 km/h (3 Bft) O-NO 78 0 min 0,000 mm 0,0 UV-I 0 W/m 1,7 C 0,2 C 20,9 km/h (4 Bft) 100,00 %
07.04.2018 01:23 6,5 C 8,3 C 71 % 1018,9 hPa 0,0 l/m 19,6 km/h (3 Bft) O-NO 72 0 min 0,000 mm 0,0 UV-I 0 W/m 1,6 C -1,1 C 25,7 km/h (4 Bft) 100,00 %
07.04.2018 01:24 6,5 C 8,9 C 70 % 1018,8 hPa 0,0 l/m 20,2 km/h (4 Bft) O-NO 74 0 min 0,000 mm 0,0 UV-I 0 W/m 1,4 C -1,3 C 25,7 km/h (4 Bft) 100,00 %
07.04.2018 01:25 6,6 C 8,9 C 70 % 1018,8 hPa 0,0 l/m 21,5 km/h (4 Bft) O 89 0 min 0,000 mm 0,0 UV-I 0 W/m 1,5 C -1,6 C 27,4 km/h (4 Bft) 100,00 %
07.04.2018 01:26 6,6 C 8,9 C 70 % 1018,7 hPa 0,0 l/m 23,5 km/h (4 Bft) O-NO 63 0 min 0,000 mm 0,0 UV-I 0 W/m 1,5 C -2,3 C 35,4 km/h (5 Bft) 96,30 %
07.04.2018 01:27 6,6 C 8,9 C 69 % 1018,8 hPa 0,0 l/m 23,5 km/h (4 Bft) O 85 0 min 0,000 mm 0,0 UV-I 0 W/m 1,3 C -2,3 C 29,0 km/h (5 Bft) 100,00 %
07.04.2018 01:28 6,7 C 8,9 C 69 % 1018,8 hPa 0,0 l/m 20,9 km/h (4 Bft) O-NO 61 0 min 0,000 mm 0,0 UV-I 0 W/m 1,4 C -1,3 C 29,0 km/h (5 Bft) 100,00 %
07.04.2018 01:29 6,7 C 8,3 C 69 % 1018,8 hPa 0,0 l/m 20,8 km/h (4 Bft) O 92 0 min 0,000 mm 0,0 UV-I 0 W/m 1,4 C -1,3 C 32,2 km/h (5 Bft) 100,00 %
07.04.2018 01:30 6,7 C 8,9 C 69 % 1018,8 hPa 0,0 l/m 21,8 km/h (4 Bft) O-NO 65 0 min 0,000 mm 0,0 UV-I 0 W/m 1,4 C -1,6 C 25,7 km/h (4 Bft) 96,15 %
07.04.2018 01:31 6,7 C 8,9 C 69 % 1018,8 hPa 0,0 l/m 19,5 km/h (3 Bft) O-NO 66 0 min 0,000 mm 0,0 UV-I 0 W/m 1,4 C -0,8 C 22,5 km/h (4 Bft) 100,00 %
07.04.2018 01:32 6,7 C 8,3 C 69 % 1018,8 hPa 0,0 l/m 21,1 km/h (4 Bft) O 90 0 min 0,000 mm 0,0 UV-I 0 W/m 1,4 C -1,4 C 27,4 km/h (4 Bft) 100,00 %
07.04.2018 01:33 6,7 C 8,9 C 69 % 1018,8 hPa 0,0 l/m 19,1 km/h (3 Bft) O 88 0 min 0,000 mm 0,0 UV-I 0 W/m 1,4 C -0,6 C 27,4 km/h (4 Bft) 100,00 %
07.04.2018 01:34 6,7 C 8,9 C 69 % 1018,8 hPa 0,0 l/m 22,4 km/h (4 Bft) O-NO 68 0 min 0,000 mm 0,0 UV-I 0 W/m 1,4 C -1,8 C 27,4 km/h (4 Bft) 100,00 %
07.04.2018 01:35 6,6 C 8,9 C 69 % 1018,8 hPa 0,0 l/m 24,1 km/h (4 Bft) O-NO 76 0 min 0,000 mm 0,0 UV-I 0 W/m 1,3 C -2,5 C 32,2 km/h (5 Bft) 100,00 %
07.04.2018 01:36 6,6 C 8,9 C 69 % 1018,7 hPa 0,0 l/m 16,8 km/h (3 Bft) O-NO 63 0 min 0,000 mm 0,0 UV-I 0 W/m 1,3 C 0,2 C 20,9 km/h (4 Bft) 100,00 %
07.04.2018 01:37 6,6 C 8,9 C 69 % 1018,7 hPa 0,0 l/m 23,2 km/h (4 Bft) O-NO 72 0 min 0,000 mm 0,0 UV-I 0 W/m 1,3 C -2,2 C 29,0 km/h (5 Bft) 83,33 %
07.04.2018 01:38 6,6 C 8,9 C 69 % 1018,7 hPa 0,0 l/m 22,5 km/h (4 Bft) O 88 0 min 0,000 mm 0,0 UV-I 0 W/m 1,3 C -2,0 C 30,6 km/h (5 Bft) 100,00 %
07.04.2018 01:39 6,6 C 8,3 C 69 % 1018,6 hPa 0,0 l/m 23,3 km/h (4 Bft) O 82 0 min 0,000 mm 0,0 UV-I 0 W/m 1,3 C -2,2 C 30,6 km/h (5 Bft) 100,00 %
07.04.2018 01:40 6,6 C 8,9 C 69 % 1018,6 hPa 0,0 l/m 23,6 km/h (4 Bft) O 85 0 min 0,000 mm 0,0 UV-I 0 W/m 1,3 C -2,3 C 27,4 km/h (4 Bft) 100,00 %
07.04.2018 01:41 6,6 C 8,9 C 69 % 1018,7 hPa 0,0 l/m 20,7 km/h (4 Bft) O 80 0 min 0,000 mm 0,0 UV-I 0 W/m 1,3 C -1,4 C 25,7 km/h (4 Bft) 100,00 %
07.04.2018 01:42 6,6 C 8,3 C 69 % 1018,7 hPa 0,0 l/m 20,6 km/h (4 Bft) O-NO 59 0 min 0,000 mm 0,0 UV-I 0 W/m 1,3 C -1,3 C 25,7 km/h (4 Bft) 100,00 %
07.04.2018 01:43 6,6 C 8,3 C 69 % 1018,7 hPa 0,0 l/m 20,8 km/h (4 Bft) O 79 0 min 0,000 mm 0,0 UV-I 0 W/m 1,3 C -1,4 C 25,7 km/h (4 Bft) 96,30 %
07.04.2018 01:44 6,6 C 8,9 C 69 % 1018,7 hPa 0,0 l/m 20,2 km/h (4 Bft) O 85 0 min 0,000 mm 0,0 UV-I 0 W/m 1,3 C -1,2 C 22,5 km/h (4 Bft) 100,00 %
07.04.2018 01:45 6,6 C 8,9 C 69 % 1018,7 hPa 0,0 l/m 19,0 km/h (3 Bft) O-NO 75 0 min 0,000 mm 0,0 UV-I 0 W/m 1,3 C -0,7 C 25,7 km/h (4 Bft) 100,00 %
07.04.2018 01:46 6,6 C 8,9 C 68 % 1018,7 hPa 0,0 l/m 18,9 km/h (3 Bft) O 94 0 min 0,000 mm 0,0 UV-I 0 W/m 1,1 C -0,7 C 24,1 km/h (4 Bft) 100,00 %
07.04.2018 01:47 6,5 C 8,9 C 69 % 1018,7 hPa 0,0 l/m 19,3 km/h (3 Bft) O-NO 65 0 min 0,000 mm 0,0 UV-I 0 W/m 1,2 C -1,0 C 24,1 km/h (4 Bft) 100,00 %
07.04.2018 01:48 6,4 C 8,9 C 69 % 1018,6 hPa 0,0 l/m 20,0 km/h (4 Bft) O 83 0 min 0,000 mm 0,0 UV-I 0 W/m 1,1 C -1,4 C 24,1 km/h (4 Bft) 100,00 %
07.04.2018 01:49 6,5 C 8,9 C 69 % 1018,6 hPa 0,0 l/m 23,7 km/h (4 Bft) O 84 0 min 0,000 mm 0,0 UV-I 0 W/m 1,2 C -2,5 C 29,0 km/h (5 Bft) 100,00 %
07.04.2018 01:50 6,5 C 8,3 C 68 % 1018,6 hPa 0,0 l/m 22,7 km/h (4 Bft) O 88 0 min 0,000 mm 0,0 UV-I 0 W/m 1,0 C -2,2 C 29,0 km/h (5 Bft) 100,00 %
07.04.2018 01:51 6,6 C 8,9 C 68 % 1018,6 hPa 0,0 l/m 18,7 km/h (3 Bft) O 87 0 min 0,000 mm 0,0 UV-I 0 W/m 1,1 C -0,6 C 24,1 km/h (4 Bft) 100,00 %
07.04.2018 01:52 6,6 C 8,9 C 68 % 1018,6 hPa 0,0 l/m 21,1 km/h (4 Bft) O 82 0 min 0,000 mm 0,0 UV-I 0 W/m 1,1 C -1,5 C 27,4 km/h (4 Bft) 100,00 %
07.04.2018 01:53 6,6 C 8,9 C 68 % 1018,6 hPa 0,0 l/m 20,3 km/h (4 Bft) O-NO 76 0 min 0,000 mm 0,0 UV-I 0 W/m 1,1 C -1,2 C 25,7 km/h (4 Bft) 96,15 %
07.04.2018 01:54 6,6 C 8,9 C 68 % 1018,6 hPa 0,0 l/m 20,3 km/h (4 Bft) O 99 0 min 0,000 mm 0,0 UV-I 0 W/m 1,1 C -1,2 C 27,4 km/h (4 Bft) 93,33 %
07.04.2018 01:55 6,5 C 8,3 C 68 % 1018,5 hPa 0,0 l/m 20,4 km/h (4 Bft) O 88 0 min 0,000 mm 0,0 UV-I 0 W/m 1,0 C -1,4 C 25,7 km/h (4 Bft) 100,00 %
07.04.2018 01:56 6,5 C 8,9 C 68 % 1018,5 hPa 0,0 l/m 24,9 km/h (4 Bft) O-NO 69 0 min 0,000 mm 0,0 UV-I 0 W/m 1,0 C -2,9 C 30,6 km/h (5 Bft) 100,00 %
07.04.2018 01:57 6,6 C 8,9 C 67 % 1018,5 hPa 0,0 l/m 23,3 km/h (4 Bft) O 83 0 min 0,000 mm 0,0 UV-I 0 W/m 0,9 C -2,2 C 30,6 km/h (5 Bft) 100,00 %
07.04.2018 01:58 6,6 C 8,9 C 68 % 1018,5 hPa 0,0 l/m 23,3 km/h (4 Bft) O 80 0 min 0,000 mm 0,0 UV-I 0 W/m 1,1 C -2,2 C 30,6 km/h (5 Bft) 100,00 %
07.04.2018 01:59 6,6 C 8,3 C 68 % 1018,5 hPa 0,0 l/m 18,6 km/h (3 Bft) O 81 0 min 0,000 mm 0,0 UV-I 0 W/m 1,1 C -0,6 C 27,4 km/h (4 Bft) 100,00 %
07.04.2018 02:00 6,5 C 8,9 C 68 % 1018,5 hPa 0,0 l/m 18,7 km/h (3 Bft) O 85 0 min 0,051 mm 0,0 UV-I 0 W/m 1,0 C -0,7 C 24,1 km/h (4 Bft) 100,00 %
07.04.2018 02:01 6,5 C 8,3 C 68 % 1018,4 hPa 0,0 l/m 19,5 km/h (3 Bft) O-NO 61 0 min 0,000 mm 0,0 UV-I 0 W/m 1,0 C -1,0 C 24,1 km/h (4 Bft) 100,00 %
07.04.2018 02:02 6,4 C 8,9 C 68 % 1018,4 hPa 0,0 l/m 19,1 km/h (3 Bft) O-NO 74 0 min 0,000 mm 0,0 UV-I 0 W/m 0,9 C -1,0 C 27,4 km/h (4 Bft) 100,00 %
07.04.2018 02:03 6,4 C 8,9 C 68 % 1018,5 hPa 0,0 l/m 17,7 km/h (3 Bft) O-NO 69 0 min 0,000 mm 0,0 UV-I 0 W/m 0,9 C -0,4 C 22,5 km/h (4 Bft) 96,15 %
07.04.2018 02:04 6,4 C 8,9 C 68 % 1018,4 hPa 0,0 l/m 18,0 km/h (3 Bft) O 88 0 min 0,000 mm 0,0 UV-I 0 W/m 0,9 C -0,6 C 25,7 km/h (4 Bft) 100,00 %
07.04.2018 02:05 6,4 C 8,9 C 68 % 1018,4 hPa 0,0 l/m 23,1 km/h (4 Bft) O 84 0 min 0,000 mm 0,0 UV-I 0 W/m 0,9 C -2,5 C 30,6 km/h (5 Bft) 100,00 %
07.04.2018 02:06 6,4 C 8,9 C 67 % 1018,4 hPa 0,0 l/m 21,3 km/h (4 Bft) O 94 0 min 0,000 mm 0,0 UV-I 0 W/m 0,7 C -1,8 C 25,7 km/h (4 Bft) 100,00 %
07.04.2018 02:07 6,4 C 8,9 C 67 % 1018,4 hPa 0,0 l/m 22,4 km/h (4 Bft) O-NO 66 0 min 0,000 mm 0,0 UV-I 0 W/m 0,7 C -2,2 C 29,0 km/h (5 Bft) 100,00 %
07.04.2018 02:08 6,4 C 8,9 C 67 % 1018,4 hPa 0,0 l/m 18,7 km/h (3 Bft) O-NO 59 0 min 0,000 mm 0,0 UV-I 0 W/m 0,7 C -0,9 C 24,1 km/h (4 Bft) 100,00 %
07.04.2018 02:09 6,4 C 8,9 C 68 % 1018,4 hPa 0,0 l/m 25,2 km/h (4 Bft) O-NO 74 0 min 0,000 mm 0,0 UV-I 0 W/m 0,9 C -3,1 C 32,2 km/h (5 Bft) 96,15 %
07.04.2018 02:10 6,4 C 8,9 C 67 % 1018,3 hPa 0,0 l/m 20,4 km/h (4 Bft) O 87 0 min 0,000 mm 0,0 UV-I 0 W/m 0,7 C -1,5 C 25,7 km/h (4 Bft) 100,00 %
07.04.2018 02:11 6,4 C 8,9 C 67 % 1018,3 hPa 0,0 l/m 21,5 km/h (4 Bft) O 88 0 min 0,000 mm 0,0 UV-I 0 W/m 0,7 C -1,9 C 27,4 km/h (4 Bft) 95,65 %
07.04.2018 02:12 6,4 C 8,3 C 67 % 1018,3 hPa 0,0 l/m 22,2 km/h (4 Bft) O 84 0 min 0,000 mm 0,0 UV-I 0 W/m 0,7 C -2,2 C 29,0 km/h (5 Bft) 100,00 %
07.04.2018 02:13 6,4 C 8,9 C 67 % 1018,3 hPa 0,0 l/m 19,7 km/h (3 Bft) O 84 0 min 0,000 mm 0,0 UV-I 0 W/m 0,7 C -1,2 C 27,4 km/h (4 Bft) 100,00 %
07.04.2018 02:14 6,4 C 8,9 C 67 % 1018,4 hPa 0,0 l/m 22,5 km/h (4 Bft) O-NO 67 0 min 0,000 mm 0,0 UV-I 0 W/m 0,7 C -2,3 C 30,6 km/h (5 Bft) 95,65 %
07.04.2018 02:15 6,4 C 8,9 C 67 % 1018,4 hPa 0,0 l/m 22,1 km/h (4 Bft) O-NO 74 0 min 0,000 mm 0,0 UV-I 0 W/m 0,7 C -2,1 C 27,4 km/h (4 Bft) 95,83 %
07.04.2018 02:16 6,4 C 8,9 C 67 % 1018,4 hPa 0,0 l/m 19,7 km/h (3 Bft) O 82 0 min 0,000 mm 0,0 UV-I 0 W/m 0,7 C -1,2 C 24,1 km/h (4 Bft) 100,00 %
07.04.2018 02:17 6,3 C 8,9 C 67 % 1018,4 hPa 0,0 l/m 22,6 km/h (4 Bft) O-NO 78 0 min 0,000 mm 0,0 UV-I 0 W/m 0,6 C -2,4 C 29,0 km/h (5 Bft) 100,00 %
07.04.2018 02:18 6,3 C 8,9 C 67 % 1018,4 hPa 0,0 l/m 23,9 km/h (4 Bft) O-NO 68 0 min 0,000 mm 0,0 UV-I 0 W/m 0,6 C -2,8 C 32,2 km/h (5 Bft) 100,00 %
07.04.2018 02:19 6,3 C 8,9 C 67 % 1018,3 hPa 0,0 l/m 24,6 km/h (4 Bft) O-NO 74 0 min 0,000 mm 0,0 UV-I 0 W/m 0,6 C -3,1 C 32,2 km/h (5 Bft) 100,00 %
07.04.2018 02:20 6,3 C 8,9 C 67 % 1018,4 hPa 0,0 l/m 22,7 km/h (4 Bft) O 84 0 min 0,000 mm 0,0 UV-I 0 W/m 0,6 C -2,5 C 27,4 km/h (4 Bft) 100,00 %
07.04.2018 02:21 6,3 C 8,9 C 67 % 1018,4 hPa 0,0 l/m 17,4 km/h (3 Bft) O-NO 71 0 min 0,000 mm 0,0 UV-I 0 W/m 0,6 C -0,4 C 20,9 km/h (4 Bft) 96,30 %
07.04.2018 02:22 6,3 C 8,9 C 68 % 1018,4 hPa 0,0 l/m 22,7 km/h (4 Bft) O-NO 76 0 min 0,000 mm 0,0 UV-I 0 W/m 0,8 C -2,5 C 29,0 km/h (5 Bft) 100,00 %
07.04.2018 02:23 6,3 C 8,3 C 67 % 1018,3 hPa 0,0 l/m 22,8 km/h (4 Bft) O 88 0 min 0,000 mm 0,0 UV-I 0 W/m 0,6 C -2,5 C 30,6 km/h (5 Bft) 95,83 %
07.04.2018 02:24 6,3 C 8,9 C 67 % 1018,2 hPa 0,0 l/m 19,2 km/h (3 Bft) O 93 0 min 0,000 mm 0,0 UV-I 0 W/m 0,6 C -1,2 C 22,5 km/h (4 Bft) 95,83 %
07.04.2018 02:25 6,3 C 8,9 C 67 % 1018,3 hPa 0,0 l/m 25,6 km/h (4 Bft) O-NO 67 0 min 0,000 mm 0,0 UV-I 0 W/m 0,6 C -3,4 C 30,6 km/h (5 Bft) 95,83 %
07.04.2018 02:26 6,3 C 8,9 C 67 % 1018,3 hPa 0,0 l/m 26,2 km/h (4 Bft) O 84 0 min 0,000 mm 0,0 UV-I 0 W/m 0,6 C -3,5 C 33,8 km/h (5 Bft) 100,00 %
07.04.2018 02:27 6,3 C 8,9 C 67 % 1018,3 hPa 0,0 l/m 21,8 km/h (4 Bft) O 86 0 min 0,000 mm 0,0 UV-I 0 W/m 0,6 C -2,1 C 32,2 km/h (5 Bft) 94,44 %
07.04.2018 02:28 6,3 C 8,9 C 67 % 1018,2 hPa 0,0 l/m 21,7 km/h (4 Bft) O-NO 59 0 min 0,000 mm 0,0 UV-I 0 W/m 0,6 C -2,1 C 27,4 km/h (4 Bft) 100,00 %
07.04.2018 02:29 6,3 C 8,9 C 67 % 1018,2 hPa 0,0 l/m 20,0 km/h (4 Bft) O 80 0 min 0,000 mm 0,0 UV-I 0 W/m 0,6 C -1,5 C 24,1 km/h (4 Bft) 96,55 %
07.04.2018 02:30 6,3 C 8,3 C 67 % 1018,2 hPa 0,0 l/m 23,5 km/h (4 Bft) NO 55 0 min 0,000 mm 0,0 UV-I 0 W/m 0,6 C -2,7 C 29,0 km/h (5 Bft) 95,65 %
07.04.2018 02:31 6,3 C 8,9 C 67 % 1018,2 hPa 0,0 l/m 23,4 km/h (4 Bft) O 90 0 min 0,000 mm 0,0 UV-I 0 W/m 0,6 C -2,7 C 32,2 km/h (5 Bft) 100,00 %
07.04.2018 02:32 6,3 C 8,9 C 67 % 1018,2 hPa 0,0 l/m 28,6 km/h (4 Bft) O-NO 69 0 min 0,000 mm 0,0 UV-I 0 W/m 0,6 C -4,2 C 38,6 km/h (5 Bft) 95,83 %
07.04.2018 02:33 6,3 C 8,9 C 67 % 1018,2 hPa 0,0 l/m 27,1 km/h (4 Bft) O 80 0 min 0,000 mm 0,0 UV-I 0 W/m 0,6 C -3,8 C 35,4 km/h (5 Bft) 96,15 %
07.04.2018 02:34 6,3 C 8,9 C 67 % 1018,2 hPa 0,0 l/m 23,8 km/h (4 Bft) O-NO 65 0 min 0,000 mm 0,0 UV-I 0 W/m 0,6 C -2,8 C 33,8 km/h (5 Bft) 91,67 %
07.04.2018 02:35 6,3 C 8,9 C 67 % 1018,2 hPa 0,0 l/m 24,2 km/h (4 Bft) O 93 0 min 0,000 mm 0,0 UV-I 0 W/m 0,6 C -2,9 C 29,0 km/h (5 Bft) 96,88 %
07.04.2018 02:36 6,3 C 8,3 C 67 % 1018,1 hPa 0,0 l/m 26,1 km/h (4 Bft) O-SO 111 0 min 0,000 mm 0,0 UV-I 0 W/m 0,6 C -3,5 C 37,0 km/h (5 Bft) 96,30 %
07.04.2018 02:37 6,3 C 8,9 C 66 % 1018,2 hPa 0,0 l/m 23,1 km/h (4 Bft) O 90 0 min 0,000 mm 0,0 UV-I 0 W/m 0,4 C -2,6 C 29,0 km/h (5 Bft) 100,00 %
07.04.2018 02:38 6,3 C 8,9 C 67 % 1018,1 hPa 0,0 l/m 24,1 km/h (4 Bft) O-NO 74 0 min 0,000 mm 0,0 UV-I 0 W/m 0,6 C -2,9 C 29,0 km/h (5 Bft) 93,33 %
07.04.2018 02:39 6,3 C 8,9 C 67 % 1018,1 hPa 0,0 l/m 22,3 km/h (4 Bft) O-SO 103 0 min 0,000 mm 0,0 UV-I 0 W/m 0,6 C -2,3 C 32,2 km/h (5 Bft) 91,30 %
07.04.2018 02:40 6,2 C 8,9 C 67 % 1018,2 hPa 0,0 l/m 24,5 km/h (4 Bft) O-NO 64 0 min 0,000 mm 0,0 UV-I 0 W/m 0,5 C -3,2 C 35,4 km/h (5 Bft) 100,00 %
07.04.2018 02:41 6,2 C 8,3 C 67 % 1018,1 hPa 0,0 l/m 26,9 km/h (4 Bft) O 94 0 min 0,000 mm 0,0 UV-I 0 W/m 0,5 C -3,9 C 37,0 km/h (5 Bft) 92,86 %
07.04.2018 02:42 6,2 C 8,9 C 67 % 1018,1 hPa 0,0 l/m 23,2 km/h (4 Bft) O 95 0 min 0,000 mm 0,0 UV-I 0 W/m 0,5 C -2,7 C 29,0 km/h (5 Bft) 96,30 %
07.04.2018 02:43 6,2 C 8,9 C 67 % 1018,0 hPa 0,0 l/m 26,6 km/h (4 Bft) O 86 0 min 0,000 mm 0,0 UV-I 0 W/m 0,5 C -3,8 C 37,0 km/h (5 Bft) 96,15 %
07.04.2018 02:44 6,2 C 8,9 C 67 % 1018,1 hPa 0,0 l/m 23,4 km/h (4 Bft) O-NO 59 0 min 0,000 mm 0,0 UV-I 0 W/m 0,5 C -2,8 C 29,0 km/h (5 Bft) 100,00 %
07.04.2018 02:45 6,2 C 8,9 C 67 % 1018,1 hPa 0,0 l/m 23,1 km/h (4 Bft) O 80 0 min 0,000 mm 0,0 UV-I 0 W/m 0,5 C -2,7 C 29,0 km/h (5 Bft) 91,67 %
07.04.2018 02:46 6,2 C 8,9 C 67 % 1018,1 hPa 0,0 l/m 23,3 km/h (4 Bft) O-NO 71 0 min 0,000 mm 0,0 UV-I 0 W/m 0,5 C -2,8 C 29,0 km/h (5 Bft) 100,00 %
07.04.2018 02:47 6,2 C 8,9 C 67 % 1018,0 hPa 0,0 l/m 20,2 km/h (4 Bft) O-NO 70 0 min 0,000 mm 0,0 UV-I 0 W/m 0,5 C -1,7 C 27,4 km/h (4 Bft) 100,00 %
07.04.2018 02:48 6,2 C 8,9 C 67 % 1018,0 hPa 0,0 l/m 25,3 km/h (4 Bft) O-NO 69 0 min 0,000 mm 0,0 UV-I 0 W/m 0,5 C -3,4 C 32,2 km/h (5 Bft) 94,44 %
07.04.2018 02:49 6,2 C 8,3 C 67 % 1018,0 hPa 0,0 l/m 23,6 km/h (4 Bft) O 84 0 min 0,000 mm 0,0 UV-I 0 W/m 0,5 C -2,9 C 29,0 km/h (5 Bft) 92,59 %
07.04.2018 02:50 6,1 C 8,9 C 67 % 1018,0 hPa 0,0 l/m 21,9 km/h (4 Bft) O 82 0 min 0,000 mm 0,0 UV-I 0 W/m 0,4 C -2,4 C 25,7 km/h (4 Bft) 92,31 %
07.04.2018 02:51 6,1 C 8,9 C 68 % 1018,1 hPa 0,0 l/m 20,6 km/h (4 Bft) O-NO 71 0 min 0,000 mm 0,0 UV-I 0 W/m 0,6 C -2,0 C 25,7 km/h (4 Bft) 100,00 %
07.04.2018 02:52 6,1 C 8,9 C 67 % 1018,0 hPa 0,0 l/m 22,1 km/h (4 Bft) O-NO 78 0 min 0,000 mm 0,0 UV-I 0 W/m 0,4 C -2,5 C 29,0 km/h (5 Bft) 86,67 %
07.04.2018 02:53 6,1 C 8,9 C 67 % 1018,1 hPa 0,0 l/m 19,6 km/h (3 Bft) NO 54 0 min 0,000 mm 0,0 UV-I 0 W/m 0,4 C -1,6 C 24,1 km/h (4 Bft) 100,00 %
07.04.2018 02:54 6,1 C 8,9 C 68 % 1018,1 hPa 0,0 l/m 20,8 km/h (4 Bft) O-NO 75 0 min 0,000 mm 0,0 UV-I 0 W/m 0,6 C -2,0 C 27,4 km/h (4 Bft) 92,31 %
07.04.2018 02:55 6,0 C 8,9 C 68 % 1018,0 hPa 0,0 l/m 20,2 km/h (4 Bft) O-NO 73 0 min 0,000 mm 0,0 UV-I 0 W/m 0,6 C -2,0 C 27,4 km/h (4 Bft) 100,00 %
07.04.2018 02:56 5,9 C 8,9 C 68 % 1018,0 hPa 0,0 l/m 20,7 km/h (4 Bft) O-NO 75 0 min 0,000 mm 0,0 UV-I 0 W/m 0,5 C -2,3 C 25,7 km/h (4 Bft) 91,30 %
07.04.2018 02:57 5,9 C 8,9 C 68 % 1018,1 hPa 0,0 l/m 20,4 km/h (4 Bft) O-NO 74 0 min 0,000 mm 0,0 UV-I 0 W/m 0,5 C -2,2 C 24,1 km/h (4 Bft) 100,00 %
07.04.2018 02:58 5,9 C 8,9 C 69 % 1018,1 hPa 0,0 l/m 20,7 km/h (4 Bft) O-NO 72 0 min 0,000 mm 0,0 UV-I 0 W/m 0,7 C -2,3 C 29,0 km/h (5 Bft) 88,46 %
07.04.2018 02:59 5,8 C 8,9 C 69 % 1018,0 hPa 0,0 l/m 22,9 km/h (4 Bft) O-NO 59 0 min 0,000 mm 0,0 UV-I 0 W/m 0,6 C -3,2 C 29,0 km/h (5 Bft) 96,30 %
07.04.2018 03:00 5,8 C 8,9 C 69 % 1018,0 hPa 0,0 l/m 24,0 km/h (4 Bft) O-NO 61 0 min 0,000 mm 0,0 UV-I 0 W/m 0,6 C -3,5 C 30,6 km/h (5 Bft) 96,15 %
07.04.2018 03:01 5,9 C 8,9 C 68 % 1018,0 hPa 0,0 l/m 15,2 km/h (3 Bft) O-NO 75 0 min 0,076 mm 0,0 UV-I 0 W/m 0,5 C 0,1 C 20,9 km/h (4 Bft) 86,67 %
07.04.2018 03:02 5,8 C 8,9 C 68 % 1018,0 hPa 0,0 l/m 20,6 km/h (4 Bft) O 87 0 min 0,000 mm 0,0 UV-I 0 W/m 0,4 C -2,4 C 27,4 km/h (4 Bft) 96,15 %
07.04.2018 03:03 5,8 C 8,9 C 68 % 1018,0 hPa 0,0 l/m 19,9 km/h (4 Bft) O 80 0 min 0,000 mm 0,0 UV-I 0 W/m 0,4 C -2,1 C 24,1 km/h (4 Bft) 92,59 %
07.04.2018 03:04 5,8 C 8,9 C 68 % 1017,9 hPa 0,0 l/m 23,1 km/h (4 Bft) O-NO 69 0 min 0,000 mm 0,0 UV-I 0 W/m 0,4 C -3,2 C 27,4 km/h (4 Bft) 96,15 %
07.04.2018 03:05 5,9 C 8,9 C 68 % 1017,9 hPa 0,0 l/m 24,4 km/h (4 Bft) NO 49 0 min 0,000 mm 0,0 UV-I 0 W/m 0,5 C -3,5 C 29,0 km/h (5 Bft) 86,67 %
07.04.2018 03:06 5,9 C 8,9 C 68 % 1017,9 hPa 0,0 l/m 23,9 km/h (4 Bft) O-NO 76 0 min 0,000 mm 0,0 UV-I 0 W/m 0,5 C -3,4 C 29,0 km/h (5 Bft) 100,00 %
07.04.2018 03:07 5,9 C 8,3 C 68 % 1017,9 hPa 0,0 l/m 20,4 km/h (4 Bft) O 96 0 min 0,000 mm 0,0 UV-I 0 W/m 0,5 C -2,2 C 27,4 km/h (4 Bft) 91,30 %
07.04.2018 03:08 5,9 C 8,9 C 68 % 1018,0 hPa 0,0 l/m 21,0 km/h (4 Bft) O 98 0 min 0,000 mm 0,0 UV-I 0 W/m 0,5 C -2,4 C 30,6 km/h (5 Bft) 95,83 %
07.04.2018 03:09 5,9 C 8,9 C 67 % 1017,9 hPa 0,0 l/m 21,1 km/h (4 Bft) O-NO 65 0 min 0,000 mm 0,0 UV-I 0 W/m 0,3 C -2,4 C 30,6 km/h (5 Bft) 96,15 %
07.04.2018 03:10 5,9 C 8,9 C 67 % 1017,8 hPa 0,0 l/m 27,4 km/h (4 Bft) O 86 0 min 0,000 mm 0,0 UV-I 0 W/m 0,3 C -4,4 C 32,2 km/h (5 Bft) 92,59 %
07.04.2018 03:11 5,9 C 8,9 C 67 % 1017,9 hPa 0,0 l/m 22,8 km/h (4 Bft) O-SO 115 0 min 0,000 mm 0,0 UV-I 0 W/m 0,3 C -3,0 C 25,7 km/h (4 Bft) 100,00 %
07.04.2018 03:12 5,9 C 8,9 C 67 % 1017,9 hPa 0,0 l/m 21,2 km/h (4 Bft) O 79 0 min 0,000 mm 0,0 UV-I 0 W/m 0,3 C -2,5 C 29,0 km/h (5 Bft) 96,30 %
07.04.2018 03:13 5,9 C 8,9 C 67 % 1017,9 hPa 0,0 l/m 23,6 km/h (4 Bft) O-NO 69 0 min 0,000 mm 0,0 UV-I 0 W/m 0,3 C -3,3 C 27,4 km/h (4 Bft) 96,30 %
07.04.2018 03:14 5,9 C 8,9 C 67 % 1017,9 hPa 0,0 l/m 25,8 km/h (4 Bft) O-NO 76 0 min 0,000 mm 0,0 UV-I 0 W/m 0,3 C -4,0 C 30,6 km/h (5 Bft) 93,33 %
07.04.2018 03:15 5,9 C 8,9 C 67 % 1017,9 hPa 0,0 l/m 16,7 km/h (3 Bft) O-SO 103 0 min 0,000 mm 0,0 UV-I 0 W/m 0,3 C -0,6 C 22,5 km/h (4 Bft) 100,00 %
07.04.2018 03:16 5,8 C 8,9 C 68 % 1017,8 hPa 0,0 l/m 22,8 km/h (4 Bft) O 90 0 min 0,000 mm 0,0 UV-I 0 W/m 0,4 C -3,1 C 32,2 km/h (5 Bft) 93,33 %
07.04.2018 03:17 5,8 C 8,3 C 68 % 1017,8 hPa 0,0 l/m 21,6 km/h (4 Bft) O-NO 67 0 min 0,000 mm 0,0 UV-I 0 W/m 0,4 C -2,7 C 32,2 km/h (5 Bft) 95,65 %
07.04.2018 03:18 5,9 C 8,9 C 67 % 1017,8 hPa 0,0 l/m 30,5 km/h (5 Bft) O-NO 71 0 min 0,000 mm 0,0 UV-I 0 W/m 0,3 C -5,2 C 38,6 km/h (5 Bft) 93,33 %
07.04.2018 03:19 5,9 C 8,9 C 67 % 1017,8 hPa 0,0 l/m 21,0 km/h (4 Bft) O-NO 61 0 min 0,000 mm 0,0 UV-I 0 W/m 0,3 C -2,4 C 29,0 km/h (5 Bft) 94,29 %
07.04.2018 03:20 5,9 C 8,9 C 67 % 1017,8 hPa 0,0 l/m 22,8 km/h (4 Bft) O 86 0 min 0,000 mm 0,0 UV-I 0 W/m 0,3 C -3,0 C 30,6 km/h (5 Bft) 100,00 %
07.04.2018 03:21 5,9 C 8,3 C 67 % 1017,7 hPa 0,0 l/m 26,0 km/h (4 Bft) O 88 0 min 0,000 mm 0,0 UV-I 0 W/m 0,3 C -4,0 C 32,2 km/h (5 Bft) 93,33 %
07.04.2018 03:22 5,9 C 8,9 C 67 % 1017,7 hPa 0,0 l/m 26,1 km/h (4 Bft) O-NO 60 0 min 0,000 mm 0,0 UV-I 0 W/m 0,3 C -4,1 C 33,8 km/h (5 Bft) 96,88 %
07.04.2018 03:23 5,9 C 8,9 C 67 % 1017,7 hPa 0,0 l/m 23,4 km/h (4 Bft) O-NO 62 0 min 0,000 mm 0,0 UV-I 0 W/m 0,3 C -3,2 C 30,6 km/h (5 Bft) 92,31 %
07.04.2018 03:24 5,9 C 8,9 C 67 % 1017,6 hPa 0,0 l/m 26,8 km/h (4 Bft) O 99 0 min 0,000 mm 0,0 UV-I 0 W/m 0,3 C -4,3 C 32,2 km/h (5 Bft) 100,00 %
07.04.2018 03:25 6,0 C 8,9 C 67 % 1017,6 hPa 0,0 l/m 23,8 km/h (4 Bft) O 96 0 min 0,000 mm 0,0 UV-I 0 W/m 0,3 C -3,2 C 27,4 km/h (4 Bft) 92,86 %
07.04.2018 03:26 6,0 C 8,9 C 67 % 1017,6 hPa 0,0 l/m 24,5 km/h (4 Bft) O-NO 74 0 min 0,000 mm 0,0 UV-I 0 W/m 0,3 C -3,4 C 33,8 km/h (5 Bft) 100,00 %
07.04.2018 03:27 6,1 C 8,9 C 66 % 1017,6 hPa 0,0 l/m 25,1 km/h (4 Bft) O 87 0 min 0,000 mm 0,0 UV-I 0 W/m 0,2 C -3,5 C 30,6 km/h (5 Bft) 100,00 %
07.04.2018 03:28 6,1 C 8,9 C 66 % 1017,6 hPa 0,0 l/m 29,1 km/h (5 Bft) O-NO 57 0 min 0,000 mm 0,0 UV-I 0 W/m 0,2 C -4,6 C 37,0 km/h (5 Bft) 96,55 %
07.04.2018 03:29 6,1 C 8,9 C 66 % 1017,6 hPa 0,0 l/m 26,7 km/h (4 Bft) O 100 0 min 0,000 mm 0,0 UV-I 0 W/m 0,2 C -4,0 C 33,8 km/h (5 Bft) 100,00 %
07.04.2018 03:30 6,1 C 8,9 C 66 % 1017,6 hPa 0,0 l/m 26,4 km/h (4 Bft) NO 46 0 min 0,000 mm 0,0 UV-I 0 W/m 0,2 C -3,9 C 32,2 km/h (5 Bft) 95,65 %
07.04.2018 03:31 6,1 C 8,9 C 66 % 1017,6 hPa 0,0 l/m 26,0 km/h (4 Bft) O 88 0 min 0,000 mm 0,0 UV-I 0 W/m 0,2 C -3,8 C 35,4 km/h (5 Bft) 100,00 %
07.04.2018 03:32 6,0 C 8,9 C 67 % 1017,6 hPa 0,0 l/m 25,3 km/h (4 Bft) O-NO 63 0 min 0,000 mm 0,0 UV-I 0 W/m 0,3 C -3,7 C 30,6 km/h (5 Bft) 96,15 %
07.04.2018 03:33 6,0 C 8,9 C 67 % 1017,6 hPa 0,0 l/m 25,1 km/h (4 Bft) O-NO 62 0 min 0,000 mm 0,0 UV-I 0 W/m 0,3 C -3,6 C 32,2 km/h (5 Bft) 100,00 %
07.04.2018 03:34 6,0 C 8,9 C 67 % 1017,6 hPa 0,0 l/m 17,5 km/h (3 Bft) O 84 0 min 0,000 mm 0,0 UV-I 0 W/m 0,3 C -0,9 C 22,5 km/h (4 Bft) 100,00 %
07.04.2018 03:35 5,9 C 8,9 C 67 % 1017,6 hPa 0,0 l/m 21,2 km/h (4 Bft) O 94 0 min 0,000 mm 0,0 UV-I 0 W/m 0,3 C -2,5 C 27,4 km/h (4 Bft) 100,00 %
07.04.2018 03:36 5,9 C 8,9 C 67 % 1017,6 hPa 0,0 l/m 18,0 km/h (3 Bft) O 90 0 min 0,000 mm 0,0 UV-I 0 W/m 0,3 C -1,2 C 24,1 km/h (4 Bft) 100,00 %
07.04.2018 03:37 5,9 C 8,9 C 67 % 1017,6 hPa 0,0 l/m 18,3 km/h (3 Bft) O 96 0 min 0,000 mm 0,0 UV-I 0 W/m 0,3 C -1,3 C 22,5 km/h (4 Bft) 100,00 %
07.04.2018 03:38 5,9 C 8,9 C 67 % 1017,6 hPa 0,0 l/m 23,8 km/h (4 Bft) O 91 0 min 0,000 mm 0,0 UV-I 0 W/m 0,3 C -3,3 C 29,0 km/h (5 Bft) 100,00 %
07.04.2018 03:39 5,9 C 8,9 C 67 % 1017,6 hPa 0,0 l/m 21,9 km/h (4 Bft) O-NO 73 0 min 0,000 mm 0,0 UV-I 0 W/m 0,3 C -2,7 C 27,4 km/h (4 Bft) 100,00 %
07.04.2018 03:40 5,9 C 8,9 C 67 % 1017,5 hPa 0,0 l/m 23,5 km/h (4 Bft) O-SO 111 0 min 0,000 mm 0,0 UV-I 0 W/m 0,3 C -3,2 C 32,2 km/h (5 Bft) 95,65 %
07.04.2018 03:41 5,9 C 8,9 C 67 % 1017,5 hPa 0,0 l/m 25,9 km/h (4 Bft) O-NO 72 0 min 0,000 mm 0,0 UV-I 0 W/m 0,3 C -4,0 C 33,8 km/h (5 Bft) 100,00 %
07.04.2018 03:42 5,9 C 8,9 C 67 % 1017,6 hPa 0,0 l/m 23,7 km/h (4 Bft) O-NO 75 0 min 0,000 mm 0,0 UV-I 0 W/m 0,3 C -3,3 C 30,6 km/h (5 Bft) 100,00 %
07.04.2018 03:43 5,9 C 8,9 C 67 % 1017,6 hPa 0,0 l/m 22,1 km/h (4 Bft) O 82 0 min 0,000 mm 0,0 UV-I 0 W/m 0,3 C -2,8 C 30,6 km/h (5 Bft) 100,00 %
07.04.2018 03:44 5,9 C 8,9 C 67 % 1017,6 hPa 0,0 l/m 23,1 km/h (4 Bft) O-NO 67 0 min 0,000 mm 0,0 UV-I 0 W/m 0,3 C -3,1 C 29,0 km/h (5 Bft) 100,00 %
07.04.2018 03:45 5,9 C 8,9 C 67 % 1017,5 hPa 0,0 l/m 18,8 km/h (3 Bft) O 91 0 min 0,000 mm 0,0 UV-I 0 W/m 0,3 C -1,5 C 24,1 km/h (4 Bft) 100,00 %
07.04.2018 03:46 5,9 C 8,9 C 67 % 1017,5 hPa 0,0 l/m 26,5 km/h (4 Bft) O-NO 67 0 min 0,000 mm 0,0 UV-I 0 W/m 0,3 C -4,2 C 35,4 km/h (5 Bft) 95,83 %
07.04.2018 03:47 5,9 C 8,9 C 67 % 1017,4 hPa 0,0 l/m 27,0 km/h (4 Bft) O-NO 65 0 min 0,000 mm 0,0 UV-I 0 W/m 0,3 C -4,3 C 38,6 km/h (5 Bft) 96,15 %
07.04.2018 03:48 5,9 C 8,9 C 67 % 1017,5 hPa 0,0 l/m 20,9 km/h (4 Bft) O-NO 59 0 min 0,000 mm 0,0 UV-I 0 W/m 0,3 C -2,3 C 25,7 km/h (4 Bft) 100,00 %
07.04.2018 03:49 5,9 C 8,9 C 67 % 1017,5 hPa 0,0 l/m 23,5 km/h (4 Bft) O-NO 67 0 min 0,000 mm 0,0 UV-I 0 W/m 0,3 C -3,2 C 29,0 km/h (5 Bft) 97,14 %
07.04.2018 03:50 5,9 C 8,9 C 67 % 1017,4 hPa 0,0 l/m 18,8 km/h (3 Bft) O-NO 71 0 min 0,000 mm 0,0 UV-I 0 W/m 0,3 C -1,5 C 32,2 km/h (5 Bft) 100,00 %
07.04.2018 03:51 5,8 C 8,9 C 67 % 1017,4 hPa 0,0 l/m 24,6 km/h (4 Bft) O 94 0 min 0,000 mm 0,0 UV-I 0 W/m 0,2 C -3,7 C 30,6 km/h (5 Bft) 100,00 %
07.04.2018 03:52 5,8 C 8,9 C 67 % 1017,5 hPa 0,0 l/m 26,7 km/h (4 Bft) O-NO 71 0 min 0,000 mm 0,0 UV-I 0 W/m 0,2 C -4,4 C 33,8 km/h (5 Bft) 100,00 %
07.04.2018 03:53 5,8 C 8,9 C 67 % 1017,4 hPa 0,0 l/m 22,2 km/h (4 Bft) O 79 0 min 0,000 mm 0,0 UV-I 0 W/m 0,2 C -2,9 C 33,8 km/h (5 Bft) 100,00 %
07.04.2018 03:54 5,8 C 8,9 C 67 % 1017,5 hPa 0,0 l/m 26,6 km/h (4 Bft) O 92 0 min 0,000 mm 0,0 UV-I 0 W/m 0,2 C -4,3 C 38,6 km/h (5 Bft) 94,44 %
07.04.2018 03:55 5,8 C 8,3 C 67 % 1017,5 hPa 0,0 l/m 31,1 km/h (5 Bft) O 99 0 min 0,000 mm 0,0 UV-I 0 W/m 0,2 C -5,5 C 38,6 km/h (5 Bft) 100,00 %
07.04.2018 03:56 5,8 C 8,9 C 67 % 1017,4 hPa 0,0 l/m 27,9 km/h (4 Bft) O-NO 77 0 min 0,000 mm 0,0 UV-I 0 W/m 0,2 C -4,7 C 38,6 km/h (5 Bft) 100,00 %
07.04.2018 03:57 5,8 C 8,9 C 67 % 1017,4 hPa 0,0 l/m 29,2 km/h (5 Bft) O-SO 102 0 min 0,000 mm 0,0 UV-I 0 W/m 0,2 C -5,0 C 40,2 km/h (6 Bft) 100,00 %
07.04.2018 03:58 5,8 C 8,9 C 67 % 1017,5 hPa 0,0 l/m 28,4 km/h (4 Bft) O 85 0 min 0,000 mm 0,0 UV-I 0 W/m 0,2 C -4,8 C 38,6 km/h (5 Bft) 100,00 %
07.04.2018 03:59 5,8 C 8,9 C 67 % 1017,5 hPa 0,0 l/m 23,7 km/h (4 Bft) O 94 0 min 0,000 mm 0,0 UV-I 0 W/m 0,2 C -3,4 C 32,2 km/h (5 Bft) 100,00 %
07.04.2018 04:00 5,8 C 8,3 C 67 % 1017,4 hPa 0,0 l/m 22,8 km/h (4 Bft) O-NO 57 0 min 0,000 mm 0,0 UV-I 0 W/m 0,2 C -3,1 C 32,2 km/h (5 Bft) 100,00 %
07.04.2018 04:01 5,8 C 8,9 C 67 % 1017,4 hPa 0,0 l/m 27,4 km/h (4 Bft) O-NO 75 0 min 0,076 mm 0,0 UV-I 0 W/m 0,2 C -4,6 C 33,8 km/h (5 Bft) 100,00 %
07.04.2018 04:02 5,8 C 8,9 C 67 % 1017,3 hPa 0,0 l/m 29,3 km/h (5 Bft) O-NO 63 0 min 0,000 mm 0,0 UV-I 0 W/m 0,2 C -5,1 C 38,6 km/h (5 Bft) 100,00 %
07.04.2018 04:03 5,8 C 8,9 C 68 % 1017,4 hPa 0,0 l/m 26,4 km/h (4 Bft) O-SO 103 0 min 0,000 mm 0,0 UV-I 0 W/m 0,4 C -4,3 C 35,4 km/h (5 Bft) 100,00 %
07.04.2018 04:04 5,8 C 8,9 C 68 % 1017,4 hPa 0,0 l/m 30,7 km/h (5 Bft) O-NO 69 0 min 0,000 mm 0,0 UV-I 0 W/m 0,4 C -5,4 C 40,2 km/h (6 Bft) 100,00 %
07.04.2018 04:05 5,8 C 8,9 C 68 % 1017,3 hPa 0,0 l/m 30,3 km/h (5 Bft) O-SO 106 0 min 0,000 mm 0,0 UV-I 0 W/m 0,4 C -5,3 C 41,8 km/h (6 Bft) 100,00 %
07.04.2018 04:06 5,8 C 8,3 C 67 % 1017,3 hPa 0,0 l/m 28,8 km/h (4 Bft) O 82 0 min 0,000 mm 0,0 UV-I 0 W/m 0,2 C -4,9 C 45,1 km/h (6 Bft) 100,00 %
07.04.2018 04:07 5,8 C 8,9 C 68 % 1017,3 hPa 0,0 l/m 26,8 km/h (4 Bft) O 88 0 min 0,000 mm 0,0 UV-I 0 W/m 0,4 C -4,4 C 41,8 km/h (6 Bft) 92,59 %
07.04.2018 04:08 5,7 C 8,9 C 68 % 1017,3 hPa 0,0 l/m 28,3 km/h (4 Bft) O-NO 59 0 min 0,000 mm 0,0 UV-I 0 W/m 0,3 C -4,9 C 35,4 km/h (5 Bft) 100,00 %
07.04.2018 04:09 5,7 C 8,9 C 68 % 1017,3 hPa 0,0 l/m 31,9 km/h (5 Bft) O-NO 67 0 min 0,000 mm 0,0 UV-I 0 W/m 0,3 C -5,9 C 38,6 km/h (5 Bft) 100,00 %
07.04.2018 04:10 5,7 C 8,9 C 68 % 1017,3 hPa 0,0 l/m 26,6 km/h (4 Bft) O 94 0 min 0,000 mm 0,0 UV-I 0 W/m 0,3 C -4,5 C 35,4 km/h (5 Bft) 96,15 %
07.04.2018 04:11 5,7 C 8,9 C 68 % 1017,3 hPa 0,0 l/m 26,2 km/h (4 Bft) O-NO 68 0 min 0,000 mm 0,0 UV-I 0 W/m 0,3 C -4,4 C 35,4 km/h (5 Bft) 96,30 %
07.04.2018 04:12 5,7 C 8,9 C 68 % 1017,2 hPa 0,0 l/m 29,9 km/h (5 Bft) O 97 0 min 0,000 mm 0,0 UV-I 0 W/m 0,3 C -5,4 C 38,6 km/h (5 Bft) 100,00 %
07.04.2018 04:13 5,7 C 8,9 C 68 % 1017,2 hPa 0,0 l/m 31,6 km/h (5 Bft) O-NO 78 0 min 0,000 mm 0,0 UV-I 0 W/m 0,3 C -5,8 C 38,6 km/h (5 Bft) 100,00 %
07.04.2018 04:14 5,7 C 8,9 C 68 % 1017,1 hPa 0,0 l/m 25,0 km/h (4 Bft) O 79 0 min 0,000 mm 0,0 UV-I 0 W/m 0,3 C -4,0 C 37,0 km/h (5 Bft) 100,00 %
07.04.2018 04:15 5,6 C 8,9 C 68 % 1017,2 hPa 0,0 l/m 30,6 km/h (5 Bft) O-NO 76 0 min 0,000 mm 0,0 UV-I 0 W/m 0,2 C -5,7 C 40,2 km/h (6 Bft) 100,00 %
07.04.2018 04:16 5,6 C 8,9 C 68 % 1017,1 hPa 0,0 l/m 28,6 km/h (4 Bft) O-NO 78 0 min 0,000 mm 0,0 UV-I 0 W/m 0,2 C -5,2 C 37,0 km/h (5 Bft) 92,86 %
07.04.2018 04:17 5,6 C 8,9 C 68 % 1017,2 hPa 0,0 l/m 28,5 km/h (4 Bft) O 86 0 min 0,000 mm 0,0 UV-I 0 W/m 0,2 C -5,1 C 38,6 km/h (5 Bft) 96,30 %
07.04.2018 04:18 5,6 C 8,9 C 68 % 1017,1 hPa 0,0 l/m 23,8 km/h (4 Bft) O 82 0 min 0,000 mm 0,0 UV-I 0 W/m 0,2 C -3,7 C 32,2 km/h (5 Bft) 100,00 %
07.04.2018 04:19 5,5 C 8,9 C 68 % 1017,1 hPa 0,0 l/m 28,6 km/h (4 Bft) NO 55 0 min 0,000 mm 0,0 UV-I 0 W/m 0,1 C -5,3 C 37,0 km/h (5 Bft) 100,00 %
07.04.2018 04:20 5,5 C 8,9 C 68 % 1017,1 hPa 0,0 l/m 30,2 km/h (5 Bft) O-NO 71 0 min 0,000 mm 0,0 UV-I 0 W/m 0,1 C -5,7 C 38,6 km/h (5 Bft) 100,00 %
07.04.2018 04:21 5,5 C 8,9 C 68 % 1017,0 hPa 0,0 l/m 29,3 km/h (5 Bft) O 82 0 min 0,000 mm 0,0 UV-I 0 W/m 0,1 C -5,5 C 37,0 km/h (5 Bft) 100,00 %
07.04.2018 04:22 5,5 C 8,9 C 68 % 1017,1 hPa 0,0 l/m 29,9 km/h (5 Bft) O-NO 69 0 min 0,000 mm 0,0 UV-I 0 W/m 0,1 C -5,6 C 37,0 km/h (5 Bft) 100,00 %
07.04.2018 04:23 5,5 C 8,9 C 68 % 1017,0 hPa 0,0 l/m 25,8 km/h (4 Bft) O 94 0 min 0,000 mm 0,0 UV-I 0 W/m 0,1 C -4,5 C 33,8 km/h (5 Bft) 100,00 %
07.04.2018 04:24 5,5 C 8,9 C 68 % 1017,0 hPa 0,0 l/m 29,9 km/h (5 Bft) O 92 0 min 0,000 mm 0,0 UV-I 0 W/m 0,1 C -5,6 C 43,5 km/h (6 Bft) 93,33 %
07.04.2018 04:25 5,4 C 8,9 C 68 % 1017,1 hPa 0,0 l/m 24,1 km/h (4 Bft) O 80 0 min 0,000 mm 0,0 UV-I 0 W/m -0,0 C -4,1 C 30,6 km/h (5 Bft) 100,00 %
07.04.2018 04:26 5,4 C 8,9 C 69 % 1017,1 hPa 0,0 l/m 30,6 km/h (5 Bft) O-NO 57 0 min 0,000 mm 0,0 UV-I 0 W/m 0,2 C -6,0 C 33,8 km/h (5 Bft) 95,83 %
07.04.2018 04:27 5,4 C 8,9 C 68 % 1017,0 hPa 0,0 l/m 29,0 km/h (5 Bft) O 84 0 min 0,000 mm 0,0 UV-I 0 W/m -0,0 C -5,6 C 35,4 km/h (5 Bft) 100,00 %
07.04.2018 04:28 5,4 C 8,9 C 68 % 1017,0 hPa 0,0 l/m 27,4 km/h (4 Bft) O 96 0 min 0,000 mm 0,0 UV-I 0 W/m -0,0 C -5,1 C 35,4 km/h (5 Bft) 100,00 %
07.04.2018 04:29 5,4 C 8,9 C 68 % 1017,0 hPa 0,0 l/m 26,8 km/h (4 Bft) O 87 0 min 0,000 mm 0,0 UV-I 0 W/m -0,0 C -4,9 C 32,2 km/h (5 Bft) 100,00 %
07.04.2018 04:30 5,4 C 8,9 C 68 % 1017,1 hPa 0,0 l/m 22,3 km/h (4 Bft) O 79 0 min 0,000 mm 0,0 UV-I 0 W/m -0,0 C -3,5 C 32,2 km/h (5 Bft) 100,00 %
07.04.2018 04:31 5,3 C 8,9 C 69 % 1017,1 hPa 0,0 l/m 25,5 km/h (4 Bft) O-SO 105 0 min 0,000 mm 0,0 UV-I 0 W/m 0,1 C -4,7 C 33,8 km/h (5 Bft) 100,00 %
07.04.2018 04:32 5,3 C 8,9 C 69 % 1017,1 hPa 0,0 l/m 23,0 km/h (4 Bft) O-NO 61 0 min 0,000 mm 0,0 UV-I 0 W/m 0,1 C -3,9 C 30,6 km/h (5 Bft) 100,00 %
07.04.2018 04:33 5,3 C 8,9 C 69 % 1017,1 hPa 0,0 l/m 25,8 km/h (4 Bft) O-NO 68 0 min 0,000 mm 0,0 UV-I 0 W/m 0,1 C -4,8 C 35,4 km/h (5 Bft) 100,00 %
07.04.2018 04:34 5,3 C 8,3 C 69 % 1017,1 hPa 0,0 l/m 27,7 km/h (4 Bft) O 89 0 min 0,000 mm 0,0 UV-I 0 W/m 0,1 C -5,3 C 37,0 km/h (5 Bft) 100,00 %
07.04.2018 04:35 5,3 C 8,3 C 69 % 1017,0 hPa 0,0 l/m 24,8 km/h (4 Bft) O-NO 69 0 min 0,000 mm 0,0 UV-I 0 W/m 0,1 C -4,5 C 32,2 km/h (5 Bft) 100,00 %
07.04.2018 04:36 5,2 C 8,9 C 69 % 1017,1 hPa 0,0 l/m 28,5 km/h (4 Bft) O-NO 66 0 min 0,000 mm 0,0 UV-I 0 W/m -0,0 C -5,7 C 40,2 km/h (6 Bft) 100,00 %
07.04.2018 04:37 5,3 C 8,9 C 69 % 1017,0 hPa 0,0 l/m 26,7 km/h (4 Bft) O 84 0 min 0,000 mm 0,0 UV-I 0 W/m 0,1 C -5,1 C 37,0 km/h (5 Bft) 100,00 %
07.04.2018 04:38 5,2 C 8,9 C 69 % 1017,1 hPa 0,0 l/m 23,8 km/h (4 Bft) O-NO 76 0 min 0,000 mm 0,0 UV-I 0 W/m -0,0 C -4,3 C 33,8 km/h (5 Bft) 100,00 %
07.04.2018 04:39 5,2 C 8,9 C 69 % 1017,1 hPa 0,0 l/m 20,5 km/h (4 Bft) O 84 0 min 0,000 mm 0,0 UV-I 0 W/m -0,0 C -3,1 C 27,4 km/h (4 Bft) 100,00 %
07.04.2018 04:40 5,2 C 8,3 C 69 % 1017,1 hPa 0,0 l/m 27,2 km/h (4 Bft) O 84 0 min 0,000 mm 0,0 UV-I 0 W/m -0,0 C -5,3 C 40,2 km/h (6 Bft) 100,00 %
07.04.2018 04:41 5,1 C 8,9 C 69 % 1017,1 hPa 0,0 l/m 22,9 km/h (4 Bft) O-SO 111 0 min 0,000 mm 0,0 UV-I 0 W/m -0,1 C -4,1 C 29,0 km/h (5 Bft) 95,83 %
07.04.2018 04:42 5,1 C 8,9 C 69 % 1017,1 hPa 0,0 l/m 28,1 km/h (4 Bft) O 84 0 min 0,000 mm 0,0 UV-I 0 W/m -0,1 C -5,7 C 37,0 km/h (5 Bft) 100,00 %
07.04.2018 04:43 5,1 C 8,9 C 69 % 1017,0 hPa 0,0 l/m 24,1 km/h (4 Bft) O-NO 65 0 min 0,000 mm 0,0 UV-I 0 W/m -0,1 C -4,5 C 30,6 km/h (5 Bft) 100,00 %
07.04.2018 04:44 5,1 C 8,9 C 69 % 1017,1 hPa 0,0 l/m 24,8 km/h (4 Bft) O-NO 67 0 min 0,000 mm 0,0 UV-I 0 W/m -0,1 C -4,7 C 30,6 km/h (5 Bft) 100,00 %
07.04.2018 04:45 5,0 C 8,9 C 69 % 1017,1 hPa 0,0 l/m 28,7 km/h (4 Bft) O 85 0 min 0,000 mm 0,0 UV-I 0 W/m -0,2 C -6,0 C 40,2 km/h (6 Bft) 100,00 %
07.04.2018 04:46 5,0 C 8,9 C 69 % 1017,0 hPa 0,0 l/m 27,1 km/h (4 Bft) O-SO 107 0 min 0,000 mm 0,0 UV-I 0 W/m -0,2 C -5,6 C 38,6 km/h (5 Bft) 100,00 %
07.04.2018 04:47 5,0 C 8,9 C 69 % 1016,9 hPa 0,0 l/m 27,9 km/h (4 Bft) O 94 0 min 0,000 mm 0,0 UV-I 0 W/m -0,2 C -5,8 C 32,2 km/h (5 Bft) 100,00 %
07.04.2018 04:48 5,1 C 8,9 C 69 % 1017,0 hPa 0,0 l/m 23,3 km/h (4 Bft) O-NO 69 0 min 0,000 mm 0,0 UV-I 0 W/m -0,1 C -4,3 C 32,2 km/h (5 Bft) 100,00 %
07.04.2018 04:49 5,0 C 8,9 C 69 % 1017,0 hPa 0,0 l/m 22,4 km/h (4 Bft) O 98 0 min 0,000 mm 0,0 UV-I 0 W/m -0,2 C -4,1 C 29,0 km/h (5 Bft) 100,00 %
07.04.2018 04:50 5,0 C 8,9 C 69 % 1016,9 hPa 0,0 l/m 27,5 km/h (4 Bft) O 90 0 min 0,000 mm 0,0 UV-I 0 W/m -0,2 C -5,7 C 37,0 km/h (5 Bft) 96,15 %
07.04.2018 04:51 4,9 C 8,9 C 69 % 1017,0 hPa 0,0 l/m 26,0 km/h (4 Bft) O 94 0 min 0,000 mm 0,0 UV-I 0 W/m -0,3 C -5,4 C 32,2 km/h (5 Bft) 100,00 %
07.04.2018 04:52 4,9 C 8,9 C 69 % 1017,0 hPa 0,0 l/m 23,3 km/h (4 Bft) O 92 0 min 0,000 mm 0,0 UV-I 0 W/m -0,3 C -4,5 C 29,0 km/h (5 Bft) 96,15 %
07.04.2018 04:53 4,9 C 8,9 C 69 % 1017,0 hPa 0,0 l/m 21,3 km/h (4 Bft) O-NO 73 0 min 0,000 mm 0,0 UV-I 0 W/m -0,3 C -3,8 C 27,4 km/h (4 Bft) 100,00 %
07.04.2018 04:54 4,9 C 8,9 C 69 % 1016,9 hPa 0,0 l/m 22,3 km/h (4 Bft) O 82 0 min 0,000 mm 0,0 UV-I 0 W/m -0,3 C -4,2 C 27,4 km/h (4 Bft) 95,65 %
07.04.2018 04:55 4,9 C 8,9 C 69 % 1016,9 hPa 0,0 l/m 22,3 km/h (4 Bft) O 92 0 min 0,000 mm 0,0 UV-I 0 W/m -0,3 C -4,2 C 30,6 km/h (5 Bft) 100,00 %
07.04.2018 04:56 4,8 C 8,3 C 69 % 1016,9 hPa 0,0 l/m 25,4 km/h (4 Bft) O 99 0 min 0,000 mm 0,0 UV-I 0 W/m -0,4 C -5,3 C 30,6 km/h (5 Bft) 95,65 %
07.04.2018 04:57 4,8 C 8,9 C 69 % 1016,9 hPa 0,0 l/m 29,0 km/h (5 Bft) O-NO 71 0 min 0,000 mm 0,0 UV-I 0 W/m -0,4 C -6,4 C 41,8 km/h (6 Bft) 95,83 %
07.04.2018 04:58 4,8 C 8,9 C 69 % 1016,9 hPa 0,0 l/m 22,5 km/h (4 Bft) O-NO 69 0 min 0,000 mm 0,0 UV-I 0 W/m -0,4 C -4,4 C 27,4 km/h (4 Bft) 96,55 %
07.04.2018 04:59 4,8 C 8,9 C 69 % 1016,9 hPa 0,0 l/m 27,2 km/h (4 Bft) O 82 0 min 0,000 mm 0,0 UV-I 0 W/m -0,4 C -5,9 C 35,4 km/h (5 Bft) 100,00 %
07.04.2018 05:00 4,8 C 8,3 C 69 % 1016,9 hPa 0,0 l/m 23,0 km/h (4 Bft) O 82 0 min 0,000 mm 0,0 UV-I 0 W/m -0,4 C -4,5 C 29,0 km/h (5 Bft) 93,10 %
07.04.2018 05:01 4,8 C 8,9 C 69 % 1016,8 hPa 0,0 l/m 27,6 km/h (4 Bft) O 101 0 min 0,076 mm 0,0 UV-I 0 W/m -0,4 C -6,0 C 33,8 km/h (5 Bft) 95,83 %
07.04.2018 05:02 4,8 C 8,9 C 69 % 1016,9 hPa 0,0 l/m 25,3 km/h (4 Bft) O 82 0 min 0,000 mm 0,0 UV-I 0 W/m -0,4 C -5,3 C 30,6 km/h (5 Bft) 96,15 %
07.04.2018 05:03 4,8 C 8,9 C 69 % 1016,9 hPa 0,0 l/m 29,2 km/h (5 Bft) O 79 0 min 0,000 mm 0,0 UV-I 0 W/m -0,4 C -6,4 C 33,8 km/h (5 Bft) 93,33 %
07.04.2018 05:04 4,8 C 8,9 C 69 % 1016,8 hPa 0,0 l/m 24,3 km/h (4 Bft) O 85 0 min 0,000 mm 0,0 UV-I 0 W/m -0,4 C -5,0 C 32,2 km/h (5 Bft) 100,00 %
07.04.2018 05:05 4,8 C 8,9 C 69 % 1016,9 hPa 0,0 l/m 24,5 km/h (4 Bft) SO 127 0 min 0,000 mm 0,0 UV-I 0 W/m -0,4 C -5,1 C 30,6 km/h (5 Bft) 91,30 %
07.04.2018 05:06 4,7 C 8,9 C 69 % 1016,9 hPa 0,0 l/m 25,5 km/h (4 Bft) O-NO 61 0 min 0,000 mm 0,0 UV-I 0 W/m -0,5 C -5,5 C 32,2 km/h (5 Bft) 100,00 %
07.04.2018 05:07 4,8 C 8,9 C 69 % 1016,8 hPa 0,0 l/m 23,2 km/h (4 Bft) O-NO 69 0 min 0,000 mm 0,0 UV-I 0 W/m -0,4 C -4,6 C 27,4 km/h (4 Bft) 96,55 %
07.04.2018 05:08 4,7 C 8,9 C 69 % 1016,9 hPa 0,0 l/m 22,6 km/h (4 Bft) O-SO 107 0 min 0,000 mm 0,0 UV-I 0 W/m -0,5 C -4,5 C 29,0 km/h (5 Bft) 92,59 %
07.04.2018 05:09 4,7 C 8,9 C 68 % 1016,8 hPa 0,0 l/m 27,9 km/h (4 Bft) O-NO 61 0 min 0,000 mm 0,0 UV-I 0 W/m -0,7 C -6,2 C 38,6 km/h (5 Bft) 92,86 %
07.04.2018 05:10 4,7 C 8,9 C 69 % 1016,8 hPa 0,0 l/m 21,3 km/h (4 Bft) O 80 0 min 0,000 mm 0,0 UV-I 0 W/m -0,5 C -4,1 C 25,7 km/h (4 Bft) 92,59 %
07.04.2018 05:11 4,7 C 8,9 C 69 % 1016,8 hPa 0,0 l/m 24,7 km/h (4 Bft) O 83 0 min 0,000 mm 0,0 UV-I 0 W/m -0,5 C -5,3 C 32,2 km/h (5 Bft) 100,00 %
07.04.2018 05:12 4,7 C 8,9 C 69 % 1016,8 hPa 0,0 l/m 29,4 km/h (5 Bft) O 81 0 min 0,000 mm 0,0 UV-I 0 W/m -0,5 C -6,6 C 40,2 km/h (6 Bft) 88,89 %
07.04.2018 05:13 4,7 C 8,9 C 68 % 1016,8 hPa 0,0 l/m 27,3 km/h (4 Bft) O-NO 72 0 min 0,000 mm 0,0 UV-I 0 W/m -0,7 C -6,1 C 33,8 km/h (5 Bft) 97,81 %
07.04.2018 05:14 4,7 C 8,9 C 68 % 1016,8 hPa 0,0 l/m 26,6 km/h (4 Bft) O 96 0 min 0,000 mm 0,0 UV-I 0 W/m -0,7 C -5,8 C 33,8 km/h (5 Bft) 97,73 %
07.04.2018 05:15 4,7 C 8,9 C 68 % 1016,8 hPa 0,0 l/m 23,5 km/h (4 Bft) O 84 0 min 0,000 mm 0,0 UV-I 0 W/m -0,7 C -4,9 C 29,0 km/h (5 Bft) 96,88 %
07.04.2018 05:16 4,7 C 8,9 C 68 % 1016,9 hPa 0,0 l/m 17,9 km/h (3 Bft) O 80 0 min 0,000 mm 0,0 UV-I 0 W/m -0,7 C -2,7 C 27,4 km/h (4 Bft) 100,00 %
07.04.2018 05:17 4,7 C 8,9 C 69 % 1016,9 hPa 0,0 l/m 24,3 km/h (4 Bft) O-NO 67 0 min 0,000 mm 0,0 UV-I 0 W/m -0,5 C -5,1 C 29,0 km/h (5 Bft) 96,30 %
07.04.2018 05:18 4,6 C 8,9 C 69 % 1016,8 hPa 0,0 l/m 20,7 km/h (4 Bft) O-NO 70 0 min 0,000 mm 0,0 UV-I 0 W/m -0,6 C -4,0 C 29,0 km/h (5 Bft) 90,91 %
07.04.2018 05:19 4,6 C 8,9 C 68 % 1016,9 hPa 0,0 l/m 21,5 km/h (4 Bft) O 94 0 min 0,000 mm 0,0 UV-I 0 W/m -0,8 C -4,3 C 29,0 km/h (5 Bft) 100,00 %
07.04.2018 05:20 4,6 C 8,9 C 68 % 1016,8 hPa 0,0 l/m 26,1 km/h (4 Bft) O 94 0 min 0,000 mm 0,0 UV-I 0 W/m -0,8 C -5,8 C 37,0 km/h (5 Bft) 96,88 %
07.04.2018 05:21 4,6 C 8,9 C 68 % 1016,8 hPa 0,0 l/m 24,1 km/h (4 Bft) O-NO 71 0 min 0,000 mm 0,0 UV-I 0 W/m -0,8 C -5,2 C 33,8 km/h (5 Bft) 95,83 %
07.04.2018 05:22 4,6 C 8,9 C 68 % 1016,8 hPa 0,0 l/m 23,8 km/h (4 Bft) O-NO 74 0 min 0,000 mm 0,0 UV-I 0 W/m -0,8 C -5,1 C 29,0 km/h (5 Bft) 100,00 %
07.04.2018 05:23 4,6 C 8,9 C 68 % 1016,7 hPa 0,0 l/m 25,2 km/h (4 Bft) O-SO 107 0 min 0,000 mm 0,0 UV-I 0 W/m -0,8 C -5,5 C 35,4 km/h (5 Bft) 97,80 %
07.04.2018 05:24 4,6 C 8,9 C 68 % 1016,8 hPa 0,0 l/m 23,0 km/h (4 Bft) O-SO 103 0 min 0,000 mm 0,0 UV-I 0 W/m -0,8 C -4,8 C 29,0 km/h (5 Bft) 97,56 %
07.04.2018 05:25 4,6 C 8,9 C 68 % 1016,8 hPa 0,0 l/m 24,1 km/h (4 Bft) O 88 0 min 0,000 mm 0,0 UV-I 0 W/m -0,8 C -5,2 C 27,4 km/h (4 Bft) 100,00 %
07.04.2018 05:26 4,6 C 8,9 C 68 % 1016,8 hPa 0,0 l/m 23,2 km/h (4 Bft) O 83 0 min 0,000 mm 0,0 UV-I 0 W/m -0,8 C -4,9 C 29,0 km/h (5 Bft) 100,00 %
07.04.2018 05:27 4,6 C 8,9 C 68 % 1016,7 hPa 0,0 l/m 30,7 km/h (5 Bft) O-NO 66 0 min 0,000 mm 0,0 UV-I 0 W/m -0,8 C -7,1 C 38,6 km/h (5 Bft) 100,00 %
07.04.2018 05:28 4,6 C 8,9 C 68 % 1016,7 hPa 0,0 l/m 25,6 km/h (4 Bft) O 88 0 min 0,000 mm 0,0 UV-I 0 W/m -0,8 C -5,7 C 30,6 km/h (5 Bft) 96,55 %
07.04.2018 05:29 4,6 C 8,9 C 68 % 1016,7 hPa 0,0 l/m 23,9 km/h (4 Bft) O 80 0 min 0,000 mm 0,0 UV-I 0 W/m -0,8 C -5,1 C 30,6 km/h (5 Bft) 100,00 %
07.04.2018 05:30 4,6 C 8,9 C 68 % 1016,7 hPa 0,0 l/m 24,4 km/h (4 Bft) O 80 0 min 0,000 mm 0,0 UV-I 0 W/m -0,8 C -5,3 C 32,2 km/h (5 Bft) 100,00 %
07.04.2018 05:31 4,5 C 8,9 C 68 % 1016,7 hPa 0,0 l/m 22,5 km/h (4 Bft) O 90 0 min 0,000 mm 0,0 UV-I 0 W/m -0,9 C -4,8 C 27,4 km/h (4 Bft) 100,00 %
07.04.2018 05:32 4,5 C 8,9 C 68 % 1016,7 hPa 0,0 l/m 25,6 km/h (4 Bft) O 81 0 min 0,000 mm 0,0 UV-I 0 W/m -0,9 C -5,8 C 30,6 km/h (5 Bft) 96,55 %
07.04.2018 05:33 4,5 C 8,9 C 68 % 1016,7 hPa 0,0 l/m 23,7 km/h (4 Bft) O 84 0 min 0,000 mm 0,0 UV-I 0 W/m -0,9 C -5,2 C 30,6 km/h (5 Bft) 100,00 %
07.04.2018 05:34 4,4 C 8,9 C 68 % 1016,8 hPa 0,0 l/m 24,8 km/h (4 Bft) O 87 0 min 0,000 mm 0,0 UV-I 0 W/m -1,0 C -5,7 C 37,0 km/h (5 Bft) 100,00 %
07.04.2018 05:35 4,5 C 8,9 C 68 % 1016,7 hPa 0,0 l/m 24,4 km/h (4 Bft) O-NO 75 0 min 0,000 mm 0,0 UV-I 0 W/m -0,9 C -5,4 C 37,0 km/h (5 Bft) 100,00 %
07.04.2018 05:36 4,4 C 8,9 C 68 % 1016,7 hPa 0,0 l/m 32,1 km/h (5 Bft) O 86 0 min 0,000 mm 0,0 UV-I 0 W/m -1,0 C -7,8 C 45,1 km/h (6 Bft) 100,00 %
07.04.2018 05:37 4,4 C 8,9 C 68 % 1016,7 hPa 0,0 l/m 22,5 km/h (4 Bft) O 98 0 min 0,000 mm 0,0 UV-I 0 W/m -1,0 C -4,9 C 32,2 km/h (5 Bft) 100,00 %
07.04.2018 05:38 4,4 C 8,9 C 68 % 1016,7 hPa 0,0 l/m 25,2 km/h (4 Bft) O 80 0 min 0,000 mm 0,0 UV-I 0 W/m -1,0 C -5,8 C 30,6 km/h (5 Bft) 96,15 %
07.04.2018 05:39 4,4 C 8,9 C 67 % 1016,7 hPa 0,0 l/m 23,2 km/h (4 Bft) O-NO 76 0 min 0,000 mm 0,0 UV-I 0 W/m -1,2 C -5,2 C 30,6 km/h (5 Bft) 100,00 %
07.04.2018 05:40 4,4 C 8,9 C 68 % 1016,7 hPa 0,0 l/m 23,5 km/h (4 Bft) O-NO 59 0 min 0,000 mm 0,0 UV-I 0 W/m -1,0 C -5,3 C 35,4 km/h (5 Bft) 96,30 %
07.04.2018 05:41 4,4 C 8,9 C 68 % 1016,7 hPa 0,0 l/m 21,2 km/h (4 Bft) O-SO 104 0 min 0,000 mm 0,0 UV-I 0 W/m -1,0 C -4,4 C 33,8 km/h (5 Bft) 96,15 %
07.04.2018 05:42 4,4 C 8,9 C 68 % 1016,7 hPa 0,0 l/m 25,8 km/h (4 Bft) O 98 0 min 0,000 mm 0,0 UV-I 0 W/m -1,0 C -6,0 C 38,6 km/h (5 Bft) 100,00 %
07.04.2018 05:43 4,4 C 8,9 C 68 % 1016,7 hPa 0,0 l/m 22,9 km/h (4 Bft) O-NO 59 0 min 0,000 mm 0,0 UV-I 0 W/m -1,0 C -5,0 C 30,6 km/h (5 Bft) 100,00 %
07.04.2018 05:44 4,3 C 8,9 C 68 % 1016,7 hPa 0,0 l/m 21,7 km/h (4 Bft) O-SO 109 0 min 0,000 mm 0,0 UV-I 0 W/m -1,1 C -4,7 C 30,6 km/h (5 Bft) 100,00 %
07.04.2018 05:45 4,4 C 8,9 C 68 % 1016,6 hPa 0,0 l/m 24,4 km/h (4 Bft) O 95 0 min 0,000 mm 0,0 UV-I 0 W/m -1,0 C -5,6 C 32,2 km/h (5 Bft) 100,00 %
07.04.2018 05:46 4,4 C 8,9 C 67 % 1016,6 hPa 0,0 l/m 23,6 km/h (4 Bft) O 84 0 min 0,000 mm 0,0 UV-I 0 W/m -1,2 C -5,3 C 35,4 km/h (5 Bft) 100,00 %
07.04.2018 05:47 4,4 C 8,9 C 67 % 1016,6 hPa 0,0 l/m 27,7 km/h (4 Bft) O-SO 113 0 min 0,000 mm 0,0 UV-I 0 W/m -1,2 C -6,6 C 40,2 km/h (6 Bft) 100,00 %
07.04.2018 05:48 4,4 C 8,9 C 67 % 1016,6 hPa 0,0 l/m 23,2 km/h (4 Bft) O-NO 65 0 min 0,000 mm 0,0 UV-I 0 W/m -1,2 C -5,2 C 30,6 km/h (5 Bft) 100,00 %
07.04.2018 05:49 4,4 C 8,9 C 67 % 1016,7 hPa 0,0 l/m 20,1 km/h (4 Bft) O 99 0 min 0,000 mm 0,0 UV-I 0 W/m -1,2 C -4,0 C 25,7 km/h (4 Bft) 96,15 %
07.04.2018 05:50 4,3 C 8,9 C 68 % 1016,7 hPa 0,0 l/m 22,8 km/h (4 Bft) O 84 0 min 0,000 mm 0,0 UV-I 0 W/m -1,1 C -5,1 C 27,4 km/h (4 Bft) 100,00 %
07.04.2018 05:51 4,3 C 8,9 C 68 % 1016,7 hPa 0,0 l/m 23,9 km/h (4 Bft) O-NO 77 0 min 0,000 mm 0,0 UV-I 0 W/m -1,1 C -5,5 C 32,2 km/h (5 Bft) 100,00 %
07.04.2018 05:52 4,3 C 8,9 C 68 % 1016,8 hPa 0,0 l/m 23,1 km/h (4 Bft) O-SO 107 0 min 0,000 mm 0,0 UV-I 0 W/m -1,1 C -5,2 C 27,4 km/h (4 Bft) 100,00 %
07.04.2018 05:53 4,3 C 8,9 C 68 % 1016,7 hPa 0,0 l/m 27,7 km/h (4 Bft) O 98 0 min 0,000 mm 0,0 UV-I 0 W/m -1,1 C -6,7 C 38,6 km/h (5 Bft) 100,00 %
07.04.2018 05:54 4,3 C 8,9 C 68 % 1016,8 hPa 0,0 l/m 21,2 km/h (4 Bft) O-NO 75 0 min 0,000 mm 0,0 UV-I 0 W/m -1,1 C -4,6 C 25,7 km/h (4 Bft) 100,00 %
07.04.2018 05:55 4,3 C 8,9 C 68 % 1016,8 hPa 0,0 l/m 22,5 km/h (4 Bft) O 81 0 min 0,000 mm 0,0 UV-I 0 W/m -1,1 C -5,0 C 29,0 km/h (5 Bft) 100,00 %
07.04.2018 05:56 4,3 C 8,9 C 68 % 1016,7 hPa 0,0 l/m 23,9 km/h (4 Bft) O 101 0 min 0,000 mm 0,0 UV-I 0 W/m -1,1 C -5,5 C 37,0 km/h (5 Bft) 100,00 %
07.04.2018 05:57 4,3 C 8,9 C 68 % 1016,7 hPa 0,0 l/m 21,9 km/h (4 Bft) O 86 0 min 0,000 mm 0,0 UV-I 0 W/m -1,1 C -4,8 C 32,2 km/h (5 Bft) 100,00 %
07.04.2018 05:58 4,3 C 8,9 C 68 % 1016,8 hPa 0,0 l/m 22,7 km/h (4 Bft) O 88 0 min 0,000 mm 0,0 UV-I 0 W/m -1,1 C -5,1 C 30,6 km/h (5 Bft) 100,00 %
07.04.2018 05:59 4,3 C 8,9 C 68 % 1016,7 hPa 0,0 l/m 20,0 km/h (4 Bft) O 83 0 min 0,000 mm 0,0 UV-I 0 W/m -1,1 C -4,1 C 27,4 km/h (4 Bft) 100,00 %
07.04.2018 06:00 4,2 C 8,9 C 68 % 1016,7 hPa 0,0 l/m 22,8 km/h (4 Bft) O-SO 113 0 min 0,076 mm 0,0 UV-I 0 W/m -1,2 C -5,3 C 32,2 km/h (5 Bft) 100,00 %
07.04.2018 06:01 4,2 C 8,9 C 68 % 1016,8 hPa 0,0 l/m 19,3 km/h (3 Bft) NO 55 0 min 0,000 mm 0,0 UV-I 0 W/m -1,2 C -3,9 C 25,7 km/h (4 Bft) 96,30 %
07.04.2018 06:02 4,2 C 8,9 C 68 % 1016,8 hPa 0,0 l/m 22,3 km/h (4 Bft) O-NO 63 0 min 0,000 mm 0,0 UV-I 0 W/m -1,2 C -5,1 C 29,0 km/h (5 Bft) 100,00 %
07.04.2018 06:03 4,2 C 8,9 C 68 % 1016,7 hPa 0,0 l/m 21,3 km/h (4 Bft) O-NO 71 0 min 0,000 mm 0,0 UV-I 0 W/m -1,2 C -4,7 C 25,7 km/h (4 Bft) 93,33 %
07.04.2018 06:04 4,3 C 8,9 C 67 % 1016,7 hPa 0,0 l/m 23,1 km/h (4 Bft) O 82 0 min 0,000 mm 0,0 UV-I 0 W/m -1,3 C -5,2 C 32,2 km/h (5 Bft) 100,00 %
07.04.2018 06:05 4,2 C 8,9 C 68 % 1016,7 hPa 0,0 l/m 17,5 km/h (3 Bft) O-NO 65 0 min 0,000 mm 0,0 UV-I 0 W/m -1,2 C -3,1 C 22,5 km/h (4 Bft) 100,00 %
07.04.2018 06:06 4,2 C 8,9 C 68 % 1016,8 hPa 0,0 l/m 22,7 km/h (4 Bft) O-NO 77 0 min 0,000 mm 0,0 UV-I 0 W/m -1,2 C -5,2 C 27,4 km/h (4 Bft) 100,00 %
07.04.2018 06:07 4,2 C 8,9 C 68 % 1016,7 hPa 0,0 l/m 21,7 km/h (4 Bft) O 96 0 min 0,000 mm 0,0 UV-I 0 W/m -1,2 C -4,9 C 27,4 km/h (4 Bft) 93,33 %
07.04.2018 06:08 4,2 C 8,9 C 68 % 1016,8 hPa 0,0 l/m 23,9 km/h (4 Bft) O 90 0 min 0,000 mm 0,0 UV-I 0 W/m -1,2 C -5,7 C 32,2 km/h (5 Bft) 100,00 %
07.04.2018 06:09 4,2 C 8,9 C 68 % 1016,6 hPa 0,0 l/m 19,5 km/h (3 Bft) O 80 0 min 0,000 mm 0,0 UV-I 0 W/m -1,2 C -4,0 C 25,7 km/h (4 Bft) 94,44 %
07.04.2018 06:10 4,2 C 8,9 C 68 % 1016,8 hPa 0,0 l/m 20,7 km/h (4 Bft) O-NO 73 0 min 0,000 mm 0,0 UV-I 0 W/m -1,2 C -4,5 C 29,0 km/h (5 Bft) 100,00 %
07.04.2018 06:11 4,2 C 8,9 C 68 % 1016,7 hPa 0,0 l/m 24,3 km/h (4 Bft) O 98 0 min 0,000 mm 0,0 UV-I 0 W/m -1,2 C -5,8 C 29,0 km/h (5 Bft) 100,00 %
07.04.2018 06:12 4,1 C 8,9 C 68 % 1016,7 hPa 0,0 l/m 17,5 km/h (3 Bft) O-NO 76 0 min 0,000 mm 0,0 UV-I 0 W/m -1,3 C -3,2 C 29,0 km/h (5 Bft) 100,00 %
07.04.2018 06:13 4,1 C 8,9 C 68 % 1016,8 hPa 0,0 l/m 19,0 km/h (3 Bft) O 90 0 min 0,000 mm 0,0 UV-I 0 W/m -1,3 C -3,9 C 25,7 km/h (4 Bft) 100,00 %
07.04.2018 06:14 4,1 C 8,9 C 68 % 1016,7 hPa 0,0 l/m 21,1 km/h (4 Bft) O-NO 71 0 min 0,000 mm 0,0 UV-I 0 W/m -1,3 C -4,8 C 29,0 km/h (5 Bft) 95,65 %
07.04.2018 06:15 4,1 C 8,9 C 69 % 1016,7 hPa 0,0 l/m 20,4 km/h (4 Bft) O-SO 104 0 min 0,000 mm 0,0 UV-I 0 W/m -1,1 C -4,5 C 24,1 km/h (4 Bft) 100,00 %
07.04.2018 06:16 4,1 C 8,9 C 68 % 1016,7 hPa 0,0 l/m 19,0 km/h (3 Bft) O 84 0 min 0,000 mm 0,0 UV-I 0 W/m -1,3 C -3,9 C 24,1 km/h (4 Bft) 100,00 %
07.04.2018 06:17 4,0 C 8,9 C 69 % 1016,7 hPa 0,0 l/m 18,2 km/h (3 Bft) O-NO 74 0 min 0,000 mm 0,0 UV-I 0 W/m -1,2 C -3,7 C 24,1 km/h (4 Bft) 100,00 %
07.04.2018 06:18 4,0 C 8,9 C 69 % 1016,7 hPa 0,0 l/m 23,2 km/h (4 Bft) O-SO 115 0 min 0,000 mm 0,0 UV-I 0 W/m -1,2 C -5,7 C 29,0 km/h (5 Bft) 100,00 %
07.04.2018 06:19 4,0 C 8,9 C 69 % 1016,7 hPa 0,0 l/m 19,8 km/h (3 Bft) O-NO 63 0 min 0,000 mm 0,0 UV-I 3 W/m -1,2 C -4,4 C 30,6 km/h (5 Bft) 100,00 %
07.04.2018 06:20 4,0 C 8,9 C 69 % 1016,7 hPa 0,0 l/m 20,4 km/h (4 Bft) O-SO 113 0 min 0,000 mm 0,0 UV-I 5 W/m -1,2 C -4,6 C 27,4 km/h (4 Bft) 100,00 %
07.04.2018 06:21 4,0 C 8,9 C 69 % 1016,6 hPa 0,0 l/m 17,9 km/h (3 Bft) O-SO 110 0 min 0,000 mm 0,0 UV-I 5 W/m -1,2 C -3,6 C 24,1 km/h (4 Bft) 100,00 %
07.04.2018 06:22 4,0 C 8,9 C 69 % 1016,6 hPa 0,0 l/m 24,1 km/h (4 Bft) O-SO 103 0 min 0,000 mm 0,0 UV-I 5 W/m -1,2 C -6,0 C 30,6 km/h (5 Bft) 100,00 %
07.04.2018 06:23 4,0 C 8,9 C 69 % 1016,7 hPa 0,0 l/m 24,0 km/h (4 Bft) O 82 0 min 0,000 mm 0,0 UV-I 5 W/m -1,2 C -6,0 C 33,8 km/h (5 Bft) 100,00 %
07.04.2018 06:24 4,1 C 8,9 C 69 % 1016,5 hPa 0,0 l/m 24,9 km/h (4 Bft) O 79 0 min 0,000 mm 0,0 UV-I 5 W/m -1,1 C -6,1 C 32,2 km/h (5 Bft) 100,00 %
07.04.2018 06:25 4,0 C 8,9 C 69 % 1016,6 hPa 0,0 l/m 19,9 km/h (4 Bft) O-NO 76 0 min 0,000 mm 0,0 UV-I 5 W/m -1,2 C -4,4 C 30,6 km/h (5 Bft) 100,00 %
07.04.2018 06:26 4,1 C 8,9 C 68 % 1016,7 hPa 0,0 l/m 18,9 km/h (3 Bft) O-NO 78 0 min 0,000 mm 0,0 UV-I 7 W/m -1,3 C -3,9 C 25,7 km/h (4 Bft) 100,00 %
07.04.2018 06:27 4,1 C 8,9 C 68 % 1016,7 hPa 0,0 l/m 21,9 km/h (4 Bft) O 98 0 min 0,000 mm 0,0 UV-I 7 W/m -1,3 C -5,1 C 29,0 km/h (5 Bft) 100,00 %
07.04.2018 06:28 4,1 C 8,9 C 68 % 1016,6 hPa 0,0 l/m 20,2 km/h (4 Bft) O-NO 77 0 min 0,000 mm 0,0 UV-I 7 W/m -1,3 C -4,4 C 25,7 km/h (4 Bft) 95,83 %
07.04.2018 06:29 4,1 C 8,9 C 68 % 1016,7 hPa 0,0 l/m 21,1 km/h (4 Bft) O 101 0 min 0,000 mm 0,0 UV-I 7 W/m -1,3 C -4,8 C 27,4 km/h (4 Bft) 100,00 %
07.04.2018 06:30 4,1 C 8,9 C 68 % 1016,7 hPa 0,0 l/m 15,2 km/h (3 Bft) O 96 0 min 0,000 mm 0,0 UV-I 8 W/m -1,3 C -2,1 C 17,7 km/h (3 Bft) 96,30 %
07.04.2018 06:31 4,1 C 8,9 C 68 % 1016,7 hPa 0,0 l/m 19,9 km/h (4 Bft) O 101 0 min 0,000 mm 0,0 UV-I 9 W/m -1,3 C -4,3 C 25,7 km/h (4 Bft) 100,00 %
07.04.2018 06:32 4,1 C 8,9 C 68 % 1016,7 hPa 0,0 l/m 20,0 km/h (4 Bft) O 90 0 min 0,000 mm 0,0 UV-I 9 W/m -1,3 C -4,3 C 25,7 km/h (4 Bft) 96,30 %
07.04.2018 06:33 4,1 C 8,9 C 68 % 1016,7 hPa 0,0 l/m 21,1 km/h (4 Bft) O 101 0 min 0,000 mm 0,0 UV-I 9 W/m -1,3 C -4,8 C 27,4 km/h (4 Bft) 100,00 %
07.04.2018 06:34 4,1 C 8,9 C 68 % 1016,6 hPa 0,0 l/m 22,8 km/h (4 Bft) O-SO 108 0 min 0,000 mm 0,0 UV-I 10 W/m -1,3 C -5,4 C 30,6 km/h (5 Bft) 100,00 %
07.04.2018 06:35 4,1 C 8,9 C 68 % 1016,7 hPa 0,0 l/m 18,3 km/h (3 Bft) SO 129 0 min 0,000 mm 0,0 UV-I 11 W/m -1,3 C -3,6 C 24,1 km/h (4 Bft) 100,00 %
07.04.2018 06:36 4,1 C 8,9 C 68 % 1016,8 hPa 0,0 l/m 18,3 km/h (3 Bft) O-NO 64 0 min 0,000 mm 0,0 UV-I 11 W/m -1,3 C -3,6 C 24,1 km/h (4 Bft) 96,30 %
07.04.2018 06:37 4,1 C 8,9 C 68 % 1016,7 hPa 0,0 l/m 16,5 km/h (3 Bft) O 98 0 min 0,000 mm 0,0 UV-I 12 W/m -1,3 C -2,8 C 24,1 km/h (4 Bft) 100,00 %
07.04.2018 06:38 4,1 C 8,9 C 68 % 1016,7 hPa 0,0 l/m 22,0 km/h (4 Bft) O-SO 105 0 min 0,000 mm 0,0 UV-I 12 W/m -1,3 C -5,1 C 29,0 km/h (5 Bft) 96,67 %
07.04.2018 06:39 4,1 C 8,9 C 68 % 1016,7 hPa 0,0 l/m 18,5 km/h (3 Bft) O 84 0 min 0,000 mm 0,0 UV-I 14 W/m -1,3 C -3,7 C 27,4 km/h (4 Bft) 96,30 %
07.04.2018 06:40 4,1 C 8,9 C 68 % 1016,7 hPa 0,0 l/m 22,5 km/h (4 Bft) O-NO 71 0 min 0,000 mm 0,0 UV-I 14 W/m -1,3 C -5,3 C 27,4 km/h (4 Bft) 100,00 %
07.04.2018 06:41 4,1 C 8,9 C 68 % 1016,7 hPa 0,0 l/m 17,2 km/h (3 Bft) O 98 1 min 0,000 mm 0,0 UV-I 14 W/m -1,3 C -3,1 C 20,9 km/h (4 Bft) 96,30 %
07.04.2018 06:42 4,0 C 8,9 C 68 % 1016,8 hPa 0,0 l/m 20,8 km/h (4 Bft) O-NO 76 1 min 0,000 mm 0,0 UV-I 14 W/m -1,4 C -4,8 C 25,7 km/h (4 Bft) 100,00 %
07.04.2018 06:43 4,0 C 8,9 C 68 % 1016,7 hPa 0,0 l/m 25,3 km/h (4 Bft) O-NO 68 1 min 0,000 mm 0,0 UV-I 14 W/m -1,4 C -6,4 C 32,2 km/h (5 Bft) 96,30 %
07.04.2018 06:44 4,0 C 8,9 C 68 % 1016,7 hPa 0,0 l/m 19,5 km/h (3 Bft) O-SO 118 1 min 0,000 mm 0,0 UV-I 14 W/m -1,4 C -4,3 C 27,4 km/h (4 Bft) 95,65 %
07.04.2018 06:45 4,0 C 8,9 C 69 % 1016,8 hPa 0,0 l/m 20,9 km/h (4 Bft) O 92 0 min 0,000 mm 0,0 UV-I 14 W/m -1,2 C -4,8 C 25,7 km/h (4 Bft) 96,30 %
07.04.2018 06:46 3,9 C 8,9 C 69 % 1016,7 hPa 0,0 l/m 18,6 km/h (3 Bft) O 85 0 min 0,000 mm 0,0 UV-I 16 W/m -1,3 C -4,0 C 24,1 km/h (4 Bft) 100,00 %
07.04.2018 06:47 3,9 C 8,9 C 69 % 1016,7 hPa 0,0 l/m 19,5 km/h (3 Bft) O 94 0 min 0,000 mm 0,0 UV-I 16 W/m -1,3 C -4,4 C 27,4 km/h (4 Bft) 96,88 %
07.04.2018 06:48 3,9 C 8,9 C 69 % 1016,8 hPa 0,0 l/m 21,2 km/h (4 Bft) O 94 0 min 0,000 mm 0,0 UV-I 16 W/m -1,3 C -5,1 C 30,6 km/h (5 Bft) 100,00 %
07.04.2018 06:49 3,9 C 8,9 C 69 % 1016,7 hPa 0,0 l/m 23,1 km/h (4 Bft) O 96 0 min 0,000 mm 0,0 UV-I 18 W/m -1,3 C -5,8 C 29,0 km/h (5 Bft) 96,55 %
07.04.2018 06:50 3,9 C 8,9 C 69 % 1016,8 hPa 0,0 l/m 23,3 km/h (4 Bft) O-NO 65 0 min 0,000 mm 0,0 UV-I 18 W/m -1,3 C -5,9 C 30,6 km/h (5 Bft) 92,31 %
07.04.2018 06:51 3,9 C 8,9 C 69 % 1016,7 hPa 0,0 l/m 20,3 km/h (4 Bft) O 84 0 min 0,000 mm 0,0 UV-I 18 W/m -1,3 C -4,7 C 25,7 km/h (4 Bft) 83,33 %
07.04.2018 06:52 3,9 C 8,9 C 69 % 1016,7 hPa 0,0 l/m 22,1 km/h (4 Bft) O 93 0 min 0,000 mm 0,0 UV-I 20 W/m -1,3 C -5,4 C 32,2 km/h (5 Bft) 94,74 %
07.04.2018 06:53 3,9 C 8,9 C 69 % 1016,7 hPa 0,0 l/m 24,1 km/h (4 Bft) O 92 0 min 0,000 mm 0,0 UV-I 21 W/m -1,3 C -6,1 C 33,8 km/h (5 Bft) 100,00 %
07.04.2018 06:54 4,0 C 8,9 C 68 % 1016,7 hPa 0,0 l/m 24,0 km/h (4 Bft) O 89 0 min 0,000 mm 0,0 UV-I 21 W/m -1,4 C -6,0 C 27,4 km/h (4 Bft) 93,33 %
07.04.2018 06:55 4,0 C 8,9 C 68 % 1016,7 hPa 0,0 l/m 22,9 km/h (4 Bft) O 100 0 min 0,000 mm 0,0 UV-I 21 W/m -1,4 C -5,6 C 29,0 km/h (5 Bft) 96,15 %
07.04.2018 06:56 4,0 C 8,9 C 68 % 1016,7 hPa 0,0 l/m 18,9 km/h (3 Bft) O 91 0 min 0,000 mm 0,0 UV-I 21 W/m -1,4 C -4,0 C 22,5 km/h (4 Bft) 91,67 %
07.04.2018 06:57 4,0 C 8,9 C 69 % 1016,7 hPa 0,0 l/m 16,4 km/h (3 Bft) O-NO 70 0 min 0,000 mm 0,0 UV-I 24 W/m -1,2 C -2,8 C 20,9 km/h (4 Bft) 100,00 %
07.04.2018 06:58 3,9 C 8,9 C 69 % 1016,7 hPa 0,0 l/m 18,3 km/h (3 Bft) O 101 0 min 0,000 mm 0,0 UV-I 27 W/m -1,3 C -3,9 C 20,9 km/h (4 Bft) 92,59 %
07.04.2018 06:59 3,9 C 8,9 C 69 % 1016,7 hPa 0,0 l/m 22,5 km/h (4 Bft) O-SO 117 0 min 0,000 mm 0,0 UV-I 33 W/m -1,3 C -5,6 C 29,0 km/h (5 Bft) 97,95 %
07.04.2018 07:00 3,9 C 8,9 C 69 % 1016,7 hPa 0,0 l/m 18,8 km/h (3 Bft) O-NO 63 0 min 0,000 mm 0,0 UV-I 39 W/m -1,3 C -4,1 C 22,5 km/h (4 Bft) 94,00 %
07.04.2018 07:01 3,9 C 8,9 C 69 % 1016,7 hPa 0,0 l/m 16,3 km/h (3 Bft) O-SO 110 1 min 0,051 mm 0,0 UV-I 53 W/m -1,3 C -2,9 C 22,5 km/h (4 Bft) 92,31 %
07.04.2018 07:02 3,9 C 8,9 C 69 % 1016,7 hPa 0,0 l/m 14,2 km/h (3 Bft) O-NO 76 1 min 0,000 mm 0,0 UV-I 56 W/m -1,3 C -1,8 C 19,3 km/h (3 Bft) 100,00 %
07.04.2018 07:03 3,9 C 8,9 C 69 % 1016,7 hPa 0,0 l/m 16,2 km/h (3 Bft) O-SO 110 1 min 0,000 mm 0,0 UV-I 58 W/m -1,3 C -2,9 C 24,1 km/h (4 Bft) 91,30 %
07.04.2018 07:04 3,9 C 8,9 C 69 % 1016,7 hPa 0,0 l/m 17,5 km/h (3 Bft) O 86 1 min 0,000 mm 0,0 UV-I 61 W/m -1,3 C -3,5 C 24,1 km/h (4 Bft) 100,00 %
07.04.2018 07:05 3,9 C 8,9 C 69 % 1016,7 hPa 0,0 l/m 13,2 km/h (3 Bft) O 93 1 min 0,000 mm 0,0 UV-I 62 W/m -1,3 C -1,2 C 19,3 km/h (3 Bft) 88,46 %
07.04.2018 07:06 3,9 C 8,9 C 69 % 1016,7 hPa 0,0 l/m 20,5 km/h (4 Bft) O 96 1 min 0,000 mm 0,0 UV-I 66 W/m -1,3 C -4,8 C 27,4 km/h (4 Bft) 96,30 %
07.04.2018 07:07 3,9 C 8,9 C 69 % 1016,7 hPa 0,0 l/m 19,3 km/h (3 Bft) O 94 1 min 0,000 mm 0,0 UV-I 69 W/m -1,3 C -4,3 C 25,7 km/h (4 Bft) 92,86 %
07.04.2018 07:08 3,9 C 8,9 C 69 % 1016,7 hPa 0,0 l/m 21,2 km/h (4 Bft) O-NO 66 1 min 0,000 mm 0,0 UV-I 70 W/m -1,3 C -5,1 C 27,4 km/h (4 Bft) 96,30 %
07.04.2018 07:09 4,0 C 8,9 C 68 % 1016,7 hPa 0,0 l/m 18,7 km/h (3 Bft) O-NO 77 1 min 0,000 mm 0,0 UV-I 74 W/m -1,4 C -3,9 C 22,5 km/h (4 Bft) 95,65 %
07.04.2018 07:10 4,0 C 8,9 C 69 % 1016,7 hPa 0,0 l/m 17,0 km/h (3 Bft) O 94 1 min 0,000 mm 0,0 UV-I 76 W/m -1,2 C -3,1 C 24,1 km/h (4 Bft) 91,67 %
07.04.2018 07:11 4,1 C 8,9 C 69 % 1016,7 hPa 0,0 l/m 18,2 km/h (3 Bft) O 90 1 min 0,000 mm 0,0 UV-I 78 W/m -1,1 C -3,6 C 24,1 km/h (4 Bft) 100,00 %
07.04.2018 07:12 4,1 C 8,9 C 68 % 1016,7 hPa 0,0 l/m 15,6 km/h (3 Bft) O-NO 58 1 min 0,000 mm 0,0 UV-I 80 W/m -1,3 C -2,3 C 22,5 km/h (4 Bft) 96,55 %
07.04.2018 07:13 4,1 C 8,9 C 68 % 1016,7 hPa 0,0 l/m 18,1 km/h (3 Bft) O-NO 74 1 min 0,000 mm 0,0 UV-I 83 W/m -1,3 C -3,5 C 22,5 km/h (4 Bft) 100,00 %
07.04.2018 07:14 4,1 C 8,9 C 68 % 1016,7 hPa 0,0 l/m 19,8 km/h (3 Bft) O 86 1 min 0,000 mm 0,0 UV-I 86 W/m -1,3 C -4,3 C 25,7 km/h (4 Bft) 92,31 %
07.04.2018 07:15 4,1 C 8,9 C 68 % 1016,7 hPa 0,0 l/m 17,0 km/h (3 Bft) O 84 1 min 0,000 mm 0,0 UV-I 88 W/m -1,3 C -3,0 C 20,9 km/h (4 Bft) 100,00 %
07.04.2018 07:16 4,1 C 8,9 C 68 % 1016,7 hPa 0,0 l/m 15,5 km/h (3 Bft) NO 53 1 min 0,000 mm 0,0 UV-I 90 W/m -1,3 C -2,3 C 20,9 km/h (4 Bft) 84,62 %
07.04.2018 07:17 4,1 C 8,9 C 69 % 1016,7 hPa 0,0 l/m 20,5 km/h (4 Bft) O 101 1 min 0,000 mm 0,0 UV-I 93 W/m -1,1 C -4,5 C 25,7 km/h (4 Bft) 96,30 %
07.04.2018 07:18 4,1 C 8,9 C 68 % 1016,7 hPa 0,0 l/m 16,8 km/h (3 Bft) O 99 1 min 0,000 mm 0,0 UV-I 96 W/m -1,3 C -2,9 C 24,1 km/h (4 Bft) 92,86 %
07.04.2018 07:19 4,2 C 8,9 C 68 % 1016,8 hPa 0,0 l/m 16,1 km/h (3 Bft) O 99 1 min 0,000 mm 0,0 UV-I 98 W/m -1,2 C -2,5 C 22,5 km/h (4 Bft) 100,00 %
07.04.2018 07:20 4,1 C 8,9 C 68 % 1016,8 hPa 0,0 l/m 13,8 km/h (3 Bft) O 88 1 min 0,000 mm 0,0 UV-I 100 W/m -1,3 C -1,4 C 19,3 km/h (3 Bft) 92,31 %
07.04.2018 07:21 4,2 C 8,9 C 68 % 1016,8 hPa 0,0 l/m 12,7 km/h (3 Bft) O 81 1 min 0,000 mm 0,0 UV-I 102 W/m -1,2 C -0,6 C 16,1 km/h (3 Bft) 93,33 %
07.04.2018 07:22 4,1 C 8,9 C 68 % 1016,8 hPa 0,0 l/m 11,8 km/h (2 Bft) O 82 1 min 0,000 mm 0,0 UV-I 105 W/m -1,3 C -0,2 C 14,5 km/h (3 Bft) 90,91 %
07.04.2018 07:23 4,1 C 8,9 C 68 % 1016,8 hPa 0,0 l/m 9,7 km/h (2 Bft) O-NO 74 1 min 0,000 mm 0,0 UV-I 108 W/m -1,3 C 1,3 C 12,9 km/h (3 Bft) 92,59 %
07.04.2018 07:24 4,1 C 8,9 C 68 % 1016,8 hPa 0,0 l/m 10,5 km/h (2 Bft) O-SO 107 1 min 0,000 mm 0,0 UV-I 110 W/m -1,3 C 0,7 C 16,1 km/h (3 Bft) 100,00 %
07.04.2018 07:25 4,2 C 8,9 C 68 % 1016,8 hPa 0,0 l/m 12,7 km/h (3 Bft) O 98 1 min 0,000 mm 0,0 UV-I 113 W/m -1,2 C -0,6 C 17,7 km/h (3 Bft) 91,67 %
07.04.2018 07:26 4,2 C 8,9 C 68 % 1016,7 hPa 0,0 l/m 11,2 km/h (2 Bft) O 99 1 min 0,000 mm 0,0 UV-I 114 W/m -1,2 C 0,4 C 16,1 km/h (3 Bft) 100,00 %
07.04.2018 07:27 4,2 C 8,9 C 68 % 1016,7 hPa 0,0 l/m 20,0 km/h (4 Bft) O-SO 113 1 min 0,000 mm 0,0 UV-I 117 W/m -1,2 C -4,2 C 30,6 km/h (5 Bft) 92,59 %
07.04.2018 07:28 4,2 C 8,9 C 68 % 1016,8 hPa 0,0 l/m 14,6 km/h (3 Bft) O-SO 103 1 min 0,000 mm 0,0 UV-I 120 W/m -1,2 C -1,7 C 17,7 km/h (3 Bft) 95,65 %
07.04.2018 07:29 4,2 C 8,9 C 68 % 1016,7 hPa 0,0 l/m 16,4 km/h (3 Bft) O 100 1 min 0,000 mm 0,0 UV-I 122 W/m -1,2 C -2,6 C 25,7 km/h (4 Bft) 95,83 %
07.04.2018 07:30 4,3 C 8,9 C 68 % 1016,7 hPa 0,0 l/m 15,6 km/h (3 Bft) O 83 1 min 0,000 mm 0,0 UV-I 124 W/m -1,1 C -2,1 C 22,5 km/h (4 Bft) 96,55 %
07.04.2018 07:31 4,3 C 8,9 C 68 % 1016,7 hPa 0,0 l/m 15,7 km/h (3 Bft) O 86 1 min 0,000 mm 0,0 UV-I 128 W/m -1,1 C -2,1 C 22,5 km/h (4 Bft) 100,00 %
07.04.2018 07:32 4,3 C 8,9 C 68 % 1016,7 hPa 0,0 l/m 17,7 km/h (3 Bft) O-SO 103 1 min 0,000 mm 0,0 UV-I 130 W/m -1,1 C -3,1 C 22,5 km/h (4 Bft) 97,71 %
07.04.2018 07:33 4,3 C 8,9 C 68 % 1016,7 hPa 0,0 l/m 16,3 km/h (3 Bft) O 82 1 min 0,000 mm 0,0 UV-I 133 W/m -1,1 C -2,4 C 20,9 km/h (4 Bft) 97,73 %
07.04.2018 07:34 4,3 C 8,9 C 68 % 1016,7 hPa 0,0 l/m 19,6 km/h (3 Bft) O-NO 78 1 min 0,000 mm 0,0 UV-I 136 W/m -1,1 C -3,9 C 25,7 km/h (4 Bft) 92,31 %
07.04.2018 07:35 4,3 C 8,9 C 67 % 1016,6 hPa 0,0 l/m 18,5 km/h (3 Bft) O 95 1 min 0,000 mm 0,0 UV-I 138 W/m -1,3 C -3,4 C 22,5 km/h (4 Bft) 100,00 %
07.04.2018 07:36 4,4 C 8,9 C 67 % 1016,6 hPa 0,0 l/m 21,4 km/h (4 Bft) O-SO 107 1 min 0,000 mm 0,0 UV-I 139 W/m -1,2 C -4,5 C 25,7 km/h (4 Bft) 93,33 %
07.04.2018 07:37 4,4 C 8,9 C 67 % 1016,6 hPa 0,0 l/m 17,4 km/h (3 Bft) O-NO 78 1 min 0,000 mm 0,0 UV-I 144 W/m -1,2 C -2,8 C 27,4 km/h (4 Bft) 100,00 %
07.04.2018 07:38 4,4 C 8,9 C 67 % 1016,7 hPa 0,0 l/m 16,2 km/h (3 Bft) O-SO 109 1 min 0,000 mm 0,0 UV-I 146 W/m -1,2 C -2,3 C 19,3 km/h (3 Bft) 93,33 %
07.04.2018 07:39 4,4 C 8,9 C 67 % 1016,7 hPa 0,0 l/m 20,1 km/h (4 Bft) O-SO 111 1 min 0,000 mm 0,0 UV-I 150 W/m -1,2 C -4,0 C 25,7 km/h (4 Bft) 100,00 %
07.04.2018 07:40 4,5 C 8,9 C 67 % 1016,7 hPa 0,0 l/m 18,8 km/h (3 Bft) O-SO 116 1 min 0,000 mm 0,0 UV-I 153 W/m -1,1 C -3,3 C 22,5 km/h (4 Bft) 95,83 %
07.04.2018 07:41 4,5 C 8,9 C 66 % 1016,7 hPa 0,0 l/m 21,7 km/h (4 Bft) O-SO 106 1 min 0,000 mm 0,0 UV-I 156 W/m -1,3 C -4,5 C 27,4 km/h (4 Bft) 100,00 %
07.04.2018 07:42 4,5 C 8,9 C 67 % 1016,6 hPa 0,0 l/m 16,0 km/h (3 Bft) O-SO 105 1 min 0,000 mm 0,0 UV-I 158 W/m -1,1 C -2,0 C 22,5 km/h (4 Bft) 100,00 %
07.04.2018 07:43 4,6 C 8,9 C 66 % 1016,7 hPa 0,0 l/m 13,3 km/h (3 Bft) O 98 1 min 0,000 mm 0,0 UV-I 162 W/m -1,2 C -0,5 C 20,9 km/h (4 Bft) 100,00 %
07.04.2018 07:44 4,6 C 8,9 C 67 % 1016,7 hPa 0,0 l/m 15,1 km/h (3 Bft) SO 130 1 min 0,000 mm 0,0 UV-I 164 W/m -1,0 C -1,5 C 24,1 km/h (4 Bft) 100,00 %
07.04.2018 07:45 4,6 C 8,9 C 66 % 1016,7 hPa 0,0 l/m 17,7 km/h (3 Bft) O 80 1 min 0,000 mm 0,0 UV-I 168 W/m -1,2 C -2,7 C 22,5 km/h (4 Bft) 100,00 %
07.04.2018 07:46 4,6 C 8,9 C 66 % 1016,7 hPa 0,0 l/m 15,4 km/h (3 Bft) O 84 1 min 0,000 mm 0,0 UV-I 170 W/m -1,2 C -1,6 C 22,5 km/h (4 Bft) 100,00 %
07.04.2018 07:47 4,7 C 8,9 C 67 % 1016,8 hPa 0,0 l/m 12,6 km/h (3 Bft) O-SO 119 1 min 0,000 mm 0,0 UV-I 173 W/m -0,9 C 0,0 C 16,1 km/h (3 Bft) 100,00 %
07.04.2018 07:48 4,7 C 8,9 C 66 % 1016,7 hPa 0,0 l/m 21,0 km/h (4 Bft) O-SO 107 1 min 0,000 mm 0,0 UV-I 175 W/m -1,1 C -4,0 C 30,6 km/h (5 Bft) 100,00 %
07.04.2018 07:49 4,7 C 8,9 C 66 % 1016,7 hPa 0,0 l/m 19,3 km/h (3 Bft) O-SO 108 1 min 0,000 mm 0,0 UV-I 178 W/m -1,1 C -3,3 C 24,1 km/h (4 Bft) 100,00 %
07.04.2018 07:50 4,7 C 8,9 C 66 % 1016,8 hPa 0,0 l/m 14,1 km/h (3 Bft) O 90 1 min 0,000 mm 0,0 UV-I 181 W/m -1,1 C -0,8 C 19,3 km/h (3 Bft) 96,15 %
07.04.2018 07:51 4,8 C 8,9 C 66 % 1016,8 hPa 0,0 l/m 17,2 km/h (3 Bft) O-SO 109 1 min 0,000 mm 0,0 UV-I 184 W/m -1,0 C -2,2 C 22,5 km/h (4 Bft) 100,00 %
07.04.2018 07:52 4,8 C 8,9 C 66 % 1016,8 hPa 0,0 l/m 14,2 km/h (3 Bft) O-SO 105 1 min 0,000 mm 0,0 UV-I 187 W/m -1,0 C -0,7 C 20,9 km/h (4 Bft) 100,00 %
07.04.2018 07:53 4,8 C 8,9 C 66 % 1016,8 hPa 0,0 l/m 12,9 km/h (3 Bft) SO 140 1 min 0,000 mm 0,0 UV-I 189 W/m -1,0 C -0,0 C 20,9 km/h (4 Bft) 100,00 %
07.04.2018 07:54 4,8 C 8,9 C 66 % 1016,7 hPa 0,0 l/m 14,6 km/h (3 Bft) O 93 1 min 0,000 mm 0,0 UV-I 192 W/m -1,0 C -1,0 C 19,3 km/h (3 Bft) 100,00 %
07.04.2018 07:55 4,9 C 8,9 C 65 % 1016,8 hPa 0,0 l/m 10,4 km/h (2 Bft) O-SO 107 1 min 0,000 mm 0,0 UV-I 195 W/m -1,1 C 1,7 C 17,7 km/h (3 Bft) 100,00 %
07.04.2018 07:56 4,9 C 8,9 C 65 % 1016,7 hPa 0,0 l/m 13,3 km/h (3 Bft) O-NO 71 1 min 0,000 mm 0,0 UV-I 199 W/m -1,1 C -0,1 C 19,3 km/h (3 Bft) 100,00 %
07.04.2018 07:57 4,9 C 8,9 C 66 % 1016,7 hPa 0,0 l/m 14,5 km/h (3 Bft) O 88 1 min 0,000 mm 0,0 UV-I 201 W/m -0,9 C -0,8 C 20,9 km/h (4 Bft) 100,00 %
07.04.2018 07:58 4,9 C 8,9 C 65 % 1016,8 hPa 0,0 l/m 18,7 km/h (3 Bft) O-NO 76 1 min 0,000 mm 0,0 UV-I 204 W/m -1,1 C -2,8 C 24,1 km/h (4 Bft) 92,86 %
07.04.2018 07:59 4,9 C 8,9 C 65 % 1016,7 hPa 0,0 l/m 16,7 km/h (3 Bft) O-NO 74 1 min 0,000 mm 0,0 UV-I 207 W/m -1,1 C -1,9 C 20,9 km/h (4 Bft) 100,00 %
07.04.2018 08:00 4,9 C 8,9 C 65 % 1016,7 hPa 0,0 l/m 16,1 km/h (3 Bft) O-SO 109 1 min 0,102 mm 0,0 UV-I 210 W/m -1,1 C -1,6 C 22,5 km/h (4 Bft) 100,00 %
07.04.2018 08:01 5,0 C 8,9 C 66 % 1016,7 hPa 0,0 l/m 14,8 km/h (3 Bft) O 96 1 min 0,000 mm 0,0 UV-I 214 W/m -0,8 C -0,8 C 22,5 km/h (4 Bft) 100,00 %
07.04.2018 08:02 5,0 C 8,9 C 66 % 1016,7 hPa 0,0 l/m 19,3 km/h (3 Bft) O-NO 72 1 min 0,000 mm 0,0 UV-I 216 W/m -0,8 C -2,9 C 24,1 km/h (4 Bft) 91,30 %
07.04.2018 08:03 5,1 C 8,9 C 65 % 1016,7 hPa 0,0 l/m 22,4 km/h (4 Bft) O 82 1 min 0,000 mm 0,0 UV-I 219 W/m -0,9 C -3,9 C 32,2 km/h (5 Bft) 100,00 %
07.04.2018 08:04 5,1 C 8,9 C 65 % 1016,7 hPa 0,0 l/m 22,4 km/h (4 Bft) O-NO 67 1 min 0,000 mm 0,0 UV-I 222 W/m -0,9 C -3,9 C 29,0 km/h (5 Bft) 97,78 %
07.04.2018 08:05 5,1 C 8,9 C 66 % 1016,6 hPa 0,0 l/m 20,0 km/h (4 Bft) O 101 1 min 0,000 mm 0,0 UV-I 224 W/m -0,7 C -3,0 C 29,0 km/h (5 Bft) 100,00 %
07.04.2018 08:06 5,1 C 8,9 C 66 % 1016,7 hPa 0,0 l/m 17,9 km/h (3 Bft) O-SO 118 1 min 0,000 mm 0,0 UV-I 227 W/m -0,7 C -2,2 C 24,1 km/h (4 Bft) 96,55 %
07.04.2018 08:07 5,1 C 8,9 C 66 % 1016,6 hPa 0,0 l/m 24,9 km/h (4 Bft) O-SO 110 1 min 0,000 mm 0,0 UV-I 230 W/m -0,7 C -4,8 C 33,8 km/h (5 Bft) 100,00 %
07.04.2018 08:08 5,2 C 8,9 C 65 % 1016,6 hPa 0,0 l/m 20,9 km/h (4 Bft) O 101 1 min 0,000 mm 0,0 UV-I 233 W/m -0,8 C -3,3 C 25,7 km/h (4 Bft) 100,00 %
07.04.2018 08:09 5,2 C 8,9 C 65 % 1016,7 hPa 0,0 l/m 21,8 km/h (4 Bft) O-SO 114 1 min 0,000 mm 0,0 UV-I 236 W/m -0,8 C -3,6 C 29,0 km/h (5 Bft) 100,00 %
07.04.2018 08:10 5,2 C 8,9 C 65 % 1016,7 hPa 0,0 l/m 18,8 km/h (3 Bft) O-SO 103 1 min 0,000 mm 0,0 UV-I 238 W/m -0,8 C -2,4 C 24,1 km/h (4 Bft) 95,83 %
07.04.2018 08:11 5,2 C 8,9 C 65 % 1016,7 hPa 0,0 l/m 18,7 km/h (3 Bft) O-SO 103 1 min 0,000 mm 0,0 UV-I 242 W/m -0,8 C -2,4 C 22,5 km/h (4 Bft) 100,00 %
07.04.2018 08:12 5,2 C 8,9 C 65 % 1016,7 hPa 0,0 l/m 20,3 km/h (4 Bft) O-SO 102 1 min 0,000 mm 0,0 UV-I 244 W/m -0,8 C -3,0 C 25,7 km/h (4 Bft) 100,00 %
07.04.2018 08:13 5,2 C 8,9 C 65 % 1016,7 hPa 0,0 l/m 19,7 km/h (3 Bft) O-SO 107 1 min 0,000 mm 0,0 UV-I 248 W/m -0,8 C -2,8 C 27,4 km/h (4 Bft) 100,00 %
07.04.2018 08:14 5,2 C 8,9 C 65 % 1016,7 hPa 0,0 l/m 18,4 km/h (3 Bft) O-SO 123 1 min 0,000 mm 0,0 UV-I 252 W/m -0,8 C -2,3 C 24,1 km/h (4 Bft) 100,00 %
07.04.2018 08:15 5,3 C 8,9 C 65 % 1016,7 hPa 0,0 l/m 18,6 km/h (3 Bft) O-SO 105 1 min 0,000 mm 0,0 UV-I 254 W/m -0,7 C -2,2 C 22,5 km/h (4 Bft) 100,00 %
07.04.2018 08:16 5,3 C 8,9 C 64 % 1016,7 hPa 0,0 l/m 21,2 km/h (4 Bft) O 83 1 min 0,000 mm 0,0 UV-I 257 W/m -0,9 C -3,2 C 27,4 km/h (4 Bft) 100,00 %
07.04.2018 08:18 5,3 C 8,9 C 65 % 1016,6 hPa 0,0 l/m 15,9 km/h (3 Bft) O 94 2 min 0,000 mm 0,0 UV-I 262 W/m -0,7 C -1,0 C 22,5 km/h (4 Bft) 100,00 %
07.04.2018 08:19 5,3 C 8,9 C 65 % 1016,6 hPa 0,0 l/m 20,6 km/h (4 Bft) O 92 1 min 0,000 mm 0,0 UV-I 265 W/m -0,7 C -3,0 C 25,7 km/h (4 Bft) 100,00 %
07.04.2018 08:20 5,4 C 8,9 C 65 % 1016,6 hPa 0,0 l/m 22,5 km/h (4 Bft) O-NO 74 1 min 0,000 mm 0,0 UV-I 268 W/m -0,6 C -3,6 C 27,4 km/h (4 Bft) 100,00 %
07.04.2018 08:21 5,4 C 8,9 C 64 % 1016,6 hPa 0,0 l/m 22,9 km/h (4 Bft) O 87 1 min 0,000 mm 0,0 UV-I 272 W/m -0,9 C -3,7 C 27,4 km/h (4 Bft) 100,00 %
07.04.2018 08:22 5,4 C 8,9 C 64 % 1016,6 hPa 0,0 l/m 19,2 km/h (3 Bft) O 94 1 min 0,000 mm 0,0 UV-I 275 W/m -0,9 C -2,3 C 30,6 km/h (5 Bft) 100,00 %
07.04.2018 08:23 5,4 C 8,9 C 64 % 1016,6 hPa 0,0 l/m 23,4 km/h (4 Bft) O 96 1 min 0,000 mm 0,0 UV-I 277 W/m -0,9 C -3,9 C 32,2 km/h (5 Bft) 100,00 %
07.04.2018 08:24 5,4 C 8,9 C 64 % 1016,6 hPa 0,0 l/m 16,1 km/h (3 Bft) O-SO 115 1 min 0,000 mm 0,0 UV-I 281 W/m -0,9 C -1,0 C 20,9 km/h (4 Bft) 100,00 %
07.04.2018 08:25 5,5 C 8,9 C 64 % 1016,7 hPa 0,0 l/m 18,7 km/h (3 Bft) O-SO 113 1 min 0,000 mm 0,4 UV-I 284 W/m -0,8 C -2,0 C 24,1 km/h (4 Bft) 100,00 %
07.04.2018 08:26 5,5 C 8,9 C 64 % 1016,7 hPa 0,0 l/m 19,3 km/h (3 Bft) O-NO 65 1 min 0,000 mm 0,5 UV-I 287 W/m -0,8 C -2,2 C 27,4 km/h (4 Bft) 100,00 %
07.04.2018 08:27 5,5 C 8,9 C 64 % 1016,6 hPa 0,0 l/m 14,6 km/h (3 Bft) O 93 1 min 0,000 mm 0,5 UV-I 289 W/m -0,8 C -0,1 C 17,7 km/h (3 Bft) 95,83 %
07.04.2018 08:28 5,6 C 8,9 C 64 % 1016,6 hPa 0,0 l/m 21,7 km/h (4 Bft) O 86 1 min 0,000 mm 0,5 UV-I 292 W/m -0,7 C -3,0 C 27,4 km/h (4 Bft) 100,00 %
07.04.2018 08:29 5,6 C 8,9 C 64 % 1016,6 hPa 0,0 l/m 15,9 km/h (3 Bft) O 98 1 min 0,000 mm 0,5 UV-I 296 W/m -0,7 C -0,6 C 22,5 km/h (4 Bft) 100,00 %
07.04.2018 08:30 5,6 C 8,9 C 64 % 1016,7 hPa 0,0 l/m 13,8 km/h (3 Bft) O-NO 72 1 min 0,000 mm 0,5 UV-I 299 W/m -0,7 C 0,4 C 17,7 km/h (3 Bft) 100,00 %
07.04.2018 08:31 5,7 C 8,9 C 64 % 1016,7 hPa 0,0 l/m 17,5 km/h (3 Bft) O-SO 108 1 min 0,000 mm 0,5 UV-I 301 W/m -0,6 C -1,2 C 20,9 km/h (4 Bft) 96,30 %
07.04.2018 08:32 5,7 C 8,9 C 64 % 1016,7 hPa 0,0 l/m 15,6 km/h (3 Bft) O 90 1 min 0,000 mm 0,5 UV-I 306 W/m -0,6 C -0,4 C 19,3 km/h (3 Bft) 96,55 %
07.04.2018 08:33 5,7 C 8,9 C 64 % 1016,6 hPa 0,0 l/m 16,3 km/h (3 Bft) O 98 1 min 0,000 mm 0,5 UV-I 308 W/m -0,6 C -0,7 C 22,5 km/h (4 Bft) 100,00 %
07.04.2018 08:34 5,8 C 8,9 C 65 % 1016,7 hPa 0,0 l/m 13,4 km/h (3 Bft) O 90 1 min 0,000 mm 0,5 UV-I 310 W/m -0,3 C 0,9 C 17,7 km/h (3 Bft) 100,00 %
07.04.2018 08:35 5,8 C 8,9 C 64 % 1016,7 hPa 0,0 l/m 16,6 km/h (3 Bft) O-SO 120 1 min 0,000 mm 0,5 UV-I 313 W/m -0,5 C -0,7 C 19,3 km/h (3 Bft) 100,00 %
07.04.2018 08:36 5,9 C 8,9 C 63 % 1016,6 hPa 0,0 l/m 13,9 km/h (3 Bft) O-SO 105 1 min 0,000 mm 0,5 UV-I 316 W/m -0,6 C 0,7 C 19,3 km/h (3 Bft) 100,00 %
07.04.2018 08:37 5,9 C 8,9 C 63 % 1016,7 hPa 0,0 l/m 15,4 km/h (3 Bft) O 98 1 min 0,000 mm 0,6 UV-I 319 W/m -0,6 C -0,0 C 20,9 km/h (4 Bft) 96,67 %
07.04.2018 08:38 5,9 C 8,9 C 63 % 1016,7 hPa 0,0 l/m 12,0 km/h (2 Bft) O 97 1 min 0,000 mm 0,6 UV-I 322 W/m -0,6 C 1,8 C 16,1 km/h (3 Bft) 100,00 %
07.04.2018 08:39 6,1 C 8,9 C 64 % 1016,6 hPa 0,0 l/m 16,2 km/h (3 Bft) O 98 1 min 0,000 mm 0,6 UV-I 324 W/m -0,2 C -0,2 C 20,9 km/h (4 Bft) 100,00 %
07.04.2018 08:40 6,1 C 8,9 C 63 % 1016,7 hPa 0,0 l/m 16,4 km/h (3 Bft) O 95 1 min 0,000 mm 0,6 UV-I 328 W/m -0,4 C -0,3 C 22,5 km/h (4 Bft) 100,00 %
07.04.2018 08:41 6,2 C 8,9 C 63 % 1016,6 hPa 0,0 l/m 12,9 km/h (3 Bft) O 95 1 min 0,000 mm 0,6 UV-I 330 W/m -0,3 C 1,6 C 20,9 km/h (4 Bft) 100,00 %
07.04.2018 08:42 6,2 C 8,9 C 62 % 1016,7 hPa 0,0 l/m 14,0 km/h (3 Bft) O 80 1 min 0,000 mm 0,6 UV-I 334 W/m -0,5 C 1,0 C 17,7 km/h (3 Bft) 100,00 %
07.04.2018 08:43 6,2 C 8,9 C 62 % 1016,6 hPa 0,0 l/m 15,7 km/h (3 Bft) O 82 1 min 0,000 mm 0,6 UV-I 337 W/m -0,5 C 0,2 C 19,3 km/h (3 Bft) 100,00 %
07.04.2018 08:44 6,2 C 8,9 C 62 % 1016,7 hPa 0,0 l/m 12,2 km/h (2 Bft) O 97 1 min 0,000 mm 0,6 UV-I 340 W/m -0,5 C 2,0 C 16,1 km/h (3 Bft) 100,00 %
07.04.2018 08:45 6,3 C 8,9 C 63 % 1016,7 hPa 0,0 l/m 16,5 km/h (3 Bft) O 89 1 min 0,000 mm 0,6 UV-I 342 W/m -0,2 C -0,1 C 19,3 km/h (3 Bft) 100,00 %
07.04.2018 08:46 6,3 C 8,9 C 63 % 1016,7 hPa 0,0 l/m 16,0 km/h (3 Bft) O 96 1 min 0,000 mm 0,6 UV-I 345 W/m -0,2 C 0,2 C 24,1 km/h (4 Bft) 100,00 %
07.04.2018 08:48 6,3 C 8,9 C 62 % 1016,7 hPa 0,0 l/m 17,3 km/h (3 Bft) O 93 2 min 0,000 mm 0,6 UV-I 351 W/m -0,4 C -0,4 C 22,5 km/h (4 Bft) 97,62 %
07.04.2018 08:49 6,3 C 8,9 C 62 % 1016,6 hPa 0,0 l/m 17,4 km/h (3 Bft) O-SO 113 1 min 0,000 mm 0,7 UV-I 354 W/m -0,4 C -0,4 C 20,9 km/h (4 Bft) 96,15 %
07.04.2018 08:50 6,3 C 8,9 C 62 % 1016,5 hPa 0,0 l/m 15,3 km/h (3 Bft) O-SO 107 1 min 0,000 mm 0,7 UV-I 358 W/m -0,4 C 0,5 C 19,3 km/h (3 Bft) 100,00 %
07.04.2018 08:51 6,3 C 8,9 C 62 % 1016,6 hPa 0,0 l/m 14,9 km/h (3 Bft) O 92 1 min 0,000 mm 0,7 UV-I 359 W/m -0,4 C 0,7 C 19,3 km/h (3 Bft) 96,15 %
07.04.2018 08:52 6,4 C 8,9 C 63 % 1016,5 hPa 0,0 l/m 17,9 km/h (3 Bft) O-NO 60 1 min 0,000 mm 0,7 UV-I 363 W/m -0,1 C -0,5 C 22,5 km/h (4 Bft) 100,00 %
07.04.2018 08:53 6,4 C 8,9 C 62 % 1016,5 hPa 0,0 l/m 17,9 km/h (3 Bft) O-NO 78 1 min 0,000 mm 0,7 UV-I 366 W/m -0,3 C -0,5 C 22,5 km/h (4 Bft) 91,30 %
07.04.2018 08:54 6,4 C 8,9 C 62 % 1016,5 hPa 0,0 l/m 18,6 km/h (3 Bft) O 80 1 min 0,000 mm 0,7 UV-I 368 W/m -0,3 C -0,8 C 24,1 km/h (4 Bft) 95,83 %
07.04.2018 08:55 6,4 C 8,9 C 62 % 1016,5 hPa 0,0 l/m 22,7 km/h (4 Bft) O 98 1 min 0,000 mm 0,7 UV-I 371 W/m -0,3 C -2,3 C 27,4 km/h (4 Bft) 100,00 %
07.04.2018 08:56 6,4 C 8,9 C 61 % 1016,5 hPa 0,0 l/m 19,1 km/h (3 Bft) O-SO 105 1 min 0,000 mm 0,7 UV-I 374 W/m -0,6 C -1,0 C 24,1 km/h (4 Bft) 96,30 %
07.04.2018 08:57 6,5 C 8,9 C 61 % 1016,5 hPa 0,0 l/m 20,2 km/h (4 Bft) O 98 1 min 0,000 mm 0,7 UV-I 377 W/m -0,5 C -1,3 C 25,7 km/h (4 Bft) 100,00 %
07.04.2018 08:58 6,5 C 8,9 C 61 % 1016,4 hPa 0,0 l/m 17,8 km/h (3 Bft) O 90 1 min 0,000 mm 0,7 UV-I 380 W/m -0,5 C -0,4 C 24,1 km/h (4 Bft) 96,67 %
07.04.2018 08:59 6,6 C 8,9 C 62 % 1016,5 hPa 0,0 l/m 14,5 km/h (3 Bft) O-SO 105 1 min 0,000 mm 0,8 UV-I 383 W/m -0,1 C 1,3 C 20,9 km/h (4 Bft) 100,00 %
07.04.2018 09:00 6,7 C 8,9 C 62 % 1016,4 hPa 0,0 l/m 18,9 km/h (3 Bft) O-SO 106 1 min 0,000 mm 0,8 UV-I 384 W/m -0,1 C -0,6 C 25,7 km/h (4 Bft) 96,67 %
07.04.2018 09:01 6,7 C 8,9 C 62 % 1016,5 hPa 0,0 l/m 16,5 km/h (3 Bft) O 85 1 min 0,178 mm 0,8 UV-I 389 W/m -0,1 C 0,4 C 22,5 km/h (4 Bft) 100,00 %
07.04.2018 09:02 6,8 C 8,9 C 62 % 1016,6 hPa 0,0 l/m 19,9 km/h (4 Bft) O 80 1 min 0,000 mm 0,8 UV-I 392 W/m 0,0 C -0,8 C 27,4 km/h (4 Bft) 96,67 %
07.04.2018 09:03 6,8 C 8,9 C 61 % 1016,5 hPa 0,0 l/m 19,2 km/h (3 Bft) O-SO 105 1 min 0,000 mm 0,8 UV-I 396 W/m -0,2 C -0,5 C 24,1 km/h (4 Bft) 92,31 %
07.04.2018 09:04 6,7 C 8,9 C 61 % 1016,5 hPa 0,0 l/m 18,9 km/h (3 Bft) O-SO 103 1 min 0,000 mm 0,8 UV-I 398 W/m -0,3 C -0,6 C 25,7 km/h (4 Bft) 100,00 %
07.04.2018 09:05 6,8 C 8,9 C 61 % 1016,5 hPa 0,0 l/m 18,2 km/h (3 Bft) O-NO 74 1 min 0,000 mm 0,8 UV-I 401 W/m -0,2 C -0,2 C 20,9 km/h (4 Bft) 94,12 %
07.04.2018 09:06 6,8 C 8,9 C 61 % 1016,5 hPa 0,0 l/m 15,3 km/h (3 Bft) O 90 1 min 0,000 mm 0,8 UV-I 404 W/m -0,2 C 1,1 C 17,7 km/h (3 Bft) 100,00 %
07.04.2018 09:07 6,8 C 8,9 C 62 % 1016,4 hPa 0,0 l/m 14,6 km/h (3 Bft) O-SO 108 1 min 0,000 mm 0,8 UV-I 406 W/m 0,0 C 1,5 C 19,3 km/h (3 Bft) 96,15 %
07.04.2018 09:08 6,9 C 8,9 C 62 % 1016,5 hPa 0,0 l/m 15,2 km/h (3 Bft) O 84 1 min 0,000 mm 0,9 UV-I 409 W/m 0,1 C 1,3 C 20,9 km/h (4 Bft) 100,00 %
07.04.2018 09:09 7,0 C 8,9 C 62 % 1016,5 hPa 0,0 l/m 17,7 km/h (3 Bft) O 85 1 min 0,000 mm 0,9 UV-I 413 W/m 0,2 C 0,3 C 22,5 km/h (4 Bft) 100,00 %
07.04.2018 09:10 7,0 C 8,9 C 61 % 1016,4 hPa 0,0 l/m 20,5 km/h (4 Bft) O 96 1 min 0,000 mm 0,9 UV-I 417 W/m 0,0 C -0,8 C 24,1 km/h (4 Bft) 100,00 %
07.04.2018 09:11 7,0 C 8,9 C 62 % 1016,5 hPa 0,0 l/m 20,1 km/h (4 Bft) O 87 1 min 0,000 mm 0,9 UV-I 418 W/m 0,2 C -0,6 C 29,0 km/h (5 Bft) 93,55 %
07.04.2018 09:12 7,0 C 8,9 C 61 % 1016,5 hPa 0,0 l/m 21,8 km/h (4 Bft) O 88 1 min 0,000 mm 0,9 UV-I 421 W/m 0,0 C -1,2 C 27,4 km/h (4 Bft) 100,00 %
07.04.2018 09:13 7,0 C 8,9 C 60 % 1016,5 hPa 0,0 l/m 23,0 km/h (4 Bft) O 86 1 min 0,000 mm 0,9 UV-I 424 W/m -0,2 C -1,6 C 30,6 km/h (5 Bft) 96,30 %
07.04.2018 09:14 7,0 C 8,9 C 60 % 1016,4 hPa 0,0 l/m 21,5 km/h (4 Bft) O-SO 113 1 min 0,000 mm 0,9 UV-I 426 W/m -0,2 C -1,1 C 30,6 km/h (5 Bft) 100,00 %
07.04.2018 09:15 7,0 C 8,9 C 60 % 1016,4 hPa 0,0 l/m 18,2 km/h (3 Bft) O-SO 106 1 min 0,000 mm 0,9 UV-I 428 W/m -0,2 C 0,1 C 22,5 km/h (4 Bft) 100,00 %
07.04.2018 09:16 7,0 C 8,9 C 60 % 1016,4 hPa 0,0 l/m 23,1 km/h (4 Bft) O-NO 70 1 min 0,000 mm 0,9 UV-I 431 W/m -0,2 C -1,7 C 29,0 km/h (5 Bft) 100,00 %
07.04.2018 09:17 7,0 C 8,9 C 59 % 1016,4 hPa 0,0 l/m 26,1 km/h (4 Bft) O 88 1 min 0,000 mm 1,0 UV-I 434 W/m -0,5 C -2,5 C 35,4 km/h (5 Bft) 100,00 %
07.04.2018 09:18 7,0 C 8,9 C 60 % 1016,4 hPa 0,0 l/m 21,1 km/h (4 Bft) O-NO 68 1 min 0,000 mm 1,0 UV-I 438 W/m -0,2 C -1,0 C 27,4 km/h (4 Bft) 100,00 %
07.04.2018 09:19 7,1 C 8,9 C 60 % 1016,4 hPa 0,0 l/m 22,7 km/h (4 Bft) O-NO 68 1 min 0,000 mm 1,0 UV-I 440 W/m -0,1 C -1,4 C 27,4 km/h (4 Bft) 100,00 %
07.04.2018 09:20 7,0 C 8,9 C 60 % 1016,4 hPa 0,0 l/m 22,6 km/h (4 Bft) O 90 1 min 0,000 mm 1,0 UV-I 442 W/m -0,2 C -1,5 C 27,4 km/h (4 Bft) 100,00 %
07.04.2018 09:21 7,1 C 8,9 C 60 % 1016,4 hPa 0,0 l/m 19,9 km/h (4 Bft) O-NO 57 1 min 0,000 mm 1,0 UV-I 445 W/m -0,1 C -0,4 C 24,1 km/h (4 Bft) 95,83 %
07.04.2018 09:22 7,1 C 8,9 C 60 % 1016,3 hPa 0,0 l/m 19,4 km/h (3 Bft) O 90 1 min 0,000 mm 1,0 UV-I 448 W/m -0,1 C -0,2 C 27,4 km/h (4 Bft) 100,00 %
07.04.2018 09:23 7,1 C 8,9 C 60 % 1016,4 hPa 0,0 l/m 21,9 km/h (4 Bft) O 84 1 min 0,000 mm 1,0 UV-I 450 W/m -0,1 C -1,1 C 25,7 km/h (4 Bft) 100,00 %
07.04.2018 09:24 7,1 C 8,9 C 60 % 1016,3 hPa 0,0 l/m 16,8 km/h (3 Bft) O 90 1 min 0,000 mm 1,0 UV-I 454 W/m -0,1 C 0,8 C 24,1 km/h (4 Bft) 100,00 %
07.04.2018 09:25 7,2 C 8,9 C 61 % 1016,3 hPa 0,0 l/m 13,0 km/h (3 Bft) O-NO 73 1 min 0,000 mm 1,1 UV-I 456 W/m 0,2 C 2,7 C 19,3 km/h (3 Bft) 100,00 %
07.04.2018 09:26 7,2 C 8,9 C 61 % 1016,3 hPa 0,0 l/m 15,1 km/h (3 Bft) O 87 1 min 0,000 mm 1,1 UV-I 459 W/m 0,2 C 1,7 C 22,5 km/h (4 Bft) 100,00 %
07.04.2018 09:27 7,3 C 8,9 C 60 % 1016,4 hPa 0,0 l/m 20,7 km/h (4 Bft) O 91 1 min 0,000 mm 1,1 UV-I 462 W/m 0,1 C -0,5 C 24,1 km/h (4 Bft) 100,00 %
07.04.2018 09:28 7,3 C 8,9 C 61 % 1016,4 hPa 0,0 l/m 19,7 km/h (3 Bft) O-NO 75 1 min 0,000 mm 1,1 UV-I 464 W/m 0,3 C -0,1 C 22,5 km/h (4 Bft) 100,00 %
07.04.2018 09:29 7,4 C 8,9 C 62 % 1016,4 hPa 0,0 l/m 15,7 km/h (3 Bft) O-NO 71 1 min 0,000 mm 1,1 UV-I 468 W/m 0,6 C 1,7 C 19,3 km/h (3 Bft) 100,00 %
07.04.2018 09:30 7,5 C 8,9 C 63 % 1016,4 hPa 0,0 l/m 16,5 km/h (3 Bft) O-NO 73 1 min 0,000 mm 1,1 UV-I 471 W/m 0,9 C 1,4 C 19,3 km/h (3 Bft) 100,00 %
07.04.2018 09:31 7,6 C 8,9 C 61 % 1016,4 hPa 0,0 l/m 20,1 km/h (4 Bft) O-NO 73 1 min 0,000 mm 1,1 UV-I 473 W/m 0,6 C 0,2 C 24,1 km/h (4 Bft) 95,65 %
07.04.2018 09:32 7,6 C 8,9 C 61 % 1016,4 hPa 0,0 l/m 20,3 km/h (4 Bft) O 84 1 min 0,000 mm 1,1 UV-I 476 W/m 0,6 C 0,1 C 24,1 km/h (4 Bft) 100,00 %
07.04.2018 09:33 7,6 C 8,9 C 60 % 1016,4 hPa 0,0 l/m 19,3 km/h (3 Bft) O 82 1 min 0,000 mm 1,2 UV-I 479 W/m 0,3 C 0,4 C 24,1 km/h (4 Bft) 100,00 %
07.04.2018 09:34 7,6 C 8,9 C 59 % 1016,4 hPa 0,0 l/m 21,4 km/h (4 Bft) O-NO 64 1 min 0,000 mm 1,2 UV-I 482 W/m 0,1 C -0,3 C 25,7 km/h (4 Bft) 100,00 %
07.04.2018 09:35 7,6 C 8,9 C 58 % 1016,3 hPa 0,0 l/m 21,3 km/h (4 Bft) O 88 1 min 0,000 mm 1,2 UV-I 485 W/m -0,1 C -0,3 C 25,7 km/h (4 Bft) 96,15 %
07.04.2018 09:36 7,6 C 8,9 C 58 % 1016,4 hPa 0,0 l/m 20,4 km/h (4 Bft) O 95 1 min 0,000 mm 1,2 UV-I 488 W/m -0,1 C 0,0 C 25,7 km/h (4 Bft) 100,00 %
07.04.2018 09:37 7,6 C 8,9 C 60 % 1016,3 hPa 0,0 l/m 20,7 km/h (4 Bft) O-NO 63 1 min 0,000 mm 1,2 UV-I 490 W/m 0,3 C -0,1 C 25,7 km/h (4 Bft) 100,00 %
07.04.2018 09:38 7,7 C 8,9 C 60 % 1016,4 hPa 0,0 l/m 20,8 km/h (4 Bft) O 84 1 min 0,000 mm 1,2 UV-I 493 W/m 0,4 C 0,0 C 27,4 km/h (4 Bft) 100,00 %
07.04.2018 09:39 7,7 C 8,9 C 60 % 1016,4 hPa 0,0 l/m 19,7 km/h (3 Bft) O-NO 67 1 min 0,000 mm 1,2 UV-I 495 W/m 0,4 C 0,4 C 27,4 km/h (4 Bft) 95,65 %
07.04.2018 09:40 7,7 C 8,9 C 59 % 1016,4 hPa 0,0 l/m 20,8 km/h (4 Bft) O-NO 67 1 min 0,000 mm 1,2 UV-I 497 W/m 0,2 C 0,0 C 25,7 km/h (4 Bft) 100,00 %
07.04.2018 09:41 7,8 C 8,9 C 59 % 1016,4 hPa 0,0 l/m 20,4 km/h (4 Bft) O-NO 71 1 min 0,000 mm 1,3 UV-I 500 W/m 0,3 C 0,3 C 25,7 km/h (4 Bft) 100,00 %
07.04.2018 09:42 7,8 C 8,9 C 59 % 1016,4 hPa 0,0 l/m 19,2 km/h (3 Bft) O 98 1 min 0,000 mm 1,3 UV-I 503 W/m 0,3 C 0,7 C 24,1 km/h (4 Bft) 100,00 %
07.04.2018 09:43 7,9 C 8,9 C 60 % 1016,4 hPa 0,0 l/m 20,9 km/h (4 Bft) O 100 1 min 0,000 mm 1,3 UV-I 504 W/m 0,6 C 0,3 C 29,0 km/h (5 Bft) 100,00 %
07.04.2018 09:44 8,0 C 8,9 C 58 % 1016,4 hPa 0,0 l/m 17,0 km/h (3 Bft) O-NO 65 1 min 0,000 mm 1,3 UV-I 507 W/m 0,3 C 1,8 C 22,5 km/h (4 Bft) 100,00 %
07.04.2018 09:45 8,0 C 8,9 C 59 % 1016,4 hPa 0,0 l/m 21,1 km/h (4 Bft) O 87 1 min 0,000 mm 1,3 UV-I 511 W/m 0,5 C 0,3 C 27,4 km/h (4 Bft) 100,00 %
07.04.2018 09:46 8,1 C 8,9 C 59 % 1016,4 hPa 0,0 l/m 15,3 km/h (3 Bft) O-NO 78 1 min 0,000 mm 1,3 UV-I 512 W/m 0,6 C 2,7 C 22,5 km/h (4 Bft) 94,12 %
07.04.2018 09:47 8,1 C 8,9 C 59 % 1016,4 hPa 0,0 l/m 19,7 km/h (3 Bft) O-NO 63 1 min 0,000 mm 1,3 UV-I 511 W/m 0,6 C 0,9 C 27,4 km/h (4 Bft) 100,00 %
07.04.2018 09:48 8,1 C 8,9 C 58 % 1016,4 hPa 0,0 l/m 23,0 km/h (4 Bft) O 88 1 min 0,000 mm 1,3 UV-I 505 W/m 0,3 C -0,2 C 29,0 km/h (5 Bft) 96,15 %
07.04.2018 09:49 8,2 C 8,9 C 57 % 1016,4 hPa 0,0 l/m 20,2 km/h (4 Bft) O 84 1 min 0,000 mm 1,3 UV-I 513 W/m 0,2 C 0,9 C 25,7 km/h (4 Bft) 100,00 %
07.04.2018 09:50 8,2 C 8,9 C 58 % 1016,4 hPa 0,0 l/m 20,2 km/h (4 Bft) O 97 1 min 0,000 mm 1,3 UV-I 520 W/m 0,4 C 0,9 C 25,7 km/h (4 Bft) 100,00 %
07.04.2018 09:51 8,2 C 8,9 C 57 % 1016,4 hPa 0,0 l/m 18,9 km/h (3 Bft) O-NO 61 1 min 0,000 mm 1,4 UV-I 522 W/m 0,2 C 1,4 C 29,0 km/h (5 Bft) 96,43 %
07.04.2018 09:52 8,2 C 8,9 C 58 % 1016,4 hPa 0,0 l/m 21,5 km/h (4 Bft) O 96 1 min 0,000 mm 1,4 UV-I 526 W/m 0,4 C 0,5 C 30,6 km/h (5 Bft) 100,00 %
07.04.2018 09:53 8,2 C 8,9 C 56 % 1016,4 hPa 0,0 l/m 25,9 km/h (4 Bft) O 96 1 min 0,000 mm 1,4 UV-I 527 W/m -0,0 C -0,9 C 30,6 km/h (5 Bft) 95,83 %
07.04.2018 09:54 8,2 C 8,9 C 57 % 1016,4 hPa 0,0 l/m 21,9 km/h (4 Bft) O-NO 78 1 min 0,000 mm 1,4 UV-I 530 W/m 0,2 C 0,3 C 25,7 km/h (4 Bft) 96,15 %
07.04.2018 09:55 8,2 C 8,9 C 57 % 1016,4 hPa 0,0 l/m 19,7 km/h (3 Bft) O 94 1 min 0,000 mm 1,4 UV-I 532 W/m 0,2 C 1,1 C 24,1 km/h (4 Bft) 96,30 %
07.04.2018 09:56 8,1 C 8,9 C 58 % 1016,4 hPa 0,0 l/m 17,4 km/h (3 Bft) O-NO 71 1 min 0,000 mm 1,4 UV-I 534 W/m 0,3 C 1,8 C 20,9 km/h (4 Bft) 100,00 %
07.04.2018 09:57 8,1 C 8,9 C 58 % 1016,4 hPa 0,0 l/m 16,3 km/h (3 Bft) O-NO 70 1 min 0,000 mm 1,4 UV-I 536 W/m 0,3 C 2,3 C 20,9 km/h (4 Bft) 96,15 %
07.04.2018 09:58 8,1 C 8,9 C 58 % 1016,4 hPa 0,0 l/m 20,9 km/h (4 Bft) O-NO 75 1 min 0,000 mm 1,4 UV-I 538 W/m 0,3 C 0,5 C 22,5 km/h (4 Bft) 96,15 %
07.04.2018 09:59 8,1 C 8,9 C 58 % 1016,4 hPa 0,0 l/m 20,8 km/h (4 Bft) O-NO 62 1 min 0,000 mm 1,5 UV-I 540 W/m 0,3 C 0,6 C 25,7 km/h (4 Bft) 93,33 %
07.04.2018 10:00 8,2 C 8,9 C 58 % 1016,4 hPa 0,0 l/m 18,6 km/h (3 Bft) O-SO 121 1 min 0,279 mm 1,5 UV-I 543 W/m 0,4 C 1,5 C 24,1 km/h (4 Bft) 96,30 %
07.04.2018 10:01 8,2 C 8,9 C 59 % 1016,3 hPa 0,0 l/m 18,2 km/h (3 Bft) O-NO 73 1 min 0,000 mm 1,5 UV-I 545 W/m 0,7 C 1,6 C 22,5 km/h (4 Bft) 92,31 %
07.04.2018 10:02 8,3 C 8,9 C 58 % 1016,4 hPa 0,0 l/m 17,3 km/h (3 Bft) O-SO 109 1 min 0,000 mm 1,5 UV-I 546 W/m 0,5 C 2,1 C 22,5 km/h (4 Bft) 96,30 %
07.04.2018 10:03 8,4 C 8,9 C 60 % 1016,4 hPa 0,0 l/m 17,6 km/h (3 Bft) O 100 1 min 0,000 mm 1,5 UV-I 548 W/m 1,1 C 2,1 C 24,1 km/h (4 Bft) 100,00 %
07.04.2018 10:04 8,5 C 8,9 C 58 % 1016,3 hPa 0,0 l/m 17,6 km/h (3 Bft) O-SO 105 1 min 0,000 mm 1,5 UV-I 550 W/m 0,7 C 2,2 C 22,5 km/h (4 Bft) 95,83 %
07.04.2018 10:05 8,6 C 8,9 C 58 % 1016,4 hPa 0,0 l/m 18,9 km/h (3 Bft) O 94 1 min 0,000 mm 1,5 UV-I 554 W/m 0,8 C 1,9 C 22,5 km/h (4 Bft) 100,00 %
07.04.2018 10:06 8,6 C 8,9 C 59 % 1016,3 hPa 0,0 l/m 21,2 km/h (4 Bft) O 94 1 min 0,000 mm 1,5 UV-I 555 W/m 1,0 C 1,1 C 25,7 km/h (4 Bft) 96,67 %
07.04.2018 10:07 8,6 C 8,9 C 58 % 1016,3 hPa 0,0 l/m 17,5 km/h (3 Bft) O 92 1 min 0,000 mm 1,6 UV-I 557 W/m 0,8 C 2,4 C 25,7 km/h (4 Bft) 95,65 %
07.04.2018 10:08 8,6 C 8,9 C 58 % 1016,3 hPa 0,0 l/m 22,1 km/h (4 Bft) O 90 1 min 0,000 mm 1,6 UV-I 560 W/m 0,8 C 0,8 C 29,0 km/h (5 Bft) 100,00 %
07.04.2018 10:09 8,6 C 8,9 C 57 % 1016,3 hPa 0,0 l/m 22,4 km/h (4 Bft) O 85 1 min 0,000 mm 1,6 UV-I 561 W/m 0,6 C 0,7 C 29,0 km/h (5 Bft) 96,88 %
07.04.2018 10:10 8,6 C 8,9 C 57 % 1016,3 hPa 0,0 l/m 20,0 km/h (4 Bft) O-NO 69 1 min 0,000 mm 1,6 UV-I 563 W/m 0,6 C 1,5 C 25,7 km/h (4 Bft) 100,00 %
07.04.2018 10:11 8,6 C 8,9 C 58 % 1016,3 hPa 0,0 l/m 16,2 km/h (3 Bft) O 87 1 min 0,000 mm 1,6 UV-I 565 W/m 0,8 C 2,9 C 22,5 km/h (4 Bft) 100,00 %
07.04.2018 10:12 8,7 C 8,9 C 59 % 1016,3 hPa 0,0 l/m 13,3 km/h (3 Bft) O-SO 119 1 min 0,000 mm 1,6 UV-I 567 W/m 1,1 C 4,4 C 16,1 km/h (3 Bft) 96,55 %
07.04.2018 10:13 8,8 C 8,9 C 58 % 1016,3 hPa 0,0 l/m 19,0 km/h (3 Bft) O 82 1 min 0,000 mm 1,6 UV-I 569 W/m 1,0 C 2,1 C 25,7 km/h (4 Bft) 95,65 %
07.04.2018 10:14 8,8 C 8,9 C 57 % 1016,3 hPa 0,0 l/m 22,7 km/h (4 Bft) O-SO 103 1 min 0,000 mm 1,7 UV-I 571 W/m 0,8 C 0,9 C 29,0 km/h (5 Bft) 100,00 %
07.04.2018 10:15 8,8 C 8,9 C 56 % 1016,3 hPa 0,0 l/m 22,1 km/h (4 Bft) O 85 1 min 0,000 mm 1,7 UV-I 571 W/m 0,5 C 1,1 C 27,4 km/h (4 Bft) 91,67 %
07.04.2018 10:16 8,8 C 8,9 C 57 % 1016,3 hPa 0,0 l/m 18,4 km/h (3 Bft) O 99 1 min 0,000 mm 1,7 UV-I 573 W/m 0,8 C 2,3 C 24,1 km/h (4 Bft) 97,94 %
07.04.2018 10:17 8,8 C 8,9 C 57 % 1016,3 hPa 0,0 l/m 18,1 km/h (3 Bft) SO 137 1 min 0,000 mm 1,7 UV-I 575 W/m 0,8 C 2,4 C 22,5 km/h (4 Bft) 98,11 %
07.04.2018 10:18 8,9 C 8,9 C 58 % 1016,3 hPa 0,0 l/m 13,0 km/h (3 Bft) O-SO 107 1 min 0,000 mm 1,7 UV-I 578 W/m 1,1 C 4,7 C 19,3 km/h (3 Bft) 96,55 %
07.04.2018 10:19 9,1 C 8,9 C 57 % 1016,3 hPa 0,0 l/m 12,7 km/h (3 Bft) O 84 1 min 0,000 mm 1,7 UV-I 579 W/m 1,0 C 5,1 C 20,9 km/h (4 Bft) 100,00 %
07.04.2018 10:20 9,2 C 8,9 C 56 % 1016,3 hPa 0,0 l/m 18,8 km/h (3 Bft) O 92 1 min 0,000 mm 1,7 UV-I 581 W/m 0,9 C 2,7 C 22,5 km/h (4 Bft) 100,00 %
07.04.2018 10:21 9,2 C 8,9 C 56 % 1016,2 hPa 0,0 l/m 16,1 km/h (3 Bft) O-NO 64 1 min 0,000 mm 1,8 UV-I 584 W/m 0,9 C 3,7 C 24,1 km/h (4 Bft) 100,00 %
07.04.2018 10:22 9,2 C 8,9 C 58 % 1016,2 hPa 0,0 l/m 18,5 km/h (3 Bft) O 81 1 min 0,000 mm 1,8 UV-I 585 W/m 1,4 C 2,8 C 25,7 km/h (4 Bft) 96,15 %
07.04.2018 10:23 9,3 C 8,9 C 56 % 1016,2 hPa 0,0 l/m 22,7 km/h (4 Bft) O 99 1 min 0,000 mm 1,8 UV-I 587 W/m 1,0 C 1,5 C 29,0 km/h (5 Bft) 100,00 %
07.04.2018 10:24 9,3 C 8,9 C 55 % 1016,2 hPa 0,0 l/m 12,9 km/h (3 Bft) O 84 1 min 0,000 mm 1,8 UV-I 590 W/m 0,7 C 5,3 C 19,3 km/h (3 Bft) 93,10 %
07.04.2018 10:25 9,4 C 8,9 C 58 % 1016,2 hPa 0,0 l/m 14,3 km/h (3 Bft) O-SO 107 1 min 0,000 mm 1,8 UV-I 591 W/m 1,6 C 4,7 C 19,3 km/h (3 Bft) 95,83 %
07.04.2018 10:26 9,5 C 8,9 C 56 % 1016,2 hPa 0,0 l/m 19,9 km/h (4 Bft) O 96 1 min 0,000 mm 1,8 UV-I 592 W/m 1,2 C 2,7 C 24,1 km/h (4 Bft) 91,30 %
07.04.2018 10:27 9,6 C 8,9 C 56 % 1016,2 hPa 0,0 l/m 16,9 km/h (3 Bft) O-SO 109 1 min 0,000 mm 1,8 UV-I 594 W/m 1,3 C 3,9 C 22,5 km/h (4 Bft) 95,83 %
07.04.2018 10:28 9,6 C 8,9 C 56 % 1016,2 hPa 0,0 l/m 17,2 km/h (3 Bft) O 94 1 min 0,000 mm 1,9 UV-I 596 W/m 1,3 C 3,8 C 25,7 km/h (4 Bft) 88,24 %
07.04.2018 10:29 9,7 C 8,9 C 56 % 1016,2 hPa 0,0 l/m 16,5 km/h (3 Bft) O 89 1 min 0,000 mm 1,9 UV-I 598 W/m 1,4 C 4,2 C 22,5 km/h (4 Bft) 96,30 %
07.04.2018 10:30 9,7 C 8,9 C 55 % 1016,2 hPa 0,0 l/m 16,0 km/h (3 Bft) O 95 1 min 0,000 mm 1,9 UV-I 600 W/m 1,1 C 4,4 C 20,9 km/h (4 Bft) 96,15 %
07.04.2018 10:31 9,7 C 8,9 C 55 % 1016,3 hPa 0,0 l/m 13,1 km/h (3 Bft) O 80 1 min 0,000 mm 1,9 UV-I 602 W/m 1,1 C 5,6 C 17,7 km/h (3 Bft) 93,33 %
07.04.2018 10:32 9,8 C 8,9 C 58 % 1016,2 hPa 0,0 l/m 14,5 km/h (3 Bft) O 82 1 min 0,000 mm 1,9 UV-I 603 W/m 1,9 C 5,1 C 17,7 km/h (3 Bft) 96,15 %
07.04.2018 10:33 9,8 C 8,9 C 56 % 1016,2 hPa 0,0 l/m 16,3 km/h (3 Bft) O 84 1 min 0,000 mm 1,9 UV-I 606 W/m 1,4 C 4,4 C 22,5 km/h (4 Bft) 92,59 %
07.04.2018 10:34 9,9 C 8,9 C 56 % 1016,2 hPa 0,0 l/m 14,4 km/h (3 Bft) O 96 1 min 0,000 mm 1,9 UV-I 608 W/m 1,5 C 5,3 C 19,3 km/h (3 Bft) 100,00 %
07.04.2018 10:35 9,9 C 8,9 C 57 % 1016,2 hPa 0,0 l/m 13,8 km/h (3 Bft) O 90 1 min 0,000 mm 1,9 UV-I 611 W/m 1,8 C 5,5 C 17,7 km/h (3 Bft) 89,66 %
07.04.2018 10:36 9,9 C 8,9 C 57 % 1016,2 hPa 0,0 l/m 14,6 km/h (3 Bft) O 82 1 min 0,000 mm 2,0 UV-I 612 W/m 1,8 C 5,2 C 19,3 km/h (3 Bft) 100,00 %
07.04.2018 10:37 10,0 C 8,9 C 57 % 1016,2 hPa 0,0 l/m 15,8 km/h (3 Bft) O-NO 78 1 min 0,000 mm 2,0 UV-I 613 W/m 1,9 C 4,8 C 20,9 km/h (4 Bft) 90,62 %
07.04.2018 10:38 10,1 C 8,9 C 58 % 1016,2 hPa 0,0 l/m 14,5 km/h (3 Bft) O-NO 73 1 min 0,000 mm 2,0 UV-I 615 W/m 2,2 C 5,5 C 17,7 km/h (3 Bft) 91,67 %
07.04.2018 10:39 10,1 C 8,9 C 56 % 1016,1 hPa 0,0 l/m 18,6 km/h (3 Bft) O-NO 67 1 min 0,000 mm 2,0 UV-I 619 W/m 1,7 C 3,9 C 20,9 km/h (4 Bft) 78,57 %
07.04.2018 10:40 10,1 C 8,9 C 55 % 1016,1 hPa 0,0 l/m 16,7 km/h (3 Bft) O-NO 76 1 min 0,000 mm 2,0 UV-I 621 W/m 1,5 C 4,6 C 19,3 km/h (3 Bft) 95,24 %
07.04.2018 10:41 10,1 C 8,9 C 56 % 1016,1 hPa 0,0 l/m 16,3 km/h (3 Bft) O-NO 67 1 min 0,000 mm 2,0 UV-I 621 W/m 1,7 C 4,7 C 19,3 km/h (3 Bft) 100,00 %
07.04.2018 10:42 10,2 C 8,9 C 57 % 1016,2 hPa 0,0 l/m 14,4 km/h (3 Bft) O-NO 77 1 min 0,000 mm 2,0 UV-I 622 W/m 2,1 C 5,6 C 17,7 km/h (3 Bft) 90,91 %
07.04.2018 10:43 10,2 C 8,9 C 56 % 1016,1 hPa 0,0 l/m 17,8 km/h (3 Bft) O 80 1 min 0,000 mm 2,0 UV-I 625 W/m 1,8 C 4,3 C 20,9 km/h (4 Bft) 100,00 %
07.04.2018 10:44 10,3 C 8,9 C 56 % 1016,1 hPa 0,0 l/m 17,7 km/h (3 Bft) O 84 1 min 0,000 mm 2,1 UV-I 628 W/m 1,9 C 4,5 C 24,1 km/h (4 Bft) 93,33 %
07.04.2018 10:45 10,4 C 8,9 C 55 % 1016,1 hPa 0,0 l/m 20,0 km/h (4 Bft) O-NO 77 1 min 0,000 mm 2,1 UV-I 629 W/m 1,8 C 3,8 C 22,5 km/h (4 Bft) 100,00 %
07.04.2018 10:46 10,4 C 8,9 C 55 % 1016,1 hPa 0,0 l/m 20,2 km/h (4 Bft) O 84 1 min 0,000 mm 2,1 UV-I 632 W/m 1,8 C 3,7 C 24,1 km/h (4 Bft) 91,67 %
07.04.2018 10:47 10,4 C 8,9 C 54 % 1016,1 hPa 0,0 l/m 15,2 km/h (3 Bft) O-NO 66 1 min 0,000 mm 2,1 UV-I 634 W/m 1,5 C 5,5 C 19,3 km/h (3 Bft) 96,55 %
07.04.2018 10:48 10,4 C 8,9 C 56 % 1016,1 hPa 0,0 l/m 16,9 km/h (3 Bft) O-NO 60 1 min 0,000 mm 2,1 UV-I 636 W/m 2,0 C 4,9 C 19,3 km/h (3 Bft) 96,67 %
07.04.2018 10:49 10,5 C 8,9 C 55 % 1016,1 hPa 0,0 l/m 15,8 km/h (3 Bft) O-NO 74 1 min 0,000 mm 2,1 UV-I 637 W/m 1,8 C 5,4 C 20,9 km/h (4 Bft) 86,96 %
07.04.2018 10:50 10,5 C 8,9 C 55 % 1016,1 hPa 0,0 l/m 15,0 km/h (3 Bft) O-NO 59 1 min 0,000 mm 2,2 UV-I 638 W/m 1,8 C 5,7 C 19,3 km/h (3 Bft) 93,33 %
07.04.2018 10:51 10,6 C 8,9 C 55 % 1016,1 hPa 0,0 l/m 15,5 km/h (3 Bft) O-NO 57 1 min 0,000 mm 2,2 UV-I 640 W/m 1,9 C 5,7 C 20,9 km/h (4 Bft) 100,00 %
07.04.2018 10:52 10,7 C 8,9 C 56 % 1016,1 hPa 0,0 l/m 16,2 km/h (3 Bft) O-NO 63 1 min 0,000 mm 2,2 UV-I 641 W/m 2,3 C 5,5 C 19,3 km/h (3 Bft) 96,30 %
07.04.2018 10:53 10,8 C 8,9 C 55 % 1016,1 hPa 0,0 l/m 15,6 km/h (3 Bft) O-NO 70 1 min 0,000 mm 2,2 UV-I 643 W/m 2,1 C 5,9 C 19,3 km/h (3 Bft) 100,00 %
07.04.2018 10:54 10,8 C 8,9 C 54 % 1016,1 hPa 0,0 l/m 18,4 km/h (3 Bft) O-NO 64 1 min 0,000 mm 2,2 UV-I 645 W/m 1,9 C 4,8 C 22,5 km/h (4 Bft) 95,65 %
07.04.2018 10:55 10,9 C 8,9 C 54 % 1016,1 hPa 0,0 l/m 17,5 km/h (3 Bft) O-NO 68 1 min 0,000 mm 2,2 UV-I 647 W/m 2,0 C 5,3 C 20,9 km/h (4 Bft) 96,55 %
07.04.2018 10:56 10,9 C 8,9 C 53 % 1016,1 hPa 0,0 l/m 16,2 km/h (3 Bft) O 82 1 min 0,000 mm 2,2 UV-I 649 W/m 1,7 C 5,8 C 19,3 km/h (3 Bft) 100,00 %
07.04.2018 10:57 10,9 C 8,9 C 53 % 1016,1 hPa 0,0 l/m 14,7 km/h (3 Bft) O 84 1 min 0,000 mm 2,2 UV-I 650 W/m 1,7 C 6,3 C 19,3 km/h (3 Bft) 93,33 %
07.04.2018 10:58 10,9 C 8,9 C 55 % 1016,1 hPa 0,0 l/m 17,8 km/h (3 Bft) O 82 1 min 0,000 mm 2,2 UV-I 653 W/m 2,2 C 5,2 C 20,9 km/h (4 Bft) 100,00 %
07.04.2018 10:59 11,0 C 8,9 C 54 % 1016,1 hPa 0,0 l/m 14,4 km/h (3 Bft) O-SO 107 1 min 0,000 mm 2,3 UV-I 654 W/m 2,1 C 6,6 C 17,7 km/h (3 Bft) 92,59 %
07.04.2018 11:00 11,1 C 8,9 C 54 % 1016,1 hPa 0,0 l/m 9,1 km/h (2 Bft) O-NO 76 1 min 0,000 mm 2,3 UV-I 656 W/m 2,2 C 9,3 C 12,9 km/h (3 Bft) 100,00 %
07.04.2018 11:01 11,2 C 8,9 C 54 % 1016,1 hPa 0,0 l/m 14,8 km/h (3 Bft) O-NO 69 1 min 0,356 mm 2,3 UV-I 658 W/m 2,2 C 6,7 C 22,5 km/h (4 Bft) 95,83 %
07.04.2018 11:02 11,3 C 8,9 C 54 % 1016,1 hPa 0,0 l/m 15,8 km/h (3 Bft) O-NO 62 1 min 0,000 mm 2,3 UV-I 657 W/m 2,3 C 6,4 C 20,9 km/h (4 Bft) 100,00 %
07.04.2018 11:03 11,3 C 8,9 C 53 % 1016,1 hPa 0,0 l/m 12,5 km/h (3 Bft) O-NO 74 1 min 0,000 mm 2,3 UV-I 659 W/m 2,1 C 7,8 C 16,1 km/h (3 Bft) 96,30 %
07.04.2018 11:04 11,4 C 8,9 C 52 % 1016,0 hPa 0,0 l/m 13,2 km/h (3 Bft) O-NO 67 1 min 0,000 mm 2,3 UV-I 663 W/m 1,9 C 7,6 C 17,7 km/h (3 Bft) 100,00 %
07.04.2018 11:05 11,5 C 8,9 C 52 % 1016,1 hPa 0,0 l/m 16,6 km/h (3 Bft) O-NO 63 1 min 0,000 mm 2,3 UV-I 664 W/m 2,0 C 6,3 C 20,9 km/h (4 Bft) 96,77 %
07.04.2018 11:06 11,6 C 8,9 C 53 % 1016,1 hPa 0,0 l/m 12,8 km/h (3 Bft) O-NO 74 1 min 0,000 mm 2,3 UV-I 664 W/m 2,4 C 8,0 C 20,9 km/h (4 Bft) 100,00 %
07.04.2018 11:07 11,6 C 8,9 C 53 % 1016,1 hPa 0,0 l/m 18,3 km/h (3 Bft) O-NO 57 1 min 0,000 mm 2,4 UV-I 665 W/m 2,4 C 5,9 C 24,1 km/h (4 Bft) 96,30 %
07.04.2018 11:08 11,7 C 8,9 C 52 % 1016,1 hPa 0,0 l/m 16,7 km/h (3 Bft) O 94 1 min 0,000 mm 2,4 UV-I 668 W/m 2,2 C 6,6 C 19,3 km/h (3 Bft) 96,15 %
07.04.2018 11:09 11,7 C 8,9 C 52 % 1016,1 hPa 0,0 l/m 14,5 km/h (3 Bft) O-NO 66 1 min 0,000 mm 2,4 UV-I 670 W/m 2,2 C 7,4 C 17,7 km/h (3 Bft) 100,00 %
07.04.2018 11:10 11,8 C 8,9 C 53 % 1016,1 hPa 0,0 l/m 11,3 km/h (2 Bft) NO 42 1 min 0,000 mm 2,4 UV-I 670 W/m 2,5 C 8,9 C 17,7 km/h (3 Bft) 96,15 %
07.04.2018 11:11 11,9 C 8,9 C 54 % 1016,0 hPa 0,0 l/m 12,3 km/h (3 Bft) O 91 1 min 0,000 mm 2,4 UV-I 673 W/m 2,9 C 8,6 C 19,3 km/h (3 Bft) 100,00 %
07.04.2018 11:12 12,0 C 8,9 C 51 % 1016,0 hPa 0,0 l/m 15,1 km/h (3 Bft) NO 47 1 min 0,000 mm 2,4 UV-I 675 W/m 2,2 C 7,5 C 20,9 km/h (4 Bft) 100,00 %
07.04.2018 11:13 12,0 C 8,9 C 52 % 1016,1 hPa 0,0 l/m 14,1 km/h (3 Bft) O-NO 76 1 min 0,000 mm 2,4 UV-I 675 W/m 2,5 C 7,9 C 17,7 km/h (3 Bft) 100,00 %
07.04.2018 11:14 12,0 C 8,9 C 52 % 1016,1 hPa 0,0 l/m 19,2 km/h (3 Bft) O-NO 74 1 min 0,000 mm 2,4 UV-I 675 W/m 2,5 C 6,1 C 22,5 km/h (4 Bft) 96,15 %
07.04.2018 11:15 11,9 C 8,9 C 51 % 1016,0 hPa 0,0 l/m 18,4 km/h (3 Bft) O 99 1 min 0,000 mm 2,5 UV-I 679 W/m 2,1 C 6,2 C 20,9 km/h (4 Bft) 100,00 %
07.04.2018 11:16 11,9 C 8,9 C 51 % 1016,0 hPa 0,0 l/m 17,4 km/h (3 Bft) O-NO 65 1 min 0,000 mm 2,5 UV-I 679 W/m 2,1 C 6,6 C 20,9 km/h (4 Bft) 100,00 %
07.04.2018 11:17 11,9 C 8,9 C 52 % 1016,0 hPa 0,0 l/m 17,0 km/h (3 Bft) O-NO 65 1 min 0,000 mm 2,5 UV-I 681 W/m 2,4 C 6,7 C 22,5 km/h (4 Bft) 100,00 %
07.04.2018 11:18 12,0 C 8,9 C 51 % 1016,0 hPa 0,0 l/m 15,8 km/h (3 Bft) O-NO 65 1 min 0,000 mm 2,5 UV-I 683 W/m 2,2 C 7,3 C 19,3 km/h (3 Bft) 100,00 %
07.04.2018 11:19 12,1 C 8,9 C 51 % 1015,9 hPa 0,0 l/m 15,1 km/h (3 Bft) O-NO 76 1 min 0,000 mm 2,5 UV-I 684 W/m 2,3 C 7,6 C 17,7 km/h (3 Bft) 100,00 %
07.04.2018 11:20 12,1 C 8,9 C 51 % 1015,9 hPa 0,0 l/m 13,4 km/h (3 Bft) O 87 1 min 0,000 mm 2,5 UV-I 686 W/m 2,3 C 8,3 C 17,7 km/h (3 Bft) 100,00 %
07.04.2018 11:21 12,2 C 8,9 C 52 % 1015,9 hPa 0,0 l/m 13,4 km/h (3 Bft) O-SO 119 1 min 0,000 mm 2,5 UV-I 687 W/m 2,6 C 8,4 C 16,1 km/h (3 Bft) 100,00 %
07.04.2018 11:22 12,3 C 8,9 C 51 % 1015,9 hPa 0,0 l/m 12,3 km/h (3 Bft) O 93 1 min 0,000 mm 2,5 UV-I 688 W/m 2,5 C 9,0 C 20,9 km/h (4 Bft) 100,00 %
07.04.2018 11:23 12,4 C 8,9 C 51 % 1015,9 hPa 0,0 l/m 15,2 km/h (3 Bft) O-NO 74 1 min 0,000 mm 2,6 UV-I 690 W/m 2,6 C 8,0 C 25,7 km/h (4 Bft) 95,65 %
07.04.2018 11:24 12,6 C 8,9 C 50 % 1015,9 hPa 0,0 l/m 21,1 km/h (4 Bft) O-NO 78 1 min 0,000 mm 2,6 UV-I 690 W/m 2,5 C 6,3 C 24,1 km/h (4 Bft) 100,00 %
07.04.2018 11:25 12,6 C 8,9 C 49 % 1015,9 hPa 0,0 l/m 18,6 km/h (3 Bft) O 92 1 min 0,000 mm 2,6 UV-I 691 W/m 2,2 C 7,1 C 20,9 km/h (4 Bft) 100,00 %
07.04.2018 11:26 12,6 C 8,9 C 51 % 1015,9 hPa 0,0 l/m 17,1 km/h (3 Bft) O 96 1 min 0,000 mm 2,6 UV-I 694 W/m 2,7 C 7,5 C 22,5 km/h (4 Bft) 97,56 %
07.04.2018 11:27 12,6 C 8,9 C 49 % 1015,9 hPa 0,0 l/m 15,7 km/h (3 Bft) NO 56 1 min 0,000 mm 2,6 UV-I 696 W/m 2,2 C 8,0 C 22,5 km/h (4 Bft) 100,00 %
07.04.2018 11:28 12,6 C 8,9 C 50 % 1015,9 hPa 0,0 l/m 19,6 km/h (3 Bft) O-NO 63 1 min 0,000 mm 2,6 UV-I 695 W/m 2,5 C 6,8 C 25,7 km/h (4 Bft) 93,33 %
07.04.2018 11:29 12,6 C 8,9 C 49 % 1015,9 hPa 0,0 l/m 21,2 km/h (4 Bft) O-NO 73 1 min 0,000 mm 2,6 UV-I 699 W/m 2,2 C 6,3 C 27,4 km/h (4 Bft) 100,00 %
07.04.2018 11:30 12,7 C 8,9 C 49 % 1015,8 hPa 0,0 l/m 21,8 km/h (4 Bft) O 100 1 min 0,000 mm 2,6 UV-I 700 W/m 2,3 C 6,3 C 27,4 km/h (4 Bft) 96,30 %
07.04.2018 11:31 12,7 C 8,9 C 49 % 1015,8 hPa 0,0 l/m 16,4 km/h (3 Bft) O-SO 108 1 min 0,000 mm 2,7 UV-I 703 W/m 2,3 C 7,9 C 24,1 km/h (4 Bft) 100,00 %
07.04.2018 11:32 12,7 C 8,9 C 51 % 1015,9 hPa 0,0 l/m 18,3 km/h (3 Bft) O 94 1 min 0,000 mm 2,7 UV-I 705 W/m 2,8 C 7,3 C 27,4 km/h (4 Bft) 100,00 %
07.04.2018 11:33 12,8 C 8,9 C 49 % 1015,8 hPa 0,0 l/m 19,5 km/h (3 Bft) O 85 1 min 0,000 mm 2,7 UV-I 706 W/m 2,4 C 7,0 C 29,0 km/h (5 Bft) 100,00 %
07.04.2018 11:34 12,8 C 8,9 C 49 % 1015,8 hPa 0,0 l/m 15,1 km/h (3 Bft) O-NO 74 1 min 0,000 mm 2,7 UV-I 706 W/m 2,4 C 8,5 C 17,7 km/h (3 Bft) 100,00 %
07.04.2018 11:35 12,9 C 8,9 C 51 % 1015,8 hPa 0,0 l/m 13,3 km/h (3 Bft) O-NO 74 1 min 0,000 mm 2,7 UV-I 707 W/m 3,0 C 9,3 C 19,3 km/h (3 Bft) 100,00 %
07.04.2018 11:36 12,9 C 8,9 C 49 % 1015,8 hPa 0,0 l/m 20,0 km/h (4 Bft) O-NO 78 1 min 0,000 mm 2,7 UV-I 709 W/m 2,5 C 7,0 C 25,7 km/h (4 Bft) 100,00 %
07.04.2018 11:37 13,1 C 8,9 C 50 % 1015,8 hPa 0,0 l/m 21,9 km/h (4 Bft) O-NO 77 1 min 0,000 mm 2,7 UV-I 710 W/m 2,9 C 6,8 C 27,4 km/h (4 Bft) 95,83 %
07.04.2018 11:38 13,1 C 8,9 C 48 % 1015,8 hPa 0,0 l/m 21,7 km/h (4 Bft) O 99 1 min 0,000 mm 2,7 UV-I 712 W/m 2,3 C 6,8 C 25,7 km/h (4 Bft) 100,00 %
07.04.2018 11:39 13,0 C 8,9 C 48 % 1015,8 hPa 0,0 l/m 22,1 km/h (4 Bft) O-NO 75 1 min 0,000 mm 2,8 UV-I 712 W/m 2,3 C 6,6 C 30,6 km/h (5 Bft) 100,00 %
07.04.2018 11:40 13,0 C 8,9 C 48 % 1015,7 hPa 0,0 l/m 17,4 km/h (3 Bft) O-NO 68 1 min 0,000 mm 2,8 UV-I 713 W/m 2,3 C 7,9 C 25,7 km/h (4 Bft) 100,00 %
07.04.2018 11:41 13,1 C 8,9 C 51 % 1015,7 hPa 0,0 l/m 21,2 km/h (4 Bft) O-NO 59 1 min 0,000 mm 2,8 UV-I 714 W/m 3,2 C 7,0 C 27,4 km/h (4 Bft) 100,00 %
07.04.2018 11:42 13,1 C 8,9 C 51 % 1015,8 hPa 0,0 l/m 21,5 km/h (4 Bft) O 101 1 min 0,000 mm 2,8 UV-I 715 W/m 3,2 C 6,9 C 24,1 km/h (4 Bft) 100,00 %
07.04.2018 11:43 13,1 C 8,9 C 49 % 1015,8 hPa 0,0 l/m 22,4 km/h (4 Bft) O-SO 114 1 min 0,000 mm 2,8 UV-I 717 W/m 2,6 C 6,7 C 27,4 km/h (4 Bft) 100,00 %
07.04.2018 11:44 13,1 C 8,9 C 49 % 1015,8 hPa 0,0 l/m 18,0 km/h (3 Bft) O 101 1 min 0,000 mm 2,8 UV-I 717 W/m 2,6 C 7,9 C 22,5 km/h (4 Bft) 100,00 %
07.04.2018 11:45 13,2 C 8,9 C 50 % 1015,8 hPa 0,0 l/m 17,3 km/h (3 Bft) O 89 1 min 0,000 mm 2,8 UV-I 718 W/m 3,0 C 8,2 C 22,5 km/h (4 Bft) 100,00 %
07.04.2018 11:46 13,2 C 8,9 C 49 % 1015,7 hPa 0,0 l/m 19,6 km/h (3 Bft) O-SO 103 1 min 0,000 mm 2,8 UV-I 720 W/m 2,7 C 7,5 C 25,7 km/h (4 Bft) 100,00 %
07.04.2018 11:47 13,3 C 8,9 C 51 % 1015,7 hPa 0,0 l/m 19,2 km/h (3 Bft) SO 126 1 min 0,000 mm 2,8 UV-I 720 W/m 3,4 C 7,8 C 22,5 km/h (4 Bft) 100,00 %
07.04.2018 11:48 13,3 C 8,9 C 51 % 1015,8 hPa 0,0 l/m 17,1 km/h (3 Bft) O 83 1 min 0,000 mm 2,8 UV-I 721 W/m 3,4 C 8,4 C 24,1 km/h (4 Bft) 100,00 %
07.04.2018 11:49 13,3 C 8,9 C 50 % 1015,8 hPa 0,0 l/m 19,0 km/h (3 Bft) NO 50 1 min 0,000 mm 2,8 UV-I 721 W/m 3,1 C 7,8 C 24,1 km/h (4 Bft) 100,00 %
07.04.2018 11:50 13,3 C 8,9 C 51 % 1015,7 hPa 0,0 l/m 17,8 km/h (3 Bft) O 98 1 min 0,000 mm 2,9 UV-I 724 W/m 3,4 C 8,2 C 22,5 km/h (4 Bft) 100,00 %
07.04.2018 11:51 13,3 C 8,9 C 52 % 1015,7 hPa 0,0 l/m 14,8 km/h (3 Bft) O 85 1 min 0,000 mm 2,9 UV-I 724 W/m 3,7 C 9,2 C 19,3 km/h (3 Bft) 100,00 %
07.04.2018 11:52 13,3 C 8,9 C 51 % 1015,7 hPa 0,0 l/m 19,1 km/h (3 Bft) O 89 1 min 0,000 mm 2,9 UV-I 725 W/m 3,4 C 7,8 C 27,4 km/h (4 Bft) 100,00 %
07.04.2018 11:53 13,4 C 8,9 C 52 % 1015,7 hPa 0,0 l/m 20,6 km/h (4 Bft) O-NO 63 1 min 0,000 mm 2,9 UV-I 725 W/m 3,7 C 7,5 C 29,0 km/h (5 Bft) 100,00 %
07.04.2018 11:54 13,5 C 8,9 C 51 % 1015,7 hPa 0,0 l/m 21,3 km/h (4 Bft) O-NO 71 1 min 0,000 mm 2,9 UV-I 725 W/m 3,6 C 7,5 C 29,0 km/h (5 Bft) 100,00 %
07.04.2018 11:55 13,6 C 8,9 C 50 % 1015,6 hPa 0,0 l/m 21,9 km/h (4 Bft) O-NO 71 1 min 0,000 mm 2,9 UV-I 726 W/m 3,4 C 7,4 C 29,0 km/h (5 Bft) 100,00 %
07.04.2018 11:56 13,6 C 8,9 C 49 % 1015,6 hPa 0,0 l/m 22,2 km/h (4 Bft) O-NO 65 1 min 0,000 mm 2,9 UV-I 729 W/m 3,1 C 7,4 C 25,7 km/h (4 Bft) 100,00 %
07.04.2018 11:57 13,6 C 8,9 C 51 % 1015,6 hPa 0,0 l/m 21,8 km/h (4 Bft) O-NO 74 1 min 0,000 mm 2,9 UV-I 729 W/m 3,7 C 7,5 C 27,4 km/h (4 Bft) 100,00 %
07.04.2018 11:58 13,7 C 8,9 C 52 % 1015,6 hPa 0,0 l/m 21,2 km/h (4 Bft) O 86 1 min 0,000 mm 2,9 UV-I 730 W/m 4,0 C 7,7 C 27,4 km/h (4 Bft) 100,00 %
07.04.2018 11:59 13,7 C 8,9 C 49 % 1015,6 hPa 0,0 l/m 22,2 km/h (4 Bft) O-NO 73 1 min 0,000 mm 2,9 UV-I 731 W/m 3,2 C 7,5 C 27,4 km/h (4 Bft) 100,00 %
07.04.2018 12:00 13,7 C 8,9 C 50 % 1015,6 hPa 0,0 l/m 20,7 km/h (4 Bft) O 87 1 min 0,000 mm 2,9 UV-I 733 W/m 3,5 C 7,9 C 24,1 km/h (4 Bft) 100,00 %
07.04.2018 12:01 13,7 C 8,9 C 51 % 1015,6 hPa 0,0 l/m 21,4 km/h (4 Bft) O 94 1 min 0,431 mm 3,0 UV-I 733 W/m 3,8 C 7,7 C 25,7 km/h (4 Bft) 96,15 %
07.04.2018 12:02 13,7 C 8,9 C 50 % 1015,6 hPa 0,0 l/m 18,7 km/h (3 Bft) O-NO 75 1 min 0,000 mm 3,0 UV-I 733 W/m 3,5 C 8,4 C 24,1 km/h (4 Bft) 100,00 %
07.04.2018 12:03 13,7 C 8,9 C 50 % 1015,6 hPa 0,0 l/m 19,7 km/h (3 Bft) O-SO 116 1 min 0,000 mm 3,0 UV-I 733 W/m 3,5 C 8,1 C 30,6 km/h (5 Bft) 96,15 %
07.04.2018 12:04 13,7 C 8,9 C 50 % 1015,6 hPa 0,0 l/m 23,4 km/h (4 Bft) O 97 1 min 0,000 mm 3,0 UV-I 735 W/m 3,5 C 7,2 C 30,6 km/h (5 Bft) 100,00 %
07.04.2018 12:05 13,7 C 8,9 C 50 % 1015,6 hPa 0,0 l/m 19,1 km/h (3 Bft) O-NO 67 1 min 0,000 mm 3,0 UV-I 737 W/m 3,5 C 8,3 C 25,7 km/h (4 Bft) 96,15 %
07.04.2018 12:06 13,7 C 8,9 C 49 % 1015,6 hPa 0,0 l/m 18,8 km/h (3 Bft) O-NO 72 1 min 0,000 mm 3,0 UV-I 737 W/m 3,2 C 8,4 C 24,1 km/h (4 Bft) 95,83 %
07.04.2018 12:07 13,7 C 8,9 C 50 % 1015,6 hPa 0,0 l/m 18,8 km/h (3 Bft) O-NO 70 1 min 0,000 mm 3,0 UV-I 738 W/m 3,5 C 8,4 C 25,7 km/h (4 Bft) 96,15 %
07.04.2018 12:08 13,8 C 8,9 C 52 % 1015,6 hPa 0,0 l/m 23,7 km/h (4 Bft) O 81 1 min 0,000 mm 3,0 UV-I 740 W/m 4,1 C 7,3 C 29,0 km/h (5 Bft) 93,33 %
07.04.2018 12:09 13,9 C 8,9 C 50 % 1015,6 hPa 0,0 l/m 17,6 km/h (3 Bft) O-NO 68 1 min 0,000 mm 3,0 UV-I 739 W/m 3,7 C 9,0 C 25,7 km/h (4 Bft) 100,00 %
07.04.2018 12:10 13,8 C 8,9 C 50 % 1015,5 hPa 0,0 l/m 15,5 km/h (3 Bft) O 82 1 min 0,000 mm 3,0 UV-I 740 W/m 3,6 C 9,6 C 19,3 km/h (3 Bft) 91,30 %
07.04.2018 12:11 13,9 C 8,9 C 50 % 1015,5 hPa 0,0 l/m 19,2 km/h (3 Bft) O 85 1 min 0,000 mm 3,0 UV-I 743 W/m 3,7 C 8,5 C 25,7 km/h (4 Bft) 96,30 %
07.04.2018 12:12 13,9 C 8,9 C 53 % 1015,5 hPa 0,0 l/m 17,5 km/h (3 Bft) O-NO 75 1 min 0,000 mm 3,0 UV-I 742 W/m 4,5 C 9,0 C 24,1 km/h (4 Bft) 95,65 %
07.04.2018 12:13 14,0 C 8,9 C 51 % 1015,6 hPa 0,0 l/m 21,0 km/h (4 Bft) O 79 1 min 0,000 mm 3,1 UV-I 740 W/m 4,0 C 8,2 C 27,4 km/h (4 Bft) 96,30 %
07.04.2018 12:14 14,1 C 8,9 C 50 % 1015,6 hPa 0,0 l/m 19,9 km/h (4 Bft) O-NO 68 1 min 0,000 mm 3,1 UV-I 744 W/m 3,8 C 8,6 C 24,1 km/h (4 Bft) 100,00 %
07.04.2018 12:15 14,1 C 8,9 C 49 % 1015,5 hPa 0,0 l/m 17,2 km/h (3 Bft) O-NO 62 1 min 0,000 mm 3,1 UV-I 745 W/m 3,6 C 9,4 C 22,5 km/h (4 Bft) 96,30 %
07.04.2018 12:16 14,2 C 8,9 C 53 % 1015,5 hPa 0,0 l/m 23,9 km/h (4 Bft) O-NO 61 1 min 0,000 mm 3,1 UV-I 746 W/m 4,8 C 7,8 C 27,4 km/h (4 Bft) 96,88 %
07.04.2018 12:17 14,3 C 8,9 C 51 % 1015,5 hPa 0,0 l/m 19,9 km/h (4 Bft) NO 37 1 min 0,000 mm 3,1 UV-I 745 W/m 4,3 C 8,9 C 27,4 km/h (4 Bft) 91,67 %
07.04.2018 12:18 14,4 C 8,9 C 50 % 1015,5 hPa 0,0 l/m 19,4 km/h (3 Bft) O-NO 70 1 min 0,000 mm 3,1 UV-I 747 W/m 4,1 C 9,1 C 24,1 km/h (4 Bft) 100,00 %
07.04.2018 12:19 14,5 C 8,9 C 51 % 1015,5 hPa 0,0 l/m 17,5 km/h (3 Bft) NO 46 1 min 0,000 mm 3,1 UV-I 747 W/m 4,5 C 9,8 C 22,5 km/h (4 Bft) 91,67 %
07.04.2018 12:20 14,5 C 8,9 C 50 % 1015,5 hPa 0,0 l/m 21,4 km/h (4 Bft) O-NO 72 1 min 0,000 mm 3,1 UV-I 748 W/m 4,2 C 8,7 C 29,0 km/h (5 Bft) 97,37 %
07.04.2018 12:21 14,4 C 8,9 C 48 % 1015,5 hPa 0,0 l/m 19,8 km/h (3 Bft) O-NO 73 1 min 0,000 mm 3,1 UV-I 749 W/m 3,5 C 9,0 C 25,7 km/h (4 Bft) 100,00 %
07.04.2018 12:22 14,4 C 8,9 C 50 % 1015,4 hPa 0,0 l/m 25,5 km/h (4 Bft) O-NO 78 1 min 0,000 mm 3,1 UV-I 749 W/m 4,1 C 7,7 C 30,6 km/h (5 Bft) 95,65 %
07.04.2018 12:23 14,4 C 8,9 C 49 % 1015,4 hPa 0,0 l/m 27,2 km/h (4 Bft) O 84 1 min 0,000 mm 3,1 UV-I 750 W/m 3,8 C 7,4 C 29,0 km/h (5 Bft) 100,00 %
07.04.2018 12:24 14,4 C 8,9 C 49 % 1015,4 hPa 0,0 l/m 21,5 km/h (4 Bft) O-NO 77 1 min 0,000 mm 3,1 UV-I 751 W/m 3,8 C 8,6 C 27,4 km/h (4 Bft) 95,65 %
07.04.2018 12:25 14,5 C 8,9 C 50 % 1015,3 hPa 0,0 l/m 23,7 km/h (4 Bft) O-NO 74 1 min 0,000 mm 3,1 UV-I 752 W/m 4,2 C 8,2 C 30,6 km/h (5 Bft) 100,00 %
07.04.2018 12:26 14,4 C 8,9 C 49 % 1015,4 hPa 0,0 l/m 24,1 km/h (4 Bft) O 81 1 min 0,000 mm 3,1 UV-I 753 W/m 3,8 C 8,0 C 27,4 km/h (4 Bft) 96,55 %
07.04.2018 12:27 14,4 C 8,9 C 48 % 1015,3 hPa 0,0 l/m 20,8 km/h (4 Bft) O-NO 67 1 min 0,000 mm 3,1 UV-I 755 W/m 3,5 C 8,8 C 25,7 km/h (4 Bft) 100,00 %
07.04.2018 12:28 14,5 C 8,9 C 49 % 1015,3 hPa 0,0 l/m 18,7 km/h (3 Bft) O-NO 65 1 min 0,000 mm 3,1 UV-I 757 W/m 3,9 C 9,5 C 24,1 km/h (4 Bft) 96,55 %
07.04.2018 12:29 14,5 C 8,9 C 48 % 1015,3 hPa 0,0 l/m 24,7 km/h (4 Bft) O 80 1 min 0,000 mm 3,1 UV-I 758 W/m 3,6 C 8,0 C 30,6 km/h (5 Bft) 100,00 %
07.04.2018 12:30 14,6 C 8,9 C 47 % 1015,3 hPa 0,0 l/m 17,4 km/h (3 Bft) O 92 1 min 0,000 mm 3,1 UV-I 761 W/m 3,4 C 10,0 C 20,9 km/h (4 Bft) 100,00 %
07.04.2018 12:31 14,6 C 8,9 C 50 % 1015,3 hPa 0,0 l/m 18,8 km/h (3 Bft) O 88 1 min 0,000 mm 3,1 UV-I 765 W/m 4,3 C 9,6 C 25,7 km/h (4 Bft) 100,00 %
07.04.2018 12:33 14,8 C 8,9 C 49 % 1015,3 hPa 0,0 l/m 17,1 km/h (3 Bft) O 91 2 min 0,000 mm 3,1 UV-I 761 W/m 4,2 C 10,3 C 25,7 km/h (4 Bft) 100,00 %
07.04.2018 12:34 14,9 C 8,9 C 51 % 1015,3 hPa 0,0 l/m 22,0 km/h (4 Bft) O-SO 112 1 min 0,000 mm 3,1 UV-I 753 W/m 4,9 C 9,1 C 30,6 km/h (5 Bft) 100,00 %
07.04.2018 12:35 14,9 C 8,9 C 48 % 1015,3 hPa 0,0 l/m 21,8 km/h (4 Bft) O-SO 117 1 min 0,000 mm 3,0 UV-I 706 W/m 4,0 C 9,2 C 29,0 km/h (5 Bft) 100,00 %
07.04.2018 12:36 14,9 C 8,9 C 50 % 1015,3 hPa 0,0 l/m 19,0 km/h (3 Bft) O-NO 59 1 min 0,000 mm 2,8 UV-I 627 W/m 4,6 C 9,9 C 27,4 km/h (4 Bft) 100,00 %
07.04.2018 12:37 14,9 C 8,9 C 49 % 1015,3 hPa 0,0 l/m 17,7 km/h (3 Bft) O-NO 63 1 min 0,000 mm 2,5 UV-I 585 W/m 4,3 C 10,2 C 22,5 km/h (4 Bft) 100,00 %
07.04.2018 12:38 14,8 C 8,9 C 49 % 1015,4 hPa 0,0 l/m 20,1 km/h (4 Bft) O-NO 61 1 min 0,000 mm 2,4 UV-I 441 W/m 4,2 C 9,5 C 25,7 km/h (4 Bft) 100,00 %
07.04.2018 12:39 14,8 C 8,9 C 49 % 1015,3 hPa 0,0 l/m 18,0 km/h (3 Bft) O-SO 102 1 min 0,000 mm 2,5 UV-I 445 W/m 4,2 C 10,0 C 25,7 km/h (4 Bft) 100,00 %
07.04.2018 12:40 14,7 C 8,9 C 50 % 1015,3 hPa 0,0 l/m 18,7 km/h (3 Bft) O-NO 60 1 min 0,000 mm 2,9 UV-I 445 W/m 4,4 C 9,7 C 24,1 km/h (4 Bft) 100,00 %
07.04.2018 12:41 14,8 C 8,9 C 52 % 1015,3 hPa 0,0 l/m 14,0 km/h (3 Bft) O-NO 77 1 min 0,000 mm 3,2 UV-I 694 W/m 5,0 C 11,3 C 17,7 km/h (3 Bft) 96,55 %
07.04.2018 12:42 14,9 C 8,9 C 52 % 1015,3 hPa 0,0 l/m 14,8 km/h (3 Bft) NO 55 1 min 0,000 mm 3,2 UV-I 773 W/m 5,1 C 11,1 C 27,4 km/h (4 Bft) 100,00 %
07.04.2018 12:43 15,1 C 8,9 C 52 % 1015,3 hPa 0,0 l/m 15,8 km/h (3 Bft) O-NO 65 1 min 0,000 mm 3,2 UV-I 772 W/m 5,3 C 11,1 C 19,3 km/h (3 Bft) 100,00 %
07.04.2018 12:44 15,1 C 8,9 C 50 % 1015,3 hPa 0,0 l/m 17,2 km/h (3 Bft) O-NO 74 1 min 0,000 mm 3,2 UV-I 771 W/m 4,8 C 10,6 C 22,5 km/h (4 Bft) 100,00 %
07.04.2018 12:45 15,2 C 8,9 C 50 % 1015,3 hPa 0,0 l/m 19,5 km/h (3 Bft) O-NO 76 1 min 0,000 mm 3,2 UV-I 768 W/m 4,8 C 10,1 C 24,1 km/h (4 Bft) 93,10 %
07.04.2018 12:46 15,2 C 8,9 C 50 % 1015,3 hPa 0,0 l/m 19,1 km/h (3 Bft) SO 128 1 min 0,000 mm 3,2 UV-I 768 W/m 4,8 C 10,2 C 24,1 km/h (4 Bft) 100,00 %
07.04.2018 12:47 15,2 C 8,9 C 50 % 1015,3 hPa 0,0 l/m 18,8 km/h (3 Bft) O-NO 61 1 min 0,000 mm 3,2 UV-I 766 W/m 4,8 C 10,3 C 24,1 km/h (4 Bft) 100,00 %
07.04.2018 12:48 15,3 C 8,9 C 50 % 1015,3 hPa 0,0 l/m 22,2 km/h (4 Bft) O-NO 68 1 min 0,000 mm 3,2 UV-I 766 W/m 4,9 C 9,6 C 25,7 km/h (4 Bft) 100,00 %
07.04.2018 12:49 15,3 C 8,9 C 50 % 1015,3 hPa 0,0 l/m 16,5 km/h (3 Bft) O-NO 69 1 min 0,000 mm 3,2 UV-I 764 W/m 4,9 C 11,1 C 20,9 km/h (4 Bft) 100,00 %
07.04.2018 12:50 15,3 C 8,9 C 50 % 1015,3 hPa 0,0 l/m 18,8 km/h (3 Bft) O 97 1 min 0,000 mm 3,2 UV-I 764 W/m 4,9 C 10,4 C 24,1 km/h (4 Bft) 100,00 %
07.04.2018 12:51 15,3 C 8,9 C 49 % 1015,4 hPa 0,0 l/m 20,6 km/h (4 Bft) O 80 1 min 0,000 mm 3,2 UV-I 764 W/m 4,7 C 10,0 C 24,1 km/h (4 Bft) 95,65 %
07.04.2018 12:52 15,3 C 8,9 C 50 % 1015,3 hPa 0,0 l/m 22,9 km/h (4 Bft) O-NO 75 1 min 0,000 mm 3,2 UV-I 764 W/m 4,9 C 9,5 C 27,4 km/h (4 Bft) 100,00 %
07.04.2018 12:53 15,3 C 8,9 C 48 % 1015,3 hPa 0,0 l/m 22,6 km/h (4 Bft) O-NO 77 1 min 0,000 mm 3,2 UV-I 763 W/m 4,4 C 9,5 C 27,4 km/h (4 Bft) 100,00 %
07.04.2018 12:54 15,3 C 8,9 C 49 % 1015,3 hPa 0,0 l/m 22,3 km/h (4 Bft) O 89 1 min 0,000 mm 3,2 UV-I 763 W/m 4,7 C 9,6 C 27,4 km/h (4 Bft) 100,00 %
07.04.2018 12:55 15,3 C 8,9 C 49 % 1015,3 hPa 0,0 l/m 25,3 km/h (4 Bft) O 84 1 min 0,000 mm 3,2 UV-I 760 W/m 4,7 C 9,0 C 29,0 km/h (5 Bft) 100,00 %
07.04.2018 12:57 15,3 C 8,9 C 49 % 1015,2 hPa 0,0 l/m 23,3 km/h (4 Bft) O-NO 58 2 min 0,000 mm 3,2 UV-I 764 W/m 4,7 C 9,4 C 30,6 km/h (5 Bft) 97,67 %
07.04.2018 12:59 15,3 C 8,9 C 47 % 1015,2 hPa 0,0 l/m 25,2 km/h (4 Bft) O 88 2 min 0,000 mm 3,2 UV-I 764 W/m 4,1 C 9,0 C 30,6 km/h (5 Bft) 100,00 %
07.04.2018 13:00 15,4 C 8,9 C 48 % 1015,2 hPa 0,0 l/m 23,4 km/h (4 Bft) O-NO 59 1 min 0,508 mm 3,2 UV-I 766 W/m 4,4 C 9,5 C 29,0 km/h (5 Bft) 96,55 %
07.04.2018 13:05 15,6 C 8,9 C 47 % 1015,2 hPa 0,0 l/m 20,9 km/h (4 Bft) O 90 5 min 0,000 mm 3,3 UV-I 772 W/m 4,3 C 10,3 C 30,6 km/h (5 Bft) 100,00 %
07.04.2018 13:11 15,4 C 8,9 C 50 % 1015,1 hPa 0,0 l/m 22,4 km/h (4 Bft) O 88 6 min 0,000 mm 3,2 UV-I 755 W/m 5,0 C 9,7 C 30,6 km/h (5 Bft) 100,00 %
07.04.2018 13:12 15,5 C 8,9 C 47 % 1015,1 hPa 0,0 l/m 25,6 km/h (4 Bft) O 84 1 min 0,000 mm 3,2 UV-I 773 W/m 4,2 C 9,2 C 32,2 km/h (5 Bft) 100,00 %
07.04.2018 13:13 15,6 C 8,9 C 48 % 1015,1 hPa 0,0 l/m 23,3 km/h (4 Bft) O 92 1 min 0,000 mm 3,3 UV-I 767 W/m 4,6 C 9,8 C 30,6 km/h (5 Bft) 100,00 %
07.04.2018 13:14 15,6 C 8,9 C 47 % 1015,1 hPa 0,0 l/m 27,8 km/h (4 Bft) O 99 1 min 0,000 mm 3,3 UV-I 788 W/m 4,3 C 8,9 C 33,8 km/h (5 Bft) 96,30 %
07.04.2018 13:15 15,6 C 8,9 C 47 % 1015,1 hPa 0,0 l/m 27,6 km/h (4 Bft) O-SO 110 1 min 0,000 mm 3,3 UV-I 790 W/m 4,3 C 8,9 C 32,2 km/h (5 Bft) 100,00 %
07.04.2018 13:16 15,6 C 8,9 C 47 % 1015,0 hPa 0,0 l/m 24,0 km/h (4 Bft) O-SO 108 1 min 0,000 mm 3,3 UV-I 792 W/m 4,3 C 9,6 C 32,2 km/h (5 Bft) 100,00 %
07.04.2018 13:17 15,6 C 8,9 C 46 % 1015,0 hPa 0,0 l/m 25,0 km/h (4 Bft) O-SO 102 1 min 0,000 mm 3,3 UV-I 795 W/m 4,0 C 9,4 C 32,2 km/h (5 Bft) 100,00 %
07.04.2018 13:18 15,7 C 8,9 C 47 % 1015,0 hPa 0,0 l/m 22,9 km/h (4 Bft) O 92 1 min 0,000 mm 3,3 UV-I 796 W/m 4,4 C 10,0 C 33,8 km/h (5 Bft) 100,00 %
07.04.2018 13:19 15,8 C 8,9 C 48 % 1015,0 hPa 0,0 l/m 17,4 km/h (3 Bft) O 91 1 min 0,000 mm 3,3 UV-I 799 W/m 4,8 C 11,5 C 27,4 km/h (4 Bft) 100,00 %
07.04.2018 13:20 15,8 C 8,9 C 49 % 1015,1 hPa 0,0 l/m 19,3 km/h (3 Bft) O-SO 102 1 min 0,000 mm 3,3 UV-I 800 W/m 5,1 C 11,0 C 25,7 km/h (4 Bft) 96,30 %
07.04.2018 13:21 15,9 C 8,9 C 49 % 1015,1 hPa 0,0 l/m 21,3 km/h (4 Bft) O 99 1 min 0,000 mm 3,3 UV-I 798 W/m 5,2 C 10,6 C 29,0 km/h (5 Bft) 100,00 %
07.04.2018 13:22 16,0 C 8,9 C 48 % 1015,0 hPa 0,0 l/m 18,7 km/h (3 Bft) O-SO 107 1 min 0,000 mm 3,3 UV-I 784 W/m 5,0 C 11,4 C 29,0 km/h (5 Bft) 100,00 %
07.04.2018 13:23 16,1 C 8,9 C 48 % 1015,0 hPa 0,0 l/m 22,9 km/h (4 Bft) O 84 1 min 0,000 mm 3,2 UV-I 725 W/m 5,1 C 10,5 C 29,0 km/h (5 Bft) 99,33 %
07.04.2018 13:24 16,1 C 8,9 C 47 % 1015,0 hPa 0,0 l/m 25,0 km/h (4 Bft) O-NO 71 1 min 0,000 mm 2,9 UV-I 645 W/m 4,8 C 10,1 C 30,6 km/h (5 Bft) 100,00 %
07.04.2018 13:25 16,1 C 8,9 C 47 % 1015,0 hPa 0,0 l/m 27,5 km/h (4 Bft) O-NO 65 1 min 0,000 mm 3,3 UV-I 689 W/m 4,8 C 9,6 C 35,4 km/h (5 Bft) 96,15 %
07.04.2018 13:26 16,1 C 8,9 C 46 % 1015,0 hPa 0,0 l/m 25,0 km/h (4 Bft) O 85 1 min 0,000 mm 3,3 UV-I 802 W/m 4,5 C 10,1 C 33,8 km/h (5 Bft) 100,00 %
07.04.2018 13:27 16,1 C 8,9 C 48 % 1015,0 hPa 0,0 l/m 24,0 km/h (4 Bft) O-SO 102 1 min 0,000 mm 3,3 UV-I 800 W/m 5,1 C 10,3 C 32,2 km/h (5 Bft) 100,00 %
07.04.2018 13:28 16,1 C 8,9 C 48 % 1015,0 hPa 0,0 l/m 28,4 km/h (4 Bft) O-NO 64 1 min 0,000 mm 3,3 UV-I 786 W/m 5,1 C 9,5 C 33,8 km/h (5 Bft) 100,00 %
07.04.2018 13:29 16,1 C 8,9 C 47 % 1015,0 hPa 0,0 l/m 24,4 km/h (4 Bft) O-NO 78 1 min 0,000 mm 3,1 UV-I 772 W/m 4,8 C 10,2 C 32,2 km/h (5 Bft) 99,32 %
07.04.2018 13:30 16,1 C 8,9 C 48 % 1015,0 hPa 0,0 l/m 22,5 km/h (4 Bft) O 81 1 min 0,000 mm 3,0 UV-I 645 W/m 5,1 C 10,6 C 27,4 km/h (4 Bft) 97,73 %
07.04.2018 13:31 16,1 C 8,9 C 47 % 1015,0 hPa 0,0 l/m 20,8 km/h (4 Bft) O 85 1 min 0,000 mm 3,1 UV-I 710 W/m 4,8 C 11,0 C 33,8 km/h (5 Bft) 100,00 %
07.04.2018 13:32 16,2 C 8,9 C 49 % 1015,0 hPa 0,0 l/m 31,2 km/h (5 Bft) O 96 1 min 0,000 mm 3,1 UV-I 744 W/m 5,5 C 9,2 C 43,5 km/h (6 Bft) 100,00 %
07.04.2018 13:33 16,2 C 8,9 C 47 % 1015,0 hPa 0,0 l/m 27,1 km/h (4 Bft) O-NO 71 1 min 0,000 mm 3,2 UV-I 781 W/m 4,9 C 9,9 C 37,0 km/h (5 Bft) 100,00 %
07.04.2018 13:34 16,3 C 8,9 C 48 % 1015,0 hPa 0,0 l/m 21,4 km/h (4 Bft) O-NO 68 1 min 0,000 mm 3,3 UV-I 788 W/m 5,3 C 11,1 C 29,0 km/h (5 Bft) 100,00 %
07.04.2018 13:35 16,3 C 8,9 C 49 % 1015,0 hPa 0,0 l/m 27,0 km/h (4 Bft) O-NO 60 1 min 0,000 mm 3,3 UV-I 793 W/m 5,6 C 10,0 C 32,2 km/h (5 Bft) 100,00 %
07.04.2018 13:36 16,3 C 8,9 C 46 % 1014,9 hPa 0,0 l/m 26,2 km/h (4 Bft) O-NO 69 1 min 0,000 mm 3,3 UV-I 787 W/m 4,7 C 10,1 C 33,8 km/h (5 Bft) 100,00 %
07.04.2018 13:37 16,3 C 8,9 C 45 % 1014,9 hPa 0,0 l/m 23,4 km/h (4 Bft) O-NO 58 1 min 0,000 mm 3,2 UV-I 781 W/m 4,3 C 10,7 C 30,6 km/h (5 Bft) 100,00 %
07.04.2018 13:38 16,3 C 8,9 C 46 % 1014,9 hPa 0,0 l/m 23,9 km/h (4 Bft) O-NO 71 1 min 0,000 mm 3,2 UV-I 783 W/m 4,7 C 10,6 C 32,2 km/h (5 Bft) 100,00 %
07.04.2018 13:39 16,3 C 8,9 C 47 % 1014,9 hPa 0,0 l/m 23,9 km/h (4 Bft) O-NO 68 1 min 0,000 mm 3,2 UV-I 785 W/m 5,0 C 10,6 C 29,0 km/h (5 Bft) 100,00 %
07.04.2018 13:40 16,3 C 8,9 C 47 % 1014,9 hPa 0,0 l/m 24,3 km/h (4 Bft) O 79 1 min 0,000 mm 3,2 UV-I 781 W/m 5,0 C 10,5 C 29,0 km/h (5 Bft) 100,00 %
07.04.2018 13:41 16,3 C 8,9 C 47 % 1014,8 hPa 0,0 l/m 22,0 km/h (4 Bft) O-NO 65 1 min 0,000 mm 3,2 UV-I 777 W/m 5,0 C 11,0 C 27,4 km/h (4 Bft) 100,00 %
07.04.2018 13:42 16,4 C 8,9 C 47 % 1014,9 hPa 0,0 l/m 23,4 km/h (4 Bft) O-NO 59 1 min 0,000 mm 3,2 UV-I 775 W/m 5,1 C 10,8 C 33,8 km/h (5 Bft) 100,00 %
07.04.2018 13:43 16,5 C 8,9 C 49 % 1014,8 hPa 0,0 l/m 20,0 km/h (4 Bft) O-NO 78 1 min 0,000 mm 3,2 UV-I 771 W/m 5,8 C 11,7 C 27,4 km/h (4 Bft) 100,00 %
07.04.2018 13:44 16,6 C 8,9 C 49 % 1014,8 hPa 0,0 l/m 20,7 km/h (4 Bft) O-NO 57 1 min 0,000 mm 3,2 UV-I 767 W/m 5,8 C 11,7 C 29,0 km/h (5 Bft) 100,00 %
07.04.2018 13:45 16,7 C 8,9 C 50 % 1014,8 hPa 0,0 l/m 20,7 km/h (4 Bft) O-NO 78 1 min 0,000 mm 3,2 UV-I 763 W/m 6,2 C 11,8 C 25,7 km/h (4 Bft) 91,67 %
07.04.2018 13:46 16,8 C 8,9 C 49 % 1014,8 hPa 0,0 l/m 20,8 km/h (4 Bft) O-SO 103 1 min 0,000 mm 3,1 UV-I 759 W/m 6,0 C 11,9 C 32,2 km/h (5 Bft) 96,15 %
07.04.2018 13:47 16,8 C 8,9 C 47 % 1014,8 hPa 0,0 l/m 23,1 km/h (4 Bft) NO 55 1 min 0,000 mm 3,1 UV-I 757 W/m 5,4 C 11,4 C 29,0 km/h (5 Bft) 96,67 %
07.04.2018 13:48 16,8 C 8,9 C 47 % 1014,8 hPa 0,0 l/m 22,7 km/h (4 Bft) O 81 1 min 0,000 mm 3,1 UV-I 755 W/m 5,4 C 11,5 C 29,0 km/h (5 Bft) 92,31 %
07.04.2018 13:49 16,8 C 8,9 C 46 % 1014,8 hPa 0,0 l/m 22,4 km/h (4 Bft) O-SO 107 1 min 0,000 mm 3,1 UV-I 755 W/m 5,1 C 11,6 C 27,4 km/h (4 Bft) 100,00 %
07.04.2018 13:50 16,8 C 8,9 C 48 % 1014,8 hPa 0,0 l/m 19,8 km/h (3 Bft) O-NO 69 1 min 0,000 mm 3,1 UV-I 752 W/m 5,7 C 12,1 C 29,0 km/h (5 Bft) 91,30 %
07.04.2018 13:51 16,9 C 8,9 C 47 % 1014,8 hPa 0,0 l/m 22,1 km/h (4 Bft) O 86 1 min 0,000 mm 3,1 UV-I 751 W/m 5,5 C 11,7 C 27,4 km/h (4 Bft) 100,00 %
07.04.2018 13:52 16,9 C 8,9 C 48 % 1014,8 hPa 0,0 l/m 17,8 km/h (3 Bft) O 82 1 min 0,000 mm 3,1 UV-I 751 W/m 5,8 C 12,7 C 24,1 km/h (4 Bft) 95,83 %
07.04.2018 13:53 17,0 C 8,9 C 47 % 1014,8 hPa 0,0 l/m 23,3 km/h (4 Bft) SO 132 1 min 0,000 mm 3,1 UV-I 747 W/m 5,6 C 11,6 C 29,0 km/h (5 Bft) 100,00 %
07.04.2018 13:54 17,1 C 8,9 C 46 % 1014,7 hPa 0,0 l/m 25,6 km/h (4 Bft) SO 130 1 min 0,000 mm 3,1 UV-I 745 W/m 5,4 C 11,3 C 37,0 km/h (5 Bft) 95,83 %
07.04.2018 13:55 16,9 C 8,9 C 44 % 1014,8 hPa 0,0 l/m 23,8 km/h (4 Bft) O-SO 113 1 min 0,000 mm 3,1 UV-I 744 W/m 4,6 C 11,4 C 30,6 km/h (5 Bft) 100,00 %
07.04.2018 13:56 16,9 C 8,9 C 47 % 1014,8 hPa 0,0 l/m 20,8 km/h (4 Bft) O 97 1 min 0,000 mm 3,1 UV-I 742 W/m 5,5 C 12,0 C 30,6 km/h (5 Bft) 97,62 %
07.04.2018 13:57 16,9 C 8,9 C 47 % 1014,8 hPa 0,0 l/m 16,9 km/h (3 Bft) O 80 1 min 0,000 mm 3,1 UV-I 742 W/m 5,5 C 13,0 C 22,5 km/h (4 Bft) 100,00 %
07.04.2018 13:58 16,9 C 8,9 C 45 % 1014,8 hPa 0,0 l/m 21,0 km/h (4 Bft) O 84 1 min 0,000 mm 3,1 UV-I 738 W/m 4,9 C 12,0 C 29,0 km/h (5 Bft) 96,30 %
07.04.2018 13:59 16,9 C 8,9 C 47 % 1014,8 hPa 0,0 l/m 27,7 km/h (4 Bft) O-SO 113 1 min 0,000 mm 3,1 UV-I 738 W/m 5,5 C 10,7 C 37,0 km/h (5 Bft) 96,15 %
07.04.2018 14:00 16,9 C 8,9 C 45 % 1014,8 hPa 0,0 l/m 20,2 km/h (4 Bft) O 82 1 min 0,559 mm 3,1 UV-I 737 W/m 4,9 C 12,2 C 29,0 km/h (5 Bft) 100,00 %
07.04.2018 14:01 16,9 C 8,9 C 46 % 1014,8 hPa 0,0 l/m 20,0 km/h (4 Bft) O-NO 69 1 min 0,000 mm 3,1 UV-I 737 W/m 5,2 C 12,2 C 27,4 km/h (4 Bft) 92,86 %
07.04.2018 14:02 16,9 C 8,9 C 48 % 1014,7 hPa 0,0 l/m 19,3 km/h (3 Bft) O-NO 74 1 min 0,000 mm 3,1 UV-I 736 W/m 5,8 C 12,4 C 25,7 km/h (4 Bft) 100,00 %
07.04.2018 14:03 17,1 C 8,9 C 48 % 1014,7 hPa 0,0 l/m 17,7 km/h (3 Bft) O-NO 67 1 min 0,000 mm 3,1 UV-I 737 W/m 6,0 C 13,0 C 22,5 km/h (4 Bft) 92,31 %
07.04.2018 14:04 17,1 C 8,9 C 46 % 1014,7 hPa 0,0 l/m 21,6 km/h (4 Bft) O-NO 73 1 min 0,000 mm 3,1 UV-I 735 W/m 5,4 C 12,1 C 29,0 km/h (5 Bft) 95,83 %
07.04.2018 14:05 17,2 C 8,9 C 46 % 1014,8 hPa 0,0 l/m 22,8 km/h (4 Bft) O-NO 76 1 min 0,000 mm 3,1 UV-I 734 W/m 5,5 C 12,0 C 30,6 km/h (5 Bft) 100,00 %
07.04.2018 14:06 17,2 C 8,9 C 45 % 1014,7 hPa 0,0 l/m 23,1 km/h (4 Bft) O-NO 74 1 min 0,000 mm 3,0 UV-I 731 W/m 5,2 C 11,9 C 32,2 km/h (5 Bft) 96,30 %
07.04.2018 14:07 17,1 C 8,9 C 45 % 1014,7 hPa 0,0 l/m 25,7 km/h (4 Bft) S-SO 165 1 min 0,000 mm 3,0 UV-I 730 W/m 5,1 C 11,3 C 37,0 km/h (5 Bft) 100,00 %
07.04.2018 14:08 17,2 C 8,9 C 46 % 1014,7 hPa 0,0 l/m 25,7 km/h (4 Bft) O-SO 103 1 min 0,000 mm 3,0 UV-I 728 W/m 5,5 C 11,5 C 35,4 km/h (5 Bft) 96,30 %
07.04.2018 14:09 17,2 C 8,9 C 45 % 1014,7 hPa 0,0 l/m 23,6 km/h (4 Bft) O 92 1 min 0,000 mm 3,0 UV-I 728 W/m 5,2 C 11,8 C 30,6 km/h (5 Bft) 100,00 %
07.04.2018 14:10 17,2 C 8,9 C 46 % 1014,7 hPa 0,0 l/m 22,3 km/h (4 Bft) O-NO 78 1 min 0,000 mm 3,0 UV-I 728 W/m 5,5 C 12,1 C 29,0 km/h (5 Bft) 96,55 %
07.04.2018 14:11 17,2 C 8,9 C 47 % 1014,6 hPa 0,0 l/m 19,8 km/h (3 Bft) O 85 1 min 0,000 mm 3,0 UV-I 724 W/m 5,8 C 12,6 C 25,7 km/h (4 Bft) 100,00 %
07.04.2018 14:12 17,3 C 8,9 C 47 % 1014,6 hPa 0,0 l/m 15,9 km/h (3 Bft) O-NO 68 1 min 0,000 mm 3,0 UV-I 725 W/m 5,9 C 13,7 C 20,9 km/h (4 Bft) 92,86 %
07.04.2018 14:13 17,4 C 8,9 C 46 % 1014,6 hPa 0,0 l/m 18,2 km/h (3 Bft) O 85 1 min 0,000 mm 3,0 UV-I 722 W/m 5,7 C 13,3 C 24,1 km/h (4 Bft) 100,00 %
07.04.2018 14:14 17,5 C 8,9 C 46 % 1014,6 hPa 0,0 l/m 22,7 km/h (4 Bft) O-NO 66 1 min 0,000 mm 3,0 UV-I 721 W/m 5,8 C 12,4 C 29,0 km/h (5 Bft) 95,65 %
07.04.2018 14:15 17,6 C 8,9 C 46 % 1014,6 hPa 0,0 l/m 20,2 km/h (4 Bft) NO 54 1 min 0,000 mm 3,0 UV-I 720 W/m 5,8 C 13,1 C 25,7 km/h (4 Bft) 100,00 %
07.04.2018 14:16 17,6 C 8,9 C 45 % 1014,6 hPa 0,0 l/m 20,7 km/h (4 Bft) O-NO 69 1 min 0,000 mm 3,0 UV-I 717 W/m 5,5 C 13,0 C 27,4 km/h (4 Bft) 100,00 %
07.04.2018 14:17 17,6 C 8,9 C 46 % 1014,6 hPa 0,0 l/m 16,9 km/h (3 Bft) O-NO 65 1 min 0,000 mm 2,9 UV-I 716 W/m 5,8 C 13,8 C 22,5 km/h (4 Bft) 100,00 %
07.04.2018 14:18 17,6 C 8,9 C 46 % 1014,5 hPa 0,0 l/m 19,9 km/h (4 Bft) O-NO 75 1 min 0,000 mm 2,9 UV-I 718 W/m 5,8 C 13,1 C 33,8 km/h (5 Bft) 96,88 %
07.04.2018 14:19 17,6 C 8,9 C 46 % 1014,5 hPa 0,0 l/m 24,2 km/h (4 Bft) O-SO 103 1 min 0,000 mm 2,9 UV-I 715 W/m 5,8 C 12,3 C 30,6 km/h (5 Bft) 100,00 %
07.04.2018 14:20 17,7 C 8,9 C 46 % 1014,5 hPa 0,0 l/m 24,6 km/h (4 Bft) O-NO 75 1 min 0,000 mm 2,9 UV-I 714 W/m 5,9 C 12,3 C 29,0 km/h (5 Bft) 100,00 %
07.04.2018 14:21 17,8 C 8,9 C 45 % 1014,5 hPa 0,0 l/m 22,4 km/h (4 Bft) O 80 1 min 0,000 mm 2,9 UV-I 712 W/m 5,7 C 12,9 C 29,0 km/h (5 Bft) 100,00 %
07.04.2018 14:22 17,8 C 8,9 C 45 % 1014,5 hPa 0,0 l/m 20,3 km/h (4 Bft) O-NO 78 1 min 0,000 mm 2,9 UV-I 710 W/m 5,7 C 13,3 C 25,7 km/h (4 Bft) 100,00 %
07.04.2018 14:23 17,8 C 8,9 C 45 % 1014,5 hPa 0,0 l/m 15,0 km/h (3 Bft) O-NO 74 1 min 0,000 mm 2,9 UV-I 707 W/m 5,7 C 14,6 C 20,9 km/h (4 Bft) 100,00 %
07.04.2018 14:24 17,9 C 8,9 C 47 % 1014,5 hPa 0,0 l/m 20,7 km/h (4 Bft) O-SO 103 1 min 0,000 mm 2,9 UV-I 707 W/m 6,4 C 13,3 C 27,4 km/h (4 Bft) 100,00 %
07.04.2018 14:25 17,9 C 8,9 C 43 % 1014,5 hPa 0,0 l/m 23,9 km/h (4 Bft) O-SO 105 1 min 0,000 mm 2,9 UV-I 707 W/m 5,1 C 12,7 C 32,2 km/h (5 Bft) 100,00 %
07.04.2018 14:26 17,9 C 8,9 C 44 % 1014,4 hPa 0,0 l/m 23,2 km/h (4 Bft) O-SO 115 1 min 0,000 mm 2,9 UV-I 706 W/m 5,5 C 12,9 C 29,0 km/h (5 Bft) 92,31 %
07.04.2018 14:27 17,9 C 8,9 C 43 % 1014,4 hPa 0,0 l/m 21,4 km/h (4 Bft) SO 127 1 min 0,000 mm 2,8 UV-I 703 W/m 5,1 C 13,2 C 25,7 km/h (4 Bft) 100,00 %
07.04.2018 14:28 17,9 C 8,9 C 44 % 1014,4 hPa 0,0 l/m 23,1 km/h (4 Bft) O-SO 105 1 min 0,000 mm 2,8 UV-I 701 W/m 5,5 C 12,9 C 30,6 km/h (5 Bft) 100,00 %
07.04.2018 14:29 17,9 C 8,9 C 43 % 1014,4 hPa 0,0 l/m 28,4 km/h (4 Bft) O 93 1 min 0,000 mm 2,8 UV-I 699 W/m 5,1 C 12,0 C 35,4 km/h (5 Bft) 100,00 %
07.04.2018 14:30 17,9 C 8,9 C 44 % 1014,4 hPa 0,0 l/m 21,3 km/h (4 Bft) O-NO 75 1 min 0,000 mm 2,8 UV-I 697 W/m 5,5 C 13,2 C 27,4 km/h (4 Bft) 100,00 %
07.04.2018 14:31 18,0 C 8,9 C 43 % 1014,4 hPa 0,0 l/m 24,7 km/h (4 Bft) O 86 1 min 0,000 mm 2,8 UV-I 694 W/m 5,2 C 12,7 C 30,6 km/h (5 Bft) 100,00 %
07.04.2018 14:32 18,0 C 8,9 C 44 % 1014,4 hPa 0,0 l/m 25,8 km/h (4 Bft) O 84 1 min 0,000 mm 2,8 UV-I 695 W/m 5,6 C 12,5 C 29,0 km/h (5 Bft) 100,00 %
07.04.2018 14:33 18,1 C 8,9 C 44 % 1014,4 hPa 0,0 l/m 25,4 km/h (4 Bft) O 96 1 min 0,000 mm 2,8 UV-I 694 W/m 5,7 C 12,7 C 33,8 km/h (5 Bft) 100,00 %
07.04.2018 14:34 18,1 C 8,9 C 43 % 1014,4 hPa 0,0 l/m 23,2 km/h (4 Bft) O 85 1 min 0,000 mm 2,8 UV-I 689 W/m 5,3 C 13,1 C 29,0 km/h (5 Bft) 100,00 %
07.04.2018 14:35 18,0 C 8,9 C 42 % 1014,4 hPa 0,0 l/m 20,2 km/h (4 Bft) O 86 1 min 0,000 mm 2,7 UV-I 689 W/m 4,9 C 13,6 C 25,7 km/h (4 Bft) 96,15 %
07.04.2018 14:36 18,0 C 8,9 C 43 % 1014,3 hPa 0,0 l/m 25,1 km/h (4 Bft) O 82 1 min 0,000 mm 2,7 UV-I 688 W/m 5,2 C 12,7 C 30,6 km/h (5 Bft) 100,00 %
07.04.2018 14:37 18,0 C 8,9 C 43 % 1014,4 hPa 0,0 l/m 24,1 km/h (4 Bft) O-SO 103 1 min 0,000 mm 2,7 UV-I 687 W/m 5,2 C 12,8 C 33,8 km/h (5 Bft) 100,00 %
07.04.2018 14:38 18,0 C 8,9 C 43 % 1014,4 hPa 0,0 l/m 24,7 km/h (4 Bft) O 84 1 min 0,000 mm 2,7 UV-I 687 W/m 5,2 C 12,7 C 30,6 km/h (5 Bft) 93,33 %
07.04.2018 14:39 18,0 C 8,9 C 44 % 1014,3 hPa 0,0 l/m 21,6 km/h (4 Bft) O-NO 69 1 min 0,000 mm 2,7 UV-I 684 W/m 5,6 C 13,3 C 27,4 km/h (4 Bft) 100,00 %
07.04.2018 14:40 18,1 C 8,9 C 44 % 1014,3 hPa 0,0 l/m 21,9 km/h (4 Bft) O-NO 69 1 min 0,000 mm 2,7 UV-I 682 W/m 5,7 C 13,4 C 27,4 km/h (4 Bft) 100,00 %
07.04.2018 14:41 18,2 C 8,9 C 43 % 1014,3 hPa 0,0 l/m 21,4 km/h (4 Bft) O-NO 74 1 min 0,000 mm 2,7 UV-I 680 W/m 5,4 C 13,6 C 29,0 km/h (5 Bft) 90,91 %
07.04.2018 14:42 18,3 C 8,9 C 44 % 1014,3 hPa 0,0 l/m 21,6 km/h (4 Bft) O-NO 60 1 min 0,000 mm 2,7 UV-I 678 W/m 5,8 C 13,7 C 25,7 km/h (4 Bft) 100,00 %
07.04.2018 14:43 18,3 C 8,9 C 43 % 1014,3 hPa 0,0 l/m 24,0 km/h (4 Bft) O-NO 75 1 min 0,000 mm 2,7 UV-I 676 W/m 5,5 C 13,2 C 32,2 km/h (5 Bft) 100,00 %
07.04.2018 14:44 18,4 C 8,9 C 44 % 1014,2 hPa 0,0 l/m 25,0 km/h (4 Bft) O 88 1 min 0,000 mm 2,7 UV-I 674 W/m 5,9 C 13,2 C 35,4 km/h (5 Bft) 100,00 %
07.04.2018 14:45 18,4 C 8,9 C 42 % 1014,2 hPa 0,0 l/m 19,2 km/h (3 Bft) O-NO 74 1 min 0,000 mm 2,6 UV-I 671 W/m 5,3 C 14,3 C 24,1 km/h (4 Bft) 100,00 %
07.04.2018 14:46 18,4 C 8,9 C 42 % 1014,2 hPa 0,0 l/m 24,6 km/h (4 Bft) O-NO 67 1 min 0,000 mm 2,6 UV-I 670 W/m 5,3 C 13,3 C 29,0 km/h (5 Bft) 100,00 %
07.04.2018 14:47 18,4 C 8,9 C 42 % 1014,2 hPa 0,0 l/m 27,4 km/h (4 Bft) O 90 1 min 0,000 mm 2,6 UV-I 669 W/m 5,3 C 12,8 C 30,6 km/h (5 Bft) 100,00 %
07.04.2018 14:48 18,5 C 8,9 C 43 % 1014,2 hPa 0,0 l/m 23,7 km/h (4 Bft) O-SO 104 1 min 0,000 mm 2,6 UV-I 669 W/m 5,7 C 13,6 C 32,2 km/h (5 Bft) 100,00 %
07.04.2018 14:49 18,6 C 8,9 C 42 % 1014,1 hPa 0,0 l/m 25,0 km/h (4 Bft) O 79 1 min 0,000 mm 2,6 UV-I 667 W/m 5,4 C 13,5 C 30,6 km/h (5 Bft) 96,15 %
07.04.2018 14:50 18,6 C 8,9 C 42 % 1014,1 hPa 0,0 l/m 24,1 km/h (4 Bft) O-NO 57 1 min 0,000 mm 2,6 UV-I 664 W/m 5,4 C 13,6 C 32,2 km/h (5 Bft) 100,00 %
07.04.2018 14:51 18,6 C 8,9 C 42 % 1014,1 hPa 0,0 l/m 22,4 km/h (4 Bft) O-NO 76 1 min 0,000 mm 2,6 UV-I 664 W/m 5,4 C 13,9 C 25,7 km/h (4 Bft) 100,00 %
07.04.2018 14:52 18,7 C 8,9 C 44 % 1014,1 hPa 0,0 l/m 26,1 km/h (4 Bft) O 84 1 min 0,000 mm 2,6 UV-I 663 W/m 6,2 C 13,4 C 35,4 km/h (5 Bft) 100,00 %
07.04.2018 14:53 18,7 C 8,9 C 41 % 1014,1 hPa 0,0 l/m 26,1 km/h (4 Bft) O-NO 69 1 min 0,000 mm 2,6 UV-I 662 W/m 5,2 C 13,4 C 30,6 km/h (5 Bft) 100,00 %
07.04.2018 14:54 18,7 C 8,9 C 41 % 1014,1 hPa 0,0 l/m 25,3 km/h (4 Bft) O-NO 76 1 min 0,000 mm 2,5 UV-I 660 W/m 5,2 C 13,6 C 37,0 km/h (5 Bft) 96,88 %
07.04.2018 14:55 18,7 C 8,9 C 40 % 1014,1 hPa 0,0 l/m 26,4 km/h (4 Bft) O-NO 66 1 min 0,000 mm 2,5 UV-I 657 W/m 4,8 C 13,4 C 33,8 km/h (5 Bft) 100,00 %
07.04.2018 14:56 18,7 C 8,9 C 40 % 1014,1 hPa 0,0 l/m 30,8 km/h (5 Bft) O-NO 67 1 min 0,000 mm 2,5 UV-I 656 W/m 4,8 C 12,8 C 35,4 km/h (5 Bft) 100,00 %
07.04.2018 14:57 18,7 C 8,9 C 41 % 1014,1 hPa 0,0 l/m 23,1 km/h (4 Bft) O-NO 78 1 min 0,000 mm 2,5 UV-I 654 W/m 5,2 C 13,9 C 30,6 km/h (5 Bft) 100,00 %
07.04.2018 14:58 18,7 C 8,9 C 42 % 1014,1 hPa 0,0 l/m 25,3 km/h (4 Bft) O-NO 78 1 min 0,000 mm 2,5 UV-I 651 W/m 5,5 C 13,6 C 33,8 km/h (5 Bft) 100,00 %
07.04.2018 14:59 18,7 C 8,9 C 43 % 1014,0 hPa 0,0 l/m 27,2 km/h (4 Bft) O-NO 66 1 min 0,000 mm 2,5 UV-I 650 W/m 5,9 C 13,3 C 38,6 km/h (5 Bft) 100,00 %
07.04.2018 15:00 18,7 C 8,9 C 41 % 1014,1 hPa 0,0 l/m 25,8 km/h (4 Bft) O 99 1 min 0,559 mm 2,5 UV-I 650 W/m 5,2 C 13,5 C 32,2 km/h (5 Bft) 100,00 %
07.04.2018 15:01 18,7 C 8,9 C 42 % 1014,1 hPa 0,0 l/m 24,1 km/h (4 Bft) O-SO 108 1 min 0,000 mm 2,5 UV-I 649 W/m 5,5 C 13,8 C 29,0 km/h (5 Bft) 98,72 %
07.04.2018 15:02 18,7 C 8,9 C 40 % 1014,0 hPa 0,0 l/m 24,9 km/h (4 Bft) O 91 1 min 0,000 mm 2,4 UV-I 649 W/m 4,8 C 13,6 C 33,8 km/h (5 Bft) 100,00 %
07.04.2018 15:03 18,8 C 8,9 C 40 % 1014,0 hPa 0,0 l/m 24,4 km/h (4 Bft) O-NO 64 1 min 0,000 mm 2,4 UV-I 645 W/m 4,9 C 13,9 C 33,8 km/h (5 Bft) 100,00 %
07.04.2018 15:04 18,8 C 8,9 C 41 % 1014,0 hPa 0,0 l/m 24,9 km/h (4 Bft) O-NO 75 1 min 0,000 mm 2,4 UV-I 643 W/m 5,3 C 13,8 C 32,2 km/h (5 Bft) 100,00 %
07.04.2018 15:05 18,8 C 8,9 C 39 % 1013,9 hPa 0,0 l/m 27,7 km/h (4 Bft) O-NO 76 1 min 0,000 mm 2,4 UV-I 641 W/m 4,6 C 13,3 C 33,8 km/h (5 Bft) 95,83 %
07.04.2018 15:06 18,8 C 8,9 C 40 % 1013,9 hPa 0,0 l/m 27,8 km/h (4 Bft) O 94 1 min 0,000 mm 2,4 UV-I 639 W/m 4,9 C 13,3 C 33,8 km/h (5 Bft) 100,00 %
07.04.2018 15:08 18,8 C 8,9 C 43 % 1014,0 hPa 0,0 l/m 22,7 km/h (4 Bft) O 86 2 min 0,000 mm 2,4 UV-I 636 W/m 6,0 C 14,1 C 30,6 km/h (5 Bft) 100,00 %
07.04.2018 15:09 18,8 C 8,9 C 42 % 1014,0 hPa 0,0 l/m 24,8 km/h (4 Bft) O-NO 57 1 min 0,000 mm 2,4 UV-I 633 W/m 5,6 C 13,8 C 32,2 km/h (5 Bft) 100,00 %
07.04.2018 15:10 18,9 C 8,9 C 41 % 1013,9 hPa 0,0 l/m 26,3 km/h (4 Bft) O-NO 57 1 min 0,000 mm 2,3 UV-I 630 W/m 5,4 C 13,7 C 33,8 km/h (5 Bft) 96,15 %
07.04.2018 15:11 18,9 C 8,9 C 40 % 1013,9 hPa 0,0 l/m 26,1 km/h (4 Bft) O 94 1 min 0,000 mm 2,3 UV-I 629 W/m 5,0 C 13,7 C 32,2 km/h (5 Bft) 100,00 %
07.04.2018 15:12 18,9 C 8,9 C 39 % 1013,9 hPa 0,0 l/m 26,7 km/h (4 Bft) O-NO 67 1 min 0,000 mm 2,3 UV-I 626 W/m 4,6 C 13,6 C 32,2 km/h (5 Bft) 100,00 %
07.04.2018 15:13 18,9 C 8,9 C 41 % 1013,9 hPa 0,0 l/m 24,1 km/h (4 Bft) O-NO 67 1 min 0,000 mm 2,3 UV-I 626 W/m 5,4 C 14,0 C 33,8 km/h (5 Bft) 100,00 %
07.04.2018 15:14 18,9 C 8,9 C 39 % 1013,9 hPa 0,0 l/m 25,6 km/h (4 Bft) O-NO 59 1 min 0,000 mm 2,3 UV-I 624 W/m 4,6 C 13,8 C 30,6 km/h (5 Bft) 100,00 %
07.04.2018 15:15 18,9 C 8,9 C 39 % 1013,8 hPa 0,0 l/m 26,8 km/h (4 Bft) O 92 1 min 0,000 mm 2,3 UV-I 622 W/m 4,6 C 13,6 C 37,0 km/h (5 Bft) 98,80 %
07.04.2018 15:16 18,9 C 8,9 C 39 % 1013,8 hPa 0,0 l/m 25,5 km/h (4 Bft) O-NO 58 1 min 0,000 mm 2,3 UV-I 620 W/m 4,6 C 13,8 C 30,6 km/h (5 Bft) 100,00 %
07.04.2018 15:17 18,9 C 8,9 C 40 % 1013,8 hPa 0,0 l/m 24,1 km/h (4 Bft) O-NO 58 1 min 0,000 mm 2,3 UV-I 618 W/m 5,0 C 14,0 C 33,8 km/h (5 Bft) 96,55 %
07.04.2018 15:18 18,9 C 8,9 C 41 % 1013,8 hPa 0,0 l/m 21,2 km/h (4 Bft) O-NO 57 1 min 0,000 mm 2,2 UV-I 617 W/m 5,4 C 14,6 C 30,6 km/h (5 Bft) 100,00 %
07.04.2018 15:19 19,0 C 8,9 C 40 % 1013,7 hPa 0,0 l/m 24,1 km/h (4 Bft) O-NO 74 1 min 0,000 mm 2,2 UV-I 615 W/m 5,1 C 14,2 C 32,2 km/h (5 Bft) 96,55 %
07.04.2018 15:20 19,1 C 8,9 C 42 % 1013,7 hPa 0,0 l/m 25,1 km/h (4 Bft) O 82 1 min 0,000 mm 2,2 UV-I 613 W/m 5,9 C 14,1 C 37,0 km/h (5 Bft) 100,00 %
07.04.2018 15:21 19,1 C 8,9 C 39 % 1013,8 hPa 0,0 l/m 26,3 km/h (4 Bft) O 82 1 min 0,000 mm 2,2 UV-I 612 W/m 4,8 C 14,0 C 33,8 km/h (5 Bft) 93,75 %
07.04.2018 15:22 19,1 C 8,9 C 40 % 1013,8 hPa 0,0 l/m 27,0 km/h (4 Bft) O-SO 107 1 min 0,000 mm 2,2 UV-I 608 W/m 5,2 C 13,9 C 37,0 km/h (5 Bft) 93,33 %
07.04.2018 15:23 19,1 C 8,9 C 38 % 1013,8 hPa 0,0 l/m 23,9 km/h (4 Bft) NO 36 1 min 0,000 mm 2,2 UV-I 605 W/m 4,4 C 14,3 C 32,2 km/h (5 Bft) 100,00 %
07.04.2018 15:24 19,1 C 8,9 C 39 % 1013,8 hPa 0,0 l/m 24,7 km/h (4 Bft) O-NO 78 1 min 0,000 mm 2,2 UV-I 605 W/m 4,8 C 14,2 C 29,0 km/h (5 Bft) 100,00 %
07.04.2018 15:25 19,1 C 8,9 C 40 % 1013,8 hPa 0,0 l/m 23,2 km/h (4 Bft) O-NO 58 1 min 0,000 mm 2,2 UV-I 604 W/m 5,2 C 14,5 C 25,7 km/h (4 Bft) 96,67 %
07.04.2018 15:26 19,1 C 8,9 C 41 % 1013,8 hPa 0,0 l/m 20,8 km/h (4 Bft) O-NO 58 1 min 0,000 mm 2,2 UV-I 601 W/m 5,5 C 14,9 C 27,4 km/h (4 Bft) 96,55 %
07.04.2018 15:27 19,2 C 8,9 C 42 % 1013,8 hPa 0,0 l/m 18,3 km/h (3 Bft) O-NO 70 1 min 0,000 mm 2,2 UV-I 600 W/m 6,0 C 15,5 C 24,1 km/h (4 Bft) 96,67 %
07.04.2018 15:28 19,3 C 8,9 C 43 % 1013,7 hPa 0,0 l/m 22,4 km/h (4 Bft) O 98 1 min 0,000 mm 2,2 UV-I 598 W/m 6,4 C 14,9 C 27,4 km/h (4 Bft) 94,12 %
07.04.2018 15:29 19,3 C 8,9 C 40 % 1013,8 hPa 0,0 l/m 25,7 km/h (4 Bft) O-NO 67 1 min 0,000 mm 2,1 UV-I 598 W/m 5,4 C 14,3 C 35,4 km/h (5 Bft) 100,00 %
07.04.2018 15:30 19,3 C 8,9 C 40 % 1013,8 hPa 0,0 l/m 25,1 km/h (4 Bft) O 80 1 min 0,000 mm 2,1 UV-I 597 W/m 5,4 C 14,4 C 32,2 km/h (5 Bft) 95,65 %
07.04.2018 15:31 19,3 C 8,9 C 40 % 1013,8 hPa 0,0 l/m 20,2 km/h (4 Bft) O 80 1 min 0,000 mm 2,1 UV-I 595 W/m 5,4 C 15,3 C 27,4 km/h (4 Bft) 100,00 %
07.04.2018 15:32 19,3 C 8,9 C 41 % 1013,7 hPa 0,0 l/m 21,7 km/h (4 Bft) NO 38 1 min 0,000 mm 2,1 UV-I 592 W/m 5,7 C 15,0 C 32,2 km/h (5 Bft) 96,88 %
07.04.2018 15:33 19,3 C 8,9 C 41 % 1013,8 hPa 0,0 l/m 22,2 km/h (4 Bft) O-SO 104 1 min 0,000 mm 2,1 UV-I 590 W/m 5,7 C 14,9 C 29,0 km/h (5 Bft) 100,00 %
07.04.2018 15:34 19,3 C 8,9 C 41 % 1013,7 hPa 0,0 l/m 23,4 km/h (4 Bft) O-NO 59 1 min 0,000 mm 2,1 UV-I 588 W/m 5,7 C 14,7 C 37,0 km/h (5 Bft) 96,15 %
07.04.2018 15:35 19,3 C 8,9 C 40 % 1013,7 hPa 0,0 l/m 28,7 km/h (4 Bft) O-NO 74 1 min 0,000 mm 2,1 UV-I 586 W/m 5,4 C 13,9 C 35,4 km/h (5 Bft) 100,00 %
07.04.2018 15:36 19,3 C 8,9 C 38 % 1013,7 hPa 0,0 l/m 25,3 km/h (4 Bft) O-NO 66 1 min 0,000 mm 2,1 UV-I 584 W/m 4,6 C 14,4 C 32,2 km/h (5 Bft) 93,75 %
07.04.2018 15:37 19,3 C 8,9 C 39 % 1013,7 hPa 0,0 l/m 17,6 km/h (3 Bft) O-NO 73 1 min 0,000 mm 2,0 UV-I 582 W/m 5,0 C 15,8 C 27,4 km/h (4 Bft) 96,30 %
07.04.2018 15:38 19,3 C 8,9 C 40 % 1013,7 hPa 0,0 l/m 19,4 km/h (3 Bft) O 90 1 min 0,000 mm 2,0 UV-I 582 W/m 5,4 C 15,4 C 27,4 km/h (4 Bft) 96,15 %
07.04.2018 15:39 19,4 C 8,9 C 40 % 1013,6 hPa 0,0 l/m 21,6 km/h (4 Bft) O 88 1 min 0,000 mm 2,0 UV-I 578 W/m 5,5 C 15,1 C 32,2 km/h (5 Bft) 94,44 %
07.04.2018 15:40 19,4 C 8,9 C 41 % 1013,7 hPa 0,0 l/m 22,4 km/h (4 Bft) O-NO 75 1 min 0,000 mm 2,0 UV-I 576 W/m 5,8 C 15,0 C 27,4 km/h (4 Bft) 96,15 %
07.04.2018 15:41 19,4 C 8,9 C 39 % 1013,6 hPa 0,0 l/m 22,6 km/h (4 Bft) O-NO 57 1 min 0,000 mm 2,0 UV-I 574 W/m 5,1 C 15,0 C 27,4 km/h (4 Bft) 92,59 %
07.04.2018 15:43 19,4 C 8,9 C 41 % 1013,6 hPa 0,0 l/m 23,7 km/h (4 Bft) O 83 2 min 0,000 mm 2,0 UV-I 571 W/m 5,8 C 14,8 C 40,2 km/h (6 Bft) 95,12 %
07.04.2018 15:44 19,4 C 8,9 C 40 % 1013,6 hPa 0,0 l/m 26,2 km/h (4 Bft) O-NO 76 1 min 0,000 mm 1,9 UV-I 568 W/m 5,5 C 14,4 C 35,4 km/h (5 Bft) 100,00 %
07.04.2018 15:45 19,4 C 8,9 C 39 % 1013,6 hPa 0,0 l/m 28,9 km/h (5 Bft) O 92 1 min 0,000 mm 1,9 UV-I 565 W/m 5,1 C 14,0 C 35,4 km/h (5 Bft) 92,31 %
07.04.2018 15:46 19,4 C 8,9 C 40 % 1013,6 hPa 0,0 l/m 27,7 km/h (4 Bft) O-NO 65 1 min 0,000 mm 1,9 UV-I 564 W/m 5,5 C 14,2 C 33,8 km/h (5 Bft) 100,00 %
07.04.2018 15:47 19,4 C 8,9 C 39 % 1013,6 hPa 0,0 l/m 26,6 km/h (4 Bft) O-NO 69 1 min 0,000 mm 1,9 UV-I 562 W/m 5,1 C 14,3 C 33,8 km/h (5 Bft) 91,30 %
07.04.2018 15:48 19,4 C 8,9 C 38 % 1013,6 hPa 0,0 l/m 27,2 km/h (4 Bft) O 95 1 min 0,000 mm 1,9 UV-I 561 W/m 4,7 C 14,2 C 33,8 km/h (5 Bft) 91,67 %
07.04.2018 15:49 19,3 C 8,9 C 39 % 1013,6 hPa 0,0 l/m 25,9 km/h (4 Bft) O-NO 71 1 min 0,000 mm 1,9 UV-I 559 W/m 5,0 C 14,3 C 32,2 km/h (5 Bft) 91,30 %
07.04.2018 15:50 19,3 C 8,9 C 38 % 1013,5 hPa 0,0 l/m 29,9 km/h (5 Bft) NO 49 1 min 0,000 mm 1,9 UV-I 557 W/m 4,6 C 13,7 C 37,0 km/h (5 Bft) 95,83 %
07.04.2018 15:51 19,3 C 8,9 C 38 % 1013,5 hPa 0,0 l/m 24,2 km/h (4 Bft) O 92 1 min 0,000 mm 1,8 UV-I 555 W/m 4,6 C 14,6 C 30,6 km/h (5 Bft) 96,15 %
07.04.2018 15:52 19,3 C 8,9 C 39 % 1013,5 hPa 0,0 l/m 31,0 km/h (5 Bft) O-NO 57 1 min 0,000 mm 1,8 UV-I 551 W/m 5,0 C 13,6 C 37,0 km/h (5 Bft) 93,33 %
07.04.2018 15:53 19,3 C 8,9 C 39 % 1013,5 hPa 0,0 l/m 31,1 km/h (5 Bft) O 92 1 min 0,000 mm 1,8 UV-I 550 W/m 5,0 C 13,6 C 35,4 km/h (5 Bft) 100,00 %
07.04.2018 15:54 19,3 C 8,9 C 39 % 1013,5 hPa 0,0 l/m 26,5 km/h (4 Bft) O 88 1 min 0,000 mm 1,8 UV-I 549 W/m 5,0 C 14,2 C 32,2 km/h (5 Bft) 93,33 %
07.04.2018 15:55 19,3 C 8,9 C 37 % 1013,5 hPa 0,0 l/m 27,7 km/h (4 Bft) O 83 1 min 0,000 mm 1,8 UV-I 547 W/m 4,2 C 14,0 C 38,6 km/h (5 Bft) 92,68 %
07.04.2018 15:56 19,3 C 8,9 C 38 % 1013,5 hPa 0,0 l/m 29,0 km/h (5 Bft) O 86 1 min 0,000 mm 1,8 UV-I 546 W/m 4,6 C 13,9 C 38,6 km/h (5 Bft) 91,67 %
07.04.2018 15:57 19,3 C 8,9 C 37 % 1013,5 hPa 0,0 l/m 24,9 km/h (4 Bft) O-SO 104 1 min 0,000 mm 1,8 UV-I 543 W/m 4,2 C 14,5 C 35,4 km/h (5 Bft) 94,29 %
07.04.2018 15:58 19,3 C 8,9 C 39 % 1013,5 hPa 0,0 l/m 22,2 km/h (4 Bft) O-NO 78 1 min 0,000 mm 1,7 UV-I 541 W/m 5,0 C 14,9 C 30,6 km/h (5 Bft) 100,00 %
07.04.2018 15:59 19,3 C 8,9 C 39 % 1013,5 hPa 0,0 l/m 27,2 km/h (4 Bft) O-NO 72 1 min 0,000 mm 1,7 UV-I 537 W/m 5,0 C 14,1 C 32,2 km/h (5 Bft) 93,10 %
07.04.2018 16:00 19,4 C 8,9 C 38 % 1013,4 hPa 0,0 l/m 27,5 km/h (4 Bft) O-NO 67 1 min 0,533 mm 1,7 UV-I 534 W/m 4,7 C 14,2 C 32,2 km/h (5 Bft) 100,00 %
07.04.2018 16:01 19,4 C 8,9 C 40 % 1013,4 hPa 0,0 l/m 23,0 km/h (4 Bft) O-NO 73 1 min 0,000 mm 1,7 UV-I 533 W/m 5,5 C 14,9 C 32,2 km/h (5 Bft) 95,65 %
07.04.2018 16:02 19,4 C 8,9 C 40 % 1013,5 hPa 0,0 l/m 22,6 km/h (4 Bft) O-NO 65 1 min 0,000 mm 1,7 UV-I 530 W/m 5,5 C 15,0 C 32,2 km/h (5 Bft) 100,00 %
07.04.2018 16:03 19,4 C 8,9 C 39 % 1013,4 hPa 0,0 l/m 21,8 km/h (4 Bft) NO 42 1 min 0,000 mm 1,7 UV-I 527 W/m 5,1 C 15,1 C 27,4 km/h (4 Bft) 92,31 %
07.04.2018 16:04 19,4 C 8,9 C 40 % 1013,4 hPa 0,0 l/m 23,2 km/h (4 Bft) O-NO 67 1 min 0,000 mm 1,7 UV-I 525 W/m 5,5 C 14,9 C 29,0 km/h (5 Bft) 100,00 %
07.04.2018 16:05 19,5 C 8,9 C 39 % 1013,3 hPa 0,0 l/m 29,3 km/h (5 Bft) O 92 1 min 0,000 mm 1,7 UV-I 523 W/m 5,2 C 14,1 C 38,6 km/h (5 Bft) 93,33 %
07.04.2018 16:06 19,5 C 8,9 C 39 % 1013,4 hPa 0,0 l/m 27,8 km/h (4 Bft) NO 43 1 min 0,000 mm 1,6 UV-I 522 W/m 5,2 C 14,3 C 35,4 km/h (5 Bft) 93,10 %
07.04.2018 16:07 19,6 C 8,9 C 40 % 1013,3 hPa 0,0 l/m 23,6 km/h (4 Bft) O 81 1 min 0,000 mm 1,6 UV-I 520 W/m 5,6 C 15,1 C 32,2 km/h (5 Bft) 100,00 %
07.04.2018 16:08 19,6 C 8,9 C 39 % 1013,3 hPa 0,0 l/m 28,0 km/h (4 Bft) O-NO 69 1 min 0,000 mm 1,6 UV-I 518 W/m 5,3 C 14,4 C 32,2 km/h (5 Bft) 96,15 %
07.04.2018 16:09 19,6 C 8,9 C 39 % 1013,3 hPa 0,0 l/m 30,3 km/h (5 Bft) O-NO 76 1 min 0,000 mm 1,6 UV-I 515 W/m 5,3 C 14,1 C 33,8 km/h (5 Bft) 100,00 %
07.04.2018 16:10 19,6 C 8,9 C 38 % 1013,3 hPa 0,0 l/m 28,7 km/h (4 Bft) O-NO 71 1 min 0,000 mm 1,6 UV-I 512 W/m 4,9 C 14,3 C 40,2 km/h (6 Bft) 96,55 %
07.04.2018 16:11 19,6 C 8,9 C 38 % 1013,3 hPa 0,0 l/m 26,6 km/h (4 Bft) O-NO 69 1 min 0,000 mm 1,6 UV-I 512 W/m 4,9 C 14,6 C 33,8 km/h (5 Bft) 100,00 %
07.04.2018 16:12 19,6 C 8,9 C 38 % 1013,3 hPa 0,0 l/m 30,2 km/h (5 Bft) O 84 1 min 0,000 mm 1,6 UV-I 509 W/m 4,9 C 14,1 C 40,2 km/h (6 Bft) 95,65 %
07.04.2018 16:13 19,6 C 8,9 C 37 % 1013,3 hPa 0,0 l/m 27,0 km/h (4 Bft) O-NO 71 1 min 0,000 mm 1,5 UV-I 506 W/m 4,5 C 14,6 C 30,6 km/h (5 Bft) 100,00 %
07.04.2018 16:14 19,6 C 8,9 C 39 % 1013,3 hPa 0,0 l/m 26,4 km/h (4 Bft) O 92 1 min 0,000 mm 1,5 UV-I 505 W/m 5,3 C 14,6 C 35,4 km/h (5 Bft) 92,31 %
07.04.2018 16:15 19,6 C 8,9 C 38 % 1013,3 hPa 0,0 l/m 28,1 km/h (4 Bft) O 86 1 min 0,000 mm 1,5 UV-I 500 W/m 4,9 C 14,4 C 33,8 km/h (5 Bft) 100,00 %
07.04.2018 16:16 19,6 C 8,9 C 38 % 1013,2 hPa 0,0 l/m 19,8 km/h (3 Bft) O 84 1 min 0,000 mm 1,5 UV-I 497 W/m 4,9 C 15,7 C 24,1 km/h (4 Bft) 96,55 %
07.04.2018 16:17 19,6 C 8,9 C 40 % 1013,2 hPa 0,0 l/m 16,8 km/h (3 Bft) O 87 1 min 0,000 mm 1,5 UV-I 494 W/m 5,6 C 16,3 C 22,5 km/h (4 Bft) 100,00 %
07.04.2018 16:18 19,6 C 8,9 C 40 % 1013,2 hPa 0,0 l/m 20,8 km/h (4 Bft) O-NO 65 1 min 0,000 mm 1,5 UV-I 490 W/m 5,6 C 15,5 C 27,4 km/h (4 Bft) 96,15 %
07.04.2018 16:19 19,7 C 8,9 C 39 % 1013,2 hPa 0,0 l/m 23,0 km/h (4 Bft) O-NO 69 1 min 0,000 mm 1,5 UV-I 489 W/m 5,4 C 15,3 C 30,6 km/h (5 Bft) 100,00 %
07.04.2018 16:20 19,7 C 8,9 C 40 % 1013,2 hPa 0,0 l/m 25,8 km/h (4 Bft) N-NO 33 1 min 0,000 mm 1,4 UV-I 487 W/m 5,7 C 14,9 C 33,8 km/h (5 Bft) 96,30 %
07.04.2018 16:21 19,7 C 8,9 C 39 % 1013,2 hPa 0,0 l/m 29,2 km/h (5 Bft) O-NO 65 1 min 0,000 mm 1,4 UV-I 486 W/m 5,4 C 14,4 C 33,8 km/h (5 Bft) 100,00 %
07.04.2018 16:22 19,7 C 8,9 C 38 % 1013,2 hPa 0,0 l/m 26,2 km/h (4 Bft) O 91 1 min 0,000 mm 1,4 UV-I 484 W/m 5,0 C 14,8 C 33,8 km/h (5 Bft) 96,30 %
07.04.2018 16:23 19,7 C 8,9 C 38 % 1013,2 hPa 0,0 l/m 24,4 km/h (4 Bft) O 93 1 min 0,000 mm 1,4 UV-I 482 W/m 5,0 C 15,1 C 30,6 km/h (5 Bft) 96,15 %
07.04.2018 16:24 19,7 C 8,9 C 39 % 1013,2 hPa 0,0 l/m 22,2 km/h (4 Bft) O-NO 69 1 min 0,000 mm 1,4 UV-I 480 W/m 5,4 C 15,4 C 27,4 km/h (4 Bft) 100,00 %
07.04.2018 16:25 19,7 C 8,9 C 39 % 1013,2 hPa 0,0 l/m 27,7 km/h (4 Bft) O 100 1 min 0,000 mm 1,4 UV-I 478 W/m 5,4 C 14,6 C 33,8 km/h (5 Bft) 96,55 %
07.04.2018 16:26 19,7 C 8,9 C 39 % 1013,1 hPa 0,0 l/m 26,3 km/h (4 Bft) O-NO 77 1 min 0,000 mm 1,4 UV-I 476 W/m 5,4 C 14,8 C 40,2 km/h (6 Bft) 100,00 %
07.04.2018 16:27 19,7 C 8,9 C 38 % 1013,1 hPa 0,0 l/m 30,1 km/h (5 Bft) O 99 1 min 0,000 mm 1,4 UV-I 474 W/m 5,0 C 14,3 C 38,6 km/h (5 Bft) 90,91 %
07.04.2018 16:28 19,7 C 8,9 C 36 % 1013,1 hPa 0,0 l/m 27,4 km/h (4 Bft) O-SO 102 1 min 0,000 mm 1,3 UV-I 471 W/m 4,2 C 14,6 C 37,0 km/h (5 Bft) 100,00 %
07.04.2018 16:29 19,6 C 8,9 C 38 % 1013,1 hPa 0,0 l/m 27,4 km/h (4 Bft) O-SO 113 1 min 0,000 mm 1,3 UV-I 468 W/m 4,9 C 14,5 C 32,2 km/h (5 Bft) 95,65 %
07.04.2018 16:30 19,7 C 8,9 C 37 % 1013,1 hPa 0,0 l/m 31,6 km/h (5 Bft) O-NO 71 1 min 0,000 mm 1,3 UV-I 465 W/m 4,6 C 14,1 C 40,2 km/h (6 Bft) 92,59 %
07.04.2018 16:31 19,6 C 8,9 C 36 % 1013,1 hPa 0,0 l/m 21,7 km/h (4 Bft) O 97 1 min 0,000 mm 1,3 UV-I 462 W/m 4,1 C 15,4 C 29,0 km/h (5 Bft) 100,00 %
07.04.2018 16:32 19,6 C 8,9 C 37 % 1013,1 hPa 0,0 l/m 27,4 km/h (4 Bft) O 96 1 min 0,000 mm 1,3 UV-I 460 W/m 4,5 C 14,5 C 32,2 km/h (5 Bft) 96,30 %
07.04.2018 16:33 19,6 C 8,9 C 37 % 1013,0 hPa 0,0 l/m 24,8 km/h (4 Bft) O-NO 59 1 min 0,000 mm 1,3 UV-I 458 W/m 4,5 C 14,9 C 35,4 km/h (5 Bft) 100,00 %
07.04.2018 16:34 19,6 C 8,9 C 40 % 1013,1 hPa 0,0 l/m 22,3 km/h (4 Bft) O-NO 76 1 min 0,000 mm 1,3 UV-I 457 W/m 5,6 C 15,3 C 27,4 km/h (4 Bft) 100,00 %
07.04.2018 16:35 19,6 C 8,9 C 39 % 1013,0 hPa 0,0 l/m 22,4 km/h (4 Bft) O-NO 58 1 min 0,000 mm 1,3 UV-I 453 W/m 5,3 C 15,3 C 32,2 km/h (5 Bft) 93,75 %
07.04.2018 16:36 19,7 C 8,9 C 40 % 1013,0 hPa 0,0 l/m 26,3 km/h (4 Bft) O-NO 69 1 min 0,000 mm 1,3 UV-I 450 W/m 5,7 C 14,8 C 35,4 km/h (5 Bft) 96,30 %
07.04.2018 16:37 19,7 C 8,9 C 38 % 1012,9 hPa 0,0 l/m 24,7 km/h (4 Bft) O 94 1 min 0,000 mm 1,2 UV-I 446 W/m 5,0 C 15,0 C 33,8 km/h (5 Bft) 91,67 %
07.04.2018 16:38 19,7 C 8,9 C 40 % 1013,0 hPa 0,0 l/m 22,8 km/h (4 Bft) O 87 1 min 0,000 mm 1,2 UV-I 444 W/m 5,7 C 15,3 C 38,6 km/h (5 Bft) 100,00 %
07.04.2018 16:39 19,7 C 8,9 C 40 % 1013,0 hPa 0,0 l/m 22,6 km/h (4 Bft) O-NO 71 1 min 0,000 mm 1,2 UV-I 440 W/m 5,7 C 15,4 C 32,2 km/h (5 Bft) 100,00 %
07.04.2018 16:40 19,7 C 8,9 C 39 % 1012,9 hPa 0,0 l/m 29,5 km/h (5 Bft) O-NO 78 1 min 0,000 mm 1,2 UV-I 437 W/m 5,4 C 14,4 C 41,8 km/h (6 Bft) 100,00 %
07.04.2018 16:41 19,7 C 8,9 C 40 % 1013,0 hPa 0,0 l/m 26,2 km/h (4 Bft) NO 53 1 min 0,000 mm 1,2 UV-I 435 W/m 5,7 C 14,8 C 35,4 km/h (5 Bft) 100,00 %
07.04.2018 16:42 19,6 C 8,9 C 39 % 1012,9 hPa 0,0 l/m 28,7 km/h (4 Bft) O-NO 70 1 min 0,000 mm 1,2 UV-I 431 W/m 5,3 C 14,3 C 37,0 km/h (5 Bft) 100,00 %
07.04.2018 16:43 19,6 C 8,9 C 40 % 1012,9 hPa 0,0 l/m 30,1 km/h (5 Bft) O 90 1 min 0,000 mm 1,2 UV-I 429 W/m 5,6 C 14,1 C 38,6 km/h (5 Bft) 100,00 %
07.04.2018 16:44 19,5 C 8,9 C 41 % 1012,9 hPa 0,0 l/m 25,3 km/h (4 Bft) O-NO 77 1 min 0,000 mm 1,1 UV-I 426 W/m 5,9 C 14,7 C 32,2 km/h (5 Bft) 100,00 %
07.04.2018 16:45 19,5 C 8,9 C 41 % 1012,9 hPa 0,0 l/m 26,8 km/h (4 Bft) O-NO 74 1 min 0,000 mm 1,1 UV-I 423 W/m 5,9 C 14,4 C 33,8 km/h (5 Bft) 93,33 %
07.04.2018 16:46 19,5 C 8,9 C 41 % 1012,9 hPa 0,0 l/m 30,1 km/h (5 Bft) O-NO 76 1 min 0,000 mm 1,1 UV-I 421 W/m 5,9 C 14,0 C 35,4 km/h (5 Bft) 100,00 %
07.04.2018 16:48 19,5 C 8,9 C 41 % 1012,9 hPa 0,0 l/m 28,9 km/h (5 Bft) O 80 2 min 0,000 mm 1,1 UV-I 416 W/m 5,9 C 14,2 C 38,6 km/h (5 Bft) 98,11 %
07.04.2018 16:49 19,5 C 8,9 C 42 % 1012,9 hPa 0,0 l/m 20,0 km/h (4 Bft) O 86 1 min 0,000 mm 1,1 UV-I 412 W/m 6,2 C 15,6 C 24,1 km/h (4 Bft) 100,00 %
07.04.2018 16:50 19,5 C 8,9 C 43 % 1012,9 hPa 0,0 l/m 18,8 km/h (3 Bft) O-NO 66 1 min 0,000 mm 1,1 UV-I 411 W/m 6,6 C 15,8 C 29,0 km/h (5 Bft) 100,00 %
07.04.2018 16:51 19,4 C 8,9 C 43 % 1012,9 hPa 0,0 l/m 19,5 km/h (3 Bft) O-NO 72 1 min 0,000 mm 1,1 UV-I 409 W/m 6,5 C 15,5 C 25,7 km/h (4 Bft) 100,00 %
07.04.2018 16:52 19,4 C 8,9 C 44 % 1012,9 hPa 0,0 l/m 33,2 km/h (5 Bft) O 90 1 min 0,000 mm 1,1 UV-I 405 W/m 6,8 C 13,5 C 43,5 km/h (6 Bft) 100,00 %
07.04.2018 16:53 19,4 C 8,9 C 41 % 1012,9 hPa 0,0 l/m 31,0 km/h (5 Bft) O 85 1 min 0,000 mm 1,0 UV-I 403 W/m 5,8 C 13,8 C 38,6 km/h (5 Bft) 100,00 %
07.04.2018 16:54 19,3 C 8,9 C 42 % 1012,8 hPa 0,0 l/m 34,6 km/h (5 Bft) O-SO 110 1 min 0,000 mm 1,0 UV-I 399 W/m 6,1 C 13,2 C 45,1 km/h (6 Bft) 100,00 %
07.04.2018 16:55 19,3 C 8,9 C 42 % 1012,9 hPa 0,0 l/m 32,0 km/h (5 Bft) O-NO 60 1 min 0,000 mm 1,0 UV-I 397 W/m 6,1 C 13,5 C 41,8 km/h (6 Bft) 100,00 %
07.04.2018 16:56 19,2 C 8,9 C 42 % 1012,9 hPa 0,0 l/m 32,5 km/h (5 Bft) O-NO 70 1 min 0,000 mm 1,0 UV-I 395 W/m 6,0 C 13,3 C 38,6 km/h (5 Bft) 100,00 %
07.04.2018 16:57 19,2 C 8,9 C 43 % 1012,8 hPa 0,0 l/m 28,0 km/h (4 Bft) O-NO 63 1 min 0,000 mm 1,0 UV-I 393 W/m 6,3 C 13,9 C 35,4 km/h (5 Bft) 100,00 %
07.04.2018 16:58 19,1 C 8,9 C 43 % 1012,8 hPa 0,0 l/m 29,1 km/h (5 Bft) O 84 1 min 0,000 mm 1,0 UV-I 389 W/m 6,2 C 13,6 C 35,4 km/h (5 Bft) 95,83 %
07.04.2018 16:59 19,1 C 8,9 C 43 % 1012,9 hPa 0,0 l/m 34,3 km/h (5 Bft) O 100 1 min 0,000 mm 0,9 UV-I 386 W/m 6,2 C 12,9 C 43,5 km/h (6 Bft) 100,00 %
07.04.2018 17:00 19,1 C 8,9 C 43 % 1012,8 hPa 0,0 l/m 24,5 km/h (4 Bft) O 86 1 min 0,483 mm 0,9 UV-I 383 W/m 6,2 C 14,2 C 30,6 km/h (5 Bft) 100,00 %
07.04.2018 17:01 19,1 C 8,9 C 43 % 1012,8 hPa 0,0 l/m 27,2 km/h (4 Bft) O-NO 62 1 min 0,000 mm 0,9 UV-I 380 W/m 6,2 C 13,8 C 33,8 km/h (5 Bft) 100,00 %
07.04.2018 17:02 19,0 C 8,9 C 43 % 1012,8 hPa 0,0 l/m 37,1 km/h (5 Bft) O 80 1 min 0,000 mm 0,9 UV-I 377 W/m 6,1 C 12,5 C 45,1 km/h (6 Bft) 100,00 %
07.04.2018 17:03 19,0 C 8,9 C 44 % 1012,9 hPa 0,0 l/m 27,4 km/h (4 Bft) O 90 1 min 0,000 mm 0,9 UV-I 374 W/m 6,5 C 13,7 C 38,6 km/h (5 Bft) 100,00 %
07.04.2018 17:04 18,9 C 8,9 C 43 % 1012,9 hPa 0,0 l/m 32,1 km/h (5 Bft) O 89 1 min 0,000 mm 0,9 UV-I 372 W/m 6,0 C 12,9 C 43,5 km/h (6 Bft) 100,00 %
07.04.2018 17:05 18,9 C 8,9 C 42 % 1012,8 hPa 0,0 l/m 35,4 km/h (5 Bft) O 84 1 min 0,000 mm 0,9 UV-I 368 W/m 5,7 C 12,5 C 45,1 km/h (6 Bft) 100,00 %
07.04.2018 17:06 18,9 C 8,9 C 43 % 1012,8 hPa 0,0 l/m 35,7 km/h (5 Bft) O-NO 77 1 min 0,000 mm 0,9 UV-I 366 W/m 6,0 C 12,5 C 46,7 km/h (6 Bft) 100,00 %
07.04.2018 17:07 18,9 C 8,9 C 42 % 1012,9 hPa 0,0 l/m 36,8 km/h (5 Bft) O-NO 71 1 min 0,000 mm 0,9 UV-I 363 W/m 5,7 C 12,4 C 43,5 km/h (6 Bft) 100,00 %
07.04.2018 17:08 18,8 C 8,9 C 42 % 1012,8 hPa 0,0 l/m 32,5 km/h (5 Bft) O-NO 69 1 min 0,000 mm 0,8 UV-I 360 W/m 5,6 C 12,7 C 41,8 km/h (6 Bft) 100,00 %
07.04.2018 17:09 18,8 C 8,9 C 44 % 1012,8 hPa 0,0 l/m 28,8 km/h (4 Bft) O-NO 74 1 min 0,000 mm 0,8 UV-I 358 W/m 6,3 C 13,2 C 40,2 km/h (6 Bft) 95,65 %
07.04.2018 17:10 18,8 C 8,9 C 44 % 1012,8 hPa 0,0 l/m 29,9 km/h (5 Bft) O-NO 74 1 min 0,000 mm 0,8 UV-I 356 W/m 6,3 C 13,0 C 33,8 km/h (5 Bft) 100,00 %
07.04.2018 17:11 18,8 C 8,9 C 43 % 1012,8 hPa 0,0 l/m 32,3 km/h (5 Bft) O-NO 74 1 min 0,000 mm 0,8 UV-I 352 W/m 6,0 C 12,7 C 45,1 km/h (6 Bft) 100,00 %
07.04.2018 17:12 18,8 C 8,9 C 44 % 1012,8 hPa 0,0 l/m 26,9 km/h (4 Bft) O 82 1 min 0,000 mm 0,8 UV-I 348 W/m 6,3 C 13,5 C 33,8 km/h (5 Bft) 100,00 %
07.04.2018 17:13 18,8 C 8,9 C 44 % 1012,8 hPa 0,0 l/m 32,1 km/h (5 Bft) O-SO 106 1 min 0,000 mm 0,8 UV-I 345 W/m 6,3 C 12,8 C 40,2 km/h (6 Bft) 100,00 %
07.04.2018 17:14 18,7 C 8,9 C 44 % 1012,8 hPa 0,0 l/m 33,7 km/h (5 Bft) O 91 1 min 0,000 mm 0,8 UV-I 342 W/m 6,2 C 12,4 C 45,1 km/h (6 Bft) 100,00 %
07.04.2018 17:15 18,7 C 8,9 C 44 % 1012,8 hPa 0,0 l/m 30,6 km/h (5 Bft) O 84 1 min 0,000 mm 0,8 UV-I 339 W/m 6,2 C 12,8 C 41,8 km/h (6 Bft) 100,00 %
07.04.2018 17:16 18,7 C 8,9 C 44 % 1012,8 hPa 0,0 l/m 35,1 km/h (5 Bft) O 98 1 min 0,000 mm 0,8 UV-I 337 W/m 6,2 C 12,3 C 43,5 km/h (6 Bft) 95,83 %
07.04.2018 17:17 18,7 C 8,9 C 44 % 1012,8 hPa 0,0 l/m 35,7 km/h (5 Bft) O-NO 58 1 min 0,000 mm 0,7 UV-I 333 W/m 6,2 C 12,2 C 43,5 km/h (6 Bft) 96,15 %
07.04.2018 17:18 18,7 C 8,9 C 43 % 1012,8 hPa 0,0 l/m 36,6 km/h (5 Bft) O-NO 63 1 min 0,000 mm 0,7 UV-I 330 W/m 5,9 C 12,1 C 43,5 km/h (6 Bft) 100,00 %
07.04.2018 17:19 18,6 C 8,9 C 44 % 1012,8 hPa 0,0 l/m 31,1 km/h (5 Bft) O 90 1 min 0,000 mm 0,7 UV-I 327 W/m 6,1 C 12,6 C 40,2 km/h (6 Bft) 100,00 %
07.04.2018 17:20 18,6 C 8,9 C 44 % 1012,8 hPa 0,0 l/m 30,8 km/h (5 Bft) O-SO 112 1 min 0,000 mm 0,7 UV-I 324 W/m 6,1 C 12,6 C 40,2 km/h (6 Bft) 100,00 %
07.04.2018 17:21 18,6 C 8,9 C 44 % 1012,8 hPa 0,0 l/m 29,5 km/h (5 Bft) O 92 1 min 0,000 mm 0,7 UV-I 321 W/m 6,1 C 12,8 C 38,6 km/h (5 Bft) 100,00 %
07.04.2018 17:22 18,6 C 8,9 C 45 % 1012,8 hPa 0,0 l/m 27,2 km/h (4 Bft) O 80 1 min 0,000 mm 0,7 UV-I 318 W/m 6,4 C 13,1 C 38,6 km/h (5 Bft) 100,00 %
07.04.2018 17:23 18,6 C 8,9 C 44 % 1012,8 hPa 0,0 l/m 36,5 km/h (5 Bft) O-NO 62 1 min 0,000 mm 0,7 UV-I 315 W/m 6,1 C 12,0 C 43,5 km/h (6 Bft) 100,00 %
07.04.2018 17:24 18,5 C 8,9 C 45 % 1012,8 hPa 0,0 l/m 30,1 km/h (5 Bft) O 80 1 min 0,000 mm 0,7 UV-I 313 W/m 6,3 C 12,6 C 40,2 km/h (6 Bft) 100,00 %
07.04.2018 17:25 18,5 C 8,9 C 44 % 1012,8 hPa 0,0 l/m 29,0 km/h (5 Bft) O 96 1 min 0,000 mm 0,7 UV-I 310 W/m 6,0 C 12,7 C 40,2 km/h (6 Bft) 100,00 %
07.04.2018 17:26 18,5 C 8,9 C 45 % 1012,8 hPa 0,0 l/m 27,6 km/h (4 Bft) O 80 1 min 0,000 mm 0,7 UV-I 307 W/m 6,3 C 12,9 C 37,0 km/h (5 Bft) 100,00 %
07.04.2018 17:27 18,5 C 8,9 C 45 % 1012,8 hPa 0,0 l/m 24,2 km/h (4 Bft) O 86 1 min 0,000 mm 0,6 UV-I 303 W/m 6,3 C 13,5 C 30,6 km/h (5 Bft) 100,00 %
07.04.2018 17:28 18,5 C 8,9 C 45 % 1012,7 hPa 0,0 l/m 26,0 km/h (4 Bft) O-SO 103 1 min 0,000 mm 0,6 UV-I 301 W/m 6,3 C 13,2 C 41,8 km/h (6 Bft) 100,00 %
07.04.2018 17:29 18,5 C 8,9 C 45 % 1012,8 hPa 0,0 l/m 25,5 km/h (4 Bft) O 98 1 min 0,000 mm 0,6 UV-I 297 W/m 6,3 C 13,3 C 38,6 km/h (5 Bft) 100,00 %
07.04.2018 17:30 18,5 C 8,9 C 47 % 1012,7 hPa 0,0 l/m 27,9 km/h (4 Bft) O 82 1 min 0,000 mm 0,6 UV-I 295 W/m 7,0 C 12,9 C 35,4 km/h (5 Bft) 100,00 %
07.04.2018 17:31 18,4 C 8,9 C 46 % 1012,7 hPa 0,0 l/m 26,8 km/h (4 Bft) O-NO 73 1 min 0,000 mm 0,6 UV-I 293 W/m 6,6 C 12,9 C 37,0 km/h (5 Bft) 91,67 %
07.04.2018 17:32 18,4 C 8,9 C 45 % 1012,8 hPa 0,0 l/m 27,5 km/h (4 Bft) O-NO 76 1 min 0,000 mm 0,6 UV-I 289 W/m 6,3 C 12,8 C 37,0 km/h (5 Bft) 100,00 %
07.04.2018 17:33 18,4 C 8,9 C 45 % 1012,8 hPa 0,0 l/m 29,4 km/h (5 Bft) O-NO 70 1 min 0,000 mm 0,6 UV-I 286 W/m 6,3 C 12,6 C 38,6 km/h (5 Bft) 96,30 %
07.04.2018 17:34 18,4 C 8,9 C 45 % 1012,8 hPa 0,0 l/m 30,3 km/h (5 Bft) O 91 1 min 0,000 mm 0,6 UV-I 283 W/m 6,3 C 12,4 C 35,4 km/h (5 Bft) 95,65 %
07.04.2018 17:35 18,4 C 8,9 C 45 % 1012,7 hPa 0,0 l/m 30,2 km/h (5 Bft) O-NO 68 1 min 0,000 mm 0,6 UV-I 281 W/m 6,3 C 12,4 C 37,0 km/h (5 Bft) 100,00 %
07.04.2018 17:36 18,4 C 8,9 C 46 % 1012,7 hPa 0,0 l/m 27,7 km/h (4 Bft) O-NO 65 1 min 0,000 mm 0,6 UV-I 278 W/m 6,6 C 12,8 C 40,2 km/h (6 Bft) 96,15 %
07.04.2018 17:37 18,4 C 8,9 C 45 % 1012,8 hPa 0,0 l/m 33,6 km/h (5 Bft) O 97 1 min 0,000 mm 0,5 UV-I 274 W/m 6,3 C 12,0 C 40,2 km/h (6 Bft) 100,00 %
07.04.2018 17:38 18,4 C 8,9 C 45 % 1012,8 hPa 0,0 l/m 39,8 km/h (6 Bft) O-NO 67 1 min 0,000 mm 0,5 UV-I 272 W/m 6,3 C 11,4 C 49,9 km/h (6 Bft) 96,67 %
07.04.2018 17:39 18,4 C 8,9 C 44 % 1012,8 hPa 0,0 l/m 36,3 km/h (5 Bft) O-NO 69 1 min 0,000 mm 0,5 UV-I 270 W/m 5,9 C 11,7 C 46,7 km/h (6 Bft) 95,65 %
07.04.2018 17:40 18,4 C 8,9 C 45 % 1012,8 hPa 0,0 l/m 29,5 km/h (5 Bft) O-SO 109 1 min 0,000 mm 0,5 UV-I 267 W/m 6,3 C 12,5 C 37,0 km/h (5 Bft) 95,83 %
07.04.2018 17:41 18,4 C 8,9 C 46 % 1012,8 hPa 0,0 l/m 26,5 km/h (4 Bft) O 92 1 min 0,000 mm 0,5 UV-I 264 W/m 6,6 C 13,0 C 35,4 km/h (5 Bft) 88,46 %
07.04.2018 17:42 18,4 C 8,9 C 45 % 1012,8 hPa 0,0 l/m 32,0 km/h (5 Bft) O 89 1 min 0,000 mm 0,5 UV-I 261 W/m 6,3 C 12,2 C 41,8 km/h (6 Bft) 100,00 %
07.04.2018 17:43 18,3 C 8,9 C 45 % 1012,8 hPa 0,0 l/m 28,7 km/h (4 Bft) O 90 1 min 0,000 mm 0,5 UV-I 259 W/m 6,2 C 12,5 C 38,6 km/h (5 Bft) 95,65 %
07.04.2018 17:44 18,3 C 8,9 C 45 % 1012,7 hPa 0,0 l/m 26,6 km/h (4 Bft) O 91 1 min 0,000 mm 0,5 UV-I 256 W/m 6,2 C 12,8 C 37,0 km/h (5 Bft) 100,00 %
07.04.2018 17:45 18,3 C 8,9 C 45 % 1012,8 hPa 0,0 l/m 28,3 km/h (4 Bft) O-SO 121 1 min 0,000 mm 0,5 UV-I 254 W/m 6,2 C 12,6 C 41,8 km/h (6 Bft) 96,15 %
07.04.2018 17:46 18,3 C 8,9 C 45 % 1012,7 hPa 0,0 l/m 25,3 km/h (4 Bft) O 87 1 min 0,000 mm 0,5 UV-I 251 W/m 6,2 C 13,0 C 33,8 km/h (5 Bft) 100,00 %
07.04.2018 17:47 18,3 C 8,9 C 46 % 1012,7 hPa 0,0 l/m 22,4 km/h (4 Bft) O 84 1 min 0,000 mm 0,5 UV-I 248 W/m 6,5 C 13,5 C 29,0 km/h (5 Bft) 92,86 %
07.04.2018 17:48 18,3 C 8,9 C 47 % 1012,7 hPa 0,0 l/m 23,6 km/h (4 Bft) O-NO 77 1 min 0,000 mm 0,5 UV-I 246 W/m 6,8 C 13,3 C 33,8 km/h (5 Bft) 100,00 %
07.04.2018 17:49 18,2 C 8,9 C 47 % 1012,8 hPa 0,0 l/m 31,6 km/h (5 Bft) O-NO 67 1 min 0,000 mm 0,4 UV-I 244 W/m 6,7 C 12,0 C 41,8 km/h (6 Bft) 92,31 %
07.04.2018 17:50 18,2 C 8,9 C 46 % 1012,7 hPa 0,0 l/m 37,5 km/h (5 Bft) O-NO 60 1 min 0,000 mm 0,0 UV-I 240 W/m 6,4 C 11,3 C 45,1 km/h (6 Bft) 96,30 %
07.04.2018 17:51 18,2 C 8,9 C 46 % 1012,7 hPa 0,0 l/m 33,4 km/h (5 Bft) O-NO 69 1 min 0,000 mm 0,0 UV-I 237 W/m 6,4 C 11,8 C 41,8 km/h (6 Bft) 100,00 %
07.04.2018 17:52 18,1 C 8,9 C 46 % 1012,7 hPa 0,0 l/m 33,7 km/h (5 Bft) O 92 1 min 0,000 mm 0,0 UV-I 234 W/m 6,3 C 11,6 C 46,7 km/h (6 Bft) 93,33 %
07.04.2018 17:53 18,1 C 8,9 C 47 % 1012,7 hPa 0,0 l/m 33,1 km/h (5 Bft) O 80 1 min 0,000 mm 0,0 UV-I 232 W/m 6,6 C 11,6 C 41,8 km/h (6 Bft) 100,00 %
07.04.2018 17:54 18,0 C 8,9 C 47 % 1012,7 hPa 0,0 l/m 29,6 km/h (5 Bft) O-NO 72 1 min 0,000 mm 0,0 UV-I 229 W/m 6,5 C 12,0 C 40,2 km/h (6 Bft) 93,33 %
07.04.2018 17:55 18,0 C 8,9 C 46 % 1012,7 hPa 0,0 l/m 28,6 km/h (4 Bft) O 88 1 min 0,000 mm 0,0 UV-I 226 W/m 6,2 C 12,1 C 38,6 km/h (5 Bft) 100,00 %
07.04.2018 17:56 18,0 C 8,9 C 46 % 1012,7 hPa 0,0 l/m 37,9 km/h (5 Bft) O 100 1 min 0,000 mm 0,0 UV-I 224 W/m 6,2 C 11,0 C 46,7 km/h (6 Bft) 96,55 %
07.04.2018 17:57 17,9 C 8,9 C 46 % 1012,7 hPa 0,0 l/m 31,6 km/h (5 Bft) O-NO 63 1 min 0,000 mm 0,0 UV-I 222 W/m 6,1 C 11,5 C 41,8 km/h (6 Bft) 95,83 %
07.04.2018 17:58 17,9 C 8,9 C 47 % 1012,7 hPa 0,0 l/m 28,1 km/h (4 Bft) O 84 1 min 0,000 mm 0,0 UV-I 218 W/m 6,4 C 12,0 C 40,2 km/h (6 Bft) 100,00 %
07.04.2018 17:59 17,9 C 8,9 C 47 % 1012,8 hPa 0,0 l/m 23,7 km/h (4 Bft) NO 42 1 min 0,000 mm 0,0 UV-I 216 W/m 6,4 C 12,8 C 29,0 km/h (5 Bft) 100,00 %
07.04.2018 18:00 17,9 C 8,9 C 48 % 1012,8 hPa 0,0 l/m 26,5 km/h (4 Bft) O-NO 65 1 min 0,381 mm 0,0 UV-I 212 W/m 6,7 C 12,3 C 35,4 km/h (5 Bft) 96,55 %
07.04.2018 18:01 17,8 C 8,9 C 49 % 1012,8 hPa 0,0 l/m 27,0 km/h (4 Bft) O-NO 63 1 min 0,000 mm 0,0 UV-I 210 W/m 6,9 C 12,1 C 33,8 km/h (5 Bft) 95,83 %
07.04.2018 18:03 17,8 C 8,9 C 48 % 1012,8 hPa 0,0 l/m 22,9 km/h (4 Bft) O-NO 72 2 min 0,000 mm 0,0 UV-I 205 W/m 6,6 C 12,8 C 32,2 km/h (5 Bft) 100,00 %
07.04.2018 18:04 17,7 C 8,9 C 48 % 1012,8 hPa 0,0 l/m 24,9 km/h (4 Bft) O 83 1 min 0,000 mm 0,0 UV-I 202 W/m 6,6 C 12,3 C 33,8 km/h (5 Bft) 100,00 %
07.04.2018 18:05 17,7 C 8,9 C 48 % 1012,8 hPa 0,0 l/m 24,2 km/h (4 Bft) O-NO 69 1 min 0,000 mm 0,0 UV-I 198 W/m 6,6 C 12,4 C 33,8 km/h (5 Bft) 96,67 %
07.04.2018 18:06 17,7 C 8,9 C 48 % 1012,8 hPa 0,0 l/m 25,9 km/h (4 Bft) O 82 1 min 0,000 mm 0,0 UV-I 196 W/m 6,6 C 12,1 C 32,2 km/h (5 Bft) 98,05 %
07.04.2018 18:07 17,7 C 8,9 C 48 % 1012,8 hPa 0,0 l/m 25,6 km/h (4 Bft) O-NO 75 1 min 0,000 mm 0,0 UV-I 194 W/m 6,6 C 12,2 C 33,8 km/h (5 Bft) 100,00 %
07.04.2018 18:08 17,7 C 8,9 C 49 % 1012,8 hPa 0,0 l/m 31,1 km/h (5 Bft) O-NO 67 1 min 0,000 mm 0,0 UV-I 191 W/m 6,9 C 11,3 C 40,2 km/h (6 Bft) 100,00 %
07.04.2018 18:09 17,6 C 8,9 C 48 % 1012,8 hPa 0,0 l/m 31,5 km/h (5 Bft) O-SO 109 1 min 0,000 mm 0,0 UV-I 188 W/m 6,5 C 11,1 C 37,0 km/h (5 Bft) 100,00 %
07.04.2018 18:10 17,6 C 8,9 C 49 % 1012,8 hPa 0,0 l/m 23,5 km/h (4 Bft) O-NO 73 1 min 0,000 mm 0,0 UV-I 185 W/m 6,8 C 12,4 C 30,6 km/h (5 Bft) 91,30 %
07.04.2018 18:11 17,6 C 8,9 C 49 % 1012,9 hPa 0,0 l/m 25,4 km/h (4 Bft) O 86 1 min 0,000 mm 0,0 UV-I 182 W/m 6,8 C 12,1 C 37,0 km/h (5 Bft) 100,00 %
07.04.2018 18:12 17,6 C 8,9 C 49 % 1012,8 hPa 0,0 l/m 24,1 km/h (4 Bft) O 86 1 min 0,000 mm 0,0 UV-I 179 W/m 6,8 C 12,3 C 33,8 km/h (5 Bft) 100,00 %
07.04.2018 18:13 17,5 C 8,9 C 49 % 1012,9 hPa 0,0 l/m 28,2 km/h (4 Bft) O 80 1 min 0,000 mm 0,0 UV-I 177 W/m 6,7 C 11,5 C 37,0 km/h (5 Bft) 100,00 %
07.04.2018 18:14 17,4 C 8,9 C 49 % 1012,8 hPa 0,0 l/m 27,3 km/h (4 Bft) O-NO 64 1 min 0,000 mm 0,0 UV-I 175 W/m 6,6 C 11,5 C 35,4 km/h (5 Bft) 100,00 %
07.04.2018 18:15 17,4 C 8,9 C 49 % 1012,8 hPa 0,0 l/m 25,2 km/h (4 Bft) O 90 1 min 0,000 mm 0,0 UV-I 172 W/m 6,6 C 11,8 C 33,8 km/h (5 Bft) 100,00 %
07.04.2018 18:16 17,4 C 8,9 C 48 % 1012,8 hPa 0,0 l/m 32,3 km/h (5 Bft) NO 36 1 min 0,000 mm 0,0 UV-I 169 W/m 6,3 C 10,7 C 43,5 km/h (6 Bft) 100,00 %
07.04.2018 18:17 17,3 C 8,9 C 49 % 1012,8 hPa 0,0 l/m 31,5 km/h (5 Bft) O 87 1 min 0,000 mm 0,0 UV-I 166 W/m 6,5 C 10,7 C 38,6 km/h (5 Bft) 100,00 %
07.04.2018 18:18 17,3 C 8,9 C 49 % 1012,8 hPa 0,0 l/m 26,4 km/h (4 Bft) O-NO 71 1 min 0,000 mm 0,0 UV-I 163 W/m 6,5 C 11,5 C 33,8 km/h (5 Bft) 100,00 %
07.04.2018 18:19 17,2 C 8,9 C 49 % 1012,8 hPa 0,0 l/m 22,8 km/h (4 Bft) O-SO 103 1 min 0,000 mm 0,0 UV-I 161 W/m 6,4 C 12,0 C 30,6 km/h (5 Bft) 100,00 %
07.04.2018 18:20 17,2 C 8,9 C 50 % 1012,8 hPa 0,0 l/m 28,2 km/h (4 Bft) O-NO 74 1 min 0,000 mm 0,0 UV-I 157 W/m 6,7 C 11,1 C 40,2 km/h (6 Bft) 100,00 %
07.04.2018 18:21 17,1 C 8,9 C 49 % 1012,8 hPa 0,0 l/m 31,0 km/h (5 Bft) O 91 1 min 0,000 mm 0,0 UV-I 155 W/m 6,3 C 10,5 C 41,8 km/h (6 Bft) 100,00 %
07.04.2018 18:22 17,1 C 8,9 C 49 % 1012,8 hPa 0,0 l/m 33,7 km/h (5 Bft) O-NO 72 1 min 0,000 mm 0,0 UV-I 153 W/m 6,3 C 10,1 C 40,2 km/h (6 Bft) 100,00 %
07.04.2018 18:23 17,1 C 8,9 C 49 % 1012,8 hPa 0,0 l/m 35,6 km/h (5 Bft) O 86 1 min 0,000 mm 0,0 UV-I 150 W/m 6,3 C 9,9 C 43,5 km/h (6 Bft) 96,15 %
07.04.2018 18:24 17,0 C 8,9 C 49 % 1012,8 hPa 0,0 l/m 34,1 km/h (5 Bft) O-NO 76 1 min 0,000 mm 0,0 UV-I 147 W/m 6,2 C 9,9 C 46,7 km/h (6 Bft) 100,00 %
07.04.2018 18:25 16,9 C 8,9 C 49 % 1012,8 hPa 0,0 l/m 28,8 km/h (4 Bft) NO 53 1 min 0,000 mm 0,0 UV-I 145 W/m 6,1 C 10,5 C 41,8 km/h (6 Bft) 100,00 %
07.04.2018 18:26 16,9 C 8,9 C 50 % 1012,8 hPa 0,0 l/m 28,8 km/h (4 Bft) O-NO 73 1 min 0,000 mm 0,0 UV-I 143 W/m 6,4 C 10,5 C 33,8 km/h (5 Bft) 100,00 %
07.04.2018 18:27 16,9 C 8,9 C 51 % 1012,8 hPa 0,0 l/m 22,9 km/h (4 Bft) O 86 1 min 0,000 mm 0,0 UV-I 140 W/m 6,7 C 11,6 C 29,0 km/h (5 Bft) 100,00 %
07.04.2018 18:28 16,8 C 8,9 C 51 % 1012,8 hPa 0,0 l/m 28,5 km/h (4 Bft) O 98 1 min 0,000 mm 0,0 UV-I 137 W/m 6,6 C 10,4 C 38,6 km/h (5 Bft) 100,00 %
07.04.2018 18:29 16,8 C 8,9 C 51 % 1012,8 hPa 0,0 l/m 30,8 km/h (5 Bft) O 88 1 min 0,000 mm 0,0 UV-I 135 W/m 6,6 C 10,1 C 38,6 km/h (5 Bft) 95,65 %
07.04.2018 18:30 16,7 C 8,9 C 51 % 1012,9 hPa 0,0 l/m 26,5 km/h (4 Bft) O-NO 77 1 min 0,000 mm 0,0 UV-I 133 W/m 6,5 C 10,6 C 33,8 km/h (5 Bft) 93,33 %
07.04.2018 18:31 16,7 C 8,9 C 50 % 1012,8 hPa 0,0 l/m 39,7 km/h (6 Bft) O 91 1 min 0,000 mm 0,0 UV-I 131 W/m 6,2 C 8,9 C 46,7 km/h (6 Bft) 100,00 %
07.04.2018 18:32 16,7 C 8,9 C 50 % 1012,8 hPa 0,0 l/m 31,2 km/h (5 Bft) O 91 1 min 0,000 mm 0,0 UV-I 129 W/m 6,2 C 9,9 C 40,2 km/h (6 Bft) 100,00 %
07.04.2018 18:33 16,6 C 8,9 C 50 % 1012,8 hPa 0,0 l/m 40,2 km/h (6 Bft) O-NO 63 1 min 0,000 mm 0,0 UV-I 125 W/m 6,1 C 8,7 C 54,7 km/h (7 Bft) 100,00 %
07.04.2018 18:34 16,6 C 8,9 C 49 % 1012,8 hPa 0,0 l/m 40,6 km/h (6 Bft) O-NO 76 1 min 0,000 mm 0,0 UV-I 123 W/m 5,8 C 8,6 C 49,9 km/h (6 Bft) 100,00 %
07.04.2018 18:35 16,6 C 8,9 C 49 % 1012,8 hPa 0,0 l/m 38,1 km/h (5 Bft) O 91 1 min 0,000 mm 0,0 UV-I 121 W/m 5,8 C 8,9 C 46,7 km/h (6 Bft) 100,00 %
07.04.2018 18:36 16,6 C 8,9 C 49 % 1012,8 hPa 0,0 l/m 38,9 km/h (6 Bft) O-SO 122 1 min 0,000 mm 0,0 UV-I 119 W/m 5,8 C 8,8 C 46,7 km/h (6 Bft) 100,00 %
07.04.2018 18:37 16,6 C 8,9 C 50 % 1012,8 hPa 0,0 l/m 37,5 km/h (5 Bft) O 89 1 min 0,000 mm 0,0 UV-I 117 W/m 6,1 C 9,0 C 51,5 km/h (7 Bft) 100,00 %
07.04.2018 18:38 16,5 C 8,9 C 50 % 1012,8 hPa 0,0 l/m 31,9 km/h (5 Bft) O-NO 76 1 min 0,000 mm 0,0 UV-I 115 W/m 6,0 C 9,5 C 41,8 km/h (6 Bft) 100,00 %
07.04.2018 18:39 16,4 C 8,9 C 50 % 1012,8 hPa 0,0 l/m 29,2 km/h (5 Bft) O 79 1 min 0,000 mm 0,0 UV-I 113 W/m 6,0 C 9,8 C 38,6 km/h (5 Bft) 100,00 %
07.04.2018 18:40 16,4 C 8,9 C 50 % 1012,8 hPa 0,0 l/m 38,0 km/h (5 Bft) O 85 1 min 0,000 mm 0,0 UV-I 110 W/m 6,0 C 8,6 C 53,1 km/h (7 Bft) 96,15 %
07.04.2018 18:41 16,4 C 8,9 C 50 % 1012,8 hPa 0,0 l/m 31,6 km/h (5 Bft) O-NO 69 1 min 0,000 mm 0,0 UV-I 106 W/m 6,0 C 9,4 C 41,8 km/h (6 Bft) 95,83 %
07.04.2018 18:42 16,3 C 8,9 C 50 % 1012,8 hPa 0,0 l/m 28,6 km/h (4 Bft) O 98 1 min 0,000 mm 0,0 UV-I 105 W/m 5,9 C 9,7 C 41,8 km/h (6 Bft) 100,00 %
07.04.2018 18:43 16,3 C 8,9 C 51 % 1012,8 hPa 0,0 l/m 27,0 km/h (4 Bft) O-SO 105 1 min 0,000 mm 0,0 UV-I 103 W/m 6,1 C 10,0 C 37,0 km/h (5 Bft) 100,00 %
07.04.2018 18:44 16,2 C 8,9 C 52 % 1012,8 hPa 0,0 l/m 30,2 km/h (5 Bft) O-SO 108 1 min 0,000 mm 0,0 UV-I 101 W/m 6,3 C 9,3 C 37,0 km/h (5 Bft) 100,00 %
07.04.2018 18:45 16,2 C 8,9 C 51 % 1012,8 hPa 0,0 l/m 25,0 km/h (4 Bft) O 86 1 min 0,000 mm 0,0 UV-I 98 W/m 6,1 C 10,2 C 35,4 km/h (5 Bft) 100,00 %
07.04.2018 18:46 16,2 C 8,9 C 52 % 1012,8 hPa 0,0 l/m 26,3 km/h (4 Bft) O 92 1 min 0,000 mm 0,0 UV-I 97 W/m 6,3 C 10,0 C 32,2 km/h (5 Bft) 100,00 %
07.04.2018 18:47 16,1 C 8,9 C 51 % 1012,8 hPa 0,0 l/m 31,1 km/h (5 Bft) O-SO 105 1 min 0,000 mm 0,0 UV-I 94 W/m 6,0 C 9,1 C 43,5 km/h (6 Bft) 100,00 %
07.04.2018 18:48 16,1 C 8,9 C 51 % 1012,8 hPa 0,0 l/m 31,6 km/h (5 Bft) O 96 1 min 0,000 mm 0,0 UV-I 92 W/m 6,0 C 9,0 C 40,2 km/h (6 Bft) 100,00 %
07.04.2018 18:49 16,1 C 8,9 C 52 % 1012,8 hPa 0,0 l/m 27,8 km/h (4 Bft) O-NO 75 1 min 0,000 mm 0,0 UV-I 90 W/m 6,2 C 9,6 C 38,6 km/h (5 Bft) 100,00 %
07.04.2018 18:50 16,0 C 8,9 C 53 % 1012,8 hPa 0,0 l/m 31,6 km/h (5 Bft) O-NO 65 1 min 0,000 mm 0,0 UV-I 88 W/m 6,4 C 8,9 C 45,1 km/h (6 Bft) 100,00 %
07.04.2018 18:51 16,0 C 8,9 C 52 % 1012,9 hPa 0,0 l/m 32,9 km/h (5 Bft) O 84 1 min 0,000 mm 0,0 UV-I 86 W/m 6,2 C 8,7 C 45,1 km/h (6 Bft) 100,00 %
07.04.2018 18:53 15,9 C 8,9 C 52 % 1012,8 hPa 0,0 l/m 33,5 km/h (5 Bft) O-NO 74 2 min 0,000 mm 0,0 UV-I 83 W/m 6,1 C 8,4 C 48,3 km/h (6 Bft) 100,00 %
07.04.2018 18:54 15,9 C 8,9 C 52 % 1012,8 hPa 0,0 l/m 23,3 km/h (4 Bft) O-NO 74 1 min 0,000 mm 0,0 UV-I 80 W/m 6,1 C 10,2 C 35,4 km/h (5 Bft) 100,00 %
07.04.2018 18:55 15,8 C 8,9 C 53 % 1012,8 hPa 0,0 l/m 24,8 km/h (4 Bft) O 94 1 min 0,000 mm 0,0 UV-I 78 W/m 6,2 C 9,7 C 30,6 km/h (5 Bft) 100,00 %
07.04.2018 18:56 15,8 C 8,9 C 52 % 1012,8 hPa 0,0 l/m 30,0 km/h (5 Bft) O 98 1 min 0,000 mm 0,0 UV-I 76 W/m 6,0 C 8,8 C 40,2 km/h (6 Bft) 100,00 %
07.04.2018 18:57 15,8 C 8,9 C 52 % 1012,8 hPa 0,0 l/m 28,7 km/h (4 Bft) O-NO 76 1 min 0,000 mm 0,0 UV-I 74 W/m 6,0 C 9,0 C 37,0 km/h (5 Bft) 100,00 %
07.04.2018 18:58 15,7 C 8,9 C 53 % 1012,8 hPa 0,0 l/m 27,1 km/h (4 Bft) O-NO 76 1 min 0,000 mm 0,0 UV-I 71 W/m 6,1 C 9,2 C 37,0 km/h (5 Bft) 100,00 %
07.04.2018 18:59 15,7 C 8,9 C 53 % 1012,8 hPa 0,0 l/m 26,8 km/h (4 Bft) O-NO 68 1 min 0,000 mm 0,0 UV-I 70 W/m 6,1 C 9,2 C 37,0 km/h (5 Bft) 100,00 %
07.04.2018 19:00 15,6 C 8,9 C 53 % 1012,8 hPa 0,0 l/m 26,7 km/h (4 Bft) O 89 1 min 0,254 mm 0,0 UV-I 68 W/m 6,1 C 9,1 C 35,4 km/h (5 Bft) 100,00 %
07.04.2018 19:01 15,6 C 8,9 C 54 % 1012,8 hPa 0,0 l/m 25,2 km/h (4 Bft) O 96 1 min 0,000 mm 0,0 UV-I 66 W/m 6,3 C 9,4 C 35,4 km/h (5 Bft) 100,00 %
07.04.2018 19:02 15,4 C 8,9 C 54 % 1012,9 hPa 0,0 l/m 29,4 km/h (5 Bft) O 101 1 min 0,000 mm 0,0 UV-I 63 W/m 6,1 C 8,3 C 35,4 km/h (5 Bft) 100,00 %
07.04.2018 19:03 15,4 C 8,9 C 54 % 1012,9 hPa 0,0 l/m 17,9 km/h (3 Bft) O 83 1 min 0,000 mm 0,0 UV-I 62 W/m 6,1 C 10,8 C 25,7 km/h (4 Bft) 96,15 %
07.04.2018 19:04 15,3 C 8,9 C 55 % 1012,9 hPa 0,0 l/m 22,4 km/h (4 Bft) O 101 1 min 0,000 mm 0,0 UV-I 60 W/m 6,3 C 9,6 C 32,2 km/h (5 Bft) 100,00 %
07.04.2018 19:05 15,3 C 8,9 C 55 % 1012,9 hPa 0,0 l/m 22,0 km/h (4 Bft) O 85 1 min 0,000 mm 0,0 UV-I 58 W/m 6,3 C 9,7 C 25,7 km/h (4 Bft) 100,00 %
07.04.2018 19:06 15,3 C 8,9 C 55 % 1012,9 hPa 0,0 l/m 21,8 km/h (4 Bft) O-NO 69 1 min 0,000 mm 0,0 UV-I 55 W/m 6,3 C 9,7 C 29,0 km/h (5 Bft) 100,00 %
07.04.2018 19:07 15,2 C 8,9 C 54 % 1012,9 hPa 0,0 l/m 22,3 km/h (4 Bft) O-NO 78 1 min 0,000 mm 0,0 UV-I 53 W/m 6,0 C 9,5 C 30,6 km/h (5 Bft) 96,30 %
07.04.2018 19:08 15,2 C 8,9 C 55 % 1012,8 hPa 0,0 l/m 23,7 km/h (4 Bft) O-NO 76 1 min 0,000 mm 0,0 UV-I 51 W/m 6,2 C 9,1 C 30,6 km/h (5 Bft) 100,00 %
07.04.2018 19:09 15,2 C 8,9 C 55 % 1012,8 hPa 0,0 l/m 21,5 km/h (4 Bft) O-NO 75 1 min 0,000 mm 0,0 UV-I 51 W/m 6,2 C 9,6 C 27,4 km/h (4 Bft) 100,00 %
07.04.2018 19:10 15,1 C 8,9 C 55 % 1012,8 hPa 0,0 l/m 21,0 km/h (4 Bft) O 87 1 min 0,000 mm 0,0 UV-I 49 W/m 6,1 C 9,6 C 25,7 km/h (4 Bft) 100,00 %
07.04.2018 19:11 15,1 C 8,9 C 56 % 1012,8 hPa 0,0 l/m 20,7 km/h (4 Bft) O-NO 76 1 min 0,000 mm 0,0 UV-I 47 W/m 6,4 C 9,7 C 27,4 km/h (4 Bft) 100,00 %
07.04.2018 19:12 15,1 C 8,9 C 56 % 1012,9 hPa 0,0 l/m 23,9 km/h (4 Bft) O-NO 63 1 min 0,000 mm 0,0 UV-I 45 W/m 6,4 C 9,0 C 30,6 km/h (5 Bft) 100,00 %
07.04.2018 19:13 15,1 C 8,9 C 55 % 1012,9 hPa 0,0 l/m 26,9 km/h (4 Bft) O 94 1 min 0,000 mm 0,0 UV-I 44 W/m 6,1 C 8,4 C 37,0 km/h (5 Bft) 100,00 %
07.04.2018 19:14 15,1 C 8,9 C 56 % 1012,9 hPa 0,0 l/m 25,2 km/h (4 Bft) O-NO 57 1 min 0,000 mm 0,0 UV-I 42 W/m 6,4 C 8,7 C 33,8 km/h (5 Bft) 100,00 %
07.04.2018 19:15 15,1 C 8,9 C 55 % 1012,9 hPa 0,0 l/m 27,2 km/h (4 Bft) O-NO 63 1 min 0,000 mm 0,0 UV-I 40 W/m 6,1 C 8,3 C 33,8 km/h (5 Bft) 100,00 %
07.04.2018 19:16 15,1 C 8,9 C 55 % 1012,9 hPa 0,0 l/m 26,6 km/h (4 Bft) O 98 1 min 0,000 mm 0,0 UV-I 38 W/m 6,1 C 8,4 C 32,2 km/h (5 Bft) 100,00 %
07.04.2018 19:17 15,0 C 8,9 C 56 % 1012,9 hPa 0,0 l/m 22,0 km/h (4 Bft) O-NO 78 1 min 0,000 mm 0,0 UV-I 36 W/m 6,3 C 9,3 C 30,6 km/h (5 Bft) 100,00 %
07.04.2018 19:18 14,9 C 8,9 C 55 % 1012,9 hPa 0,0 l/m 25,3 km/h (4 Bft) O-NO 78 1 min 0,000 mm 0,0 UV-I 35 W/m 5,9 C 8,4 C 33,8 km/h (5 Bft) 100,00 %
07.04.2018 19:19 14,9 C 8,9 C 56 % 1012,8 hPa 0,0 l/m 21,9 km/h (4 Bft) O 80 1 min 0,000 mm 0,0 UV-I 34 W/m 6,2 C 9,2 C 27,4 km/h (4 Bft) 100,00 %
07.04.2018 19:20 14,9 C 8,9 C 56 % 1012,8 hPa 0,0 l/m 22,3 km/h (4 Bft) O 86 1 min 0,000 mm 0,0 UV-I 32 W/m 6,2 C 9,1 C 30,6 km/h (5 Bft) 100,00 %
07.04.2018 19:21 14,8 C 8,9 C 55 % 1012,9 hPa 0,0 l/m 23,2 km/h (4 Bft) O 92 1 min 0,000 mm 0,0 UV-I 32 W/m 5,8 C 8,7 C 33,8 km/h (5 Bft) 96,30 %
07.04.2018 19:22 14,8 C 8,9 C 56 % 1012,9 hPa 0,0 l/m 21,8 km/h (4 Bft) O-NO 71 1 min 0,000 mm 0,0 UV-I 29 W/m 6,1 C 9,0 C 27,4 km/h (4 Bft) 100,00 %
07.04.2018 19:23 14,8 C 8,9 C 56 % 1012,9 hPa 0,0 l/m 23,1 km/h (4 Bft) O-NO 63 1 min 0,000 mm 0,0 UV-I 28 W/m 6,1 C 8,7 C 30,6 km/h (5 Bft) 100,00 %
07.04.2018 19:24 14,8 C 8,9 C 56 % 1012,9 hPa 0,0 l/m 26,2 km/h (4 Bft) O-NO 71 1 min 0,000 mm 0,0 UV-I 27 W/m 6,1 C 8,1 C 33,8 km/h (5 Bft) 100,00 %
07.04.2018 19:25 14,8 C 8,9 C 55 % 1012,9 hPa 0,0 l/m 27,4 km/h (4 Bft) O 80 1 min 0,000 mm 0,0 UV-I 26 W/m 5,8 C 7,9 C 35,4 km/h (5 Bft) 95,83 %
07.04.2018 19:26 14,8 C 8,9 C 55 % 1012,9 hPa 0,0 l/m 24,7 km/h (4 Bft) O 89 1 min 0,000 mm 0,0 UV-I 25 W/m 5,8 C 8,4 C 30,6 km/h (5 Bft) 100,00 %
07.04.2018 19:27 14,8 C 8,9 C 55 % 1012,9 hPa 0,0 l/m 26,1 km/h (4 Bft) O 85 1 min 0,000 mm 0,0 UV-I 25 W/m 5,8 C 8,1 C 29,0 km/h (5 Bft) 97,22 %
07.04.2018 19:28 14,7 C 8,9 C 56 % 1012,9 hPa 0,0 l/m 24,5 km/h (4 Bft) NO 55 1 min 0,000 mm 0,0 UV-I 23 W/m 6,0 C 8,3 C 30,6 km/h (5 Bft) 100,00 %
07.04.2018 19:29 14,7 C 8,9 C 56 % 1012,9 hPa 0,0 l/m 26,0 km/h (4 Bft) O-NO 71 1 min 0,000 mm 0,0 UV-I 22 W/m 6,0 C 8,0 C 32,2 km/h (5 Bft) 93,33 %
07.04.2018 19:30 14,6 C 8,9 C 56 % 1012,9 hPa 0,0 l/m 27,2 km/h (4 Bft) O-NO 61 1 min 0,000 mm 0,0 UV-I 19 W/m 5,9 C 7,6 C 32,2 km/h (5 Bft) 100,00 %
07.04.2018 19:31 14,6 C 8,9 C 56 % 1012,9 hPa 0,0 l/m 25,5 km/h (4 Bft) O-NO 61 1 min 0,000 mm 0,0 UV-I 19 W/m 5,9 C 8,0 C 29,0 km/h (5 Bft) 95,65 %
07.04.2018 19:32 14,5 C 8,9 C 56 % 1012,8 hPa 0,0 l/m 24,1 km/h (4 Bft) O 89 1 min 0,000 mm 0,0 UV-I 18 W/m 5,8 C 8,1 C 32,2 km/h (5 Bft) 100,00 %
07.04.2018 19:33 14,5 C 8,9 C 56 % 1012,9 hPa 0,0 l/m 23,9 km/h (4 Bft) O-NO 70 0 min 0,000 mm 0,0 UV-I 18 W/m 5,8 C 8,2 C 32,2 km/h (5 Bft) 96,15 %
07.04.2018 19:34 14,4 C 8,9 C 56 % 1012,8 hPa 0,0 l/m 22,8 km/h (4 Bft) O 89 0 min 0,000 mm 0,0 UV-I 16 W/m 5,7 C 8,3 C 25,7 km/h (4 Bft) 100,00 %
07.04.2018 19:35 14,4 C 8,9 C 57 % 1012,9 hPa 0,0 l/m 20,9 km/h (4 Bft) O-NO 70 0 min 0,000 mm 0,0 UV-I 15 W/m 6,0 C 8,7 C 24,1 km/h (4 Bft) 92,86 %
07.04.2018 19:36 14,3 C 8,9 C 57 % 1012,9 hPa 0,0 l/m 24,8 km/h (4 Bft) O 87 0 min 0,000 mm 0,0 UV-I 14 W/m 5,9 C 7,7 C 38,6 km/h (5 Bft) 100,00 %
07.04.2018 19:37 14,3 C 8,9 C 57 % 1012,9 hPa 0,0 l/m 31,1 km/h (5 Bft) O-NO 74 0 min 0,000 mm 0,0 UV-I 14 W/m 5,9 C 6,5 C 38,6 km/h (5 Bft) 96,55 %
07.04.2018 19:38 14,2 C 8,9 C 57 % 1012,9 hPa 0,0 l/m 23,0 km/h (4 Bft) O 86 0 min 0,000 mm 0,0 UV-I 12 W/m 5,8 C 8,0 C 29,0 km/h (5 Bft) 95,83 %
07.04.2018 19:39 14,2 C 8,9 C 57 % 1012,9 hPa 0,0 l/m 25,1 km/h (4 Bft) O 86 0 min 0,000 mm 0,0 UV-I 12 W/m 5,8 C 7,5 C 33,8 km/h (5 Bft) 100,00 %
07.04.2018 19:40 14,2 C 8,9 C 57 % 1012,9 hPa 0,0 l/m 23,2 km/h (4 Bft) O-NO 72 0 min 0,000 mm 0,0 UV-I 12 W/m 5,8 C 7,9 C 30,6 km/h (5 Bft) 95,83 %
07.04.2018 19:41 14,2 C 8,9 C 57 % 1012,9 hPa 0,0 l/m 27,7 km/h (4 Bft) O 82 0 min 0,000 mm 0,0 UV-I 11 W/m 5,8 C 7,0 C 33,8 km/h (5 Bft) 96,15 %
07.04.2018 19:42 14,2 C 8,9 C 56 % 1012,9 hPa 0,0 l/m 27,4 km/h (4 Bft) O-NO 67 0 min 0,000 mm 0,0 UV-I 11 W/m 5,6 C 7,0 C 37,0 km/h (5 Bft) 100,00 %
07.04.2018 19:43 14,2 C 8,9 C 57 % 1012,9 hPa 0,0 l/m 29,9 km/h (5 Bft) O 84 0 min 0,000 mm 0,0 UV-I 11 W/m 5,8 C 6,6 C 41,8 km/h (6 Bft) 96,30 %
07.04.2018 19:44 14,2 C 8,9 C 56 % 1012,9 hPa 0,0 l/m 32,0 km/h (5 Bft) O 91 0 min 0,000 mm 0,0 UV-I 9 W/m 5,6 C 6,2 C 37,0 km/h (5 Bft) 88,46 %
07.04.2018 19:45 14,2 C 8,9 C 56 % 1012,9 hPa 0,0 l/m 32,4 km/h (5 Bft) O 94 0 min 0,000 mm 0,0 UV-I 9 W/m 5,6 C 6,2 C 43,5 km/h (6 Bft) 96,15 %
07.04.2018 19:46 14,2 C 8,9 C 56 % 1012,9 hPa 0,0 l/m 30,2 km/h (5 Bft) O 92 0 min 0,000 mm 0,0 UV-I 9 W/m 5,6 C 6,5 C 40,2 km/h (6 Bft) 100,00 %
07.04.2018 19:47 14,2 C 8,9 C 56 % 1012,9 hPa 0,0 l/m 28,6 km/h (4 Bft) O 88 0 min 0,000 mm 0,0 UV-I 9 W/m 5,6 C 6,8 C 38,6 km/h (5 Bft) 96,67 %
07.04.2018 19:48 14,2 C 8,9 C 56 % 1013,0 hPa 0,0 l/m 32,7 km/h (5 Bft) O 86 0 min 0,000 mm 0,0 UV-I 8 W/m 5,6 C 6,1 C 40,2 km/h (6 Bft) 96,15 %
07.04.2018 19:49 14,2 C 8,9 C 56 % 1013,0 hPa 0,0 l/m 32,4 km/h (5 Bft) O 80 0 min 0,000 mm 0,0 UV-I 7 W/m 5,6 C 6,2 C 41,8 km/h (6 Bft) 88,46 %
07.04.2018 19:50 14,2 C 8,9 C 56 % 1013,0 hPa 0,0 l/m 34,8 km/h (5 Bft) O-SO 114 0 min 0,000 mm 0,0 UV-I 7 W/m 5,6 C 5,8 C 43,5 km/h (6 Bft) 98,24 %
07.04.2018 19:51 14,2 C 8,9 C 56 % 1013,0 hPa 0,0 l/m 35,6 km/h (5 Bft) O 99 0 min 0,000 mm 0,0 UV-I 7 W/m 5,6 C 5,7 C 45,1 km/h (6 Bft) 95,56 %
07.04.2018 19:52 14,1 C 8,9 C 56 % 1013,0 hPa 0,0 l/m 31,2 km/h (5 Bft) O-NO 70 0 min 0,000 mm 0,0 UV-I 6 W/m 5,5 C 6,2 C 38,6 km/h (5 Bft) 92,31 %
07.04.2018 19:53 14,1 C 8,9 C 56 % 1013,0 hPa 0,0 l/m 32,4 km/h (5 Bft) O 97 0 min 0,000 mm 0,0 UV-I 5 W/m 5,5 C 6,0 C 41,8 km/h (6 Bft) 95,83 %
07.04.2018 19:54 14,0 C 8,9 C 56 % 1013,0 hPa 0,0 l/m 36,4 km/h (5 Bft) O-NO 67 0 min 0,000 mm 0,0 UV-I 5 W/m 5,4 C 5,3 C 46,7 km/h (6 Bft) 91,30 %
07.04.2018 19:55 14,0 C 8,9 C 56 % 1013,0 hPa 0,0 l/m 29,2 km/h (5 Bft) O-NO 78 0 min 0,000 mm 0,0 UV-I 5 W/m 5,4 C 6,4 C 41,8 km/h (6 Bft) 95,83 %
07.04.2018 19:56 13,9 C 8,9 C 56 % 1013,0 hPa 0,0 l/m 32,1 km/h (5 Bft) NO 56 0 min 0,000 mm 0,0 UV-I 5 W/m 5,3 C 5,8 C 40,2 km/h (6 Bft) 95,65 %
07.04.2018 19:57 13,9 C 8,9 C 57 % 1013,0 hPa 0,0 l/m 36,5 km/h (5 Bft) O 87 0 min 0,000 mm 0,0 UV-I 3 W/m 5,5 C 5,1 C 48,3 km/h (6 Bft) 93,33 %
07.04.2018 19:58 13,9 C 8,9 C 57 % 1013,0 hPa 0,0 l/m 37,1 km/h (5 Bft) O 96 0 min 0,000 mm 0,0 UV-I 0 W/m 5,5 C 5,0 C 48,3 km/h (6 Bft) 96,15 %
07.04.2018 19:59 13,9 C 8,9 C 57 % 1013,0 hPa 0,0 l/m 33,1 km/h (5 Bft) O-NO 74 0 min 0,000 mm 0,0 UV-I 0 W/m 5,5 C 5,6 C 46,7 km/h (6 Bft) 96,30 %
07.04.2018 20:00 13,9 C 8,9 C 56 % 1013,0 hPa 0,0 l/m 34,0 km/h (5 Bft) O-NO 68 0 min 0,152 mm 0,0 UV-I 0 W/m 5,3 C 5,5 C 43,5 km/h (6 Bft) 100,00 %
07.04.2018 20:01 13,8 C 8,9 C 57 % 1013,0 hPa 0,0 l/m 26,0 km/h (4 Bft) O-NO 78 0 min 0,000 mm 0,0 UV-I 0 W/m 5,4 C 6,8 C 35,4 km/h (5 Bft) 93,33 %
07.04.2018 20:02 13,8 C 8,9 C 57 % 1013,1 hPa 0,0 l/m 33,4 km/h (5 Bft) O 98 0 min 0,000 mm 0,0 UV-I 0 W/m 5,4 C 5,4 C 49,9 km/h (6 Bft) 92,31 %
07.04.2018 20:03 13,8 C 8,9 C 57 % 1013,0 hPa 0,0 l/m 28,9 km/h (5 Bft) O-NO 78 0 min 0,000 mm 0,0 UV-I 0 W/m 5,4 C 6,2 C 38,6 km/h (5 Bft) 96,30 %
07.04.2018 20:04 13,7 C 8,9 C 58 % 1013,1 hPa 0,0 l/m 30,1 km/h (5 Bft) O 101 0 min 0,000 mm 0,0 UV-I 0 W/m 5,6 C 5,8 C 38,6 km/h (5 Bft) 100,00 %
07.04.2018 20:05 13,7 C 8,9 C 58 % 1013,1 hPa 0,0 l/m 30,0 km/h (5 Bft) O-NO 67 0 min 0,000 mm 0,0 UV-I 0 W/m 5,6 C 5,9 C 41,8 km/h (6 Bft) 96,55 %
07.04.2018 20:06 13,6 C 8,9 C 58 % 1013,1 hPa 0,0 l/m 26,9 km/h (4 Bft) O-NO 69 0 min 0,000 mm 0,0 UV-I 0 W/m 5,5 C 6,3 C 33,8 km/h (5 Bft) 93,33 %
07.04.2018 20:07 13,6 C 8,9 C 58 % 1013,1 hPa 0,0 l/m 20,8 km/h (4 Bft) O-NO 76 0 min 0,000 mm 0,0 UV-I 0 W/m 5,5 C 7,7 C 29,0 km/h (5 Bft) 90,62 %
07.04.2018 20:08 13,5 C 8,9 C 59 % 1013,2 hPa 0,0 l/m 30,2 km/h (5 Bft) O 86 0 min 0,000 mm 0,0 UV-I 0 W/m 5,6 C 5,5 C 37,0 km/h (5 Bft) 95,83 %
07.04.2018 20:09 13,4 C 8,9 C 59 % 1013,1 hPa 0,0 l/m 24,3 km/h (4 Bft) O-NO 72 0 min 0,000 mm 0,0 UV-I 0 W/m 5,6 C 6,6 C 30,6 km/h (5 Bft) 95,65 %
07.04.2018 20:10 13,4 C 8,9 C 59 % 1013,1 hPa 0,0 l/m 24,9 km/h (4 Bft) O 87 0 min 0,000 mm 0,0 UV-I 0 W/m 5,6 C 6,5 C 32,2 km/h (5 Bft) 86,67 %
07.04.2018 20:11 13,3 C 8,9 C 59 % 1013,1 hPa 0,0 l/m 25,7 km/h (4 Bft) O-NO 63 0 min 0,000 mm 0,0 UV-I 0 W/m 5,5 C 6,2 C 33,8 km/h (5 Bft) 100,00 %
07.04.2018 20:12 13,3 C 8,9 C 59 % 1013,1 hPa 0,0 l/m 26,6 km/h (4 Bft) O 82 0 min 0,000 mm 0,0 UV-I 0 W/m 5,5 C 6,0 C 35,4 km/h (5 Bft) 95,83 %
07.04.2018 20:13 13,3 C 8,9 C 59 % 1013,1 hPa 0,0 l/m 28,5 km/h (4 Bft) O-NO 73 0 min 0,000 mm 0,0 UV-I 0 W/m 5,5 C 5,6 C 40,2 km/h (6 Bft) 96,15 %
07.04.2018 20:14 13,3 C 8,9 C 59 % 1013,1 hPa 0,0 l/m 29,1 km/h (5 Bft) O 79 0 min 0,000 mm 0,0 UV-I 0 W/m 5,5 C 5,5 C 38,6 km/h (5 Bft) 96,30 %
07.04.2018 20:15 13,3 C 8,9 C 59 % 1013,1 hPa 0,0 l/m 27,6 km/h (4 Bft) O 90 0 min 0,000 mm 0,0 UV-I 0 W/m 5,5 C 5,8 C 35,4 km/h (5 Bft) 95,65 %
07.04.2018 20:16 13,2 C 8,9 C 59 % 1013,2 hPa 0,0 l/m 21,9 km/h (4 Bft) O-NO 62 0 min 0,000 mm 0,0 UV-I 0 W/m 5,4 C 6,9 C 30,6 km/h (5 Bft) 100,00 %
07.04.2018 20:17 13,2 C 8,9 C 60 % 1013,2 hPa 0,0 l/m 21,5 km/h (4 Bft) O 84 0 min 0,000 mm 0,0 UV-I 0 W/m 5,6 C 7,0 C 30,6 km/h (5 Bft) 100,00 %
07.04.2018 20:18 13,2 C 8,9 C 60 % 1013,2 hPa 0,0 l/m 30,1 km/h (5 Bft) O 94 0 min 0,000 mm 0,0 UV-I 0 W/m 5,6 C 5,1 C 37,0 km/h (5 Bft) 96,67 %
07.04.2018 20:19 13,2 C 8,9 C 60 % 1013,2 hPa 0,0 l/m 29,8 km/h (5 Bft) SO 133 0 min 0,000 mm 0,0 UV-I 0 W/m 5,6 C 5,2 C 37,0 km/h (5 Bft) 95,65 %
07.04.2018 20:20 13,2 C 8,9 C 60 % 1013,2 hPa 0,0 l/m 29,7 km/h (5 Bft) O-NO 69 0 min 0,000 mm 0,0 UV-I 0 W/m 5,6 C 5,2 C 40,2 km/h (6 Bft) 100,00 %
07.04.2018 20:21 13,2 C 8,9 C 60 % 1013,3 hPa 0,0 l/m 26,2 km/h (4 Bft) O 87 0 min 0,000 mm 0,0 UV-I 0 W/m 5,6 C 5,9 C 33,8 km/h (5 Bft) 95,65 %
07.04.2018 20:22 13,1 C 8,9 C 60 % 1013,3 hPa 0,0 l/m 28,0 km/h (4 Bft) O 88 0 min 0,000 mm 0,0 UV-I 0 W/m 5,5 C 5,4 C 37,0 km/h (5 Bft) 100,00 %
07.04.2018 20:23 13,1 C 8,9 C 60 % 1013,3 hPa 0,0 l/m 31,7 km/h (5 Bft) NO 55 0 min 0,000 mm 0,0 UV-I 0 W/m 5,5 C 4,7 C 40,2 km/h (6 Bft) 93,33 %
07.04.2018 20:24 13,1 C 8,9 C 60 % 1013,2 hPa 0,0 l/m 27,4 km/h (4 Bft) O 79 0 min 0,000 mm 0,0 UV-I 0 W/m 5,5 C 5,5 C 35,4 km/h (5 Bft) 100,00 %
07.04.2018 20:25 13,0 C 8,9 C 61 % 1013,3 hPa 0,0 l/m 23,8 km/h (4 Bft) O-NO 74 0 min 0,000 mm 0,0 UV-I 0 W/m 5,7 C 6,2 C 32,2 km/h (5 Bft) 96,15 %
07.04.2018 20:26 12,9 C 8,9 C 61 % 1013,3 hPa 0,0 l/m 22,5 km/h (4 Bft) O-NO 71 0 min 0,000 mm 0,0 UV-I 0 W/m 5,6 C 6,4 C 30,6 km/h (5 Bft) 96,30 %
07.04.2018 20:27 12,9 C 8,9 C 61 % 1013,2 hPa 0,0 l/m 29,5 km/h (5 Bft) O 80 0 min 0,000 mm 0,0 UV-I 0 W/m 5,6 C 4,8 C 37,0 km/h (5 Bft) 100,00 %
07.04.2018 20:28 12,9 C 8,9 C 61 % 1013,2 hPa 0,0 l/m 32,7 km/h (5 Bft) O 87 0 min 0,000 mm 0,0 UV-I 0 W/m 5,6 C 4,3 C 45,1 km/h (6 Bft) 96,55 %
07.04.2018 20:29 12,9 C 8,9 C 61 % 1013,3 hPa 0,0 l/m 24,2 km/h (4 Bft) O 81 0 min 0,000 mm 0,0 UV-I 0 W/m 5,6 C 5,9 C 32,2 km/h (5 Bft) 100,00 %
07.04.2018 20:30 12,9 C 8,9 C 61 % 1013,3 hPa 0,0 l/m 26,5 km/h (4 Bft) O 84 0 min 0,000 mm 0,0 UV-I 0 W/m 5,6 C 5,4 C 33,8 km/h (5 Bft) 95,65 %
07.04.2018 20:31 12,8 C 8,9 C 61 % 1013,3 hPa 0,0 l/m 27,3 km/h (4 Bft) O-NO 71 0 min 0,000 mm 0,0 UV-I 0 W/m 5,5 C 5,1 C 32,2 km/h (5 Bft) 95,83 %
07.04.2018 20:32 12,8 C 8,9 C 61 % 1013,3 hPa 0,0 l/m 31,2 km/h (5 Bft) O 88 0 min 0,000 mm 0,0 UV-I 0 W/m 5,5 C 4,4 C 45,1 km/h (6 Bft) 95,65 %
07.04.2018 20:33 12,8 C 8,9 C 61 % 1013,4 hPa 0,0 l/m 28,6 km/h (4 Bft) O-NO 69 0 min 0,000 mm 0,0 UV-I 0 W/m 5,5 C 4,9 C 41,8 km/h (6 Bft) 100,00 %
07.04.2018 20:34 12,8 C 8,9 C 62 % 1013,3 hPa 0,0 l/m 24,6 km/h (4 Bft) O 94 0 min 0,000 mm 0,0 UV-I 0 W/m 5,7 C 5,7 C 32,2 km/h (5 Bft) 95,65 %
07.04.2018 20:35 12,8 C 8,9 C 61 % 1013,3 hPa 0,0 l/m 28,7 km/h (4 Bft) O-NO 72 0 min 0,000 mm 0,0 UV-I 0 W/m 5,5 C 4,8 C 41,8 km/h (6 Bft) 95,83 %
07.04.2018 20:36 12,7 C 8,9 C 61 % 1013,4 hPa 0,0 l/m 31,1 km/h (5 Bft) O 82 0 min 0,000 mm 0,0 UV-I 0 W/m 5,4 C 4,3 C 40,2 km/h (6 Bft) 96,15 %
07.04.2018 20:37 12,7 C 8,9 C 61 % 1013,4 hPa 0,0 l/m 32,8 km/h (5 Bft) O-NO 78 0 min 0,000 mm 0,0 UV-I 0 W/m 5,4 C 4,0 C 41,8 km/h (6 Bft) 100,00 %
07.04.2018 20:38 12,7 C 8,9 C 62 % 1013,3 hPa 0,0 l/m 34,1 km/h (5 Bft) O-SO 119 0 min 0,000 mm 0,0 UV-I 0 W/m 5,6 C 3,7 C 43,5 km/h (6 Bft) 96,15 %
07.04.2018 20:39 12,7 C 8,9 C 62 % 1013,4 hPa 0,0 l/m 27,5 km/h (4 Bft) O-NO 61 0 min 0,000 mm 0,0 UV-I 0 W/m 5,6 C 4,9 C 33,8 km/h (5 Bft) 93,33 %
07.04.2018 20:40 12,7 C 8,9 C 62 % 1013,4 hPa 0,0 l/m 25,6 km/h (4 Bft) O-NO 69 0 min 0,000 mm 0,0 UV-I 0 W/m 5,6 C 5,4 C 30,6 km/h (5 Bft) 100,00 %
07.04.2018 20:41 12,6 C 8,9 C 62 % 1013,4 hPa 0,0 l/m 25,7 km/h (4 Bft) O 98 0 min 0,000 mm 0,0 UV-I 0 W/m 5,5 C 5,2 C 33,8 km/h (5 Bft) 96,55 %
07.04.2018 20:42 12,6 C 8,9 C 62 % 1013,3 hPa 0,0 l/m 29,3 km/h (5 Bft) O-NO 73 0 min 0,000 mm 0,0 UV-I 0 W/m 5,5 C 4,4 C 37,0 km/h (5 Bft) 100,00 %
07.04.2018 20:43 12,6 C 8,9 C 63 % 1013,4 hPa 0,0 l/m 27,0 km/h (4 Bft) O 97 0 min 0,000 mm 0,0 UV-I 0 W/m 5,7 C 4,9 C 37,0 km/h (5 Bft) 96,30 %
07.04.2018 20:44 12,6 C 8,9 C 62 % 1013,4 hPa 0,0 l/m 36,3 km/h (5 Bft) O 90 0 min 0,000 mm 0,0 UV-I 0 W/m 5,5 C 3,3 C 48,3 km/h (6 Bft) 100,00 %
07.04.2018 20:45 12,6 C 8,9 C 62 % 1013,3 hPa 0,0 l/m 31,1 km/h (5 Bft) O 99 0 min 0,000 mm 0,0 UV-I 0 W/m 5,5 C 4,1 C 41,8 km/h (6 Bft) 93,33 %
07.04.2018 20:46 12,6 C 8,9 C 63 % 1013,4 hPa 0,0 l/m 29,1 km/h (5 Bft) O 84 0 min 0,000 mm 0,0 UV-I 0 W/m 5,7 C 4,5 C 37,0 km/h (5 Bft) 100,00 %
07.04.2018 20:47 12,5 C 8,9 C 63 % 1013,4 hPa 0,0 l/m 29,9 km/h (5 Bft) O-NO 61 0 min 0,000 mm 0,0 UV-I 0 W/m 5,7 C 4,2 C 40,2 km/h (6 Bft) 95,65 %
07.04.2018 20:48 12,5 C 8,9 C 63 % 1013,3 hPa 0,0 l/m 30,0 km/h (5 Bft) O-NO 76 0 min 0,000 mm 0,0 UV-I 0 W/m 5,7 C 4,2 C 37,0 km/h (5 Bft) 100,00 %
07.04.2018 20:49 12,4 C 8,9 C 63 % 1013,3 hPa 0,0 l/m 32,7 km/h (5 Bft) O-NO 71 0 min 0,000 mm 0,0 UV-I 0 W/m 5,6 C 3,5 C 40,2 km/h (6 Bft) 95,65 %
07.04.2018 20:50 12,4 C 8,9 C 63 % 1013,4 hPa 0,0 l/m 28,2 km/h (4 Bft) O 84 0 min 0,000 mm 0,0 UV-I 0 W/m 5,6 C 4,4 C 33,8 km/h (5 Bft) 96,67 %
07.04.2018 20:51 12,4 C 8,9 C 63 % 1013,3 hPa 0,0 l/m 34,2 km/h (5 Bft) O-SO 113 0 min 0,000 mm 0,0 UV-I 0 W/m 5,6 C 3,3 C 45,1 km/h (6 Bft) 100,00 %
07.04.2018 20:52 12,4 C 8,9 C 63 % 1013,4 hPa 0,0 l/m 28,9 km/h (5 Bft) O 84 0 min 0,000 mm 0,0 UV-I 0 W/m 5,6 C 4,2 C 38,6 km/h (5 Bft) 96,67 %
07.04.2018 20:53 12,3 C 8,9 C 64 % 1013,3 hPa 0,0 l/m 28,3 km/h (4 Bft) NO 53 0 min 0,000 mm 0,0 UV-I 0 W/m 5,7 C 4,2 C 38,6 km/h (5 Bft) 100,00 %
07.04.2018 20:54 12,3 C 8,9 C 64 % 1013,3 hPa 0,0 l/m 28,4 km/h (4 Bft) O 92 0 min 0,000 mm 0,0 UV-I 0 W/m 5,7 C 4,2 C 35,4 km/h (5 Bft) 93,33 %
07.04.2018 20:55 12,2 C 8,9 C 64 % 1013,3 hPa 0,0 l/m 25,4 km/h (4 Bft) O 82 0 min 0,000 mm 0,0 UV-I 0 W/m 5,6 C 4,7 C 29,0 km/h (5 Bft) 100,00 %
07.04.2018 20:56 12,2 C 8,9 C 64 % 1013,2 hPa 0,0 l/m 33,5 km/h (5 Bft) O 93 0 min 0,000 mm 0,0 UV-I 0 W/m 5,6 C 3,1 C 48,3 km/h (6 Bft) 95,83 %
07.04.2018 20:57 12,2 C 8,9 C 64 % 1013,2 hPa 0,0 l/m 37,2 km/h (5 Bft) O 96 0 min 0,000 mm 0,0 UV-I 0 W/m 5,6 C 2,5 C 45,1 km/h (6 Bft) 100,00 %
07.04.2018 20:58 12,2 C 8,9 C 65 % 1013,2 hPa 0,0 l/m 26,2 km/h (4 Bft) O 98 0 min 0,000 mm 0,0 UV-I 0 W/m 5,8 C 4,5 C 32,2 km/h (5 Bft) 95,83 %
07.04.2018 20:59 12,1 C 8,9 C 65 % 1013,2 hPa 0,0 l/m 33,0 km/h (5 Bft) O-SO 113 0 min 0,000 mm 0,0 UV-I 0 W/m 5,7 C 3,1 C 45,1 km/h (6 Bft) 100,00 %
07.04.2018 21:00 12,1 C 8,9 C 65 % 1013,3 hPa 0,0 l/m 32,5 km/h (5 Bft) O-NO 77 0 min 0,127 mm 0,0 UV-I 0 W/m 5,7 C 3,1 C 43,5 km/h (6 Bft) 97,56 %
07.04.2018 21:01 12,1 C 8,9 C 65 % 1013,3 hPa 0,0 l/m 33,8 km/h (5 Bft) O 92 0 min 0,000 mm 0,0 UV-I 0 W/m 5,7 C 2,9 C 45,1 km/h (6 Bft) 100,00 %
07.04.2018 21:02 12,1 C 8,9 C 65 % 1013,2 hPa 0,0 l/m 31,0 km/h (5 Bft) O-SO 110 0 min 0,000 mm 0,0 UV-I 0 W/m 5,7 C 3,4 C 46,7 km/h (6 Bft) 96,88 %
07.04.2018 21:03 12,0 C 8,9 C 65 % 1013,3 hPa 0,0 l/m 30,9 km/h (5 Bft) O 93 0 min 0,000 mm 0,0 UV-I 0 W/m 5,6 C 3,3 C 41,8 km/h (6 Bft) 96,15 %
07.04.2018 21:04 12,0 C 8,9 C 65 % 1013,3 hPa 0,0 l/m 33,6 km/h (5 Bft) O-SO 110 0 min 0,000 mm 0,0 UV-I 0 W/m 5,6 C 2,8 C 43,5 km/h (6 Bft) 100,00 %
07.04.2018 21:05 12,0 C 8,9 C 65 % 1013,3 hPa 0,0 l/m 31,5 km/h (5 Bft) NO 49 0 min 0,000 mm 0,0 UV-I 0 W/m 5,6 C 3,2 C 38,6 km/h (5 Bft) 100,00 %
07.04.2018 21:06 12,0 C 8,9 C 65 % 1013,4 hPa 0,0 l/m 31,2 km/h (5 Bft) O 80 0 min 0,000 mm 0,0 UV-I 0 W/m 5,6 C 3,2 C 38,6 km/h (5 Bft) 100,00 %
07.04.2018 21:07 12,0 C 8,9 C 65 % 1013,4 hPa 0,0 l/m 30,6 km/h (5 Bft) O-NO 65 0 min 0,000 mm 0,0 UV-I 0 W/m 5,6 C 3,4 C 41,8 km/h (6 Bft) 100,00 %
07.04.2018 21:08 11,9 C 8,9 C 65 % 1013,4 hPa 0,0 l/m 31,2 km/h (5 Bft) O 84 0 min 0,000 mm 0,0 UV-I 0 W/m 5,5 C 3,1 C 38,6 km/h (5 Bft) 100,00 %
07.04.2018 21:09 11,9 C 8,9 C 66 % 1013,5 hPa 0,0 l/m 33,6 km/h (5 Bft) O-NO 70 0 min 0,000 mm 0,0 UV-I 0 W/m 5,8 C 2,7 C 43,5 km/h (6 Bft) 100,00 %
07.04.2018 21:10 11,8 C 8,9 C 66 % 1013,5 hPa 0,0 l/m 31,8 km/h (5 Bft) O-NO 65 0 min 0,000 mm 0,0 UV-I 0 W/m 5,7 C 2,8 C 41,8 km/h (6 Bft) 100,00 %
07.04.2018 21:11 11,8 C 8,9 C 66 % 1013,4 hPa 0,0 l/m 30,7 km/h (5 Bft) O-NO 74 0 min 0,000 mm 0,0 UV-I 0 W/m 5,7 C 3,1 C 40,2 km/h (6 Bft) 100,00 %
07.04.2018 21:12 11,8 C 8,9 C 66 % 1013,4 hPa 0,0 l/m 26,8 km/h (4 Bft) O-NO 65 0 min 0,000 mm 0,0 UV-I 0 W/m 5,7 C 3,9 C 38,6 km/h (5 Bft) 100,00 %
07.04.2018 21:13 11,8 C 8,9 C 66 % 1013,5 hPa 0,0 l/m 33,3 km/h (5 Bft) O 86 0 min 0,000 mm 0,0 UV-I 0 W/m 5,7 C 2,6 C 46,7 km/h (6 Bft) 100,00 %
07.04.2018 21:14 11,8 C 8,9 C 66 % 1013,5 hPa 0,0 l/m 32,0 km/h (5 Bft) O-NO 68 0 min 0,000 mm 0,0 UV-I 0 W/m 5,7 C 2,8 C 43,5 km/h (6 Bft) 95,65 %
07.04.2018 21:15 11,8 C 8,9 C 66 % 1013,5 hPa 0,0 l/m 31,6 km/h (5 Bft) O 95 0 min 0,000 mm 0,0 UV-I 0 W/m 5,7 C 2,9 C 41,8 km/h (6 Bft) 100,00 %
07.04.2018 21:16 11,7 C 8,9 C 66 % 1013,5 hPa 0,0 l/m 32,3 km/h (5 Bft) O 81 0 min 0,000 mm 0,0 UV-I 0 W/m 5,6 C 2,6 C 37,0 km/h (5 Bft) 100,00 %
07.04.2018 21:18 11,7 C 8,9 C 66 % 1013,5 hPa 0,0 l/m 32,6 km/h (5 Bft) O-NO 71 0 min 0,000 mm 0,0 UV-I 0 W/m 5,6 C 2,6 C 43,5 km/h (6 Bft) 100,00 %
07.04.2018 21:19 11,7 C 8,9 C 66 % 1013,5 hPa 0,0 l/m 32,3 km/h (5 Bft) O 86 0 min 0,000 mm 0,0 UV-I 0 W/m 5,6 C 2,6 C 43,5 km/h (6 Bft) 100,00 %
07.04.2018 21:20 11,7 C 8,9 C 66 % 1013,5 hPa 0,0 l/m 37,1 km/h (5 Bft) O 79 0 min 0,000 mm 0,0 UV-I 0 W/m 5,6 C 1,8 C 48,3 km/h (6 Bft) 100,00 %
07.04.2018 21:21 11,7 C 8,9 C 67 % 1013,6 hPa 0,0 l/m 33,1 km/h (5 Bft) O-NO 60 0 min 0,000 mm 0,0 UV-I 0 W/m 5,8 C 2,5 C 40,2 km/h (6 Bft) 100,00 %
07.04.2018 21:22 11,7 C 8,9 C 67 % 1013,5 hPa 0,0 l/m 34,1 km/h (5 Bft) NO 56 0 min 0,000 mm 0,0 UV-I 0 W/m 5,8 C 2,3 C 41,8 km/h (6 Bft) 98,05 %
07.04.2018 21:23 11,6 C 8,9 C 67 % 1013,5 hPa 0,0 l/m 31,4 km/h (5 Bft) O-NO 65 0 min 0,000 mm 0,0 UV-I 0 W/m 5,7 C 2,6 C 40,2 km/h (6 Bft) 100,00 %
07.04.2018 21:24 11,6 C 8,9 C 67 % 1013,6 hPa 0,0 l/m 33,3 km/h (5 Bft) O-NO 66 0 min 0,000 mm 0,0 UV-I 0 W/m 5,7 C 2,3 C 38,6 km/h (5 Bft) 96,15 %
07.04.2018 21:25 11,6 C 8,9 C 67 % 1013,6 hPa 0,0 l/m 34,3 km/h (5 Bft) O-NO 65 0 min 0,000 mm 0,0 UV-I 0 W/m 5,7 C 2,1 C 40,2 km/h (6 Bft) 96,30 %
07.04.2018 21:26 11,6 C 8,9 C 67 % 1013,5 hPa 0,0 l/m 28,7 km/h (4 Bft) O-NO 66 0 min 0,000 mm 0,0 UV-I 0 W/m 5,7 C 3,2 C 40,2 km/h (6 Bft) 100,00 %
07.04.2018 21:27 11,5 C 8,9 C 67 % 1013,5 hPa 0,0 l/m 31,6 km/h (5 Bft) O-NO 65 0 min 0,000 mm 0,0 UV-I 0 W/m 5,6 C 2,5 C 40,2 km/h (6 Bft) 95,65 %
07.04.2018 21:28 11,4 C 8,9 C 67 % 1013,6 hPa 0,0 l/m 31,1 km/h (5 Bft) O 80 0 min 0,000 mm 0,0 UV-I 0 W/m 5,5 C 2,4 C 43,5 km/h (6 Bft) 95,83 %
07.04.2018 21:29 11,4 C 8,9 C 67 % 1013,6 hPa 0,0 l/m 28,4 km/h (4 Bft) O 86 0 min 0,000 mm 0,0 UV-I 0 W/m 5,5 C 3,0 C 33,8 km/h (5 Bft) 92,86 %
07.04.2018 21:30 11,4 C 8,9 C 67 % 1013,6 hPa 0,0 l/m 29,9 km/h (5 Bft) O 84 0 min 0,000 mm 0,0 UV-I 0 W/m 5,5 C 2,6 C 37,0 km/h (5 Bft) 100,00 %
07.04.2018 21:31 11,4 C 8,9 C 68 % 1013,6 hPa 0,0 l/m 32,8 km/h (5 Bft) O-NO 65 0 min 0,000 mm 0,0 UV-I 0 W/m 5,7 C 2,1 C 43,5 km/h (6 Bft) 96,15 %
07.04.2018 21:33 11,3 C 8,9 C 68 % 1013,5 hPa 0,0 l/m 30,8 km/h (5 Bft) O 88 0 min 0,000 mm 0,0 UV-I 0 W/m 5,6 C 2,3 C 41,8 km/h (6 Bft) 97,56 %
07.04.2018 21:34 11,3 C 8,9 C 68 % 1013,5 hPa 0,0 l/m 39,8 km/h (6 Bft) O 98 0 min 0,000 mm 0,0 UV-I 0 W/m 5,6 C 0,8 C 48,3 km/h (6 Bft) 90,00 %
07.04.2018 21:35 11,3 C 8,9 C 68 % 1013,6 hPa 0,0 l/m 32,7 km/h (5 Bft) O-NO 72 0 min 0,000 mm 0,0 UV-I 0 W/m 5,6 C 2,0 C 41,8 km/h (6 Bft) 100,00 %
07.04.2018 21:36 11,3 C 8,9 C 68 % 1013,6 hPa 0,0 l/m 27,4 km/h (4 Bft) O 82 0 min 0,000 mm 0,0 UV-I 0 W/m 5,6 C 3,0 C 35,4 km/h (5 Bft) 93,33 %
07.04.2018 21:38 11,2 C 8,9 C 68 % 1013,6 hPa 0,0 l/m 27,4 km/h (4 Bft) O-NO 72 0 min 0,000 mm 0,0 UV-I 0 W/m 5,5 C 2,9 C 35,4 km/h (5 Bft) 97,73 %
07.04.2018 21:39 11,2 C 8,9 C 69 % 1013,6 hPa 0,0 l/m 30,0 km/h (5 Bft) O-NO 75 0 min 0,000 mm 0,0 UV-I 0 W/m 5,7 C 2,3 C 38,6 km/h (5 Bft) 100,00 %
07.04.2018 21:40 11,1 C 8,9 C 69 % 1013,6 hPa 0,0 l/m 27,9 km/h (4 Bft) O 81 0 min 0,000 mm 0,0 UV-I 0 W/m 5,6 C 2,6 C 48,3 km/h (6 Bft) 93,33 %
07.04.2018 21:41 11,1 C 8,9 C 69 % 1013,5 hPa 0,0 l/m 30,7 km/h (5 Bft) O-NO 74 0 min 0,000 mm 0,0 UV-I 0 W/m 5,6 C 2,1 C 41,8 km/h (6 Bft) 100,00 %
07.04.2018 21:42 11,1 C 8,9 C 69 % 1013,6 hPa 0,0 l/m 29,9 km/h (5 Bft) O 95 0 min 0,000 mm 0,0 UV-I 0 W/m 5,6 C 2,2 C 35,4 km/h (5 Bft) 95,83 %
07.04.2018 21:43 11,1 C 8,9 C 69 % 1013,6 hPa 0,0 l/m 27,6 km/h (4 Bft) O 92 0 min 0,000 mm 0,0 UV-I 0 W/m 5,6 C 2,7 C 35,4 km/h (5 Bft) 96,15 %
07.04.2018 21:44 11,0 C 8,9 C 69 % 1013,6 hPa 0,0 l/m 29,9 km/h (5 Bft) O-NO 71 0 min 0,000 mm 0,0 UV-I 0 W/m 5,5 C 2,1 C 41,8 km/h (6 Bft) 100,00 %
07.04.2018 21:45 11,0 C 8,9 C 69 % 1013,6 hPa 0,0 l/m 30,9 km/h (5 Bft) O-NO 78 0 min 0,000 mm 0,0 UV-I 0 W/m 5,5 C 1,9 C 38,6 km/h (5 Bft) 93,33 %
07.04.2018 21:46 11,0 C 8,9 C 69 % 1013,6 hPa 0,0 l/m 27,6 km/h (4 Bft) O-NO 76 0 min 0,000 mm 0,0 UV-I 0 W/m 5,5 C 2,6 C 32,2 km/h (5 Bft) 97,73 %
07.04.2018 21:48 10,9 C 8,9 C 69 % 1013,7 hPa 0,0 l/m 29,0 km/h (5 Bft) O 97 0 min 0,000 mm 0,0 UV-I 0 W/m 5,4 C 2,1 C 38,6 km/h (5 Bft) 97,56 %
07.04.2018 21:49 10,9 C 8,9 C 69 % 1013,7 hPa 0,0 l/m 31,9 km/h (5 Bft) O 88 0 min 0,000 mm 0,0 UV-I 0 W/m 5,4 C 1,5 C 45,1 km/h (6 Bft) 95,83 %
07.04.2018 21:50 10,9 C 8,9 C 69 % 1013,7 hPa 0,0 l/m 32,3 km/h (5 Bft) O 79 0 min 0,000 mm 0,0 UV-I 0 W/m 5,4 C 1,5 C 43,5 km/h (6 Bft) 100,00 %
07.04.2018 21:51 10,9 C 8,9 C 69 % 1013,6 hPa 0,0 l/m 29,1 km/h (5 Bft) SO 135 0 min 0,000 mm 0,0 UV-I 0 W/m 5,4 C 2,1 C 38,6 km/h (5 Bft) 95,83 %
07.04.2018 21:53 10,8 C 8,9 C 70 % 1013,7 hPa 0,0 l/m 21,7 km/h (4 Bft) O 85 0 min 0,000 mm 0,0 UV-I 0 W/m 5,6 C 3,8 C 29,0 km/h (5 Bft) 98,11 %
07.04.2018 21:54 10,7 C 8,9 C 70 % 1013,7 hPa 0,0 l/m 22,8 km/h (4 Bft) O 89 0 min 0,000 mm 0,0 UV-I 0 W/m 5,5 C 3,4 C 30,6 km/h (5 Bft) 100,00 %
07.04.2018 21:55 10,7 C 8,9 C 70 % 1013,8 hPa 0,0 l/m 22,0 km/h (4 Bft) O-NO 77 0 min 0,000 mm 0,0 UV-I 0 W/m 5,5 C 3,6 C 27,4 km/h (4 Bft) 95,83 %
07.04.2018 21:56 10,7 C 8,9 C 71 % 1013,8 hPa 0,0 l/m 28,0 km/h (4 Bft) O-NO 69 0 min 0,000 mm 0,0 UV-I 0 W/m 5,7 C 2,1 C 37,0 km/h (5 Bft) 95,65 %
07.04.2018 21:57 10,7 C 8,9 C 71 % 1013,7 hPa 0,0 l/m 27,4 km/h (4 Bft) O-NO 76 0 min 0,000 mm 0,0 UV-I 0 W/m 5,7 C 2,2 C 32,2 km/h (5 Bft) 100,00 %
07.04.2018 21:58 10,6 C 8,9 C 71 % 1013,7 hPa 0,0 l/m 21,9 km/h (4 Bft) O-NO 74 0 min 0,000 mm 0,0 UV-I 0 W/m 5,6 C 3,5 C 30,6 km/h (5 Bft) 96,15 %
07.04.2018 21:59 10,6 C 8,9 C 71 % 1013,7 hPa 0,0 l/m 25,4 km/h (4 Bft) O 82 0 min 0,000 mm 0,0 UV-I 0 W/m 5,6 C 2,5 C 29,0 km/h (5 Bft) 100,00 %
07.04.2018 22:00 10,6 C 8,9 C 71 % 1013,6 hPa 0,0 l/m 22,8 km/h (4 Bft) O-NO 57 0 min 0,102 mm 0,0 UV-I 0 W/m 5,6 C 3,2 C 33,8 km/h (5 Bft) 100,00 %
07.04.2018 22:01 10,5 C 8,9 C 71 % 1013,7 hPa 0,0 l/m 33,1 km/h (5 Bft) O-NO 70 0 min 0,000 mm 0,0 UV-I 0 W/m 5,5 C 0,8 C 43,5 km/h (6 Bft) 100,00 %
07.04.2018 22:02 10,6 C 8,9 C 71 % 1013,6 hPa 0,0 l/m 30,4 km/h (5 Bft) O 80 0 min 0,000 mm 0,0 UV-I 0 W/m 5,6 C 1,4 C 41,8 km/h (6 Bft) 100,00 %
07.04.2018 22:03 10,6 C 8,9 C 71 % 1013,6 hPa 0,0 l/m 30,0 km/h (5 Bft) O-SO 104 0 min 0,000 mm 0,0 UV-I 0 W/m 5,6 C 1,5 C 38,6 km/h (5 Bft) 96,55 %
07.04.2018 22:04 10,6 C 8,9 C 71 % 1013,6 hPa 0,0 l/m 26,4 km/h (4 Bft) O 90 0 min 0,000 mm 0,0 UV-I 0 W/m 5,6 C 2,3 C 32,2 km/h (5 Bft) 100,00 %
07.04.2018 22:05 10,5 C 8,9 C 71 % 1013,6 hPa 0,0 l/m 23,9 km/h (4 Bft) O 83 0 min 0,000 mm 0,0 UV-I 0 W/m 5,5 C 2,8 C 32,2 km/h (5 Bft) 95,65 %
07.04.2018 22:06 10,5 C 8,9 C 71 % 1013,6 hPa 0,0 l/m 25,4 km/h (4 Bft) O 82 0 min 0,000 mm 0,0 UV-I 0 W/m 5,5 C 2,4 C 32,2 km/h (5 Bft) 100,00 %
07.04.2018 22:07 10,4 C 8,9 C 71 % 1013,6 hPa 0,0 l/m 26,5 km/h (4 Bft) O 96 0 min 0,000 mm 0,0 UV-I 0 W/m 5,4 C 2,0 C 33,8 km/h (5 Bft) 100,00 %
07.04.2018 22:08 10,4 C 8,9 C 71 % 1013,6 hPa 0,0 l/m 26,4 km/h (4 Bft) O 95 0 min 0,000 mm 0,0 UV-I 0 W/m 5,4 C 2,0 C 33,8 km/h (5 Bft) 100,00 %
07.04.2018 22:09 10,4 C 8,9 C 71 % 1013,6 hPa 0,0 l/m 24,1 km/h (4 Bft) O 98 0 min 0,000 mm 0,0 UV-I 0 W/m 5,4 C 2,6 C 32,2 km/h (5 Bft) 100,00 %
07.04.2018 22:10 10,4 C 8,9 C 71 % 1013,6 hPa 0,0 l/m 21,9 km/h (4 Bft) O 94 0 min 0,000 mm 0,0 UV-I 0 W/m 5,4 C 3,2 C 30,6 km/h (5 Bft) 100,00 %
07.04.2018 22:11 10,3 C 8,9 C 71 % 1013,6 hPa 0,0 l/m 24,0 km/h (4 Bft) O-NO 78 0 min 0,000 mm 0,0 UV-I 0 W/m 5,3 C 2,5 C 33,8 km/h (5 Bft) 100,00 %
07.04.2018 22:12 10,3 C 8,9 C 71 % 1013,6 hPa 0,0 l/m 26,8 km/h (4 Bft) O 80 0 min 0,000 mm 0,0 UV-I 0 W/m 5,3 C 1,8 C 32,2 km/h (5 Bft) 96,30 %
07.04.2018 22:13 10,3 C 8,9 C 71 % 1013,6 hPa 0,0 l/m 29,1 km/h (5 Bft) O-NO 76 0 min 0,000 mm 0,0 UV-I 0 W/m 5,3 C 1,3 C 41,8 km/h (6 Bft) 92,31 %
07.04.2018 22:14 10,3 C 8,9 C 72 % 1013,6 hPa 0,0 l/m 28,7 km/h (4 Bft) O 82 0 min 0,000 mm 0,0 UV-I 0 W/m 5,5 C 1,4 C 40,2 km/h (6 Bft) 100,00 %
07.04.2018 22:15 10,3 C 8,9 C 72 % 1013,6 hPa 0,0 l/m 28,0 km/h (4 Bft) SO 129 0 min 0,000 mm 0,0 UV-I 0 W/m 5,5 C 1,5 C 37,0 km/h (5 Bft) 100,00 %
07.04.2018 22:16 10,3 C 8,9 C 72 % 1013,7 hPa 0,0 l/m 25,4 km/h (4 Bft) O 97 0 min 0,000 mm 0,0 UV-I 0 W/m 5,5 C 2,1 C 32,2 km/h (5 Bft) 100,00 %
07.04.2018 22:17 10,2 C 8,9 C 72 % 1013,7 hPa 0,0 l/m 27,5 km/h (4 Bft) O-NO 78 0 min 0,000 mm 0,0 UV-I 0 W/m 5,4 C 1,5 C 35,4 km/h (5 Bft) 100,00 %
07.04.2018 22:18 10,2 C 8,9 C 72 % 1013,7 hPa 0,0 l/m 27,4 km/h (4 Bft) O-NO 67 0 min 0,000 mm 0,0 UV-I 0 W/m 5,4 C 1,5 C 33,8 km/h (5 Bft) 100,00 %
07.04.2018 22:19 10,2 C 8,9 C 72 % 1013,7 hPa 0,0 l/m 24,2 km/h (4 Bft) O-NO 67 0 min 0,000 mm 0,0 UV-I 0 W/m 5,4 C 2,3 C 30,6 km/h (5 Bft) 100,00 %
07.04.2018 22:20 10,2 C 8,9 C 72 % 1013,6 hPa 0,0 l/m 26,0 km/h (4 Bft) O-NO 69 0 min 0,000 mm 0,0 UV-I 0 W/m 5,4 C 1,9 C 33,8 km/h (5 Bft) 100,00 %
07.04.2018 22:21 10,1 C 8,9 C 72 % 1013,6 hPa 0,0 l/m 23,3 km/h (4 Bft) NO 55 0 min 0,000 mm 0,0 UV-I 0 W/m 5,3 C 2,4 C 29,0 km/h (5 Bft) 100,00 %
07.04.2018 22:22 10,1 C 8,9 C 72 % 1013,6 hPa 0,0 l/m 25,3 km/h (4 Bft) O 88 0 min 0,000 mm 0,0 UV-I 0 W/m 5,3 C 1,9 C 38,6 km/h (5 Bft) 100,00 %
07.04.2018 22:23 10,1 C 8,9 C 72 % 1013,7 hPa 0,0 l/m 26,6 km/h (4 Bft) O 99 0 min 0,000 mm 0,0 UV-I 0 W/m 5,3 C 1,6 C 40,2 km/h (6 Bft) 100,00 %
07.04.2018 22:24 10,1 C 8,9 C 72 % 1013,6 hPa 0,0 l/m 32,2 km/h (5 Bft) O 95 0 min 0,000 mm 0,0 UV-I 0 W/m 5,3 C 0,4 C 38,6 km/h (5 Bft) 100,00 %
07.04.2018 22:25 10,1 C 8,9 C 72 % 1013,6 hPa 0,0 l/m 31,9 km/h (5 Bft) O 88 0 min 0,000 mm 0,0 UV-I 0 W/m 5,3 C 0,4 C 37,0 km/h (5 Bft) 100,00 %
07.04.2018 22:26 10,1 C 8,9 C 72 % 1013,6 hPa 0,0 l/m 28,0 km/h (4 Bft) O 80 0 min 0,000 mm 0,0 UV-I 0 W/m 5,3 C 1,2 C 43,5 km/h (6 Bft) 100,00 %
07.04.2018 22:27 10,1 C 8,9 C 72 % 1013,6 hPa 0,0 l/m 26,2 km/h (4 Bft) O 88 0 min 0,000 mm 0,0 UV-I 0 W/m 5,3 C 1,7 C 35,4 km/h (5 Bft) 100,00 %
07.04.2018 22:28 10,1 C 8,9 C 72 % 1013,6 hPa 0,0 l/m 26,0 km/h (4 Bft) O-NO 65 0 min 0,000 mm 0,0 UV-I 0 W/m 5,3 C 1,7 C 30,6 km/h (5 Bft) 96,55 %
07.04.2018 22:29 10,0 C 8,9 C 73 % 1013,6 hPa 0,0 l/m 25,1 km/h (4 Bft) O 90 0 min 0,000 mm 0,0 UV-I 0 W/m 5,4 C 1,8 C 33,8 km/h (5 Bft) 100,00 %
07.04.2018 22:30 10,0 C 8,9 C 73 % 1013,6 hPa 0,0 l/m 30,7 km/h (5 Bft) O 93 0 min 0,000 mm 0,0 UV-I 0 W/m 5,4 C 0,5 C 37,0 km/h (5 Bft) 100,00 %
07.04.2018 22:31 9,9 C 8,9 C 73 % 1013,6 hPa 0,0 l/m 24,1 km/h (4 Bft) O-NO 61 0 min 0,000 mm 0,0 UV-I 0 W/m 5,3 C 1,9 C 30,6 km/h (5 Bft) 100,00 %
07.04.2018 22:32 9,9 C 8,9 C 73 % 1013,6 hPa 0,0 l/m 23,6 km/h (4 Bft) O-SO 108 0 min 0,000 mm 0,0 UV-I 0 W/m 5,3 C 2,1 C 29,0 km/h (5 Bft) 95,65 %
07.04.2018 22:33 9,9 C 8,9 C 73 % 1013,7 hPa 0,0 l/m 23,9 km/h (4 Bft) O-NO 74 0 min 0,000 mm 0,0 UV-I 0 W/m 5,3 C 2,0 C 29,0 km/h (5 Bft) 100,00 %
07.04.2018 22:34 9,8 C 8,9 C 73 % 1013,7 hPa 0,0 l/m 23,5 km/h (4 Bft) O-NO 71 0 min 0,000 mm 0,0 UV-I 0 W/m 5,2 C 2,0 C 32,2 km/h (5 Bft) 100,00 %
07.04.2018 22:35 9,8 C 8,9 C 73 % 1013,8 hPa 0,0 l/m 23,8 km/h (4 Bft) O-NO 65 0 min 0,000 mm 0,0 UV-I 0 W/m 5,2 C 1,9 C 27,4 km/h (4 Bft) 100,00 %
07.04.2018 22:36 9,8 C 8,9 C 74 % 1013,6 hPa 0,0 l/m 24,6 km/h (4 Bft) O 80 0 min 0,000 mm 0,0 UV-I 0 W/m 5,4 C 1,7 C 32,2 km/h (5 Bft) 100,00 %
07.04.2018 22:38 9,7 C 8,9 C 74 % 1013,7 hPa 0,0 l/m 26,4 km/h (4 Bft) O-NO 69 0 min 0,000 mm 0,0 UV-I 0 W/m 5,3 C 1,1 C 38,6 km/h (5 Bft) 100,00 %
07.04.2018 22:39 9,7 C 8,9 C 74 % 1013,7 hPa 0,0 l/m 26,7 km/h (4 Bft) O-NO 73 0 min 0,000 mm 0,0 UV-I 0 W/m 5,3 C 1,0 C 37,0 km/h (5 Bft) 100,00 %
07.04.2018 22:40 9,7 C 8,9 C 74 % 1013,6 hPa 0,0 l/m 26,0 km/h (4 Bft) O 84 0 min 0,000 mm 0,0 UV-I 0 W/m 5,3 C 1,2 C 33,8 km/h (5 Bft) 96,30 %
07.04.2018 22:41 9,7 C 8,9 C 74 % 1013,6 hPa 0,0 l/m 28,1 km/h (4 Bft) O-NO 78 0 min 0,000 mm 0,0 UV-I 0 W/m 5,3 C 0,7 C 38,6 km/h (5 Bft) 100,00 %
07.04.2018 22:43 9,7 C 8,9 C 74 % 1013,6 hPa 0,0 l/m 28,1 km/h (4 Bft) O-NO 67 0 min 0,000 mm 0,0 UV-I 0 W/m 5,3 C 0,7 C 43,5 km/h (6 Bft) 100,00 %
07.04.2018 22:44 9,7 C 8,9 C 74 % 1013,6 hPa 0,0 l/m 26,8 km/h (4 Bft) O 89 0 min 0,000 mm 0,0 UV-I 0 W/m 5,3 C 1,0 C 35,4 km/h (5 Bft) 100,00 %
07.04.2018 22:45 9,8 C 8,9 C 74 % 1013,6 hPa 0,0 l/m 30,6 km/h (5 Bft) O-NO 75 0 min 0,000 mm 0,0 UV-I 0 W/m 5,4 C 0,2 C 37,0 km/h (5 Bft) 100,00 %
07.04.2018 22:46 9,7 C 8,9 C 74 % 1013,6 hPa 0,0 l/m 26,8 km/h (4 Bft) O 97 0 min 0,000 mm 0,0 UV-I 0 W/m 5,3 C 1,0 C 35,4 km/h (5 Bft) 100,00 %
07.04.2018 22:47 9,7 C 8,9 C 74 % 1013,6 hPa 0,0 l/m 27,8 km/h (4 Bft) O-NO 62 0 min 0,000 mm 0,0 UV-I 0 W/m 5,3 C 0,7 C 37,0 km/h (5 Bft) 100,00 %
07.04.2018 22:48 9,7 C 8,9 C 74 % 1013,7 hPa 0,0 l/m 28,0 km/h (4 Bft) O-NO 69 0 min 0,000 mm 0,0 UV-I 0 W/m 5,3 C 0,7 C 37,0 km/h (5 Bft) 100,00 %
07.04.2018 22:49 9,7 C 8,9 C 74 % 1013,5 hPa 0,0 l/m 29,2 km/h (5 Bft) O 94 0 min 0,000 mm 0,0 UV-I 0 W/m 5,3 C 0,4 C 41,8 km/h (6 Bft) 100,00 %
07.04.2018 22:50 9,7 C 8,9 C 74 % 1013,8 hPa 0,0 l/m 31,8 km/h (5 Bft) NO 55 0 min 0,000 mm 0,0 UV-I 0 W/m 5,3 C -0,1 C 41,8 km/h (6 Bft) 100,00 %
07.04.2018 22:51 9,7 C 8,9 C 74 % 1013,5 hPa 0,0 l/m 30,7 km/h (5 Bft) O-NO 74 0 min 0,000 mm 0,0 UV-I 0 W/m 5,3 C 0,1 C 37,0 km/h (5 Bft) 100,00 %
07.04.2018 22:52 9,7 C 8,9 C 74 % 1013,5 hPa 0,0 l/m 26,5 km/h (4 Bft) O 80 0 min 0,000 mm 0,0 UV-I 0 W/m 5,3 C 1,0 C 32,2 km/h (5 Bft) 100,00 %
07.04.2018 22:53 9,7 C 8,9 C 74 % 1013,5 hPa 0,0 l/m 27,6 km/h (4 Bft) O 82 0 min 0,000 mm 0,0 UV-I 0 W/m 5,3 C 0,8 C 35,4 km/h (5 Bft) 100,00 %
07.04.2018 22:54 9,6 C 8,9 C 74 % 1013,5 hPa 0,0 l/m 22,9 km/h (4 Bft) O-NO 69 0 min 0,000 mm 0,0 UV-I 0 W/m 5,2 C 1,9 C 32,2 km/h (5 Bft) 100,00 %
07.04.2018 22:55 9,6 C 8,9 C 74 % 1013,5 hPa 0,0 l/m 23,7 km/h (4 Bft) O 84 0 min 0,000 mm 0,0 UV-I 0 W/m 5,2 C 1,6 C 30,6 km/h (5 Bft) 96,30 %
07.04.2018 22:56 9,6 C 8,9 C 75 % 1013,6 hPa 0,0 l/m 26,3 km/h (4 Bft) O-NO 66 0 min 0,000 mm 0,0 UV-I 0 W/m 5,4 C 1,0 C 30,6 km/h (5 Bft) 100,00 %
07.04.2018 22:57 9,6 C 8,9 C 75 % 1013,5 hPa 0,0 l/m 32,2 km/h (5 Bft) O-SO 103 0 min 0,000 mm 0,0 UV-I 0 W/m 5,4 C -0,4 C 40,2 km/h (6 Bft) 100,00 %
07.04.2018 22:58 9,5 C 8,9 C 75 % 1013,5 hPa 0,0 l/m 29,6 km/h (5 Bft) O 87 0 min 0,000 mm 0,0 UV-I 0 W/m 5,3 C 0,0 C 33,8 km/h (5 Bft) 100,00 %
07.04.2018 22:59 9,5 C 8,9 C 75 % 1013,6 hPa 0,0 l/m 27,9 km/h (4 Bft) O-NO 69 0 min 0,000 mm 0,0 UV-I 0 W/m 5,3 C 0,4 C 33,8 km/h (5 Bft) 96,67 %
07.04.2018 23:00 9,5 C 8,9 C 75 % 1013,5 hPa 0,0 l/m 24,6 km/h (4 Bft) O 86 0 min 0,000 mm 0,0 UV-I 0 W/m 5,3 C 1,3 C 29,0 km/h (5 Bft) 100,00 %
07.04.2018 23:01 9,5 C 8,9 C 75 % 1013,5 hPa 0,0 l/m 25,2 km/h (4 Bft) O-NO 72 0 min 0,076 mm 0,0 UV-I 0 W/m 5,3 C 1,1 C 30,6 km/h (5 Bft) 96,67 %
07.04.2018 23:02 9,4 C 8,9 C 75 % 1013,5 hPa 0,0 l/m 30,3 km/h (5 Bft) O-NO 73 0 min 0,000 mm 0,0 UV-I 0 W/m 5,2 C -0,3 C 37,0 km/h (5 Bft) 100,00 %
07.04.2018 23:03 9,4 C 8,9 C 75 % 1013,6 hPa 0,0 l/m 34,2 km/h (5 Bft) O-NO 78 0 min 0,000 mm 0,0 UV-I 0 W/m 5,2 C -1,0 C 43,5 km/h (6 Bft) 96,30 %
07.04.2018 23:04 9,4 C 8,9 C 75 % 1013,5 hPa 0,0 l/m 32,2 km/h (5 Bft) O-NO 57 0 min 0,000 mm 0,0 UV-I 0 W/m 5,2 C -0,6 C 37,0 km/h (5 Bft) 100,00 %
07.04.2018 23:05 9,4 C 8,9 C 75 % 1013,5 hPa 0,0 l/m 29,9 km/h (5 Bft) O 92 0 min 0,000 mm 0,0 UV-I 0 W/m 5,2 C -0,2 C 33,8 km/h (5 Bft) 100,00 %
07.04.2018 23:06 9,4 C 8,9 C 75 % 1013,4 hPa 0,0 l/m 27,6 km/h (4 Bft) O-NO 66 0 min 0,000 mm 0,0 UV-I 0 W/m 5,2 C 0,4 C 35,4 km/h (5 Bft) 100,00 %
07.04.2018 23:07 9,4 C 8,9 C 75 % 1013,3 hPa 0,0 l/m 29,5 km/h (5 Bft) O-NO 68 0 min 0,000 mm 0,0 UV-I 0 W/m 5,2 C -0,1 C 38,6 km/h (5 Bft) 100,00 %
07.04.2018 23:08 9,4 C 8,9 C 75 % 1013,4 hPa 0,0 l/m 28,9 km/h (5 Bft) O-NO 59 0 min 0,000 mm 0,0 UV-I 0 W/m 5,2 C 0,1 C 33,8 km/h (5 Bft) 100,00 %
07.04.2018 23:09 9,3 C 8,9 C 75 % 1013,4 hPa 0,0 l/m 30,7 km/h (5 Bft) O-NO 71 0 min 0,000 mm 0,0 UV-I 0 W/m 5,1 C -0,5 C 40,2 km/h (6 Bft) 100,00 %
07.04.2018 23:10 9,3 C 8,9 C 75 % 1013,5 hPa 0,0 l/m 28,4 km/h (4 Bft) O-NO 67 0 min 0,000 mm 0,0 UV-I 0 W/m 5,1 C 0,0 C 37,0 km/h (5 Bft) 100,00 %
07.04.2018 23:11 9,3 C 8,9 C 76 % 1013,4 hPa 0,0 l/m 27,9 km/h (4 Bft) O-NO 71 0 min 0,000 mm 0,0 UV-I 0 W/m 5,3 C 0,2 C 33,8 km/h (5 Bft) 100,00 %
07.04.2018 23:13 9,3 C 8,9 C 76 % 1013,4 hPa 0,0 l/m 29,6 km/h (5 Bft) O-NO 66 0 min 0,000 mm 0,0 UV-I 0 W/m 5,3 C -0,2 C 38,6 km/h (5 Bft) 97,56 %
07.04.2018 23:14 9,3 C 8,9 C 76 % 1013,2 hPa 0,0 l/m 33,0 km/h (5 Bft) O-NO 76 0 min 0,000 mm 0,0 UV-I 0 W/m 5,3 C -0,9 C 40,2 km/h (6 Bft) 100,00 %
07.04.2018 23:15 9,3 C 8,9 C 76 % 1013,4 hPa 0,0 l/m 35,2 km/h (5 Bft) O-NO 69 0 min 0,000 mm 0,0 UV-I 0 W/m 5,3 C -1,4 C 49,9 km/h (6 Bft) 100,00 %
07.04.2018 23:16 9,3 C 8,9 C 76 % 1013,3 hPa 0,0 l/m 24,7 km/h (4 Bft) O 93 0 min 0,000 mm 0,0 UV-I 0 W/m 5,3 C 1,0 C 27,4 km/h (4 Bft) 100,00 %
07.04.2018 23:17 9,3 C 8,9 C 76 % 1013,3 hPa 0,0 l/m 31,7 km/h (5 Bft) O-NO 73 0 min 0,000 mm 0,0 UV-I 0 W/m 5,3 C -0,7 C 41,8 km/h (6 Bft) 96,88 %
07.04.2018 23:18 9,3 C 8,9 C 76 % 1013,2 hPa 0,0 l/m 29,6 km/h (5 Bft) O-NO 63 0 min 0,000 mm 0,0 UV-I 0 W/m 5,3 C -0,2 C 37,0 km/h (5 Bft) 100,00 %
07.04.2018 23:19 9,3 C 8,9 C 76 % 1013,2 hPa 0,0 l/m 30,5 km/h (5 Bft) O 90 0 min 0,000 mm 0,0 UV-I 0 W/m 5,3 C -0,4 C 38,6 km/h (5 Bft) 100,00 %
07.04.2018 23:20 9,3 C 8,9 C 76 % 1013,2 hPa 0,0 l/m 28,1 km/h (4 Bft) O-NO 66 0 min 0,000 mm 0,0 UV-I 0 W/m 5,3 C 0,1 C 37,0 km/h (5 Bft) 100,00 %
07.04.2018 23:21 9,3 C 8,9 C 76 % 1013,2 hPa 0,0 l/m 30,6 km/h (5 Bft) O-NO 72 0 min 0,000 mm 0,0 UV-I 0 W/m 5,3 C -0,5 C 38,6 km/h (5 Bft) 100,00 %
07.04.2018 23:22 9,3 C 8,9 C 76 % 1013,3 hPa 0,0 l/m 38,1 km/h (5 Bft) O-NO 70 0 min 0,000 mm 0,0 UV-I 0 W/m 5,3 C -1,9 C 43,5 km/h (6 Bft) 100,00 %
07.04.2018 23:23 9,3 C 8,9 C 76 % 1013,3 hPa 0,0 l/m 35,5 km/h (5 Bft) O-NO 75 0 min 0,000 mm 0,0 UV-I 0 W/m 5,3 C -1,4 C 45,1 km/h (6 Bft) 100,00 %
07.04.2018 23:24 9,2 C 8,9 C 76 % 1013,0 hPa 0,0 l/m 30,2 km/h (5 Bft) NO 39 0 min 0,000 mm 0,0 UV-I 0 W/m 5,2 C -0,5 C 38,6 km/h (5 Bft) 100,00 %
07.04.2018 23:25 9,2 C 8,9 C 76 % 1013,0 hPa 0,0 l/m 28,3 km/h (4 Bft) NO 46 0 min 0,000 mm 0,0 UV-I 0 W/m 5,2 C -0,1 C 38,6 km/h (5 Bft) 96,55 %
07.04.2018 23:26 9,2 C 8,9 C 76 % 1013,0 hPa 0,0 l/m 30,8 km/h (5 Bft) O-NO 75 0 min 0,000 mm 0,0 UV-I 0 W/m 5,2 C -0,6 C 40,2 km/h (6 Bft) 96,30 %
07.04.2018 23:27 9,2 C 8,9 C 76 % 1013,0 hPa 0,0 l/m 26,8 km/h (4 Bft) O 80 0 min 0,000 mm 0,0 UV-I 0 W/m 5,2 C 0,3 C 32,2 km/h (5 Bft) 100,00 %
07.04.2018 23:28 9,2 C 8,9 C 76 % 1013,0 hPa 0,0 l/m 28,0 km/h (4 Bft) O 89 0 min 0,000 mm 0,0 UV-I 0 W/m 5,2 C -0,0 C 32,2 km/h (5 Bft) 93,33 %
07.04.2018 23:29 9,2 C 8,9 C 76 % 1013,0 hPa 0,0 l/m 30,7 km/h (5 Bft) NO 51 0 min 0,000 mm 0,0 UV-I 0 W/m 5,2 C -0,6 C 33,8 km/h (5 Bft) 96,55 %
07.04.2018 23:30 9,2 C 8,9 C 76 % 1013,0 hPa 0,0 l/m 28,3 km/h (4 Bft) O-NO 61 0 min 0,000 mm 0,0 UV-I 0 W/m 5,2 C -0,1 C 35,4 km/h (5 Bft) 100,00 %
07.04.2018 23:31 9,2 C 8,9 C 77 % 1013,0 hPa 0,0 l/m 35,6 km/h (5 Bft) O-NO 76 0 min 0,000 mm 0,0 UV-I 0 W/m 5,4 C -1,6 C 43,5 km/h (6 Bft) 95,65 %
07.04.2018 23:32 9,2 C 8,9 C 77 % 1013,0 hPa 0,0 l/m 31,6 km/h (5 Bft) O-NO 67 0 min 0,000 mm 0,0 UV-I 0 W/m 5,4 C -0,8 C 40,2 km/h (6 Bft) 100,00 %
07.04.2018 23:33 9,2 C 8,9 C 76 % 1013,0 hPa 0,0 l/m 27,7 km/h (4 Bft) O-NO 71 0 min 0,000 mm 0,0 UV-I 0 W/m 5,2 C 0,1 C 33,8 km/h (5 Bft) 93,33 %
07.04.2018 23:34 9,1 C 8,9 C 77 % 1013,0 hPa 0,0 l/m 27,3 km/h (4 Bft) O-NO 71 0 min 0,000 mm 0,0 UV-I 0 W/m 5,3 C 0,0 C 32,2 km/h (5 Bft) 100,00 %
07.04.2018 23:35 9,1 C 8,9 C 77 % 1013,0 hPa 0,0 l/m 27,6 km/h (4 Bft) O 85 0 min 0,000 mm 0,0 UV-I 0 W/m 5,3 C -0,1 C 35,4 km/h (5 Bft) 95,83 %
07.04.2018 23:36 9,1 C 8,9 C 77 % 1013,0 hPa 0,0 l/m 29,7 km/h (5 Bft) O 84 0 min 0,000 mm 0,0 UV-I 0 W/m 5,3 C -0,5 C 35,4 km/h (5 Bft) 96,55 %
07.04.2018 23:37 9,1 C 8,9 C 77 % 1013,0 hPa 0,0 l/m 30,0 km/h (5 Bft) O-NO 57 0 min 0,000 mm 0,0 UV-I 0 W/m 5,3 C -0,6 C 35,4 km/h (5 Bft) 100,00 %
07.04.2018 23:38 9,1 C 8,9 C 77 % 1012,9 hPa 0,0 l/m 25,9 km/h (4 Bft) O-NO 76 0 min 0,000 mm 0,0 UV-I 0 W/m 5,3 C 0,4 C 33,8 km/h (5 Bft) 100,00 %
07.04.2018 23:39 9,1 C 8,9 C 77 % 1013,0 hPa 0,0 l/m 24,8 km/h (4 Bft) O-NO 68 0 min 0,000 mm 0,0 UV-I 0 W/m 5,3 C 0,7 C 32,2 km/h (5 Bft) 96,30 %
07.04.2018 23:40 9,0 C 8,9 C 77 % 1013,0 hPa 0,0 l/m 25,9 km/h (4 Bft) O-SO 107 0 min 0,000 mm 0,0 UV-I 0 W/m 5,2 C 0,2 C 32,2 km/h (5 Bft) 96,15 %
07.04.2018 23:41 9,0 C 8,9 C 77 % 1013,0 hPa 0,0 l/m 24,9 km/h (4 Bft) O-NO 73 0 min 0,000 mm 0,0 UV-I 0 W/m 5,2 C 0,5 C 30,6 km/h (5 Bft) 100,00 %
07.04.2018 23:42 9,0 C 8,9 C 77 % 1012,9 hPa 0,0 l/m 31,1 km/h (5 Bft) O-NO 67 0 min 0,000 mm 0,0 UV-I 0 W/m 5,2 C -1,0 C 38,6 km/h (5 Bft) 96,55 %
07.04.2018 23:43 8,9 C 8,9 C 77 % 1012,9 hPa 0,0 l/m 24,9 km/h (4 Bft) O-NO 78 0 min 0,000 mm 0,0 UV-I 0 W/m 5,1 C 0,4 C 33,8 km/h (5 Bft) 100,00 %
07.04.2018 23:44 8,9 C 8,9 C 77 % 1012,9 hPa 0,0 l/m 24,7 km/h (4 Bft) O-SO 112 0 min 0,000 mm 0,0 UV-I 0 W/m 5,1 C 0,4 C 30,6 km/h (5 Bft) 95,65 %
07.04.2018 23:45 8,9 C 8,9 C 77 % 1013,0 hPa 0,0 l/m 25,3 km/h (4 Bft) O 94 0 min 0,000 mm 0,0 UV-I 0 W/m 5,1 C 0,3 C 35,4 km/h (5 Bft) 95,83 %
07.04.2018 23:46 8,9 C 8,9 C 78 % 1012,9 hPa 0,0 l/m 30,8 km/h (5 Bft) O 90 0 min 0,000 mm 0,0 UV-I 0 W/m 5,3 C -1,1 C 35,4 km/h (5 Bft) 98,15 %
07.04.2018 23:47 8,9 C 8,9 C 78 % 1012,9 hPa 0,0 l/m 28,1 km/h (4 Bft) O-NO 75 0 min 0,000 mm 0,0 UV-I 0 W/m 5,3 C -0,5 C 35,4 km/h (5 Bft) 100,00 %
07.04.2018 23:48 8,9 C 8,9 C 78 % 1012,9 hPa 0,0 l/m 24,5 km/h (4 Bft) O 101 0 min 0,000 mm 0,0 UV-I 0 W/m 5,3 C 0,5 C 37,0 km/h (5 Bft) 92,31 %
07.04.2018 23:49 8,9 C 8,9 C 78 % 1013,0 hPa 0,0 l/m 23,8 km/h (4 Bft) O-NO 65 0 min 0,000 mm 0,0 UV-I 0 W/m 5,3 C 0,7 C 32,2 km/h (5 Bft) 95,83 %
07.04.2018 23:50 8,9 C 8,9 C 78 % 1012,9 hPa 0,0 l/m 27,2 km/h (4 Bft) O 88 0 min 0,000 mm 0,0 UV-I 0 W/m 5,3 C -0,2 C 40,2 km/h (6 Bft) 100,00 %
07.04.2018 23:51 8,9 C 8,9 C 78 % 1013,0 hPa 0,0 l/m 23,4 km/h (4 Bft) NO 53 0 min 0,000 mm 0,0 UV-I 0 W/m 5,3 C 0,8 C 27,4 km/h (4 Bft) 93,33 %
07.04.2018 23:52 8,8 C 8,9 C 78 % 1012,9 hPa 0,0 l/m 27,8 km/h (4 Bft) O 92 0 min 0,000 mm 0,0 UV-I 0 W/m 5,2 C -0,5 C 32,2 km/h (5 Bft) 100,00 %
07.04.2018 23:53 8,8 C 8,9 C 78 % 1012,9 hPa 0,0 l/m 29,2 km/h (5 Bft) O-SO 108 0 min 0,000 mm 0,0 UV-I 0 W/m 5,2 C -0,8 C 37,0 km/h (5 Bft) 96,88 %
07.04.2018 23:54 8,8 C 8,9 C 78 % 1012,9 hPa 0,0 l/m 29,4 km/h (5 Bft) O-NO 65 0 min 0,000 mm 0,0 UV-I 0 W/m 5,2 C -0,9 C 37,0 km/h (5 Bft) 95,65 %
07.04.2018 23:55 8,8 C 8,9 C 78 % 1012,9 hPa 0,0 l/m 25,3 km/h (4 Bft) O-NO 65 0 min 0,000 mm 0,0 UV-I 0 W/m 5,2 C 0,1 C 33,8 km/h (5 Bft) 100,00 %
07.04.2018 23:56 8,8 C 8,9 C 78 % 1012,9 hPa 0,0 l/m 24,3 km/h (4 Bft) O-SO 107 0 min 0,000 mm 0,0 UV-I 0 W/m 5,2 C 0,4 C 30,6 km/h (5 Bft) 96,30 %
07.04.2018 23:57 8,8 C 8,9 C 78 % 1012,9 hPa 0,0 l/m 23,0 km/h (4 Bft) O 83 0 min 0,000 mm 0,0 UV-I 0 W/m 5,2 C 0,8 C 29,0 km/h (5 Bft) 96,15 %
07.04.2018 23:58 8,8 C 8,9 C 78 % 1012,9 hPa 0,0 l/m 21,5 km/h (4 Bft) O 88 0 min 0,000 mm 0,0 UV-I 0 W/m 5,2 C 1,2 C 29,0 km/h (5 Bft) 96,55 %
_ Min-Zeit 06:46 00:00 16:28 17:28 - 11:00 - - - - - - 06:42 05:36 07:23 00:03
Minimum _ 3,9 C 8,3 C 36 % 1012,7 hPa - 9,1 km/h (2 Bft) - - - - - - -1,4 C -7,8 C 12,9 km/h (3 Bft) 9,09 %
_ Max-Zeit 16:19 00:06 23:46 00:00 00:00 18:34 - - 13:11 14:00 13:05 13:26 17:30 16:17 18:33 00:00
Maximum _ 19,7 C 8,9 C 78 % 1019,4 hPa 0,0 l/m 40,6 km/h
O-NO (6 Bft)
- - 6 min 0,559 mm 3,3 UV-I 802 W/m 7,0 C 16,3 C 54,7 km/h
O (7 Bft)
100,00 %
Durchschnitt _ 10,8 C 8,9 C 59 % 1015,4 hPa #0,0 l/m 23,4 km/h (4 Bft) O - #12:36 h #5,537 mm 2,0 UV-I 433 W/m 2,9 C 3,7 C 30,5 km/h (5 Bft) 97,87 %